<?xml version="1.0" encoding="UTF-8" standalone="no" ?>
<gpx xmlns="http://www.topografix.com/GPX/1/1" xmlns:xsi="http://www.w3.org/2001/XMLSchema-instance" xsi:schemaLocation="http://www.topografix.com/GPX/1/1 http://www.topografix.com/GPX/1/1/gpx.xsd" version="1.1" creator="VisuGPX - https://www.visugpx.com">
  <metadata>
    <name>TCL-3ème Boucle</name>
    <desc><![CDATA[Trail de la Cote des Lumières 2025

3ème boucle permettant de réaliser le 24 kms]]></desc>
  </metadata>
  <trk>
    <name><![CDATA[24 YG_2025-01-17_17-50-25]]></name>
    <extensions>
      <line xmlns="http://www.topografix.com/GPX/gpx_style/0/2">
        <color>0000FF</color>
        <width>4</width>
      </line>
    </extensions>
    <trkseg>
      <trkpt lat="46.7249" lon="-1.97748">
        <ele>5.6</ele>
        <time>2025-01-17T16:50:26.550Z</time>
      </trkpt>
      <trkpt lat="46.7249" lon="-1.97748">
        <ele>5.6</ele>
        <time>2025-01-17T16:50:27.551Z</time>
      </trkpt>
      <trkpt lat="46.7249" lon="-1.97754">
        <ele>5.6</ele>
        <time>2025-01-17T16:50:28.550Z</time>
      </trkpt>
      <trkpt lat="46.72496" lon="-1.9775">
        <ele>5.8</ele>
        <time>2025-01-17T16:50:29.550Z</time>
      </trkpt>
      <trkpt lat="46.72501" lon="-1.9775">
        <ele>6</ele>
        <time>2025-01-17T16:50:30.551Z</time>
      </trkpt>
      <trkpt lat="46.72505" lon="-1.97748">
        <ele>6</ele>
        <time>2025-01-17T16:50:31.551Z</time>
      </trkpt>
      <trkpt lat="46.72508" lon="-1.97745">
        <ele>6</ele>
        <time>2025-01-17T16:50:32.551Z</time>
      </trkpt>
      <trkpt lat="46.7251" lon="-1.97734">
        <ele>6</ele>
        <time>2025-01-17T16:50:33.551Z</time>
      </trkpt>
      <trkpt lat="46.72515" lon="-1.97729">
        <ele>6</ele>
        <time>2025-01-17T16:50:34.550Z</time>
      </trkpt>
      <trkpt lat="46.72521" lon="-1.97724">
        <ele>6</ele>
        <time>2025-01-17T16:50:35.550Z</time>
      </trkpt>
      <trkpt lat="46.7252" lon="-1.97732">
        <ele>6</ele>
      </trkpt>
      <trkpt lat="46.7252" lon="-1.97739">
        <ele>6</ele>
        <time>2025-01-17T16:50:36.551Z</time>
      </trkpt>
      <trkpt lat="46.7252" lon="-1.97741">
        <ele>6</ele>
        <time>2025-01-17T16:50:37.550Z</time>
      </trkpt>
      <trkpt lat="46.72521" lon="-1.97742">
        <ele>6</ele>
        <time>2025-01-17T16:50:38.550Z</time>
      </trkpt>
      <trkpt lat="46.72523" lon="-1.97747">
        <ele>6</ele>
        <time>2025-01-17T16:50:39.550Z</time>
      </trkpt>
      <trkpt lat="46.72521" lon="-1.97756">
        <ele>5.8</ele>
        <time>2025-01-17T16:50:40.550Z</time>
      </trkpt>
      <trkpt lat="46.7252" lon="-1.97764">
        <ele>5.7</ele>
        <time>2025-01-17T16:50:41.550Z</time>
      </trkpt>
      <trkpt lat="46.72519" lon="-1.97772">
        <ele>5.4</ele>
        <time>2025-01-17T16:50:42.551Z</time>
      </trkpt>
      <trkpt lat="46.7252" lon="-1.97777">
        <ele>5.3</ele>
        <time>2025-01-17T16:50:43.551Z</time>
      </trkpt>
      <trkpt lat="46.7252" lon="-1.97781">
        <ele>5.3</ele>
        <time>2025-01-17T16:50:44.551Z</time>
      </trkpt>
      <trkpt lat="46.72521" lon="-1.97785">
        <ele>5.2</ele>
        <time>2025-01-17T16:50:45.551Z</time>
      </trkpt>
      <trkpt lat="46.72522" lon="-1.97787">
        <ele>5.2</ele>
        <time>2025-01-17T16:50:46.551Z</time>
      </trkpt>
      <trkpt lat="46.72523" lon="-1.97788">
        <ele>5.2</ele>
        <time>2025-01-17T16:50:47.551Z</time>
      </trkpt>
      <trkpt lat="46.72525" lon="-1.97791">
        <ele>5.1</ele>
        <time>2025-01-17T16:50:48.550Z</time>
      </trkpt>
      <trkpt lat="46.72528" lon="-1.97792">
        <ele>5</ele>
        <time>2025-01-17T16:50:49.550Z</time>
      </trkpt>
      <trkpt lat="46.7253" lon="-1.97793">
        <ele>5</ele>
        <time>2025-01-17T16:50:50.550Z</time>
      </trkpt>
      <trkpt lat="46.72532" lon="-1.97795">
        <ele>5</ele>
        <time>2025-01-17T16:50:51.550Z</time>
      </trkpt>
      <trkpt lat="46.72533" lon="-1.97797">
        <ele>5</ele>
        <time>2025-01-17T16:50:52.550Z</time>
      </trkpt>
      <trkpt lat="46.72535" lon="-1.97799">
        <ele>5</ele>
        <time>2025-01-17T16:50:53.550Z</time>
      </trkpt>
      <trkpt lat="46.72537" lon="-1.97799">
        <ele>5</ele>
        <time>2025-01-17T16:50:54.551Z</time>
      </trkpt>
      <trkpt lat="46.7254" lon="-1.97799">
        <ele>5</ele>
        <time>2025-01-17T16:50:55.550Z</time>
      </trkpt>
      <trkpt lat="46.72544" lon="-1.978">
        <ele>5</ele>
        <time>2025-01-17T16:50:56.550Z</time>
      </trkpt>
      <trkpt lat="46.72546" lon="-1.97801">
        <ele>5</ele>
        <time>2025-01-17T16:50:57.550Z</time>
      </trkpt>
      <trkpt lat="46.72549" lon="-1.97801">
        <ele>5</ele>
        <time>2025-01-17T16:50:58.551Z</time>
      </trkpt>
      <trkpt lat="46.72553" lon="-1.97802">
        <ele>5</ele>
        <time>2025-01-17T16:50:59.551Z</time>
      </trkpt>
      <trkpt lat="46.72557" lon="-1.97804">
        <ele>5</ele>
        <time>2025-01-17T16:51:00.551Z</time>
      </trkpt>
      <trkpt lat="46.72561" lon="-1.97805">
        <ele>5</ele>
        <time>2025-01-17T16:51:01.551Z</time>
      </trkpt>
      <trkpt lat="46.72564" lon="-1.97805">
        <ele>5</ele>
        <time>2025-01-17T16:51:02.551Z</time>
      </trkpt>
      <trkpt lat="46.72566" lon="-1.97804">
        <ele>5</ele>
        <time>2025-01-17T16:51:03.550Z</time>
      </trkpt>
      <trkpt lat="46.72568" lon="-1.97802">
        <ele>5</ele>
        <time>2025-01-17T16:51:04.550Z</time>
      </trkpt>
      <trkpt lat="46.72571" lon="-1.97802">
        <ele>5</ele>
        <time>2025-01-17T16:51:05.550Z</time>
      </trkpt>
      <trkpt lat="46.72574" lon="-1.97801">
        <ele>5</ele>
        <time>2025-01-17T16:51:06.550Z</time>
      </trkpt>
      <trkpt lat="46.72577" lon="-1.97801">
        <ele>5</ele>
        <time>2025-01-17T16:51:07.550Z</time>
      </trkpt>
      <trkpt lat="46.7258" lon="-1.97802">
        <ele>5</ele>
        <time>2025-01-17T16:51:08.550Z</time>
      </trkpt>
      <trkpt lat="46.72583" lon="-1.97802">
        <ele>5</ele>
        <time>2025-01-17T16:51:09.551Z</time>
      </trkpt>
      <trkpt lat="46.72587" lon="-1.97801">
        <ele>5.1</ele>
        <time>2025-01-17T16:51:10.550Z</time>
      </trkpt>
      <trkpt lat="46.72589" lon="-1.97799">
        <ele>5.2</ele>
        <time>2025-01-17T16:51:11.551Z</time>
      </trkpt>
      <trkpt lat="46.72592" lon="-1.97797">
        <ele>5.2</ele>
        <time>2025-01-17T16:51:12.551Z</time>
      </trkpt>
      <trkpt lat="46.72594" lon="-1.97795">
        <ele>5.2</ele>
        <time>2025-01-17T16:51:13.551Z</time>
      </trkpt>
      <trkpt lat="46.72596" lon="-1.97793">
        <ele>5.3</ele>
        <time>2025-01-17T16:51:14.551Z</time>
      </trkpt>
      <trkpt lat="46.72599" lon="-1.9779">
        <ele>5.2</ele>
        <time>2025-01-17T16:51:15.550Z</time>
      </trkpt>
      <trkpt lat="46.72601" lon="-1.97789">
        <ele>5.2</ele>
        <time>2025-01-17T16:51:16.550Z</time>
      </trkpt>
      <trkpt lat="46.72602" lon="-1.97788">
        <ele>5.2</ele>
        <time>2025-01-17T16:51:17.550Z</time>
      </trkpt>
      <trkpt lat="46.72605" lon="-1.97785">
        <ele>5.2</ele>
        <time>2025-01-17T16:51:18.550Z</time>
      </trkpt>
      <trkpt lat="46.72607" lon="-1.97781">
        <ele>5.1</ele>
        <time>2025-01-17T16:51:19.551Z</time>
      </trkpt>
      <trkpt lat="46.72609" lon="-1.97778">
        <ele>5</ele>
        <time>2025-01-17T16:51:20.550Z</time>
      </trkpt>
      <trkpt lat="46.72612" lon="-1.97776">
        <ele>5</ele>
        <time>2025-01-17T16:51:21.550Z</time>
      </trkpt>
      <trkpt lat="46.72615" lon="-1.97774">
        <ele>5</ele>
        <time>2025-01-17T16:51:22.550Z</time>
      </trkpt>
      <trkpt lat="46.72617" lon="-1.97771">
        <ele>5</ele>
        <time>2025-01-17T16:51:23.550Z</time>
      </trkpt>
      <trkpt lat="46.7262" lon="-1.97769">
        <ele>5</ele>
        <time>2025-01-17T16:51:24.550Z</time>
      </trkpt>
      <trkpt lat="46.72622" lon="-1.97768">
        <ele>5</ele>
        <time>2025-01-17T16:51:25.551Z</time>
      </trkpt>
      <trkpt lat="46.72623" lon="-1.97765">
        <ele>5</ele>
        <time>2025-01-17T16:51:26.551Z</time>
      </trkpt>
      <trkpt lat="46.72625" lon="-1.97761">
        <ele>5</ele>
        <time>2025-01-17T16:51:27.551Z</time>
      </trkpt>
      <trkpt lat="46.72626" lon="-1.97759">
        <ele>5</ele>
        <time>2025-01-17T16:51:28.550Z</time>
      </trkpt>
      <trkpt lat="46.72628" lon="-1.97757">
        <ele>5</ele>
        <time>2025-01-17T16:51:29.551Z</time>
      </trkpt>
      <trkpt lat="46.7263" lon="-1.97754">
        <ele>5</ele>
        <time>2025-01-17T16:51:30.551Z</time>
      </trkpt>
      <trkpt lat="46.72632" lon="-1.9775">
        <ele>5</ele>
        <time>2025-01-17T16:51:31.550Z</time>
      </trkpt>
      <trkpt lat="46.72633" lon="-1.97748">
        <ele>5</ele>
        <time>2025-01-17T16:51:32.550Z</time>
      </trkpt>
      <trkpt lat="46.72634" lon="-1.97747">
        <ele>5</ele>
        <time>2025-01-17T16:51:33.550Z</time>
      </trkpt>
      <trkpt lat="46.72636" lon="-1.97745">
        <ele>5</ele>
        <time>2025-01-17T16:51:34.550Z</time>
      </trkpt>
      <trkpt lat="46.72638" lon="-1.97744">
        <ele>5</ele>
        <time>2025-01-17T16:51:35.550Z</time>
      </trkpt>
      <trkpt lat="46.72641" lon="-1.97743">
        <ele>5</ele>
        <time>2025-01-17T16:51:36.551Z</time>
      </trkpt>
      <trkpt lat="46.72643" lon="-1.97742">
        <ele>5</ele>
        <time>2025-01-17T16:51:37.551Z</time>
      </trkpt>
      <trkpt lat="46.72645" lon="-1.97742">
        <ele>5</ele>
        <time>2025-01-17T16:51:38.551Z</time>
      </trkpt>
      <trkpt lat="46.72647" lon="-1.97742">
        <ele>5</ele>
        <time>2025-01-17T16:51:39.551Z</time>
      </trkpt>
      <trkpt lat="46.72649" lon="-1.97742">
        <ele>5</ele>
        <time>2025-01-17T16:51:40.551Z</time>
      </trkpt>
      <trkpt lat="46.72651" lon="-1.97742">
        <ele>5</ele>
        <time>2025-01-17T16:51:41.551Z</time>
      </trkpt>
      <trkpt lat="46.72655" lon="-1.97744">
        <ele>5</ele>
        <time>2025-01-17T16:51:42.550Z</time>
      </trkpt>
      <trkpt lat="46.72657" lon="-1.97746">
        <ele>5</ele>
        <time>2025-01-17T16:51:43.550Z</time>
      </trkpt>
      <trkpt lat="46.72658" lon="-1.97748">
        <ele>5</ele>
        <time>2025-01-17T16:51:44.550Z</time>
      </trkpt>
      <trkpt lat="46.7266" lon="-1.97749">
        <ele>5</ele>
        <time>2025-01-17T16:51:45.551Z</time>
      </trkpt>
      <trkpt lat="46.72663" lon="-1.97751">
        <ele>5</ele>
        <time>2025-01-17T16:51:46.550Z</time>
      </trkpt>
      <trkpt lat="46.72667" lon="-1.97754">
        <ele>5</ele>
        <time>2025-01-17T16:51:47.551Z</time>
      </trkpt>
      <trkpt lat="46.7267" lon="-1.97756">
        <ele>5</ele>
        <time>2025-01-17T16:51:48.550Z</time>
      </trkpt>
      <trkpt lat="46.72673" lon="-1.9776">
        <ele>5</ele>
        <time>2025-01-17T16:51:49.551Z</time>
      </trkpt>
      <trkpt lat="46.72675" lon="-1.97762">
        <ele>5</ele>
        <time>2025-01-17T16:51:50.551Z</time>
      </trkpt>
      <trkpt lat="46.72677" lon="-1.97763">
        <ele>5</ele>
        <time>2025-01-17T16:51:51.550Z</time>
      </trkpt>
      <trkpt lat="46.72678" lon="-1.97765">
        <ele>5</ele>
        <time>2025-01-17T16:51:52.551Z</time>
      </trkpt>
      <trkpt lat="46.72681" lon="-1.97766">
        <ele>5</ele>
        <time>2025-01-17T16:51:53.551Z</time>
      </trkpt>
      <trkpt lat="46.72683" lon="-1.97767">
        <ele>5</ele>
        <time>2025-01-17T16:51:54.551Z</time>
      </trkpt>
      <trkpt lat="46.72685" lon="-1.97769">
        <ele>5</ele>
        <time>2025-01-17T16:51:55.550Z</time>
      </trkpt>
      <trkpt lat="46.72688" lon="-1.97771">
        <ele>5</ele>
        <time>2025-01-17T16:51:56.550Z</time>
      </trkpt>
      <trkpt lat="46.7269" lon="-1.97772">
        <ele>5</ele>
        <time>2025-01-17T16:51:57.550Z</time>
      </trkpt>
      <trkpt lat="46.72692" lon="-1.97774">
        <ele>5</ele>
        <time>2025-01-17T16:51:58.550Z</time>
      </trkpt>
      <trkpt lat="46.72694" lon="-1.97775">
        <ele>5</ele>
        <time>2025-01-17T16:51:59.550Z</time>
      </trkpt>
      <trkpt lat="46.72696" lon="-1.97776">
        <ele>5</ele>
        <time>2025-01-17T16:52:00.551Z</time>
      </trkpt>
      <trkpt lat="46.72698" lon="-1.97778">
        <ele>5</ele>
        <time>2025-01-17T16:52:01.551Z</time>
      </trkpt>
      <trkpt lat="46.727" lon="-1.9778">
        <ele>4.9</ele>
        <time>2025-01-17T16:52:02.551Z</time>
      </trkpt>
      <trkpt lat="46.72702" lon="-1.97782">
        <ele>4.9</ele>
        <time>2025-01-17T16:52:03.551Z</time>
      </trkpt>
      <trkpt lat="46.72703" lon="-1.97784">
        <ele>4.9</ele>
        <time>2025-01-17T16:52:04.550Z</time>
      </trkpt>
      <trkpt lat="46.72705" lon="-1.97785">
        <ele>4.8</ele>
        <time>2025-01-17T16:52:05.550Z</time>
      </trkpt>
      <trkpt lat="46.72706" lon="-1.97787">
        <ele>4.8</ele>
        <time>2025-01-17T16:52:06.550Z</time>
      </trkpt>
      <trkpt lat="46.72708" lon="-1.97791">
        <ele>4.8</ele>
        <time>2025-01-17T16:52:07.550Z</time>
      </trkpt>
      <trkpt lat="46.72711" lon="-1.97796">
        <ele>4.7</ele>
        <time>2025-01-17T16:52:08.550Z</time>
      </trkpt>
      <trkpt lat="46.72713" lon="-1.97798">
        <ele>4.8</ele>
        <time>2025-01-17T16:52:09.550Z</time>
      </trkpt>
      <trkpt lat="46.72716" lon="-1.97801">
        <ele>4.8</ele>
        <time>2025-01-17T16:52:10.550Z</time>
      </trkpt>
      <trkpt lat="46.72718" lon="-1.97803">
        <ele>4.8</ele>
        <time>2025-01-17T16:52:11.550Z</time>
      </trkpt>
      <trkpt lat="46.7272" lon="-1.97805">
        <ele>4.9</ele>
        <time>2025-01-17T16:52:12.550Z</time>
      </trkpt>
      <trkpt lat="46.72721" lon="-1.97808">
        <ele>4.9</ele>
        <time>2025-01-17T16:52:13.550Z</time>
      </trkpt>
      <trkpt lat="46.72723" lon="-1.9781">
        <ele>4.9</ele>
        <time>2025-01-17T16:52:14.550Z</time>
      </trkpt>
      <trkpt lat="46.72725" lon="-1.97812">
        <ele>4.8</ele>
        <time>2025-01-17T16:52:15.550Z</time>
      </trkpt>
      <trkpt lat="46.72726" lon="-1.97814">
        <ele>4.7</ele>
        <time>2025-01-17T16:52:16.550Z</time>
      </trkpt>
      <trkpt lat="46.72727" lon="-1.97815">
        <ele>4.7</ele>
        <time>2025-01-17T16:52:17.550Z</time>
      </trkpt>
      <trkpt lat="46.72728" lon="-1.97818">
        <ele>4.7</ele>
        <time>2025-01-17T16:52:18.550Z</time>
      </trkpt>
      <trkpt lat="46.7273" lon="-1.97821">
        <ele>4.6</ele>
        <time>2025-01-17T16:52:19.550Z</time>
      </trkpt>
      <trkpt lat="46.72731" lon="-1.97822">
        <ele>4.6</ele>
        <time>2025-01-17T16:52:20.550Z</time>
      </trkpt>
      <trkpt lat="46.72733" lon="-1.97825">
        <ele>4.6</ele>
        <time>2025-01-17T16:52:21.550Z</time>
      </trkpt>
      <trkpt lat="46.72735" lon="-1.97826">
        <ele>4.6</ele>
        <time>2025-01-17T16:52:22.550Z</time>
      </trkpt>
      <trkpt lat="46.72736" lon="-1.97828">
        <ele>4.6</ele>
        <time>2025-01-17T16:52:23.551Z</time>
      </trkpt>
      <trkpt lat="46.72739" lon="-1.97831">
        <ele>4.6</ele>
        <time>2025-01-17T16:52:24.551Z</time>
      </trkpt>
      <trkpt lat="46.72741" lon="-1.97834">
        <ele>4.7</ele>
        <time>2025-01-17T16:52:25.550Z</time>
      </trkpt>
      <trkpt lat="46.72743" lon="-1.97837">
        <ele>4.7</ele>
        <time>2025-01-17T16:52:26.551Z</time>
      </trkpt>
      <trkpt lat="46.72744" lon="-1.97839">
        <ele>4.7</ele>
        <time>2025-01-17T16:52:27.550Z</time>
      </trkpt>
      <trkpt lat="46.72746" lon="-1.9784">
        <ele>4.7</ele>
        <time>2025-01-17T16:52:28.550Z</time>
      </trkpt>
      <trkpt lat="46.72747" lon="-1.97842">
        <ele>4.6</ele>
        <time>2025-01-17T16:52:29.550Z</time>
      </trkpt>
      <trkpt lat="46.72748" lon="-1.97845">
        <ele>4.6</ele>
        <time>2025-01-17T16:52:30.550Z</time>
      </trkpt>
      <trkpt lat="46.7275" lon="-1.97848">
        <ele>4.5</ele>
        <time>2025-01-17T16:52:31.551Z</time>
      </trkpt>
      <trkpt lat="46.72751" lon="-1.9785">
        <ele>4.4</ele>
        <time>2025-01-17T16:52:32.550Z</time>
      </trkpt>
      <trkpt lat="46.72753" lon="-1.97853">
        <ele>4.4</ele>
        <time>2025-01-17T16:52:33.550Z</time>
      </trkpt>
      <trkpt lat="46.72755" lon="-1.97855">
        <ele>4.4</ele>
        <time>2025-01-17T16:52:34.550Z</time>
      </trkpt>
      <trkpt lat="46.72757" lon="-1.97858">
        <ele>4.3</ele>
        <time>2025-01-17T16:52:35.550Z</time>
      </trkpt>
      <trkpt lat="46.72759" lon="-1.9786">
        <ele>4.3</ele>
        <time>2025-01-17T16:52:36.551Z</time>
      </trkpt>
      <trkpt lat="46.7276" lon="-1.97864">
        <ele>4.4</ele>
        <time>2025-01-17T16:52:37.550Z</time>
      </trkpt>
      <trkpt lat="46.72761" lon="-1.97868">
        <ele>4.5</ele>
        <time>2025-01-17T16:52:38.550Z</time>
      </trkpt>
      <trkpt lat="46.72763" lon="-1.97871">
        <ele>4.6</ele>
        <time>2025-01-17T16:52:39.550Z</time>
      </trkpt>
      <trkpt lat="46.72764" lon="-1.97875">
        <ele>4.8</ele>
        <time>2025-01-17T16:52:40.550Z</time>
      </trkpt>
      <trkpt lat="46.72765" lon="-1.97877">
        <ele>4.8</ele>
        <time>2025-01-17T16:52:41.550Z</time>
      </trkpt>
      <trkpt lat="46.72767" lon="-1.97881">
        <ele>4.9</ele>
        <time>2025-01-17T16:52:42.550Z</time>
      </trkpt>
      <trkpt lat="46.72769" lon="-1.97885">
        <ele>5</ele>
        <time>2025-01-17T16:52:43.551Z</time>
      </trkpt>
      <trkpt lat="46.72771" lon="-1.97889">
        <ele>5</ele>
        <time>2025-01-17T16:52:44.551Z</time>
      </trkpt>
      <trkpt lat="46.72772" lon="-1.97891">
        <ele>5</ele>
        <time>2025-01-17T16:52:45.551Z</time>
      </trkpt>
      <trkpt lat="46.72774" lon="-1.97892">
        <ele>5</ele>
        <time>2025-01-17T16:52:46.551Z</time>
      </trkpt>
      <trkpt lat="46.72777" lon="-1.97894">
        <ele>5</ele>
        <time>2025-01-17T16:52:47.551Z</time>
      </trkpt>
      <trkpt lat="46.7278" lon="-1.97896">
        <ele>4.9</ele>
        <time>2025-01-17T16:52:48.550Z</time>
      </trkpt>
      <trkpt lat="46.72782" lon="-1.97897">
        <ele>4.9</ele>
        <time>2025-01-17T16:52:49.550Z</time>
      </trkpt>
      <trkpt lat="46.72785" lon="-1.979">
        <ele>4.9</ele>
        <time>2025-01-17T16:52:50.550Z</time>
      </trkpt>
      <trkpt lat="46.72786" lon="-1.97903">
        <ele>4.8</ele>
        <time>2025-01-17T16:52:51.550Z</time>
      </trkpt>
      <trkpt lat="46.72788" lon="-1.97906">
        <ele>4.9</ele>
        <time>2025-01-17T16:52:52.550Z</time>
      </trkpt>
      <trkpt lat="46.72789" lon="-1.97908">
        <ele>4.9</ele>
        <time>2025-01-17T16:52:53.551Z</time>
      </trkpt>
      <trkpt lat="46.72791" lon="-1.9791">
        <ele>4.9</ele>
        <time>2025-01-17T16:52:54.551Z</time>
      </trkpt>
      <trkpt lat="46.72793" lon="-1.97912">
        <ele>4.9</ele>
        <time>2025-01-17T16:52:55.551Z</time>
      </trkpt>
      <trkpt lat="46.72795" lon="-1.97914">
        <ele>4.9</ele>
        <time>2025-01-17T16:52:56.550Z</time>
      </trkpt>
      <trkpt lat="46.72798" lon="-1.97916">
        <ele>5</ele>
        <time>2025-01-17T16:52:57.551Z</time>
      </trkpt>
      <trkpt lat="46.728" lon="-1.97918">
        <ele>5</ele>
        <time>2025-01-17T16:52:58.551Z</time>
      </trkpt>
      <trkpt lat="46.72802" lon="-1.97921">
        <ele>4.9</ele>
        <time>2025-01-17T16:52:59.550Z</time>
      </trkpt>
      <trkpt lat="46.72804" lon="-1.97924">
        <ele>4.8</ele>
        <time>2025-01-17T16:53:00.550Z</time>
      </trkpt>
      <trkpt lat="46.72805" lon="-1.97925">
        <ele>4.7</ele>
        <time>2025-01-17T16:53:01.551Z</time>
      </trkpt>
      <trkpt lat="46.72808" lon="-1.97926">
        <ele>4.6</ele>
        <time>2025-01-17T16:53:02.551Z</time>
      </trkpt>
      <trkpt lat="46.7281" lon="-1.97927">
        <ele>4.5</ele>
        <time>2025-01-17T16:53:03.551Z</time>
      </trkpt>
      <trkpt lat="46.72813" lon="-1.97929">
        <ele>4.4</ele>
        <time>2025-01-17T16:53:04.551Z</time>
      </trkpt>
      <trkpt lat="46.72815" lon="-1.9793">
        <ele>4.3</ele>
        <time>2025-01-17T16:53:05.550Z</time>
      </trkpt>
      <trkpt lat="46.72818" lon="-1.97931">
        <ele>4.3</ele>
        <time>2025-01-17T16:53:06.550Z</time>
      </trkpt>
      <trkpt lat="46.7282" lon="-1.97933">
        <ele>4.2</ele>
        <time>2025-01-17T16:53:07.550Z</time>
      </trkpt>
      <trkpt lat="46.72822" lon="-1.97936">
        <ele>4.1</ele>
        <time>2025-01-17T16:53:08.550Z</time>
      </trkpt>
      <trkpt lat="46.72824" lon="-1.97938">
        <ele>4.1</ele>
        <time>2025-01-17T16:53:09.550Z</time>
      </trkpt>
      <trkpt lat="46.72826" lon="-1.9794">
        <ele>4</ele>
        <time>2025-01-17T16:53:10.551Z</time>
      </trkpt>
      <trkpt lat="46.72827" lon="-1.97941">
        <ele>4</ele>
        <time>2025-01-17T16:53:11.551Z</time>
      </trkpt>
      <trkpt lat="46.72829" lon="-1.97944">
        <ele>4</ele>
        <time>2025-01-17T16:53:12.551Z</time>
      </trkpt>
      <trkpt lat="46.72831" lon="-1.97946">
        <ele>4</ele>
        <time>2025-01-17T16:53:13.551Z</time>
      </trkpt>
      <trkpt lat="46.72832" lon="-1.97948">
        <ele>4</ele>
        <time>2025-01-17T16:53:14.550Z</time>
      </trkpt>
      <trkpt lat="46.72835" lon="-1.97949">
        <ele>4</ele>
        <time>2025-01-17T16:53:15.550Z</time>
      </trkpt>
      <trkpt lat="46.72838" lon="-1.97951">
        <ele>4</ele>
        <time>2025-01-17T16:53:16.550Z</time>
      </trkpt>
      <trkpt lat="46.72841" lon="-1.97953">
        <ele>4.1</ele>
        <time>2025-01-17T16:53:17.550Z</time>
      </trkpt>
      <trkpt lat="46.72844" lon="-1.97956">
        <ele>4.2</ele>
        <time>2025-01-17T16:53:18.550Z</time>
      </trkpt>
      <trkpt lat="46.72846" lon="-1.97959">
        <ele>4.2</ele>
        <time>2025-01-17T16:53:19.550Z</time>
      </trkpt>
      <trkpt lat="46.72847" lon="-1.9796">
        <ele>4.3</ele>
        <time>2025-01-17T16:53:20.550Z</time>
      </trkpt>
      <trkpt lat="46.72849" lon="-1.97963">
        <ele>4.4</ele>
        <time>2025-01-17T16:53:21.550Z</time>
      </trkpt>
      <trkpt lat="46.7285" lon="-1.97966">
        <ele>4.5</ele>
        <time>2025-01-17T16:53:22.551Z</time>
      </trkpt>
      <trkpt lat="46.72852" lon="-1.97969">
        <ele>4.6</ele>
        <time>2025-01-17T16:53:23.550Z</time>
      </trkpt>
      <trkpt lat="46.72854" lon="-1.97969">
        <ele>4.7</ele>
        <time>2025-01-17T16:53:24.551Z</time>
      </trkpt>
      <trkpt lat="46.72856" lon="-1.97971">
        <ele>4.8</ele>
        <time>2025-01-17T16:53:25.550Z</time>
      </trkpt>
      <trkpt lat="46.72858" lon="-1.97972">
        <ele>4.9</ele>
        <time>2025-01-17T16:53:26.551Z</time>
      </trkpt>
      <trkpt lat="46.72861" lon="-1.97973">
        <ele>5</ele>
        <time>2025-01-17T16:53:27.551Z</time>
      </trkpt>
      <trkpt lat="46.72862" lon="-1.97974">
        <ele>5</ele>
        <time>2025-01-17T16:53:28.551Z</time>
      </trkpt>
      <trkpt lat="46.72864" lon="-1.97975">
        <ele>5</ele>
        <time>2025-01-17T16:53:29.551Z</time>
      </trkpt>
      <trkpt lat="46.72864" lon="-1.97975">
        <ele>5</ele>
        <time>2025-01-17T16:53:30.551Z</time>
      </trkpt>
      <trkpt lat="46.72867" lon="-1.97975">
        <ele>5.1</ele>
        <time>2025-01-17T16:53:31.551Z</time>
      </trkpt>
      <trkpt lat="46.72869" lon="-1.97974">
        <ele>5.3</ele>
        <time>2025-01-17T16:53:32.550Z</time>
      </trkpt>
      <trkpt lat="46.72871" lon="-1.97973">
        <ele>5.3</ele>
        <time>2025-01-17T16:53:33.550Z</time>
      </trkpt>
      <trkpt lat="46.72874" lon="-1.97973">
        <ele>5.4</ele>
        <time>2025-01-17T16:53:34.550Z</time>
      </trkpt>
      <trkpt lat="46.72876" lon="-1.97973">
        <ele>5.5</ele>
        <time>2025-01-17T16:53:35.550Z</time>
      </trkpt>
      <trkpt lat="46.72879" lon="-1.97974">
        <ele>5.6</ele>
        <time>2025-01-17T16:53:36.550Z</time>
      </trkpt>
      <trkpt lat="46.72881" lon="-1.97975">
        <ele>5.7</ele>
        <time>2025-01-17T16:53:37.551Z</time>
      </trkpt>
      <trkpt lat="46.72883" lon="-1.97976">
        <ele>5.7</ele>
        <time>2025-01-17T16:53:38.551Z</time>
      </trkpt>
      <trkpt lat="46.72885" lon="-1.97978">
        <ele>5.8</ele>
        <time>2025-01-17T16:53:39.551Z</time>
      </trkpt>
      <trkpt lat="46.72887" lon="-1.97979">
        <ele>5.9</ele>
        <time>2025-01-17T16:53:40.551Z</time>
      </trkpt>
      <trkpt lat="46.72889" lon="-1.97981">
        <ele>6</ele>
        <time>2025-01-17T16:53:41.551Z</time>
      </trkpt>
      <trkpt lat="46.7289" lon="-1.97983">
        <ele>5.9</ele>
        <time>2025-01-17T16:53:42.551Z</time>
      </trkpt>
      <trkpt lat="46.72892" lon="-1.97984">
        <ele>5.8</ele>
        <time>2025-01-17T16:53:43.550Z</time>
      </trkpt>
      <trkpt lat="46.72894" lon="-1.97985">
        <ele>5.6</ele>
        <time>2025-01-17T16:53:44.551Z</time>
      </trkpt>
      <trkpt lat="46.72897" lon="-1.97986">
        <ele>5.4</ele>
        <time>2025-01-17T16:53:45.551Z</time>
      </trkpt>
      <trkpt lat="46.729" lon="-1.97986">
        <ele>5.2</ele>
        <time>2025-01-17T16:53:46.551Z</time>
      </trkpt>
      <trkpt lat="46.72903" lon="-1.97987">
        <ele>5</ele>
        <time>2025-01-17T16:53:47.551Z</time>
      </trkpt>
      <trkpt lat="46.72905" lon="-1.97988">
        <ele>4.9</ele>
        <time>2025-01-17T16:53:48.551Z</time>
      </trkpt>
      <trkpt lat="46.72908" lon="-1.97989">
        <ele>4.6</ele>
        <time>2025-01-17T16:53:49.550Z</time>
      </trkpt>
      <trkpt lat="46.72911" lon="-1.97989">
        <ele>4.4</ele>
        <time>2025-01-17T16:53:50.550Z</time>
      </trkpt>
      <trkpt lat="46.72913" lon="-1.9799">
        <ele>4.2</ele>
        <time>2025-01-17T16:53:51.550Z</time>
      </trkpt>
      <trkpt lat="46.72916" lon="-1.97991">
        <ele>4.1</ele>
        <time>2025-01-17T16:53:52.550Z</time>
      </trkpt>
      <trkpt lat="46.72919" lon="-1.97994">
        <ele>4</ele>
        <time>2025-01-17T16:53:53.551Z</time>
      </trkpt>
      <trkpt lat="46.72921" lon="-1.97995">
        <ele>4</ele>
        <time>2025-01-17T16:53:54.551Z</time>
      </trkpt>
      <trkpt lat="46.72924" lon="-1.97997">
        <ele>4</ele>
        <time>2025-01-17T16:53:55.551Z</time>
      </trkpt>
      <trkpt lat="46.72927" lon="-1.97998">
        <ele>4</ele>
        <time>2025-01-17T16:53:56.551Z</time>
      </trkpt>
      <trkpt lat="46.72929" lon="-1.97999">
        <ele>4</ele>
        <time>2025-01-17T16:53:57.551Z</time>
      </trkpt>
      <trkpt lat="46.72931" lon="-1.98">
        <ele>4</ele>
        <time>2025-01-17T16:53:58.551Z</time>
      </trkpt>
      <trkpt lat="46.72933" lon="-1.98002">
        <ele>4</ele>
        <time>2025-01-17T16:53:59.550Z</time>
      </trkpt>
      <trkpt lat="46.72934" lon="-1.98003">
        <ele>4</ele>
        <time>2025-01-17T16:54:00.550Z</time>
      </trkpt>
      <trkpt lat="46.72936" lon="-1.98005">
        <ele>4</ele>
        <time>2025-01-17T16:54:01.550Z</time>
      </trkpt>
      <trkpt lat="46.72938" lon="-1.98005">
        <ele>4</ele>
        <time>2025-01-17T16:54:02.550Z</time>
      </trkpt>
      <trkpt lat="46.7294" lon="-1.98004">
        <ele>4</ele>
        <time>2025-01-17T16:54:03.550Z</time>
      </trkpt>
      <trkpt lat="46.72942" lon="-1.98005">
        <ele>4</ele>
        <time>2025-01-17T16:54:04.550Z</time>
      </trkpt>
      <trkpt lat="46.72944" lon="-1.98006">
        <ele>4</ele>
        <time>2025-01-17T16:54:05.551Z</time>
      </trkpt>
      <trkpt lat="46.72945" lon="-1.98007">
        <ele>4</ele>
        <time>2025-01-17T16:54:06.551Z</time>
      </trkpt>
      <trkpt lat="46.72947" lon="-1.98008">
        <ele>4</ele>
        <time>2025-01-17T16:54:07.550Z</time>
      </trkpt>
      <trkpt lat="46.72949" lon="-1.98009">
        <ele>4</ele>
        <time>2025-01-17T16:54:08.550Z</time>
      </trkpt>
      <trkpt lat="46.72951" lon="-1.9801">
        <ele>4.1</ele>
        <time>2025-01-17T16:54:09.550Z</time>
      </trkpt>
      <trkpt lat="46.72953" lon="-1.9801">
        <ele>4.1</ele>
        <time>2025-01-17T16:54:10.551Z</time>
      </trkpt>
      <trkpt lat="46.72954" lon="-1.9801">
        <ele>4.1</ele>
        <time>2025-01-17T16:54:11.550Z</time>
      </trkpt>
      <trkpt lat="46.72956" lon="-1.9801">
        <ele>4.1</ele>
        <time>2025-01-17T16:54:12.550Z</time>
      </trkpt>
      <trkpt lat="46.72957" lon="-1.9801">
        <ele>4.2</ele>
        <time>2025-01-17T16:54:13.551Z</time>
      </trkpt>
      <trkpt lat="46.7296" lon="-1.9801">
        <ele>4.2</ele>
        <time>2025-01-17T16:54:14.551Z</time>
      </trkpt>
      <trkpt lat="46.72962" lon="-1.98011">
        <ele>4.2</ele>
        <time>2025-01-17T16:54:15.550Z</time>
      </trkpt>
      <trkpt lat="46.72965" lon="-1.98011">
        <ele>4.3</ele>
        <time>2025-01-17T16:54:16.550Z</time>
      </trkpt>
      <trkpt lat="46.72968" lon="-1.98012">
        <ele>4.3</ele>
        <time>2025-01-17T16:54:17.550Z</time>
      </trkpt>
      <trkpt lat="46.72971" lon="-1.98011">
        <ele>4.4</ele>
        <time>2025-01-17T16:54:18.550Z</time>
      </trkpt>
      <trkpt lat="46.72973" lon="-1.9801">
        <ele>4.4</ele>
        <time>2025-01-17T16:54:19.550Z</time>
      </trkpt>
      <trkpt lat="46.72976" lon="-1.9801">
        <ele>4.3</ele>
        <time>2025-01-17T16:54:20.550Z</time>
      </trkpt>
      <trkpt lat="46.72979" lon="-1.9801">
        <ele>4.3</ele>
        <time>2025-01-17T16:54:21.551Z</time>
      </trkpt>
      <trkpt lat="46.72981" lon="-1.9801">
        <ele>4.2</ele>
        <time>2025-01-17T16:54:22.551Z</time>
      </trkpt>
      <trkpt lat="46.72984" lon="-1.9801">
        <ele>4.2</ele>
        <time>2025-01-17T16:54:23.551Z</time>
      </trkpt>
      <trkpt lat="46.72986" lon="-1.98011">
        <ele>4.2</ele>
        <time>2025-01-17T16:54:24.551Z</time>
      </trkpt>
      <trkpt lat="46.72989" lon="-1.98013">
        <ele>4.2</ele>
        <time>2025-01-17T16:54:25.551Z</time>
      </trkpt>
      <trkpt lat="46.72992" lon="-1.98014">
        <ele>4.2</ele>
        <time>2025-01-17T16:54:26.550Z</time>
      </trkpt>
      <trkpt lat="46.72995" lon="-1.98015">
        <ele>4.1</ele>
        <time>2025-01-17T16:54:27.550Z</time>
      </trkpt>
      <trkpt lat="46.72997" lon="-1.98016">
        <ele>4.1</ele>
        <time>2025-01-17T16:54:28.550Z</time>
      </trkpt>
      <trkpt lat="46.72999" lon="-1.98018">
        <ele>4</ele>
        <time>2025-01-17T16:54:29.550Z</time>
      </trkpt>
      <trkpt lat="46.73001" lon="-1.98019">
        <ele>4</ele>
        <time>2025-01-17T16:54:30.550Z</time>
      </trkpt>
      <trkpt lat="46.73003" lon="-1.98021">
        <ele>4</ele>
        <time>2025-01-17T16:54:31.550Z</time>
      </trkpt>
      <trkpt lat="46.73006" lon="-1.98023">
        <ele>4</ele>
        <time>2025-01-17T16:54:32.551Z</time>
      </trkpt>
      <trkpt lat="46.73008" lon="-1.98025">
        <ele>4</ele>
        <time>2025-01-17T16:54:33.551Z</time>
      </trkpt>
      <trkpt lat="46.7301" lon="-1.98027">
        <ele>4</ele>
        <time>2025-01-17T16:54:34.551Z</time>
      </trkpt>
      <trkpt lat="46.73013" lon="-1.98029">
        <ele>4</ele>
        <time>2025-01-17T16:54:35.551Z</time>
      </trkpt>
      <trkpt lat="46.73015" lon="-1.9803">
        <ele>4</ele>
        <time>2025-01-17T16:54:36.550Z</time>
      </trkpt>
      <trkpt lat="46.73017" lon="-1.98031">
        <ele>4</ele>
        <time>2025-01-17T16:54:37.551Z</time>
      </trkpt>
      <trkpt lat="46.7302" lon="-1.98032">
        <ele>4</ele>
        <time>2025-01-17T16:54:38.550Z</time>
      </trkpt>
      <trkpt lat="46.73022" lon="-1.98033">
        <ele>4</ele>
        <time>2025-01-17T16:54:39.550Z</time>
      </trkpt>
      <trkpt lat="46.73026" lon="-1.98034">
        <ele>4</ele>
        <time>2025-01-17T16:54:40.550Z</time>
      </trkpt>
      <trkpt lat="46.73028" lon="-1.98035">
        <ele>4</ele>
        <time>2025-01-17T16:54:41.550Z</time>
      </trkpt>
      <trkpt lat="46.7303" lon="-1.98036">
        <ele>4.2</ele>
        <time>2025-01-17T16:54:42.550Z</time>
      </trkpt>
      <trkpt lat="46.73033" lon="-1.98038">
        <ele>4.3</ele>
        <time>2025-01-17T16:54:43.550Z</time>
      </trkpt>
      <trkpt lat="46.73035" lon="-1.9804">
        <ele>4.4</ele>
        <time>2025-01-17T16:54:44.551Z</time>
      </trkpt>
      <trkpt lat="46.73037" lon="-1.98042">
        <ele>4.5</ele>
        <time>2025-01-17T16:54:45.551Z</time>
      </trkpt>
      <trkpt lat="46.73039" lon="-1.98044">
        <ele>4.6</ele>
        <time>2025-01-17T16:54:46.550Z</time>
      </trkpt>
      <trkpt lat="46.7304" lon="-1.98046">
        <ele>4.6</ele>
        <time>2025-01-17T16:54:47.551Z</time>
      </trkpt>
      <trkpt lat="46.73042" lon="-1.98049">
        <ele>4.6</ele>
        <time>2025-01-17T16:54:48.551Z</time>
      </trkpt>
      <trkpt lat="46.73044" lon="-1.98051">
        <ele>4.7</ele>
        <time>2025-01-17T16:54:49.550Z</time>
      </trkpt>
      <trkpt lat="46.73047" lon="-1.98052">
        <ele>4.8</ele>
        <time>2025-01-17T16:54:50.550Z</time>
      </trkpt>
      <trkpt lat="46.73048" lon="-1.98054">
        <ele>4.8</ele>
        <time>2025-01-17T16:54:51.550Z</time>
      </trkpt>
      <trkpt lat="46.7305" lon="-1.98055">
        <ele>4.8</ele>
        <time>2025-01-17T16:54:52.550Z</time>
      </trkpt>
      <trkpt lat="46.73053" lon="-1.98057">
        <ele>4.9</ele>
        <time>2025-01-17T16:54:53.550Z</time>
      </trkpt>
      <trkpt lat="46.73055" lon="-1.98059">
        <ele>5</ele>
        <time>2025-01-17T16:54:54.551Z</time>
      </trkpt>
      <trkpt lat="46.73057" lon="-1.9806">
        <ele>5</ele>
        <time>2025-01-17T16:54:55.551Z</time>
      </trkpt>
      <trkpt lat="46.73059" lon="-1.98061">
        <ele>4.9</ele>
        <time>2025-01-17T16:54:56.551Z</time>
      </trkpt>
      <trkpt lat="46.73061" lon="-1.98062">
        <ele>4.8</ele>
        <time>2025-01-17T16:54:57.551Z</time>
      </trkpt>
      <trkpt lat="46.73063" lon="-1.98063">
        <ele>4.7</ele>
        <time>2025-01-17T16:54:58.550Z</time>
      </trkpt>
      <trkpt lat="46.73066" lon="-1.98064">
        <ele>4.6</ele>
        <time>2025-01-17T16:54:59.551Z</time>
      </trkpt>
      <trkpt lat="46.73068" lon="-1.98066">
        <ele>4.6</ele>
        <time>2025-01-17T16:55:00.550Z</time>
      </trkpt>
      <trkpt lat="46.7307" lon="-1.98068">
        <ele>4.5</ele>
        <time>2025-01-17T16:55:01.551Z</time>
      </trkpt>
      <trkpt lat="46.73073" lon="-1.9807">
        <ele>4.4</ele>
        <time>2025-01-17T16:55:02.551Z</time>
      </trkpt>
      <trkpt lat="46.73075" lon="-1.98072">
        <ele>4.3</ele>
        <time>2025-01-17T16:55:03.551Z</time>
      </trkpt>
      <trkpt lat="46.73077" lon="-1.98073">
        <ele>4.2</ele>
        <time>2025-01-17T16:55:04.550Z</time>
      </trkpt>
      <trkpt lat="46.73079" lon="-1.98074">
        <ele>4.2</ele>
        <time>2025-01-17T16:55:05.551Z</time>
      </trkpt>
      <trkpt lat="46.73082" lon="-1.98074">
        <ele>4.1</ele>
        <time>2025-01-17T16:55:06.550Z</time>
      </trkpt>
      <trkpt lat="46.73086" lon="-1.98075">
        <ele>4.2</ele>
        <time>2025-01-17T16:55:07.550Z</time>
      </trkpt>
      <trkpt lat="46.73088" lon="-1.98075">
        <ele>4.3</ele>
        <time>2025-01-17T16:55:08.550Z</time>
      </trkpt>
      <trkpt lat="46.7309" lon="-1.98075">
        <ele>4.5</ele>
        <time>2025-01-17T16:55:09.550Z</time>
      </trkpt>
      <trkpt lat="46.73092" lon="-1.98075">
        <ele>4.6</ele>
        <time>2025-01-17T16:55:10.550Z</time>
      </trkpt>
      <trkpt lat="46.73094" lon="-1.98075">
        <ele>4.8</ele>
        <time>2025-01-17T16:55:11.551Z</time>
      </trkpt>
      <trkpt lat="46.73097" lon="-1.98075">
        <ele>5</ele>
        <time>2025-01-17T16:55:12.551Z</time>
      </trkpt>
      <trkpt lat="46.73099" lon="-1.98077">
        <ele>5.3</ele>
        <time>2025-01-17T16:55:13.551Z</time>
      </trkpt>
      <trkpt lat="46.73101" lon="-1.98078">
        <ele>5.5</ele>
        <time>2025-01-17T16:55:14.551Z</time>
      </trkpt>
      <trkpt lat="46.73102" lon="-1.9808">
        <ele>5.8</ele>
        <time>2025-01-17T16:55:15.551Z</time>
      </trkpt>
      <trkpt lat="46.73104" lon="-1.98082">
        <ele>6.1</ele>
        <time>2025-01-17T16:55:16.550Z</time>
      </trkpt>
      <trkpt lat="46.73106" lon="-1.98083">
        <ele>6.4</ele>
        <time>2025-01-17T16:55:17.550Z</time>
      </trkpt>
      <trkpt lat="46.73108" lon="-1.98084">
        <ele>6.6</ele>
        <time>2025-01-17T16:55:18.550Z</time>
      </trkpt>
      <trkpt lat="46.73109" lon="-1.98085">
        <ele>6.7</ele>
        <time>2025-01-17T16:55:19.550Z</time>
      </trkpt>
      <trkpt lat="46.73111" lon="-1.98085">
        <ele>6.9</ele>
        <time>2025-01-17T16:55:20.550Z</time>
      </trkpt>
      <trkpt lat="46.73113" lon="-1.98084">
        <ele>6.8</ele>
        <time>2025-01-17T16:55:21.550Z</time>
      </trkpt>
      <trkpt lat="46.73115" lon="-1.98084">
        <ele>6.7</ele>
        <time>2025-01-17T16:55:22.550Z</time>
      </trkpt>
      <trkpt lat="46.73117" lon="-1.98083">
        <ele>6.5</ele>
        <time>2025-01-17T16:55:23.551Z</time>
      </trkpt>
      <trkpt lat="46.7312" lon="-1.98083">
        <ele>6.4</ele>
        <time>2025-01-17T16:55:24.551Z</time>
      </trkpt>
      <trkpt lat="46.73121" lon="-1.98083">
        <ele>6.2</ele>
        <time>2025-01-17T16:55:25.550Z</time>
      </trkpt>
      <trkpt lat="46.73124" lon="-1.98083">
        <ele>6.1</ele>
        <time>2025-01-17T16:55:26.551Z</time>
      </trkpt>
      <trkpt lat="46.73125" lon="-1.98083">
        <ele>6</ele>
        <time>2025-01-17T16:55:27.551Z</time>
      </trkpt>
      <trkpt lat="46.73125" lon="-1.98084">
        <ele>6</ele>
        <time>2025-01-17T16:55:28.551Z</time>
      </trkpt>
      <trkpt lat="46.73126" lon="-1.98086">
        <ele>5.9</ele>
        <time>2025-01-17T16:55:29.551Z</time>
      </trkpt>
      <trkpt lat="46.73126" lon="-1.98088">
        <ele>5.8</ele>
        <time>2025-01-17T16:55:30.550Z</time>
      </trkpt>
      <trkpt lat="46.73126" lon="-1.98091">
        <ele>5.7</ele>
        <time>2025-01-17T16:55:31.550Z</time>
      </trkpt>
      <trkpt lat="46.73125" lon="-1.98095">
        <ele>5.6</ele>
        <time>2025-01-17T16:55:32.551Z</time>
      </trkpt>
      <trkpt lat="46.73125" lon="-1.98098">
        <ele>5.5</ele>
        <time>2025-01-17T16:55:33.550Z</time>
      </trkpt>
      <trkpt lat="46.73125" lon="-1.98102">
        <ele>5.4</ele>
        <time>2025-01-17T16:55:34.551Z</time>
      </trkpt>
      <trkpt lat="46.73124" lon="-1.98105">
        <ele>5.2</ele>
        <time>2025-01-17T16:55:35.551Z</time>
      </trkpt>
      <trkpt lat="46.73123" lon="-1.98109">
        <ele>5.1</ele>
        <time>2025-01-17T16:55:36.551Z</time>
      </trkpt>
      <trkpt lat="46.73122" lon="-1.98112">
        <ele>5</ele>
        <time>2025-01-17T16:55:37.551Z</time>
      </trkpt>
      <trkpt lat="46.73121" lon="-1.98116">
        <ele>4.8</ele>
        <time>2025-01-17T16:55:38.551Z</time>
      </trkpt>
      <trkpt lat="46.7312" lon="-1.98119">
        <ele>4.7</ele>
        <time>2025-01-17T16:55:39.551Z</time>
      </trkpt>
      <trkpt lat="46.73119" lon="-1.98123">
        <ele>4.6</ele>
        <time>2025-01-17T16:55:40.551Z</time>
      </trkpt>
      <trkpt lat="46.73118" lon="-1.98126">
        <ele>4.5</ele>
        <time>2025-01-17T16:55:41.550Z</time>
      </trkpt>
      <trkpt lat="46.73118" lon="-1.9813">
        <ele>4.3</ele>
        <time>2025-01-17T16:55:42.551Z</time>
      </trkpt>
      <trkpt lat="46.73117" lon="-1.98135">
        <ele>4.2</ele>
        <time>2025-01-17T16:55:43.551Z</time>
      </trkpt>
      <trkpt lat="46.73116" lon="-1.98138">
        <ele>4</ele>
        <time>2025-01-17T16:55:44.550Z</time>
      </trkpt>
      <trkpt lat="46.73115" lon="-1.98141">
        <ele>4</ele>
        <time>2025-01-17T16:55:45.550Z</time>
      </trkpt>
      <trkpt lat="46.73115" lon="-1.98144">
        <ele>4</ele>
        <time>2025-01-17T16:55:46.551Z</time>
      </trkpt>
      <trkpt lat="46.73114" lon="-1.98148">
        <ele>4</ele>
        <time>2025-01-17T16:55:47.551Z</time>
      </trkpt>
      <trkpt lat="46.73113" lon="-1.98152">
        <ele>4</ele>
        <time>2025-01-17T16:55:48.551Z</time>
      </trkpt>
      <trkpt lat="46.73113" lon="-1.98156">
        <ele>4</ele>
        <time>2025-01-17T16:55:49.551Z</time>
      </trkpt>
      <trkpt lat="46.73112" lon="-1.9816">
        <ele>4</ele>
        <time>2025-01-17T16:55:50.550Z</time>
      </trkpt>
      <trkpt lat="46.73112" lon="-1.98162">
        <ele>4</ele>
        <time>2025-01-17T16:55:51.550Z</time>
      </trkpt>
      <trkpt lat="46.73111" lon="-1.98166">
        <ele>4</ele>
        <time>2025-01-17T16:55:52.550Z</time>
      </trkpt>
      <trkpt lat="46.7311" lon="-1.9817">
        <ele>4.1</ele>
        <time>2025-01-17T16:55:53.550Z</time>
      </trkpt>
      <trkpt lat="46.73109" lon="-1.98173">
        <ele>4.2</ele>
        <time>2025-01-17T16:55:54.550Z</time>
      </trkpt>
      <trkpt lat="46.73109" lon="-1.98176">
        <ele>4.3</ele>
        <time>2025-01-17T16:55:55.550Z</time>
      </trkpt>
      <trkpt lat="46.73108" lon="-1.98179">
        <ele>4.4</ele>
        <time>2025-01-17T16:55:56.550Z</time>
      </trkpt>
      <trkpt lat="46.73108" lon="-1.98182">
        <ele>4.6</ele>
        <time>2025-01-17T16:55:57.551Z</time>
      </trkpt>
      <trkpt lat="46.73108" lon="-1.98185">
        <ele>4.7</ele>
        <time>2025-01-17T16:55:58.551Z</time>
      </trkpt>
      <trkpt lat="46.73107" lon="-1.98188">
        <ele>4.8</ele>
        <time>2025-01-17T16:55:59.551Z</time>
      </trkpt>
      <trkpt lat="46.73107" lon="-1.98192">
        <ele>4.9</ele>
        <time>2025-01-17T16:56:00.550Z</time>
      </trkpt>
      <trkpt lat="46.73106" lon="-1.98195">
        <ele>5</ele>
        <time>2025-01-17T16:56:01.551Z</time>
      </trkpt>
      <trkpt lat="46.73106" lon="-1.98198">
        <ele>4.9</ele>
        <time>2025-01-17T16:56:02.550Z</time>
      </trkpt>
      <trkpt lat="46.73105" lon="-1.98201">
        <ele>4.8</ele>
        <time>2025-01-17T16:56:03.550Z</time>
      </trkpt>
      <trkpt lat="46.73105" lon="-1.98204">
        <ele>4.7</ele>
        <time>2025-01-17T16:56:04.550Z</time>
      </trkpt>
      <trkpt lat="46.73104" lon="-1.98207">
        <ele>4.7</ele>
        <time>2025-01-17T16:56:05.550Z</time>
      </trkpt>
      <trkpt lat="46.73104" lon="-1.9821">
        <ele>4.6</ele>
        <time>2025-01-17T16:56:06.550Z</time>
      </trkpt>
      <trkpt lat="46.73103" lon="-1.98214">
        <ele>4.5</ele>
        <time>2025-01-17T16:56:07.550Z</time>
      </trkpt>
      <trkpt lat="46.73102" lon="-1.98217">
        <ele>4.5</ele>
        <time>2025-01-17T16:56:08.550Z</time>
      </trkpt>
      <trkpt lat="46.73101" lon="-1.9822">
        <ele>4.4</ele>
        <time>2025-01-17T16:56:09.551Z</time>
      </trkpt>
      <trkpt lat="46.73102" lon="-1.98223">
        <ele>4.3</ele>
        <time>2025-01-17T16:56:10.551Z</time>
      </trkpt>
      <trkpt lat="46.73102" lon="-1.98227">
        <ele>4.3</ele>
        <time>2025-01-17T16:56:11.550Z</time>
      </trkpt>
      <trkpt lat="46.73104" lon="-1.9823">
        <ele>4.3</ele>
        <time>2025-01-17T16:56:12.551Z</time>
      </trkpt>
      <trkpt lat="46.73106" lon="-1.98232">
        <ele>4.2</ele>
        <time>2025-01-17T16:56:13.550Z</time>
      </trkpt>
      <trkpt lat="46.73108" lon="-1.98233">
        <ele>4.1</ele>
        <time>2025-01-17T16:56:14.550Z</time>
      </trkpt>
      <trkpt lat="46.7311" lon="-1.98234">
        <ele>4</ele>
        <time>2025-01-17T16:56:15.550Z</time>
      </trkpt>
      <trkpt lat="46.73113" lon="-1.98234">
        <ele>4</ele>
        <time>2025-01-17T16:56:16.550Z</time>
      </trkpt>
      <trkpt lat="46.73115" lon="-1.98235">
        <ele>4</ele>
        <time>2025-01-17T16:56:17.550Z</time>
      </trkpt>
      <trkpt lat="46.73118" lon="-1.98235">
        <ele>4</ele>
        <time>2025-01-17T16:56:18.550Z</time>
      </trkpt>
      <trkpt lat="46.7312" lon="-1.98235">
        <ele>4</ele>
        <time>2025-01-17T16:56:19.551Z</time>
      </trkpt>
      <trkpt lat="46.73122" lon="-1.98234">
        <ele>4</ele>
        <time>2025-01-17T16:56:20.551Z</time>
      </trkpt>
      <trkpt lat="46.73125" lon="-1.98233">
        <ele>4</ele>
        <time>2025-01-17T16:56:21.551Z</time>
      </trkpt>
      <trkpt lat="46.73129" lon="-1.98231">
        <ele>4</ele>
        <time>2025-01-17T16:56:22.551Z</time>
      </trkpt>
      <trkpt lat="46.73132" lon="-1.9823">
        <ele>4</ele>
        <time>2025-01-17T16:56:23.550Z</time>
      </trkpt>
      <trkpt lat="46.73134" lon="-1.98228">
        <ele>4</ele>
        <time>2025-01-17T16:56:24.550Z</time>
      </trkpt>
      <trkpt lat="46.73137" lon="-1.98226">
        <ele>4</ele>
        <time>2025-01-17T16:56:25.550Z</time>
      </trkpt>
      <trkpt lat="46.7314" lon="-1.98225">
        <ele>4.1</ele>
        <time>2025-01-17T16:56:26.550Z</time>
      </trkpt>
      <trkpt lat="46.73143" lon="-1.98222">
        <ele>4.3</ele>
        <time>2025-01-17T16:56:27.550Z</time>
      </trkpt>
      <trkpt lat="46.73146" lon="-1.9822">
        <ele>4.5</ele>
        <time>2025-01-17T16:56:28.550Z</time>
      </trkpt>
      <trkpt lat="46.73148" lon="-1.98218">
        <ele>4.6</ele>
        <time>2025-01-17T16:56:29.550Z</time>
      </trkpt>
      <trkpt lat="46.73151" lon="-1.98216">
        <ele>4.8</ele>
        <time>2025-01-17T16:56:30.550Z</time>
      </trkpt>
      <trkpt lat="46.73153" lon="-1.98213">
        <ele>4.9</ele>
        <time>2025-01-17T16:56:31.550Z</time>
      </trkpt>
      <trkpt lat="46.73155" lon="-1.98211">
        <ele>4.9</ele>
        <time>2025-01-17T16:56:32.550Z</time>
      </trkpt>
      <trkpt lat="46.73157" lon="-1.9821">
        <ele>5</ele>
        <time>2025-01-17T16:56:33.550Z</time>
      </trkpt>
      <trkpt lat="46.7316" lon="-1.98207">
        <ele>5.1</ele>
        <time>2025-01-17T16:56:34.551Z</time>
      </trkpt>
      <trkpt lat="46.73161" lon="-1.98206">
        <ele>5.1</ele>
        <time>2025-01-17T16:56:35.551Z</time>
      </trkpt>
      <trkpt lat="46.73164" lon="-1.98205">
        <ele>5.2</ele>
        <time>2025-01-17T16:56:36.550Z</time>
      </trkpt>
      <trkpt lat="46.73166" lon="-1.98204">
        <ele>5.3</ele>
        <time>2025-01-17T16:56:37.551Z</time>
      </trkpt>
      <trkpt lat="46.73168" lon="-1.98201">
        <ele>5.3</ele>
        <time>2025-01-17T16:56:38.550Z</time>
      </trkpt>
      <trkpt lat="46.7317" lon="-1.98199">
        <ele>5.4</ele>
        <time>2025-01-17T16:56:39.551Z</time>
      </trkpt>
      <trkpt lat="46.73172" lon="-1.98198">
        <ele>5.4</ele>
        <time>2025-01-17T16:56:40.550Z</time>
      </trkpt>
      <trkpt lat="46.73174" lon="-1.98197">
        <ele>5.4</ele>
        <time>2025-01-17T16:56:41.551Z</time>
      </trkpt>
      <trkpt lat="46.73176" lon="-1.98195">
        <ele>5.4</ele>
        <time>2025-01-17T16:56:42.550Z</time>
      </trkpt>
      <trkpt lat="46.73178" lon="-1.98194">
        <ele>5.4</ele>
        <time>2025-01-17T16:56:43.551Z</time>
      </trkpt>
      <trkpt lat="46.73179" lon="-1.98192">
        <ele>5.4</ele>
        <time>2025-01-17T16:56:44.550Z</time>
      </trkpt>
      <trkpt lat="46.7318" lon="-1.98191">
        <ele>5.4</ele>
        <time>2025-01-17T16:56:45.551Z</time>
      </trkpt>
      <trkpt lat="46.73182" lon="-1.9819">
        <ele>5.4</ele>
        <time>2025-01-17T16:56:46.550Z</time>
      </trkpt>
      <trkpt lat="46.73183" lon="-1.9819">
        <ele>5.5</ele>
        <time>2025-01-17T16:56:47.551Z</time>
      </trkpt>
      <trkpt lat="46.73185" lon="-1.98189">
        <ele>5.5</ele>
        <time>2025-01-17T16:56:48.551Z</time>
      </trkpt>
      <trkpt lat="46.73186" lon="-1.98189">
        <ele>5.5</ele>
        <time>2025-01-17T16:56:49.550Z</time>
      </trkpt>
      <trkpt lat="46.73188" lon="-1.98187">
        <ele>5.6</ele>
        <time>2025-01-17T16:56:50.550Z</time>
      </trkpt>
      <trkpt lat="46.7319" lon="-1.98186">
        <ele>5.6</ele>
        <time>2025-01-17T16:56:51.550Z</time>
      </trkpt>
      <trkpt lat="46.73192" lon="-1.98185">
        <ele>5.6</ele>
        <time>2025-01-17T16:56:52.550Z</time>
      </trkpt>
      <trkpt lat="46.73194" lon="-1.98185">
        <ele>5.6</ele>
        <time>2025-01-17T16:56:53.551Z</time>
      </trkpt>
      <trkpt lat="46.73196" lon="-1.98183">
        <ele>5.7</ele>
        <time>2025-01-17T16:56:54.550Z</time>
      </trkpt>
      <trkpt lat="46.73199" lon="-1.98183">
        <ele>5.8</ele>
        <time>2025-01-17T16:56:55.550Z</time>
      </trkpt>
      <trkpt lat="46.73201" lon="-1.98183">
        <ele>6</ele>
        <time>2025-01-17T16:56:56.550Z</time>
      </trkpt>
      <trkpt lat="46.73204" lon="-1.98182">
        <ele>6.1</ele>
        <time>2025-01-17T16:56:57.550Z</time>
      </trkpt>
      <trkpt lat="46.73207" lon="-1.98182">
        <ele>6.2</ele>
        <time>2025-01-17T16:56:58.550Z</time>
      </trkpt>
      <trkpt lat="46.73209" lon="-1.98181">
        <ele>6.3</ele>
        <time>2025-01-17T16:56:59.551Z</time>
      </trkpt>
      <trkpt lat="46.73211" lon="-1.98181">
        <ele>6.4</ele>
        <time>2025-01-17T16:57:00.550Z</time>
      </trkpt>
      <trkpt lat="46.73214" lon="-1.98181">
        <ele>6.6</ele>
        <time>2025-01-17T16:57:01.550Z</time>
      </trkpt>
      <trkpt lat="46.73216" lon="-1.98181">
        <ele>6.7</ele>
        <time>2025-01-17T16:57:02.550Z</time>
      </trkpt>
      <trkpt lat="46.73218" lon="-1.98181">
        <ele>6.8</ele>
        <time>2025-01-17T16:57:03.551Z</time>
      </trkpt>
      <trkpt lat="46.73221" lon="-1.98181">
        <ele>6.9</ele>
        <time>2025-01-17T16:57:04.551Z</time>
      </trkpt>
      <trkpt lat="46.73223" lon="-1.98181">
        <ele>7</ele>
        <time>2025-01-17T16:57:05.550Z</time>
      </trkpt>
      <trkpt lat="46.73226" lon="-1.98181">
        <ele>6.9</ele>
        <time>2025-01-17T16:57:06.551Z</time>
      </trkpt>
      <trkpt lat="46.73229" lon="-1.98182">
        <ele>6.9</ele>
        <time>2025-01-17T16:57:07.551Z</time>
      </trkpt>
      <trkpt lat="46.73231" lon="-1.98182">
        <ele>6.8</ele>
        <time>2025-01-17T16:57:08.550Z</time>
      </trkpt>
      <trkpt lat="46.73232" lon="-1.98183">
        <ele>6.8</ele>
        <time>2025-01-17T16:57:09.550Z</time>
      </trkpt>
      <trkpt lat="46.73235" lon="-1.98184">
        <ele>6.8</ele>
        <time>2025-01-17T16:57:10.551Z</time>
      </trkpt>
      <trkpt lat="46.73237" lon="-1.98184">
        <ele>6.7</ele>
        <time>2025-01-17T16:57:11.550Z</time>
      </trkpt>
      <trkpt lat="46.73239" lon="-1.98185">
        <ele>6.7</ele>
        <time>2025-01-17T16:57:12.551Z</time>
      </trkpt>
      <trkpt lat="46.73241" lon="-1.98185">
        <ele>6.7</ele>
        <time>2025-01-17T16:57:13.551Z</time>
      </trkpt>
      <trkpt lat="46.73243" lon="-1.98186">
        <ele>6.6</ele>
        <time>2025-01-17T16:57:14.551Z</time>
      </trkpt>
      <trkpt lat="46.73246" lon="-1.98187">
        <ele>6.6</ele>
        <time>2025-01-17T16:57:15.550Z</time>
      </trkpt>
      <trkpt lat="46.73248" lon="-1.98188">
        <ele>6.6</ele>
        <time>2025-01-17T16:57:16.551Z</time>
      </trkpt>
      <trkpt lat="46.7325" lon="-1.98189">
        <ele>6.6</ele>
        <time>2025-01-17T16:57:17.550Z</time>
      </trkpt>
      <trkpt lat="46.73252" lon="-1.9819">
        <ele>6.6</ele>
        <time>2025-01-17T16:57:18.550Z</time>
      </trkpt>
      <trkpt lat="46.73254" lon="-1.98191">
        <ele>6.6</ele>
        <time>2025-01-17T16:57:19.550Z</time>
      </trkpt>
      <trkpt lat="46.73256" lon="-1.98193">
        <ele>6.7</ele>
        <time>2025-01-17T16:57:20.550Z</time>
      </trkpt>
      <trkpt lat="46.73258" lon="-1.98194">
        <ele>6.7</ele>
        <time>2025-01-17T16:57:21.550Z</time>
      </trkpt>
      <trkpt lat="46.7326" lon="-1.98196">
        <ele>6.8</ele>
        <time>2025-01-17T16:57:22.551Z</time>
      </trkpt>
      <trkpt lat="46.73262" lon="-1.98197">
        <ele>7</ele>
        <time>2025-01-17T16:57:23.551Z</time>
      </trkpt>
      <trkpt lat="46.73264" lon="-1.98199">
        <ele>7.2</ele>
        <time>2025-01-17T16:57:24.550Z</time>
      </trkpt>
      <trkpt lat="46.73266" lon="-1.98201">
        <ele>7.4</ele>
        <time>2025-01-17T16:57:25.550Z</time>
      </trkpt>
      <trkpt lat="46.73267" lon="-1.98203">
        <ele>7.8</ele>
        <time>2025-01-17T16:57:26.550Z</time>
      </trkpt>
      <trkpt lat="46.73269" lon="-1.98204">
        <ele>7.9</ele>
        <time>2025-01-17T16:57:27.550Z</time>
      </trkpt>
      <trkpt lat="46.73269" lon="-1.98206">
        <ele>8.1</ele>
        <time>2025-01-17T16:57:28.550Z</time>
      </trkpt>
      <trkpt lat="46.73269" lon="-1.98208">
        <ele>8.4</ele>
        <time>2025-01-17T16:57:29.550Z</time>
      </trkpt>
      <trkpt lat="46.73269" lon="-1.9821">
        <ele>8.6</ele>
        <time>2025-01-17T16:57:30.551Z</time>
      </trkpt>
      <trkpt lat="46.73269" lon="-1.98211">
        <ele>8.8</ele>
        <time>2025-01-17T16:57:31.550Z</time>
      </trkpt>
      <trkpt lat="46.73269" lon="-1.98212">
        <ele>9.1</ele>
        <time>2025-01-17T16:57:32.550Z</time>
      </trkpt>
      <trkpt lat="46.73269" lon="-1.98215">
        <ele>9.5</ele>
        <time>2025-01-17T16:57:33.550Z</time>
      </trkpt>
      <trkpt lat="46.7327" lon="-1.98217">
        <ele>9.7</ele>
        <time>2025-01-17T16:57:34.550Z</time>
      </trkpt>
      <trkpt lat="46.7327" lon="-1.98219">
        <ele>10.1</ele>
        <time>2025-01-17T16:57:35.551Z</time>
      </trkpt>
      <trkpt lat="46.7327" lon="-1.98221">
        <ele>10.4</ele>
        <time>2025-01-17T16:57:36.550Z</time>
      </trkpt>
      <trkpt lat="46.73271" lon="-1.98224">
        <ele>10.6</ele>
        <time>2025-01-17T16:57:37.550Z</time>
      </trkpt>
      <trkpt lat="46.73271" lon="-1.98226">
        <ele>10.9</ele>
        <time>2025-01-17T16:57:38.550Z</time>
      </trkpt>
      <trkpt lat="46.73272" lon="-1.98229">
        <ele>11.1</ele>
        <time>2025-01-17T16:57:39.550Z</time>
      </trkpt>
      <trkpt lat="46.73273" lon="-1.98231">
        <ele>11.4</ele>
        <time>2025-01-17T16:57:40.551Z</time>
      </trkpt>
      <trkpt lat="46.73273" lon="-1.98234">
        <ele>11.7</ele>
        <time>2025-01-17T16:57:41.551Z</time>
      </trkpt>
      <trkpt lat="46.73274" lon="-1.98237">
        <ele>12.1</ele>
        <time>2025-01-17T16:57:42.551Z</time>
      </trkpt>
      <trkpt lat="46.73275" lon="-1.98239">
        <ele>12.4</ele>
        <time>2025-01-17T16:57:43.551Z</time>
      </trkpt>
      <trkpt lat="46.73276" lon="-1.98242">
        <ele>12.7</ele>
        <time>2025-01-17T16:57:44.551Z</time>
      </trkpt>
      <trkpt lat="46.73277" lon="-1.98244">
        <ele>13.1</ele>
        <time>2025-01-17T16:57:45.551Z</time>
      </trkpt>
      <trkpt lat="46.73278" lon="-1.98246">
        <ele>13.4</ele>
        <time>2025-01-17T16:57:46.550Z</time>
      </trkpt>
      <trkpt lat="46.7328" lon="-1.98248">
        <ele>13.4</ele>
        <time>2025-01-17T16:57:47.550Z</time>
      </trkpt>
      <trkpt lat="46.73281" lon="-1.98249">
        <ele>13.4</ele>
        <time>2025-01-17T16:57:48.550Z</time>
      </trkpt>
      <trkpt lat="46.73283" lon="-1.98251">
        <ele>13.2</ele>
        <time>2025-01-17T16:57:49.550Z</time>
      </trkpt>
      <trkpt lat="46.73284" lon="-1.98252">
        <ele>12.8</ele>
        <time>2025-01-17T16:57:50.551Z</time>
      </trkpt>
      <trkpt lat="46.73285" lon="-1.98254">
        <ele>12.4</ele>
        <time>2025-01-17T16:57:51.551Z</time>
      </trkpt>
      <trkpt lat="46.73285" lon="-1.98257">
        <ele>12</ele>
        <time>2025-01-17T16:57:52.551Z</time>
      </trkpt>
      <trkpt lat="46.73286" lon="-1.98261">
        <ele>11.3</ele>
        <time>2025-01-17T16:57:53.551Z</time>
      </trkpt>
      <trkpt lat="46.73287" lon="-1.98265">
        <ele>10.7</ele>
        <time>2025-01-17T16:57:54.551Z</time>
      </trkpt>
      <trkpt lat="46.73287" lon="-1.98268">
        <ele>10.3</ele>
        <time>2025-01-17T16:57:55.550Z</time>
      </trkpt>
      <trkpt lat="46.73288" lon="-1.98271">
        <ele>9.9</ele>
        <time>2025-01-17T16:57:56.550Z</time>
      </trkpt>
      <trkpt lat="46.73289" lon="-1.98274">
        <ele>9.5</ele>
        <time>2025-01-17T16:57:57.551Z</time>
      </trkpt>
      <trkpt lat="46.7329" lon="-1.98277">
        <ele>9.1</ele>
        <time>2025-01-17T16:57:58.551Z</time>
      </trkpt>
      <trkpt lat="46.73291" lon="-1.9828">
        <ele>9</ele>
        <time>2025-01-17T16:57:59.551Z</time>
      </trkpt>
      <trkpt lat="46.73292" lon="-1.98283">
        <ele>9.1</ele>
        <time>2025-01-17T16:58:00.551Z</time>
      </trkpt>
      <trkpt lat="46.73293" lon="-1.98287">
        <ele>9.2</ele>
        <time>2025-01-17T16:58:01.551Z</time>
      </trkpt>
      <trkpt lat="46.73292" lon="-1.9829">
        <ele>9.2</ele>
        <time>2025-01-17T16:58:02.551Z</time>
      </trkpt>
      <trkpt lat="46.73292" lon="-1.98293">
        <ele>9.3</ele>
        <time>2025-01-17T16:58:03.551Z</time>
      </trkpt>
      <trkpt lat="46.73292" lon="-1.98295">
        <ele>9.3</ele>
        <time>2025-01-17T16:58:04.551Z</time>
      </trkpt>
      <trkpt lat="46.73291" lon="-1.98297">
        <ele>9.3</ele>
        <time>2025-01-17T16:58:05.551Z</time>
      </trkpt>
      <trkpt lat="46.73291" lon="-1.983">
        <ele>9.4</ele>
        <time>2025-01-17T16:58:06.551Z</time>
      </trkpt>
      <trkpt lat="46.7329" lon="-1.98303">
        <ele>9.4</ele>
        <time>2025-01-17T16:58:07.551Z</time>
      </trkpt>
      <trkpt lat="46.7329" lon="-1.98305">
        <ele>9.4</ele>
        <time>2025-01-17T16:58:08.550Z</time>
      </trkpt>
      <trkpt lat="46.7329" lon="-1.98309">
        <ele>9.8</ele>
        <time>2025-01-17T16:58:09.550Z</time>
      </trkpt>
      <trkpt lat="46.73289" lon="-1.98312">
        <ele>10.1</ele>
        <time>2025-01-17T16:58:10.550Z</time>
      </trkpt>
      <trkpt lat="46.73289" lon="-1.98315">
        <ele>10.4</ele>
        <time>2025-01-17T16:58:11.550Z</time>
      </trkpt>
      <trkpt lat="46.73289" lon="-1.98318">
        <ele>10.8</ele>
        <time>2025-01-17T16:58:12.550Z</time>
      </trkpt>
      <trkpt lat="46.73289" lon="-1.9832">
        <ele>11</ele>
        <time>2025-01-17T16:58:13.550Z</time>
      </trkpt>
      <trkpt lat="46.73288" lon="-1.98322">
        <ele>11.3</ele>
        <time>2025-01-17T16:58:14.550Z</time>
      </trkpt>
      <trkpt lat="46.73287" lon="-1.98325">
        <ele>11.6</ele>
        <time>2025-01-17T16:58:15.551Z</time>
      </trkpt>
      <trkpt lat="46.73287" lon="-1.98327">
        <ele>11.9</ele>
        <time>2025-01-17T16:58:16.550Z</time>
      </trkpt>
      <trkpt lat="46.73287" lon="-1.9833">
        <ele>12.3</ele>
        <time>2025-01-17T16:58:17.551Z</time>
      </trkpt>
      <trkpt lat="46.73287" lon="-1.98333">
        <ele>12.6</ele>
        <time>2025-01-17T16:58:18.550Z</time>
      </trkpt>
      <trkpt lat="46.73287" lon="-1.98336">
        <ele>12.5</ele>
        <time>2025-01-17T16:58:19.550Z</time>
      </trkpt>
      <trkpt lat="46.73287" lon="-1.9834">
        <ele>12.2</ele>
        <time>2025-01-17T16:58:20.550Z</time>
      </trkpt>
      <trkpt lat="46.73288" lon="-1.98343">
        <ele>12.1</ele>
        <time>2025-01-17T16:58:21.550Z</time>
      </trkpt>
      <trkpt lat="46.73289" lon="-1.98345">
        <ele>11.9</ele>
        <time>2025-01-17T16:58:22.550Z</time>
      </trkpt>
      <trkpt lat="46.73291" lon="-1.98348">
        <ele>11.7</ele>
        <time>2025-01-17T16:58:23.550Z</time>
      </trkpt>
      <trkpt lat="46.73293" lon="-1.98349">
        <ele>11.7</ele>
        <time>2025-01-17T16:58:24.550Z</time>
      </trkpt>
      <trkpt lat="46.73296" lon="-1.98351">
        <ele>11.7</ele>
        <time>2025-01-17T16:58:25.550Z</time>
      </trkpt>
      <trkpt lat="46.73298" lon="-1.98353">
        <ele>11.8</ele>
        <time>2025-01-17T16:58:26.550Z</time>
      </trkpt>
      <trkpt lat="46.73299" lon="-1.98355">
        <ele>12</ele>
        <time>2025-01-17T16:58:27.550Z</time>
      </trkpt>
      <trkpt lat="46.73301" lon="-1.98357">
        <ele>12.2</ele>
        <time>2025-01-17T16:58:28.550Z</time>
      </trkpt>
      <trkpt lat="46.73302" lon="-1.98359">
        <ele>12.5</ele>
        <time>2025-01-17T16:58:29.550Z</time>
      </trkpt>
      <trkpt lat="46.73304" lon="-1.9836">
        <ele>12.8</ele>
        <time>2025-01-17T16:58:30.551Z</time>
      </trkpt>
      <trkpt lat="46.73306" lon="-1.98361">
        <ele>12.9</ele>
        <time>2025-01-17T16:58:31.551Z</time>
      </trkpt>
      <trkpt lat="46.73309" lon="-1.98362">
        <ele>12.4</ele>
        <time>2025-01-17T16:58:32.551Z</time>
      </trkpt>
      <trkpt lat="46.7331" lon="-1.98365">
        <ele>12</ele>
        <time>2025-01-17T16:58:33.551Z</time>
      </trkpt>
      <trkpt lat="46.73312" lon="-1.98367">
        <ele>11.6</ele>
        <time>2025-01-17T16:58:34.550Z</time>
      </trkpt>
      <trkpt lat="46.73313" lon="-1.9837">
        <ele>11.3</ele>
        <time>2025-01-17T16:58:35.550Z</time>
      </trkpt>
      <trkpt lat="46.73313" lon="-1.98372">
        <ele>11.1</ele>
        <time>2025-01-17T16:58:36.550Z</time>
      </trkpt>
      <trkpt lat="46.73314" lon="-1.98375">
        <ele>10.9</ele>
        <time>2025-01-17T16:58:37.550Z</time>
      </trkpt>
      <trkpt lat="46.73314" lon="-1.98379">
        <ele>10.7</ele>
        <time>2025-01-17T16:58:38.550Z</time>
      </trkpt>
      <trkpt lat="46.73313" lon="-1.98382">
        <ele>10.5</ele>
        <time>2025-01-17T16:58:39.550Z</time>
      </trkpt>
      <trkpt lat="46.73312" lon="-1.98384">
        <ele>10.4</ele>
        <time>2025-01-17T16:58:40.551Z</time>
      </trkpt>
      <trkpt lat="46.73312" lon="-1.98388">
        <ele>10.1</ele>
        <time>2025-01-17T16:58:41.551Z</time>
      </trkpt>
      <trkpt lat="46.73312" lon="-1.98392">
        <ele>9.8</ele>
        <time>2025-01-17T16:58:42.551Z</time>
      </trkpt>
      <trkpt lat="46.73312" lon="-1.98396">
        <ele>9.4</ele>
        <time>2025-01-17T16:58:43.551Z</time>
      </trkpt>
      <trkpt lat="46.73313" lon="-1.98399">
        <ele>9.2</ele>
        <time>2025-01-17T16:58:44.551Z</time>
      </trkpt>
      <trkpt lat="46.73315" lon="-1.98401">
        <ele>9.1</ele>
        <time>2025-01-17T16:58:45.551Z</time>
      </trkpt>
      <trkpt lat="46.73317" lon="-1.98405">
        <ele>9</ele>
        <time>2025-01-17T16:58:46.550Z</time>
      </trkpt>
      <trkpt lat="46.7332" lon="-1.98407">
        <ele>9</ele>
        <time>2025-01-17T16:58:47.550Z</time>
      </trkpt>
      <trkpt lat="46.7332" lon="-1.98409">
        <ele>9</ele>
        <time>2025-01-17T16:58:48.550Z</time>
      </trkpt>
      <trkpt lat="46.7332" lon="-1.9841">
        <ele>8.9</ele>
        <time>2025-01-17T16:58:49.550Z</time>
      </trkpt>
      <trkpt lat="46.73321" lon="-1.98412">
        <ele>8.9</ele>
        <time>2025-01-17T16:58:50.551Z</time>
      </trkpt>
      <trkpt lat="46.73321" lon="-1.98415">
        <ele>8.7</ele>
        <time>2025-01-17T16:58:51.551Z</time>
      </trkpt>
      <trkpt lat="46.73321" lon="-1.98417">
        <ele>8.6</ele>
        <time>2025-01-17T16:58:52.550Z</time>
      </trkpt>
      <trkpt lat="46.73321" lon="-1.98418">
        <ele>8.5</ele>
        <time>2025-01-17T16:58:53.551Z</time>
      </trkpt>
      <trkpt lat="46.73322" lon="-1.9842">
        <ele>8.6</ele>
        <time>2025-01-17T16:58:54.551Z</time>
      </trkpt>
      <trkpt lat="46.73323" lon="-1.98421">
        <ele>8.5</ele>
        <time>2025-01-17T16:58:55.551Z</time>
      </trkpt>
      <trkpt lat="46.73324" lon="-1.98422">
        <ele>8.5</ele>
        <time>2025-01-17T16:58:56.550Z</time>
      </trkpt>
      <trkpt lat="46.73324" lon="-1.98423">
        <ele>8.5</ele>
        <time>2025-01-17T16:58:57.550Z</time>
      </trkpt>
      <trkpt lat="46.73323" lon="-1.98424">
        <ele>8.3</ele>
        <time>2025-01-17T16:58:58.550Z</time>
      </trkpt>
      <trkpt lat="46.73322" lon="-1.98426">
        <ele>8.1</ele>
        <time>2025-01-17T16:58:59.550Z</time>
      </trkpt>
      <trkpt lat="46.73321" lon="-1.98427">
        <ele>7.9</ele>
        <time>2025-01-17T16:59:00.550Z</time>
      </trkpt>
      <trkpt lat="46.73321" lon="-1.98428">
        <ele>7.8</ele>
        <time>2025-01-17T16:59:01.551Z</time>
      </trkpt>
      <trkpt lat="46.73321" lon="-1.9843">
        <ele>7.6</ele>
        <time>2025-01-17T16:59:02.551Z</time>
      </trkpt>
      <trkpt lat="46.7332" lon="-1.98431">
        <ele>7.5</ele>
        <time>2025-01-17T16:59:03.551Z</time>
      </trkpt>
      <trkpt lat="46.73321" lon="-1.98434">
        <ele>7.3</ele>
        <time>2025-01-17T16:59:04.551Z</time>
      </trkpt>
      <trkpt lat="46.73321" lon="-1.98437">
        <ele>7.1</ele>
        <time>2025-01-17T16:59:05.551Z</time>
      </trkpt>
      <trkpt lat="46.73322" lon="-1.98441">
        <ele>6.9</ele>
        <time>2025-01-17T16:59:06.551Z</time>
      </trkpt>
      <trkpt lat="46.73323" lon="-1.98443">
        <ele>6.7</ele>
        <time>2025-01-17T16:59:07.550Z</time>
      </trkpt>
      <trkpt lat="46.73325" lon="-1.98445">
        <ele>6.7</ele>
        <time>2025-01-17T16:59:08.550Z</time>
      </trkpt>
      <trkpt lat="46.73327" lon="-1.98447">
        <ele>6.8</ele>
        <time>2025-01-17T16:59:09.550Z</time>
      </trkpt>
      <trkpt lat="46.73329" lon="-1.98448">
        <ele>6.9</ele>
        <time>2025-01-17T16:59:10.550Z</time>
      </trkpt>
      <trkpt lat="46.73332" lon="-1.98449">
        <ele>7</ele>
        <time>2025-01-17T16:59:11.551Z</time>
      </trkpt>
      <trkpt lat="46.73334" lon="-1.98448">
        <ele>7</ele>
        <time>2025-01-17T16:59:12.550Z</time>
      </trkpt>
      <trkpt lat="46.73336" lon="-1.98448">
        <ele>6.8</ele>
        <time>2025-01-17T16:59:13.550Z</time>
      </trkpt>
      <trkpt lat="46.73339" lon="-1.98447">
        <ele>6.6</ele>
        <time>2025-01-17T16:59:14.550Z</time>
      </trkpt>
      <trkpt lat="46.73342" lon="-1.98445">
        <ele>6.4</ele>
        <time>2025-01-17T16:59:15.551Z</time>
      </trkpt>
      <trkpt lat="46.73344" lon="-1.98443">
        <ele>6.3</ele>
        <time>2025-01-17T16:59:16.551Z</time>
      </trkpt>
      <trkpt lat="46.73347" lon="-1.98441">
        <ele>6.2</ele>
        <time>2025-01-17T16:59:17.551Z</time>
      </trkpt>
      <trkpt lat="46.73349" lon="-1.9844">
        <ele>6.1</ele>
        <time>2025-01-17T16:59:18.551Z</time>
      </trkpt>
      <trkpt lat="46.73351" lon="-1.98439">
        <ele>6</ele>
        <time>2025-01-17T16:59:19.551Z</time>
      </trkpt>
      <trkpt lat="46.73354" lon="-1.98437">
        <ele>5.8</ele>
        <time>2025-01-17T16:59:20.551Z</time>
      </trkpt>
      <trkpt lat="46.73355" lon="-1.98435">
        <ele>5.6</ele>
        <time>2025-01-17T16:59:21.551Z</time>
      </trkpt>
      <trkpt lat="46.73357" lon="-1.98433">
        <ele>5.5</ele>
        <time>2025-01-17T16:59:22.551Z</time>
      </trkpt>
      <trkpt lat="46.73359" lon="-1.98432">
        <ele>5.3</ele>
        <time>2025-01-17T16:59:23.550Z</time>
      </trkpt>
      <trkpt lat="46.7336" lon="-1.9843">
        <ele>5.1</ele>
        <time>2025-01-17T16:59:24.550Z</time>
      </trkpt>
      <trkpt lat="46.73362" lon="-1.98429">
        <ele>5</ele>
        <time>2025-01-17T16:59:25.550Z</time>
      </trkpt>
      <trkpt lat="46.73364" lon="-1.98429">
        <ele>5</ele>
        <time>2025-01-17T16:59:26.550Z</time>
      </trkpt>
      <trkpt lat="46.73365" lon="-1.98429">
        <ele>5</ele>
        <time>2025-01-17T16:59:27.550Z</time>
      </trkpt>
      <trkpt lat="46.73366" lon="-1.98431">
        <ele>5</ele>
        <time>2025-01-17T16:59:28.551Z</time>
      </trkpt>
      <trkpt lat="46.73367" lon="-1.98432">
        <ele>5</ele>
        <time>2025-01-17T16:59:29.550Z</time>
      </trkpt>
      <trkpt lat="46.7337" lon="-1.98434">
        <ele>4.9</ele>
        <time>2025-01-17T16:59:30.551Z</time>
      </trkpt>
      <trkpt lat="46.73371" lon="-1.98436">
        <ele>4.9</ele>
        <time>2025-01-17T16:59:31.551Z</time>
      </trkpt>
      <trkpt lat="46.73373" lon="-1.98439">
        <ele>4.8</ele>
        <time>2025-01-17T16:59:32.551Z</time>
      </trkpt>
      <trkpt lat="46.73373" lon="-1.98441">
        <ele>4.7</ele>
        <time>2025-01-17T16:59:33.551Z</time>
      </trkpt>
      <trkpt lat="46.73373" lon="-1.98444">
        <ele>4.6</ele>
        <time>2025-01-17T16:59:34.550Z</time>
      </trkpt>
      <trkpt lat="46.73373" lon="-1.98446">
        <ele>4.7</ele>
        <time>2025-01-17T16:59:35.550Z</time>
      </trkpt>
      <trkpt lat="46.73373" lon="-1.98449">
        <ele>4.9</ele>
        <time>2025-01-17T16:59:36.550Z</time>
      </trkpt>
      <trkpt lat="46.73372" lon="-1.98454">
        <ele>5.1</ele>
        <time>2025-01-17T16:59:37.550Z</time>
      </trkpt>
      <trkpt lat="46.73373" lon="-1.98457">
        <ele>5.3</ele>
        <time>2025-01-17T16:59:38.551Z</time>
      </trkpt>
      <trkpt lat="46.73374" lon="-1.98459">
        <ele>5.4</ele>
        <time>2025-01-17T16:59:39.550Z</time>
      </trkpt>
      <trkpt lat="46.73376" lon="-1.98462">
        <ele>5.4</ele>
        <time>2025-01-17T16:59:40.550Z</time>
      </trkpt>
      <trkpt lat="46.73377" lon="-1.98465">
        <ele>5.4</ele>
        <time>2025-01-17T16:59:41.550Z</time>
      </trkpt>
      <trkpt lat="46.73379" lon="-1.98467">
        <ele>5.5</ele>
        <time>2025-01-17T16:59:42.551Z</time>
      </trkpt>
      <trkpt lat="46.7338" lon="-1.9847">
        <ele>5.5</ele>
        <time>2025-01-17T16:59:43.551Z</time>
      </trkpt>
      <trkpt lat="46.73381" lon="-1.98473">
        <ele>5.6</ele>
        <time>2025-01-17T16:59:44.551Z</time>
      </trkpt>
      <trkpt lat="46.73381" lon="-1.98477">
        <ele>5.7</ele>
        <time>2025-01-17T16:59:45.550Z</time>
      </trkpt>
      <trkpt lat="46.73382" lon="-1.98482">
        <ele>5.7</ele>
        <time>2025-01-17T16:59:46.550Z</time>
      </trkpt>
      <trkpt lat="46.73383" lon="-1.98486">
        <ele>5.8</ele>
        <time>2025-01-17T16:59:47.550Z</time>
      </trkpt>
      <trkpt lat="46.73385" lon="-1.98491">
        <ele>5.9</ele>
        <time>2025-01-17T16:59:48.550Z</time>
      </trkpt>
      <trkpt lat="46.73386" lon="-1.98493">
        <ele>5.9</ele>
        <time>2025-01-17T16:59:49.550Z</time>
      </trkpt>
      <trkpt lat="46.73386" lon="-1.98494">
        <ele>5.9</ele>
        <time>2025-01-17T16:59:50.551Z</time>
      </trkpt>
      <trkpt lat="46.73387" lon="-1.98496">
        <ele>5.9</ele>
        <time>2025-01-17T16:59:51.551Z</time>
      </trkpt>
      <trkpt lat="46.73388" lon="-1.98499">
        <ele>6</ele>
        <time>2025-01-17T16:59:52.551Z</time>
      </trkpt>
      <trkpt lat="46.73389" lon="-1.98502">
        <ele>6.1</ele>
        <time>2025-01-17T16:59:53.551Z</time>
      </trkpt>
      <trkpt lat="46.7339" lon="-1.98504">
        <ele>6.1</ele>
        <time>2025-01-17T16:59:54.551Z</time>
      </trkpt>
      <trkpt lat="46.73391" lon="-1.98505">
        <ele>6.1</ele>
        <time>2025-01-17T16:59:55.550Z</time>
      </trkpt>
      <trkpt lat="46.73393" lon="-1.98508">
        <ele>6.2</ele>
        <time>2025-01-17T16:59:56.550Z</time>
      </trkpt>
      <trkpt lat="46.73394" lon="-1.98511">
        <ele>6.2</ele>
        <time>2025-01-17T16:59:57.550Z</time>
      </trkpt>
      <trkpt lat="46.73394" lon="-1.98514">
        <ele>6.3</ele>
        <time>2025-01-17T16:59:58.550Z</time>
      </trkpt>
      <trkpt lat="46.73396" lon="-1.98516">
        <ele>6.3</ele>
        <time>2025-01-17T16:59:59.550Z</time>
      </trkpt>
      <trkpt lat="46.73398" lon="-1.98519">
        <ele>6.4</ele>
        <time>2025-01-17T17:00:00.550Z</time>
      </trkpt>
      <trkpt lat="46.73399" lon="-1.98521">
        <ele>6.4</ele>
        <time>2025-01-17T17:00:01.551Z</time>
      </trkpt>
      <trkpt lat="46.73401" lon="-1.98524">
        <ele>6.4</ele>
        <time>2025-01-17T17:00:02.550Z</time>
      </trkpt>
      <trkpt lat="46.73402" lon="-1.98525">
        <ele>6.4</ele>
        <time>2025-01-17T17:00:03.551Z</time>
      </trkpt>
      <trkpt lat="46.73403" lon="-1.98527">
        <ele>6.5</ele>
        <time>2025-01-17T17:00:04.551Z</time>
      </trkpt>
      <trkpt lat="46.73404" lon="-1.9853">
        <ele>6.4</ele>
        <time>2025-01-17T17:00:05.550Z</time>
      </trkpt>
      <trkpt lat="46.73406" lon="-1.98529">
        <ele>6.4</ele>
        <time>2025-01-17T17:00:06.550Z</time>
      </trkpt>
      <trkpt lat="46.73408" lon="-1.9853">
        <ele>6.3</ele>
        <time>2025-01-17T17:00:07.550Z</time>
      </trkpt>
      <trkpt lat="46.73408" lon="-1.98532">
        <ele>6.2</ele>
        <time>2025-01-17T17:00:08.550Z</time>
      </trkpt>
      <trkpt lat="46.73408" lon="-1.98535">
        <ele>6.1</ele>
        <time>2025-01-17T17:00:09.550Z</time>
      </trkpt>
      <trkpt lat="46.73408" lon="-1.98538">
        <ele>6.1</ele>
        <time>2025-01-17T17:00:10.551Z</time>
      </trkpt>
      <trkpt lat="46.73408" lon="-1.9854">
        <ele>6</ele>
        <time>2025-01-17T17:00:11.551Z</time>
      </trkpt>
      <trkpt lat="46.73407" lon="-1.98542">
        <ele>6</ele>
        <time>2025-01-17T17:00:12.551Z</time>
      </trkpt>
      <trkpt lat="46.73406" lon="-1.98543">
        <ele>6</ele>
        <time>2025-01-17T17:00:13.551Z</time>
      </trkpt>
      <trkpt lat="46.73406" lon="-1.98544">
        <ele>6</ele>
        <time>2025-01-17T17:00:14.550Z</time>
      </trkpt>
      <trkpt lat="46.73407" lon="-1.98546">
        <ele>5.9</ele>
        <time>2025-01-17T17:00:15.550Z</time>
      </trkpt>
      <trkpt lat="46.73407" lon="-1.98548">
        <ele>5.8</ele>
        <time>2025-01-17T17:00:16.550Z</time>
      </trkpt>
      <trkpt lat="46.73408" lon="-1.9855">
        <ele>5.8</ele>
        <time>2025-01-17T17:00:17.550Z</time>
      </trkpt>
      <trkpt lat="46.7341" lon="-1.98551">
        <ele>5.6</ele>
        <time>2025-01-17T17:00:18.550Z</time>
      </trkpt>
      <trkpt lat="46.73412" lon="-1.98554">
        <ele>5.4</ele>
        <time>2025-01-17T17:00:19.551Z</time>
      </trkpt>
      <trkpt lat="46.73414" lon="-1.98556">
        <ele>5.2</ele>
        <time>2025-01-17T17:00:20.551Z</time>
      </trkpt>
      <trkpt lat="46.73416" lon="-1.98557">
        <ele>5</ele>
        <time>2025-01-17T17:00:21.551Z</time>
      </trkpt>
      <trkpt lat="46.73419" lon="-1.98559">
        <ele>4.9</ele>
        <time>2025-01-17T17:00:22.551Z</time>
      </trkpt>
      <trkpt lat="46.73421" lon="-1.98562">
        <ele>4.9</ele>
        <time>2025-01-17T17:00:23.551Z</time>
      </trkpt>
      <trkpt lat="46.73423" lon="-1.98565">
        <ele>4.9</ele>
        <time>2025-01-17T17:00:24.550Z</time>
      </trkpt>
      <trkpt lat="46.73424" lon="-1.98569">
        <ele>4.8</ele>
        <time>2025-01-17T17:00:25.550Z</time>
      </trkpt>
      <trkpt lat="46.73425" lon="-1.98572">
        <ele>4.7</ele>
        <time>2025-01-17T17:00:26.551Z</time>
      </trkpt>
      <trkpt lat="46.73426" lon="-1.98575">
        <ele>4.6</ele>
        <time>2025-01-17T17:00:27.551Z</time>
      </trkpt>
      <trkpt lat="46.73427" lon="-1.98576">
        <ele>4.6</ele>
        <time>2025-01-17T17:00:28.550Z</time>
      </trkpt>
      <trkpt lat="46.7343" lon="-1.98578">
        <ele>4.7</ele>
        <time>2025-01-17T17:00:29.551Z</time>
      </trkpt>
      <trkpt lat="46.73431" lon="-1.9858">
        <ele>4.6</ele>
        <time>2025-01-17T17:00:30.550Z</time>
      </trkpt>
      <trkpt lat="46.73432" lon="-1.98582">
        <ele>4.6</ele>
        <time>2025-01-17T17:00:31.551Z</time>
      </trkpt>
      <trkpt lat="46.73433" lon="-1.98585">
        <ele>4.6</ele>
        <time>2025-01-17T17:00:32.551Z</time>
      </trkpt>
      <trkpt lat="46.73433" lon="-1.98589">
        <ele>4.8</ele>
        <time>2025-01-17T17:00:33.551Z</time>
      </trkpt>
      <trkpt lat="46.73434" lon="-1.98592">
        <ele>4.9</ele>
        <time>2025-01-17T17:00:34.551Z</time>
      </trkpt>
      <trkpt lat="46.73434" lon="-1.98595">
        <ele>5</ele>
        <time>2025-01-17T17:00:35.550Z</time>
      </trkpt>
      <trkpt lat="46.73435" lon="-1.98598">
        <ele>5.2</ele>
        <time>2025-01-17T17:00:36.550Z</time>
      </trkpt>
      <trkpt lat="46.73435" lon="-1.98599">
        <ele>5.2</ele>
        <time>2025-01-17T17:00:37.550Z</time>
      </trkpt>
      <trkpt lat="46.73436" lon="-1.98601">
        <ele>5.3</ele>
        <time>2025-01-17T17:00:38.550Z</time>
      </trkpt>
      <trkpt lat="46.73437" lon="-1.98601">
        <ele>5.4</ele>
        <time>2025-01-17T17:00:39.550Z</time>
      </trkpt>
      <trkpt lat="46.73438" lon="-1.98602">
        <ele>5.4</ele>
        <time>2025-01-17T17:00:40.551Z</time>
      </trkpt>
      <trkpt lat="46.73438" lon="-1.98603">
        <ele>5.5</ele>
        <time>2025-01-17T17:00:41.551Z</time>
      </trkpt>
      <trkpt lat="46.73438" lon="-1.98603">
        <ele>5.5</ele>
        <time>2025-01-17T17:00:42.551Z</time>
      </trkpt>
      <trkpt lat="46.73438" lon="-1.98603">
        <ele>5.5</ele>
        <time>2025-01-17T17:00:43.550Z</time>
      </trkpt>
      <trkpt lat="46.73438" lon="-1.98603">
        <ele>5.5</ele>
        <time>2025-01-17T17:00:44.550Z</time>
      </trkpt>
      <trkpt lat="46.73438" lon="-1.98604">
        <ele>5.5</ele>
        <time>2025-01-17T17:00:45.551Z</time>
      </trkpt>
      <trkpt lat="46.73438" lon="-1.98603">
        <ele>5.5</ele>
        <time>2025-01-17T17:00:46.551Z</time>
      </trkpt>
      <trkpt lat="46.73439" lon="-1.98604">
        <ele>5.6</ele>
        <time>2025-01-17T17:00:47.551Z</time>
      </trkpt>
      <trkpt lat="46.73441" lon="-1.98604">
        <ele>5.6</ele>
        <time>2025-01-17T17:00:48.551Z</time>
      </trkpt>
      <trkpt lat="46.73442" lon="-1.98603">
        <ele>5.6</ele>
        <time>2025-01-17T17:00:49.551Z</time>
      </trkpt>
      <trkpt lat="46.73443" lon="-1.98602">
        <ele>5.6</ele>
        <time>2025-01-17T17:00:50.551Z</time>
      </trkpt>
      <trkpt lat="46.73445" lon="-1.98601">
        <ele>5.6</ele>
        <time>2025-01-17T17:00:51.551Z</time>
      </trkpt>
      <trkpt lat="46.73447" lon="-1.986">
        <ele>5.5</ele>
        <time>2025-01-17T17:00:52.551Z</time>
      </trkpt>
      <trkpt lat="46.73449" lon="-1.98599">
        <ele>5.5</ele>
        <time>2025-01-17T17:00:53.551Z</time>
      </trkpt>
      <trkpt lat="46.73451" lon="-1.98598">
        <ele>5.4</ele>
        <time>2025-01-17T17:00:54.551Z</time>
      </trkpt>
      <trkpt lat="46.73453" lon="-1.98597">
        <ele>5.3</ele>
        <time>2025-01-17T17:00:55.551Z</time>
      </trkpt>
      <trkpt lat="46.73455" lon="-1.98598">
        <ele>5.3</ele>
        <time>2025-01-17T17:00:56.551Z</time>
      </trkpt>
      <trkpt lat="46.73457" lon="-1.98598">
        <ele>5.3</ele>
        <time>2025-01-17T17:00:57.550Z</time>
      </trkpt>
      <trkpt lat="46.73459" lon="-1.98597">
        <ele>5.2</ele>
        <time>2025-01-17T17:00:58.551Z</time>
      </trkpt>
      <trkpt lat="46.73462" lon="-1.98597">
        <ele>5.2</ele>
        <time>2025-01-17T17:00:59.550Z</time>
      </trkpt>
      <trkpt lat="46.73466" lon="-1.98596">
        <ele>5.1</ele>
        <time>2025-01-17T17:01:00.550Z</time>
      </trkpt>
      <trkpt lat="46.73468" lon="-1.98596">
        <ele>5.1</ele>
        <time>2025-01-17T17:01:01.550Z</time>
      </trkpt>
      <trkpt lat="46.7347" lon="-1.98596">
        <ele>5</ele>
        <time>2025-01-17T17:01:02.550Z</time>
      </trkpt>
      <trkpt lat="46.73471" lon="-1.98596">
        <ele>5</ele>
        <time>2025-01-17T17:01:03.550Z</time>
      </trkpt>
      <trkpt lat="46.73474" lon="-1.98595">
        <ele>4.9</ele>
        <time>2025-01-17T17:01:04.550Z</time>
      </trkpt>
      <trkpt lat="46.73476" lon="-1.98593">
        <ele>4.9</ele>
        <time>2025-01-17T17:01:05.550Z</time>
      </trkpt>
      <trkpt lat="46.73479" lon="-1.98592">
        <ele>4.8</ele>
        <time>2025-01-17T17:01:06.551Z</time>
      </trkpt>
      <trkpt lat="46.73481" lon="-1.9859">
        <ele>4.7</ele>
        <time>2025-01-17T17:01:07.551Z</time>
      </trkpt>
      <trkpt lat="46.73483" lon="-1.98588">
        <ele>4.6</ele>
        <time>2025-01-17T17:01:08.551Z</time>
      </trkpt>
      <trkpt lat="46.73485" lon="-1.98586">
        <ele>4.6</ele>
        <time>2025-01-17T17:01:09.551Z</time>
      </trkpt>
      <trkpt lat="46.73486" lon="-1.98584">
        <ele>4.5</ele>
        <time>2025-01-17T17:01:10.551Z</time>
      </trkpt>
      <trkpt lat="46.73488" lon="-1.98582">
        <ele>4.5</ele>
        <time>2025-01-17T17:01:11.550Z</time>
      </trkpt>
      <trkpt lat="46.73491" lon="-1.9858">
        <ele>4.4</ele>
        <time>2025-01-17T17:01:12.550Z</time>
      </trkpt>
      <trkpt lat="46.73494" lon="-1.98577">
        <ele>4.4</ele>
        <time>2025-01-17T17:01:13.550Z</time>
      </trkpt>
      <trkpt lat="46.73497" lon="-1.98576">
        <ele>4.4</ele>
        <time>2025-01-17T17:01:14.551Z</time>
      </trkpt>
      <trkpt lat="46.735" lon="-1.98576">
        <ele>4.3</ele>
        <time>2025-01-17T17:01:15.551Z</time>
      </trkpt>
      <trkpt lat="46.73501" lon="-1.98575">
        <ele>4.3</ele>
        <time>2025-01-17T17:01:16.551Z</time>
      </trkpt>
      <trkpt lat="46.73503" lon="-1.98573">
        <ele>4.3</ele>
        <time>2025-01-17T17:01:17.551Z</time>
      </trkpt>
      <trkpt lat="46.73506" lon="-1.9857">
        <ele>4.4</ele>
        <time>2025-01-17T17:01:18.550Z</time>
      </trkpt>
      <trkpt lat="46.73508" lon="-1.98568">
        <ele>4.4</ele>
        <time>2025-01-17T17:01:19.550Z</time>
      </trkpt>
      <trkpt lat="46.7351" lon="-1.98566">
        <ele>4.4</ele>
        <time>2025-01-17T17:01:20.551Z</time>
      </trkpt>
      <trkpt lat="46.73512" lon="-1.98563">
        <ele>4.4</ele>
        <time>2025-01-17T17:01:21.550Z</time>
      </trkpt>
      <trkpt lat="46.73514" lon="-1.98561">
        <ele>4.4</ele>
        <time>2025-01-17T17:01:22.550Z</time>
      </trkpt>
      <trkpt lat="46.73517" lon="-1.98559">
        <ele>4.4</ele>
        <time>2025-01-17T17:01:23.551Z</time>
      </trkpt>
      <trkpt lat="46.7352" lon="-1.98556">
        <ele>4.3</ele>
        <time>2025-01-17T17:01:24.551Z</time>
      </trkpt>
      <trkpt lat="46.73523" lon="-1.98553">
        <ele>4.1</ele>
        <time>2025-01-17T17:01:25.551Z</time>
      </trkpt>
      <trkpt lat="46.73525" lon="-1.9855">
        <ele>4.1</ele>
        <time>2025-01-17T17:01:26.551Z</time>
      </trkpt>
      <trkpt lat="46.73528" lon="-1.98548">
        <ele>4</ele>
        <time>2025-01-17T17:01:27.551Z</time>
      </trkpt>
      <trkpt lat="46.7353" lon="-1.98545">
        <ele>4</ele>
        <time>2025-01-17T17:01:28.550Z</time>
      </trkpt>
      <trkpt lat="46.73531" lon="-1.98543">
        <ele>4</ele>
        <time>2025-01-17T17:01:29.550Z</time>
      </trkpt>
      <trkpt lat="46.73534" lon="-1.98541">
        <ele>4</ele>
        <time>2025-01-17T17:01:30.550Z</time>
      </trkpt>
      <trkpt lat="46.73537" lon="-1.98538">
        <ele>4</ele>
        <time>2025-01-17T17:01:31.551Z</time>
      </trkpt>
      <trkpt lat="46.7354" lon="-1.98536">
        <ele>4</ele>
        <time>2025-01-17T17:01:32.551Z</time>
      </trkpt>
      <trkpt lat="46.73544" lon="-1.98532">
        <ele>4</ele>
        <time>2025-01-17T17:01:33.551Z</time>
      </trkpt>
      <trkpt lat="46.73548" lon="-1.98529">
        <ele>4</ele>
        <time>2025-01-17T17:01:34.551Z</time>
      </trkpt>
      <trkpt lat="46.73552" lon="-1.98527">
        <ele>4</ele>
        <time>2025-01-17T17:01:35.550Z</time>
      </trkpt>
      <trkpt lat="46.73555" lon="-1.98523">
        <ele>4.2</ele>
        <time>2025-01-17T17:01:36.550Z</time>
      </trkpt>
      <trkpt lat="46.73557" lon="-1.98522">
        <ele>4.3</ele>
        <time>2025-01-17T17:01:37.550Z</time>
      </trkpt>
      <trkpt lat="46.73559" lon="-1.98518">
        <ele>4.4</ele>
        <time>2025-01-17T17:01:38.550Z</time>
      </trkpt>
      <trkpt lat="46.73561" lon="-1.98516">
        <ele>4.5</ele>
        <time>2025-01-17T17:01:39.550Z</time>
      </trkpt>
      <trkpt lat="46.73563" lon="-1.98513">
        <ele>4.6</ele>
        <time>2025-01-17T17:01:40.550Z</time>
      </trkpt>
      <trkpt lat="46.73565" lon="-1.98511">
        <ele>4.7</ele>
        <time>2025-01-17T17:01:41.551Z</time>
      </trkpt>
      <trkpt lat="46.73568" lon="-1.98508">
        <ele>4.8</ele>
        <time>2025-01-17T17:01:42.550Z</time>
      </trkpt>
      <trkpt lat="46.7357" lon="-1.98505">
        <ele>4.9</ele>
        <time>2025-01-17T17:01:43.550Z</time>
      </trkpt>
      <trkpt lat="46.73572" lon="-1.98503">
        <ele>5</ele>
        <time>2025-01-17T17:01:44.550Z</time>
      </trkpt>
      <trkpt lat="46.73574" lon="-1.98499">
        <ele>5</ele>
        <time>2025-01-17T17:01:45.550Z</time>
      </trkpt>
      <trkpt lat="46.73576" lon="-1.98496">
        <ele>5.1</ele>
        <time>2025-01-17T17:01:46.551Z</time>
      </trkpt>
      <trkpt lat="46.73578" lon="-1.98494">
        <ele>5.1</ele>
        <time>2025-01-17T17:01:47.551Z</time>
      </trkpt>
      <trkpt lat="46.73579" lon="-1.98492">
        <ele>5.2</ele>
        <time>2025-01-17T17:01:48.551Z</time>
      </trkpt>
      <trkpt lat="46.73582" lon="-1.9849">
        <ele>5.3</ele>
        <time>2025-01-17T17:01:49.551Z</time>
      </trkpt>
      <trkpt lat="46.73584" lon="-1.98489">
        <ele>5.4</ele>
        <time>2025-01-17T17:01:50.550Z</time>
      </trkpt>
      <trkpt lat="46.73586" lon="-1.98489">
        <ele>5.4</ele>
        <time>2025-01-17T17:01:51.550Z</time>
      </trkpt>
      <trkpt lat="46.73587" lon="-1.98489">
        <ele>5.5</ele>
        <time>2025-01-17T17:01:52.550Z</time>
      </trkpt>
      <trkpt lat="46.73588" lon="-1.98487">
        <ele>5.6</ele>
        <time>2025-01-17T17:01:53.550Z</time>
      </trkpt>
      <trkpt lat="46.7359" lon="-1.98485">
        <ele>5.6</ele>
        <time>2025-01-17T17:01:54.551Z</time>
      </trkpt>
      <trkpt lat="46.73591" lon="-1.98482">
        <ele>5.7</ele>
        <time>2025-01-17T17:01:55.551Z</time>
      </trkpt>
      <trkpt lat="46.73592" lon="-1.98481">
        <ele>5.8</ele>
        <time>2025-01-17T17:01:56.551Z</time>
      </trkpt>
      <trkpt lat="46.73592" lon="-1.9848">
        <ele>5.8</ele>
        <time>2025-01-17T17:01:57.551Z</time>
      </trkpt>
      <trkpt lat="46.73593" lon="-1.98479">
        <ele>5.8</ele>
        <time>2025-01-17T17:01:58.550Z</time>
      </trkpt>
      <trkpt lat="46.73594" lon="-1.98477">
        <ele>5.9</ele>
        <time>2025-01-17T17:01:59.550Z</time>
      </trkpt>
      <trkpt lat="46.73595" lon="-1.98473">
        <ele>6</ele>
        <time>2025-01-17T17:02:00.551Z</time>
      </trkpt>
      <trkpt lat="46.73597" lon="-1.98468">
        <ele>5.9</ele>
        <time>2025-01-17T17:02:01.550Z</time>
      </trkpt>
      <trkpt lat="46.73598" lon="-1.98464">
        <ele>5.7</ele>
        <time>2025-01-17T17:02:02.550Z</time>
      </trkpt>
      <trkpt lat="46.73599" lon="-1.98461">
        <ele>5.6</ele>
        <time>2025-01-17T17:02:03.551Z</time>
      </trkpt>
      <trkpt lat="46.73599" lon="-1.98459">
        <ele>5.5</ele>
        <time>2025-01-17T17:02:04.550Z</time>
      </trkpt>
      <trkpt lat="46.73599" lon="-1.98456">
        <ele>5.4</ele>
        <time>2025-01-17T17:02:05.551Z</time>
      </trkpt>
      <trkpt lat="46.736" lon="-1.98453">
        <ele>5.3</ele>
        <time>2025-01-17T17:02:06.550Z</time>
      </trkpt>
      <trkpt lat="46.736" lon="-1.9845">
        <ele>5.2</ele>
        <time>2025-01-17T17:02:07.550Z</time>
      </trkpt>
      <trkpt lat="46.73601" lon="-1.98447">
        <ele>5.1</ele>
        <time>2025-01-17T17:02:08.550Z</time>
      </trkpt>
      <trkpt lat="46.73603" lon="-1.98445">
        <ele>5</ele>
        <time>2025-01-17T17:02:09.550Z</time>
      </trkpt>
      <trkpt lat="46.73604" lon="-1.98443">
        <ele>5</ele>
        <time>2025-01-17T17:02:10.550Z</time>
      </trkpt>
      <trkpt lat="46.73606" lon="-1.98442">
        <ele>5</ele>
        <time>2025-01-17T17:02:11.550Z</time>
      </trkpt>
      <trkpt lat="46.73608" lon="-1.9844">
        <ele>5</ele>
        <time>2025-01-17T17:02:12.551Z</time>
      </trkpt>
      <trkpt lat="46.73609" lon="-1.98439">
        <ele>5</ele>
        <time>2025-01-17T17:02:13.551Z</time>
      </trkpt>
      <trkpt lat="46.7361" lon="-1.98439">
        <ele>5</ele>
        <time>2025-01-17T17:02:14.550Z</time>
      </trkpt>
      <trkpt lat="46.7361" lon="-1.98439">
        <ele>5</ele>
        <time>2025-01-17T17:02:15.550Z</time>
      </trkpt>
      <trkpt lat="46.73611" lon="-1.98439">
        <ele>5</ele>
        <time>2025-01-17T17:02:16.550Z</time>
      </trkpt>
      <trkpt lat="46.73613" lon="-1.98437">
        <ele>5</ele>
        <time>2025-01-17T17:02:17.550Z</time>
      </trkpt>
      <trkpt lat="46.73614" lon="-1.98434">
        <ele>5</ele>
        <time>2025-01-17T17:02:18.550Z</time>
      </trkpt>
      <trkpt lat="46.73616" lon="-1.98431">
        <ele>5</ele>
        <time>2025-01-17T17:02:19.550Z</time>
      </trkpt>
      <trkpt lat="46.73618" lon="-1.98427">
        <ele>5</ele>
        <time>2025-01-17T17:02:20.550Z</time>
      </trkpt>
      <trkpt lat="46.73619" lon="-1.98425">
        <ele>5</ele>
        <time>2025-01-17T17:02:21.551Z</time>
      </trkpt>
      <trkpt lat="46.7362" lon="-1.98422">
        <ele>5</ele>
        <time>2025-01-17T17:02:22.551Z</time>
      </trkpt>
      <trkpt lat="46.73621" lon="-1.98419">
        <ele>5</ele>
        <time>2025-01-17T17:02:23.550Z</time>
      </trkpt>
      <trkpt lat="46.73622" lon="-1.98416">
        <ele>5</ele>
        <time>2025-01-17T17:02:24.551Z</time>
      </trkpt>
      <trkpt lat="46.73622" lon="-1.98414">
        <ele>4.9</ele>
        <time>2025-01-17T17:02:25.550Z</time>
      </trkpt>
      <trkpt lat="46.73621" lon="-1.9841">
        <ele>4.9</ele>
        <time>2025-01-17T17:02:26.551Z</time>
      </trkpt>
      <trkpt lat="46.73623" lon="-1.98408">
        <ele>4.8</ele>
        <time>2025-01-17T17:02:27.551Z</time>
      </trkpt>
      <trkpt lat="46.73624" lon="-1.98406">
        <ele>4.8</ele>
        <time>2025-01-17T17:02:28.551Z</time>
      </trkpt>
      <trkpt lat="46.73625" lon="-1.98403">
        <ele>4.8</ele>
        <time>2025-01-17T17:02:29.551Z</time>
      </trkpt>
      <trkpt lat="46.73626" lon="-1.98402">
        <ele>4.7</ele>
        <time>2025-01-17T17:02:30.550Z</time>
      </trkpt>
      <trkpt lat="46.73626" lon="-1.984">
        <ele>4.7</ele>
        <time>2025-01-17T17:02:31.551Z</time>
      </trkpt>
      <trkpt lat="46.73627" lon="-1.98397">
        <ele>4.7</ele>
        <time>2025-01-17T17:02:32.550Z</time>
      </trkpt>
      <trkpt lat="46.73627" lon="-1.98394">
        <ele>4.7</ele>
        <time>2025-01-17T17:02:33.551Z</time>
      </trkpt>
      <trkpt lat="46.73629" lon="-1.9839">
        <ele>4.7</ele>
        <time>2025-01-17T17:02:34.550Z</time>
      </trkpt>
      <trkpt lat="46.7363" lon="-1.98388">
        <ele>4.7</ele>
        <time>2025-01-17T17:02:35.550Z</time>
      </trkpt>
      <trkpt lat="46.73633" lon="-1.98385">
        <ele>4.8</ele>
        <time>2025-01-17T17:02:36.550Z</time>
      </trkpt>
      <trkpt lat="46.73634" lon="-1.98383">
        <ele>4.9</ele>
        <time>2025-01-17T17:02:37.550Z</time>
      </trkpt>
      <trkpt lat="46.73636" lon="-1.98379">
        <ele>4.9</ele>
        <time>2025-01-17T17:02:38.550Z</time>
      </trkpt>
      <trkpt lat="46.73636" lon="-1.98376">
        <ele>4.9</ele>
        <time>2025-01-17T17:02:39.551Z</time>
      </trkpt>
      <trkpt lat="46.73634" lon="-1.98372">
        <ele>4.9</ele>
        <time>2025-01-17T17:02:40.550Z</time>
      </trkpt>
      <trkpt lat="46.73633" lon="-1.98368">
        <ele>4.9</ele>
        <time>2025-01-17T17:02:41.550Z</time>
      </trkpt>
      <trkpt lat="46.73632" lon="-1.98365">
        <ele>5</ele>
        <time>2025-01-17T17:02:42.551Z</time>
      </trkpt>
      <trkpt lat="46.7363" lon="-1.98359">
        <ele>5</ele>
        <time>2025-01-17T17:02:43.550Z</time>
      </trkpt>
      <trkpt lat="46.73628" lon="-1.98354">
        <ele>5</ele>
        <time>2025-01-17T17:02:44.550Z</time>
      </trkpt>
      <trkpt lat="46.73626" lon="-1.98351">
        <ele>5</ele>
        <time>2025-01-17T17:02:45.551Z</time>
      </trkpt>
      <trkpt lat="46.73624" lon="-1.98348">
        <ele>5</ele>
        <time>2025-01-17T17:02:46.551Z</time>
      </trkpt>
      <trkpt lat="46.73623" lon="-1.98345">
        <ele>5</ele>
        <time>2025-01-17T17:02:47.550Z</time>
      </trkpt>
      <trkpt lat="46.7362" lon="-1.98342">
        <ele>5</ele>
        <time>2025-01-17T17:02:48.550Z</time>
      </trkpt>
      <trkpt lat="46.73619" lon="-1.98339">
        <ele>5</ele>
        <time>2025-01-17T17:02:49.551Z</time>
      </trkpt>
      <trkpt lat="46.73619" lon="-1.98335">
        <ele>5</ele>
        <time>2025-01-17T17:02:50.551Z</time>
      </trkpt>
      <trkpt lat="46.73618" lon="-1.98332">
        <ele>5</ele>
        <time>2025-01-17T17:02:51.550Z</time>
      </trkpt>
      <trkpt lat="46.73616" lon="-1.9833">
        <ele>5.1</ele>
        <time>2025-01-17T17:02:52.550Z</time>
      </trkpt>
      <trkpt lat="46.73615" lon="-1.98327">
        <ele>5.2</ele>
        <time>2025-01-17T17:02:53.551Z</time>
      </trkpt>
      <trkpt lat="46.73614" lon="-1.98323">
        <ele>5.4</ele>
        <time>2025-01-17T17:02:54.551Z</time>
      </trkpt>
      <trkpt lat="46.73613" lon="-1.9832">
        <ele>5.5</ele>
        <time>2025-01-17T17:02:55.550Z</time>
      </trkpt>
      <trkpt lat="46.73612" lon="-1.98315">
        <ele>5.7</ele>
        <time>2025-01-17T17:02:56.550Z</time>
      </trkpt>
      <trkpt lat="46.73611" lon="-1.98311">
        <ele>5.8</ele>
        <time>2025-01-17T17:02:57.550Z</time>
      </trkpt>
      <trkpt lat="46.7361" lon="-1.98309">
        <ele>5.9</ele>
        <time>2025-01-17T17:02:58.551Z</time>
      </trkpt>
      <trkpt lat="46.73609" lon="-1.98306">
        <ele>6.1</ele>
        <time>2025-01-17T17:02:59.550Z</time>
      </trkpt>
      <trkpt lat="46.73608" lon="-1.98305">
        <ele>6.1</ele>
        <time>2025-01-17T17:03:00.550Z</time>
      </trkpt>
      <trkpt lat="46.73606" lon="-1.98303">
        <ele>6.2</ele>
        <time>2025-01-17T17:03:01.550Z</time>
      </trkpt>
      <trkpt lat="46.73604" lon="-1.983">
        <ele>6.2</ele>
        <time>2025-01-17T17:03:02.550Z</time>
      </trkpt>
      <trkpt lat="46.73602" lon="-1.98298">
        <ele>6.3</ele>
        <time>2025-01-17T17:03:03.551Z</time>
      </trkpt>
      <trkpt lat="46.736" lon="-1.98296">
        <ele>6.4</ele>
        <time>2025-01-17T17:03:04.551Z</time>
      </trkpt>
      <trkpt lat="46.73597" lon="-1.98292">
        <ele>6.5</ele>
        <time>2025-01-17T17:03:05.550Z</time>
      </trkpt>
      <trkpt lat="46.73595" lon="-1.98289">
        <ele>6.6</ele>
        <time>2025-01-17T17:03:06.550Z</time>
      </trkpt>
      <trkpt lat="46.73593" lon="-1.98287">
        <ele>6.7</ele>
        <time>2025-01-17T17:03:07.550Z</time>
      </trkpt>
      <trkpt lat="46.7359" lon="-1.98284">
        <ele>6.8</ele>
        <time>2025-01-17T17:03:08.551Z</time>
      </trkpt>
      <trkpt lat="46.73589" lon="-1.98281">
        <ele>6.8</ele>
        <time>2025-01-17T17:03:09.550Z</time>
      </trkpt>
      <trkpt lat="46.73588" lon="-1.98279">
        <ele>6.8</ele>
        <time>2025-01-17T17:03:10.550Z</time>
      </trkpt>
      <trkpt lat="46.73588" lon="-1.98277">
        <ele>6.8</ele>
        <time>2025-01-17T17:03:11.550Z</time>
      </trkpt>
      <trkpt lat="46.73588" lon="-1.98276">
        <ele>6.8</ele>
        <time>2025-01-17T17:03:12.550Z</time>
      </trkpt>
      <trkpt lat="46.73587" lon="-1.98273">
        <ele>6.7</ele>
        <time>2025-01-17T17:03:13.550Z</time>
      </trkpt>
      <trkpt lat="46.73586" lon="-1.9827">
        <ele>6.6</ele>
        <time>2025-01-17T17:03:14.550Z</time>
      </trkpt>
      <trkpt lat="46.73585" lon="-1.98268">
        <ele>6.6</ele>
        <time>2025-01-17T17:03:15.550Z</time>
      </trkpt>
      <trkpt lat="46.73584" lon="-1.98266">
        <ele>6.6</ele>
        <time>2025-01-17T17:03:16.551Z</time>
      </trkpt>
      <trkpt lat="46.73583" lon="-1.98263">
        <ele>6.5</ele>
        <time>2025-01-17T17:03:17.550Z</time>
      </trkpt>
      <trkpt lat="46.7358" lon="-1.9826">
        <ele>6.5</ele>
        <time>2025-01-17T17:03:18.551Z</time>
      </trkpt>
      <trkpt lat="46.73577" lon="-1.98258">
        <ele>6.5</ele>
        <time>2025-01-17T17:03:19.551Z</time>
      </trkpt>
      <trkpt lat="46.73575" lon="-1.98255">
        <ele>6.6</ele>
        <time>2025-01-17T17:03:20.551Z</time>
      </trkpt>
      <trkpt lat="46.73575" lon="-1.98253">
        <ele>6.6</ele>
        <time>2025-01-17T17:03:21.550Z</time>
      </trkpt>
      <trkpt lat="46.73574" lon="-1.9825">
        <ele>6.7</ele>
        <time>2025-01-17T17:03:22.551Z</time>
      </trkpt>
      <trkpt lat="46.73574" lon="-1.98247">
        <ele>6.7</ele>
        <time>2025-01-17T17:03:23.550Z</time>
      </trkpt>
      <trkpt lat="46.73575" lon="-1.98243">
        <ele>6.6</ele>
        <time>2025-01-17T17:03:24.550Z</time>
      </trkpt>
      <trkpt lat="46.73574" lon="-1.9824">
        <ele>6.7</ele>
        <time>2025-01-17T17:03:25.551Z</time>
      </trkpt>
      <trkpt lat="46.73573" lon="-1.98237">
        <ele>6.7</ele>
        <time>2025-01-17T17:03:26.551Z</time>
      </trkpt>
      <trkpt lat="46.73573" lon="-1.98235">
        <ele>6.8</ele>
        <time>2025-01-17T17:03:27.550Z</time>
      </trkpt>
      <trkpt lat="46.73571" lon="-1.98232">
        <ele>6.9</ele>
        <time>2025-01-17T17:03:28.550Z</time>
      </trkpt>
      <trkpt lat="46.7357" lon="-1.98227">
        <ele>7</ele>
        <time>2025-01-17T17:03:29.550Z</time>
      </trkpt>
      <trkpt lat="46.73567" lon="-1.98223">
        <ele>7.2</ele>
        <time>2025-01-17T17:03:30.550Z</time>
      </trkpt>
      <trkpt lat="46.73566" lon="-1.98221">
        <ele>7.3</ele>
        <time>2025-01-17T17:03:31.551Z</time>
      </trkpt>
      <trkpt lat="46.73563" lon="-1.98218">
        <ele>7.4</ele>
        <time>2025-01-17T17:03:32.551Z</time>
      </trkpt>
      <trkpt lat="46.73562" lon="-1.98216">
        <ele>7.6</ele>
        <time>2025-01-17T17:03:33.551Z</time>
      </trkpt>
      <trkpt lat="46.7356" lon="-1.98213">
        <ele>7.7</ele>
        <time>2025-01-17T17:03:34.551Z</time>
      </trkpt>
      <trkpt lat="46.7356" lon="-1.98211">
        <ele>7.7</ele>
        <time>2025-01-17T17:03:35.550Z</time>
      </trkpt>
      <trkpt lat="46.73559" lon="-1.98209">
        <ele>7.8</ele>
        <time>2025-01-17T17:03:36.550Z</time>
      </trkpt>
      <trkpt lat="46.73558" lon="-1.98207">
        <ele>7.8</ele>
        <time>2025-01-17T17:03:37.550Z</time>
      </trkpt>
      <trkpt lat="46.73557" lon="-1.98206">
        <ele>7.9</ele>
        <time>2025-01-17T17:03:38.551Z</time>
      </trkpt>
      <trkpt lat="46.73556" lon="-1.98204">
        <ele>7.9</ele>
        <time>2025-01-17T17:03:39.550Z</time>
      </trkpt>
      <trkpt lat="46.73556" lon="-1.98202">
        <ele>8</ele>
        <time>2025-01-17T17:03:40.550Z</time>
      </trkpt>
      <trkpt lat="46.73555" lon="-1.98199">
        <ele>8</ele>
        <time>2025-01-17T17:03:41.551Z</time>
      </trkpt>
      <trkpt lat="46.73554" lon="-1.98198">
        <ele>8</ele>
        <time>2025-01-17T17:03:42.550Z</time>
      </trkpt>
      <trkpt lat="46.73553" lon="-1.98196">
        <ele>8</ele>
        <time>2025-01-17T17:03:43.550Z</time>
      </trkpt>
      <trkpt lat="46.73552" lon="-1.98194">
        <ele>8</ele>
        <time>2025-01-17T17:03:44.550Z</time>
      </trkpt>
      <trkpt lat="46.73551" lon="-1.98191">
        <ele>7.7</ele>
        <time>2025-01-17T17:03:45.551Z</time>
      </trkpt>
      <trkpt lat="46.7355" lon="-1.98188">
        <ele>7.6</ele>
        <time>2025-01-17T17:03:46.550Z</time>
      </trkpt>
      <trkpt lat="46.73548" lon="-1.98185">
        <ele>7.4</ele>
        <time>2025-01-17T17:03:47.551Z</time>
      </trkpt>
      <trkpt lat="46.73547" lon="-1.98182">
        <ele>7.3</ele>
        <time>2025-01-17T17:03:48.551Z</time>
      </trkpt>
      <trkpt lat="46.73545" lon="-1.9818">
        <ele>7.1</ele>
        <time>2025-01-17T17:03:49.550Z</time>
      </trkpt>
      <trkpt lat="46.73544" lon="-1.98177">
        <ele>7</ele>
        <time>2025-01-17T17:03:50.550Z</time>
      </trkpt>
      <trkpt lat="46.73544" lon="-1.98174">
        <ele>6.9</ele>
        <time>2025-01-17T17:03:51.550Z</time>
      </trkpt>
      <trkpt lat="46.73543" lon="-1.98171">
        <ele>6.7</ele>
        <time>2025-01-17T17:03:52.551Z</time>
      </trkpt>
      <trkpt lat="46.73542" lon="-1.98167">
        <ele>6.5</ele>
        <time>2025-01-17T17:03:53.550Z</time>
      </trkpt>
      <trkpt lat="46.7354" lon="-1.98164">
        <ele>6.5</ele>
        <time>2025-01-17T17:03:54.551Z</time>
      </trkpt>
      <trkpt lat="46.73539" lon="-1.98161">
        <ele>6.5</ele>
        <time>2025-01-17T17:03:55.550Z</time>
      </trkpt>
      <trkpt lat="46.73537" lon="-1.98157">
        <ele>6.4</ele>
        <time>2025-01-17T17:03:56.551Z</time>
      </trkpt>
      <trkpt lat="46.73535" lon="-1.98153">
        <ele>6.4</ele>
        <time>2025-01-17T17:03:57.551Z</time>
      </trkpt>
      <trkpt lat="46.73533" lon="-1.98148">
        <ele>6.2</ele>
        <time>2025-01-17T17:03:58.550Z</time>
      </trkpt>
      <trkpt lat="46.73531" lon="-1.98143">
        <ele>6.1</ele>
        <time>2025-01-17T17:03:59.550Z</time>
      </trkpt>
      <trkpt lat="46.73528" lon="-1.98139">
        <ele>6</ele>
        <time>2025-01-17T17:04:00.551Z</time>
      </trkpt>
      <trkpt lat="46.73526" lon="-1.98135">
        <ele>6</ele>
        <time>2025-01-17T17:04:01.551Z</time>
      </trkpt>
      <trkpt lat="46.73523" lon="-1.98131">
        <ele>6</ele>
        <time>2025-01-17T17:04:02.551Z</time>
      </trkpt>
      <trkpt lat="46.73521" lon="-1.98128">
        <ele>6</ele>
        <time>2025-01-17T17:04:03.550Z</time>
      </trkpt>
      <trkpt lat="46.73519" lon="-1.98125">
        <ele>6</ele>
        <time>2025-01-17T17:04:04.550Z</time>
      </trkpt>
      <trkpt lat="46.73518" lon="-1.98122">
        <ele>6</ele>
        <time>2025-01-17T17:04:05.550Z</time>
      </trkpt>
      <trkpt lat="46.73517" lon="-1.98121">
        <ele>6</ele>
        <time>2025-01-17T17:04:06.550Z</time>
      </trkpt>
      <trkpt lat="46.73514" lon="-1.9812">
        <ele>6</ele>
        <time>2025-01-17T17:04:07.551Z</time>
      </trkpt>
      <trkpt lat="46.7351" lon="-1.98118">
        <ele>6</ele>
        <time>2025-01-17T17:04:08.551Z</time>
      </trkpt>
      <trkpt lat="46.73508" lon="-1.98116">
        <ele>6</ele>
        <time>2025-01-17T17:04:09.551Z</time>
      </trkpt>
      <trkpt lat="46.73507" lon="-1.98113">
        <ele>6</ele>
        <time>2025-01-17T17:04:10.550Z</time>
      </trkpt>
      <trkpt lat="46.73506" lon="-1.98111">
        <ele>6</ele>
        <time>2025-01-17T17:04:11.550Z</time>
      </trkpt>
      <trkpt lat="46.73505" lon="-1.98108">
        <ele>6.1</ele>
        <time>2025-01-17T17:04:12.550Z</time>
      </trkpt>
      <trkpt lat="46.73503" lon="-1.98106">
        <ele>6.2</ele>
        <time>2025-01-17T17:04:13.550Z</time>
      </trkpt>
      <trkpt lat="46.73501" lon="-1.98104">
        <ele>6.3</ele>
        <time>2025-01-17T17:04:14.551Z</time>
      </trkpt>
      <trkpt lat="46.73499" lon="-1.98102">
        <ele>6.3</ele>
        <time>2025-01-17T17:04:15.551Z</time>
      </trkpt>
      <trkpt lat="46.73497" lon="-1.981">
        <ele>6.5</ele>
        <time>2025-01-17T17:04:16.551Z</time>
      </trkpt>
      <trkpt lat="46.73495" lon="-1.98099">
        <ele>6.6</ele>
        <time>2025-01-17T17:04:17.551Z</time>
      </trkpt>
      <trkpt lat="46.73492" lon="-1.98096">
        <ele>6.7</ele>
        <time>2025-01-17T17:04:18.551Z</time>
      </trkpt>
      <trkpt lat="46.7349" lon="-1.98095">
        <ele>6.7</ele>
        <time>2025-01-17T17:04:19.550Z</time>
      </trkpt>
      <trkpt lat="46.73488" lon="-1.98093">
        <ele>6.8</ele>
        <time>2025-01-17T17:04:20.550Z</time>
      </trkpt>
      <trkpt lat="46.73486" lon="-1.98091">
        <ele>6.9</ele>
        <time>2025-01-17T17:04:21.550Z</time>
      </trkpt>
      <trkpt lat="46.73484" lon="-1.98088">
        <ele>6.9</ele>
        <time>2025-01-17T17:04:22.551Z</time>
      </trkpt>
      <trkpt lat="46.73482" lon="-1.98086">
        <ele>7</ele>
        <time>2025-01-17T17:04:23.550Z</time>
      </trkpt>
      <trkpt lat="46.7348" lon="-1.98084">
        <ele>7</ele>
        <time>2025-01-17T17:04:24.550Z</time>
      </trkpt>
      <trkpt lat="46.73478" lon="-1.98083">
        <ele>7</ele>
        <time>2025-01-17T17:04:25.550Z</time>
      </trkpt>
      <trkpt lat="46.73476" lon="-1.98081">
        <ele>7.1</ele>
        <time>2025-01-17T17:04:26.550Z</time>
      </trkpt>
      <trkpt lat="46.73474" lon="-1.98079">
        <ele>7.2</ele>
        <time>2025-01-17T17:04:27.550Z</time>
      </trkpt>
      <trkpt lat="46.73472" lon="-1.98077">
        <ele>7.2</ele>
        <time>2025-01-17T17:04:28.551Z</time>
      </trkpt>
      <trkpt lat="46.7347" lon="-1.98076">
        <ele>7.3</ele>
        <time>2025-01-17T17:04:29.551Z</time>
      </trkpt>
      <trkpt lat="46.73467" lon="-1.98074">
        <ele>7.3</ele>
        <time>2025-01-17T17:04:30.550Z</time>
      </trkpt>
      <trkpt lat="46.73464" lon="-1.98072">
        <ele>7.3</ele>
        <time>2025-01-17T17:04:31.551Z</time>
      </trkpt>
      <trkpt lat="46.73462" lon="-1.98071">
        <ele>7.3</ele>
        <time>2025-01-17T17:04:32.550Z</time>
      </trkpt>
      <trkpt lat="46.73459" lon="-1.9807">
        <ele>7.3</ele>
        <time>2025-01-17T17:04:33.550Z</time>
      </trkpt>
      <trkpt lat="46.73456" lon="-1.98068">
        <ele>7.2</ele>
        <time>2025-01-17T17:04:34.551Z</time>
      </trkpt>
      <trkpt lat="46.73454" lon="-1.98066">
        <ele>7.2</ele>
        <time>2025-01-17T17:04:35.551Z</time>
      </trkpt>
      <trkpt lat="46.73451" lon="-1.98063">
        <ele>7.2</ele>
        <time>2025-01-17T17:04:36.551Z</time>
      </trkpt>
      <trkpt lat="46.73449" lon="-1.98061">
        <ele>7.1</ele>
        <time>2025-01-17T17:04:37.551Z</time>
      </trkpt>
      <trkpt lat="46.73448" lon="-1.9806">
        <ele>7.1</ele>
        <time>2025-01-17T17:04:38.551Z</time>
      </trkpt>
      <trkpt lat="46.73446" lon="-1.98057">
        <ele>7.1</ele>
        <time>2025-01-17T17:04:39.551Z</time>
      </trkpt>
      <trkpt lat="46.73445" lon="-1.98054">
        <ele>7</ele>
        <time>2025-01-17T17:04:40.551Z</time>
      </trkpt>
      <trkpt lat="46.73444" lon="-1.98051">
        <ele>7</ele>
        <time>2025-01-17T17:04:41.551Z</time>
      </trkpt>
      <trkpt lat="46.73443" lon="-1.98047">
        <ele>7</ele>
        <time>2025-01-17T17:04:42.550Z</time>
      </trkpt>
      <trkpt lat="46.73442" lon="-1.98044">
        <ele>7</ele>
        <time>2025-01-17T17:04:43.550Z</time>
      </trkpt>
      <trkpt lat="46.73441" lon="-1.9804">
        <ele>7.1</ele>
        <time>2025-01-17T17:04:44.551Z</time>
      </trkpt>
      <trkpt lat="46.7344" lon="-1.98037">
        <ele>7.1</ele>
        <time>2025-01-17T17:04:45.551Z</time>
      </trkpt>
      <trkpt lat="46.73439" lon="-1.98032">
        <ele>7.2</ele>
        <time>2025-01-17T17:04:46.551Z</time>
      </trkpt>
      <trkpt lat="46.73438" lon="-1.98026">
        <ele>7.5</ele>
        <time>2025-01-17T17:04:47.550Z</time>
      </trkpt>
      <trkpt lat="46.73436" lon="-1.98022">
        <ele>8</ele>
        <time>2025-01-17T17:04:48.550Z</time>
      </trkpt>
      <trkpt lat="46.73435" lon="-1.98017">
        <ele>8.5</ele>
        <time>2025-01-17T17:04:49.550Z</time>
      </trkpt>
      <trkpt lat="46.73434" lon="-1.98013">
        <ele>8.9</ele>
        <time>2025-01-17T17:04:50.550Z</time>
      </trkpt>
      <trkpt lat="46.73434" lon="-1.98009">
        <ele>9.3</ele>
        <time>2025-01-17T17:04:51.551Z</time>
      </trkpt>
      <trkpt lat="46.73433" lon="-1.98005">
        <ele>9.7</ele>
        <time>2025-01-17T17:04:52.551Z</time>
      </trkpt>
      <trkpt lat="46.73432" lon="-1.98002">
        <ele>9.9</ele>
        <time>2025-01-17T17:04:53.551Z</time>
      </trkpt>
      <trkpt lat="46.7343" lon="-1.97999">
        <ele>9.9</ele>
        <time>2025-01-17T17:04:54.551Z</time>
      </trkpt>
      <trkpt lat="46.73428" lon="-1.97997">
        <ele>9.6</ele>
        <time>2025-01-17T17:04:55.550Z</time>
      </trkpt>
      <trkpt lat="46.73426" lon="-1.97995">
        <ele>9.4</ele>
        <time>2025-01-17T17:04:56.550Z</time>
      </trkpt>
      <trkpt lat="46.73424" lon="-1.9799">
        <ele>9</ele>
        <time>2025-01-17T17:04:57.550Z</time>
      </trkpt>
      <trkpt lat="46.73423" lon="-1.97988">
        <ele>8.8</ele>
        <time>2025-01-17T17:04:58.550Z</time>
      </trkpt>
      <trkpt lat="46.73422" lon="-1.97984">
        <ele>8.6</ele>
        <time>2025-01-17T17:04:59.551Z</time>
      </trkpt>
      <trkpt lat="46.73421" lon="-1.9798">
        <ele>8.4</ele>
        <time>2025-01-17T17:05:00.551Z</time>
      </trkpt>
      <trkpt lat="46.7342" lon="-1.97978">
        <ele>8.3</ele>
        <time>2025-01-17T17:05:01.551Z</time>
      </trkpt>
      <trkpt lat="46.73419" lon="-1.97975">
        <ele>8.1</ele>
        <time>2025-01-17T17:05:02.550Z</time>
      </trkpt>
      <trkpt lat="46.73419" lon="-1.97973">
        <ele>8</ele>
        <time>2025-01-17T17:05:03.550Z</time>
      </trkpt>
      <trkpt lat="46.73418" lon="-1.97969">
        <ele>7.9</ele>
        <time>2025-01-17T17:05:04.551Z</time>
      </trkpt>
      <trkpt lat="46.73417" lon="-1.97967">
        <ele>7.8</ele>
        <time>2025-01-17T17:05:05.551Z</time>
      </trkpt>
      <trkpt lat="46.73415" lon="-1.97963">
        <ele>7.7</ele>
        <time>2025-01-17T17:05:06.551Z</time>
      </trkpt>
      <trkpt lat="46.73413" lon="-1.97959">
        <ele>7.5</ele>
        <time>2025-01-17T17:05:07.551Z</time>
      </trkpt>
      <trkpt lat="46.73411" lon="-1.97955">
        <ele>7.4</ele>
        <time>2025-01-17T17:05:08.550Z</time>
      </trkpt>
      <trkpt lat="46.7341" lon="-1.97952">
        <ele>7.3</ele>
        <time>2025-01-17T17:05:09.550Z</time>
      </trkpt>
      <trkpt lat="46.73409" lon="-1.97948">
        <ele>7.1</ele>
        <time>2025-01-17T17:05:10.550Z</time>
      </trkpt>
      <trkpt lat="46.73407" lon="-1.97946">
        <ele>7</ele>
        <time>2025-01-17T17:05:11.550Z</time>
      </trkpt>
      <trkpt lat="46.73406" lon="-1.97943">
        <ele>6.9</ele>
        <time>2025-01-17T17:05:12.551Z</time>
      </trkpt>
      <trkpt lat="46.73405" lon="-1.97941">
        <ele>6.8</ele>
        <time>2025-01-17T17:05:13.551Z</time>
      </trkpt>
      <trkpt lat="46.73404" lon="-1.97938">
        <ele>6.6</ele>
        <time>2025-01-17T17:05:14.551Z</time>
      </trkpt>
      <trkpt lat="46.73403" lon="-1.97935">
        <ele>6.5</ele>
        <time>2025-01-17T17:05:15.551Z</time>
      </trkpt>
      <trkpt lat="46.73402" lon="-1.97933">
        <ele>6.4</ele>
        <time>2025-01-17T17:05:16.550Z</time>
      </trkpt>
      <trkpt lat="46.73401" lon="-1.9793">
        <ele>6.2</ele>
        <time>2025-01-17T17:05:17.550Z</time>
      </trkpt>
      <trkpt lat="46.734" lon="-1.97927">
        <ele>6.1</ele>
        <time>2025-01-17T17:05:18.550Z</time>
      </trkpt>
      <trkpt lat="46.73399" lon="-1.97924">
        <ele>6</ele>
        <time>2025-01-17T17:05:19.550Z</time>
      </trkpt>
      <trkpt lat="46.73398" lon="-1.97921">
        <ele>5.9</ele>
        <time>2025-01-17T17:05:20.551Z</time>
      </trkpt>
      <trkpt lat="46.73397" lon="-1.97917">
        <ele>5.7</ele>
        <time>2025-01-17T17:05:21.551Z</time>
      </trkpt>
      <trkpt lat="46.73396" lon="-1.97914">
        <ele>5.8</ele>
        <time>2025-01-17T17:05:22.551Z</time>
      </trkpt>
      <trkpt lat="46.73396" lon="-1.97911">
        <ele>5.9</ele>
        <time>2025-01-17T17:05:23.551Z</time>
      </trkpt>
      <trkpt lat="46.73397" lon="-1.97909">
        <ele>6</ele>
        <time>2025-01-17T17:05:24.551Z</time>
      </trkpt>
      <trkpt lat="46.73398" lon="-1.97906">
        <ele>6.1</ele>
        <time>2025-01-17T17:05:25.550Z</time>
      </trkpt>
      <trkpt lat="46.73399" lon="-1.97903">
        <ele>6.2</ele>
        <time>2025-01-17T17:05:26.550Z</time>
      </trkpt>
      <trkpt lat="46.73399" lon="-1.97899">
        <ele>6.3</ele>
        <time>2025-01-17T17:05:27.550Z</time>
      </trkpt>
      <trkpt lat="46.734" lon="-1.97897">
        <ele>6.4</ele>
        <time>2025-01-17T17:05:28.551Z</time>
      </trkpt>
      <trkpt lat="46.73401" lon="-1.97895">
        <ele>6.6</ele>
        <time>2025-01-17T17:05:29.551Z</time>
      </trkpt>
      <trkpt lat="46.73402" lon="-1.97894">
        <ele>6.7</ele>
        <time>2025-01-17T17:05:30.551Z</time>
      </trkpt>
      <trkpt lat="46.73404" lon="-1.97892">
        <ele>6.9</ele>
        <time>2025-01-17T17:05:31.550Z</time>
      </trkpt>
      <trkpt lat="46.73406" lon="-1.97891">
        <ele>7.1</ele>
        <time>2025-01-17T17:05:32.550Z</time>
      </trkpt>
      <trkpt lat="46.73408" lon="-1.97889">
        <ele>7.4</ele>
        <time>2025-01-17T17:05:33.550Z</time>
      </trkpt>
      <trkpt lat="46.7341" lon="-1.97885">
        <ele>7.5</ele>
        <time>2025-01-17T17:05:34.550Z</time>
      </trkpt>
      <trkpt lat="46.73409" lon="-1.97882">
        <ele>7.5</ele>
        <time>2025-01-17T17:05:35.550Z</time>
      </trkpt>
      <trkpt lat="46.73408" lon="-1.97879">
        <ele>7.5</ele>
        <time>2025-01-17T17:05:36.551Z</time>
      </trkpt>
      <trkpt lat="46.73406" lon="-1.97876">
        <ele>7.4</ele>
        <time>2025-01-17T17:05:37.551Z</time>
      </trkpt>
      <trkpt lat="46.73405" lon="-1.97874">
        <ele>7.4</ele>
        <time>2025-01-17T17:05:38.551Z</time>
      </trkpt>
      <trkpt lat="46.73403" lon="-1.97872">
        <ele>7.3</ele>
        <time>2025-01-17T17:05:39.551Z</time>
      </trkpt>
      <trkpt lat="46.73402" lon="-1.9787">
        <ele>7.3</ele>
        <time>2025-01-17T17:05:40.551Z</time>
      </trkpt>
      <trkpt lat="46.734" lon="-1.97868">
        <ele>7.3</ele>
        <time>2025-01-17T17:05:41.551Z</time>
      </trkpt>
      <trkpt lat="46.73399" lon="-1.97866">
        <ele>7.3</ele>
        <time>2025-01-17T17:05:42.551Z</time>
      </trkpt>
      <trkpt lat="46.73398" lon="-1.97865">
        <ele>7.2</ele>
        <time>2025-01-17T17:05:43.551Z</time>
      </trkpt>
      <trkpt lat="46.73396" lon="-1.97863">
        <ele>7.2</ele>
        <time>2025-01-17T17:05:44.551Z</time>
      </trkpt>
      <trkpt lat="46.73394" lon="-1.97861">
        <ele>7.2</ele>
        <time>2025-01-17T17:05:45.550Z</time>
      </trkpt>
      <trkpt lat="46.73392" lon="-1.97859">
        <ele>7.2</ele>
        <time>2025-01-17T17:05:46.550Z</time>
      </trkpt>
      <trkpt lat="46.7339" lon="-1.97858">
        <ele>7.2</ele>
        <time>2025-01-17T17:05:47.550Z</time>
      </trkpt>
      <trkpt lat="46.73389" lon="-1.97856">
        <ele>7.2</ele>
        <time>2025-01-17T17:05:48.550Z</time>
      </trkpt>
      <trkpt lat="46.73388" lon="-1.97854">
        <ele>7.3</ele>
        <time>2025-01-17T17:05:49.551Z</time>
      </trkpt>
      <trkpt lat="46.73387" lon="-1.97852">
        <ele>7.5</ele>
        <time>2025-01-17T17:05:50.551Z</time>
      </trkpt>
      <trkpt lat="46.73386" lon="-1.97849">
        <ele>7.7</ele>
        <time>2025-01-17T17:05:51.551Z</time>
      </trkpt>
      <trkpt lat="46.73385" lon="-1.97847">
        <ele>7.8</ele>
        <time>2025-01-17T17:05:52.551Z</time>
      </trkpt>
      <trkpt lat="46.73384" lon="-1.97845">
        <ele>7.9</ele>
        <time>2025-01-17T17:05:53.550Z</time>
      </trkpt>
      <trkpt lat="46.73383" lon="-1.97842">
        <ele>8.1</ele>
        <time>2025-01-17T17:05:54.550Z</time>
      </trkpt>
      <trkpt lat="46.73383" lon="-1.9784">
        <ele>8.2</ele>
        <time>2025-01-17T17:05:55.551Z</time>
      </trkpt>
      <trkpt lat="46.73381" lon="-1.97838">
        <ele>8.4</ele>
        <time>2025-01-17T17:05:56.550Z</time>
      </trkpt>
      <trkpt lat="46.7338" lon="-1.97835">
        <ele>8.6</ele>
        <time>2025-01-17T17:05:57.551Z</time>
      </trkpt>
      <trkpt lat="46.73379" lon="-1.97832">
        <ele>8.7</ele>
        <time>2025-01-17T17:05:58.551Z</time>
      </trkpt>
      <trkpt lat="46.73378" lon="-1.9783">
        <ele>8.7</ele>
        <time>2025-01-17T17:05:59.551Z</time>
      </trkpt>
      <trkpt lat="46.73377" lon="-1.97828">
        <ele>8.6</ele>
        <time>2025-01-17T17:06:00.550Z</time>
      </trkpt>
      <trkpt lat="46.73376" lon="-1.97824">
        <ele>8.6</ele>
        <time>2025-01-17T17:06:01.551Z</time>
      </trkpt>
      <trkpt lat="46.73374" lon="-1.9782">
        <ele>8.6</ele>
        <time>2025-01-17T17:06:02.550Z</time>
      </trkpt>
      <trkpt lat="46.73372" lon="-1.97817">
        <ele>8.7</ele>
        <time>2025-01-17T17:06:03.550Z</time>
      </trkpt>
      <trkpt lat="46.73371" lon="-1.97814">
        <ele>8.9</ele>
        <time>2025-01-17T17:06:04.551Z</time>
      </trkpt>
      <trkpt lat="46.73369" lon="-1.97811">
        <ele>9</ele>
        <time>2025-01-17T17:06:05.551Z</time>
      </trkpt>
      <trkpt lat="46.73368" lon="-1.97808">
        <ele>9.1</ele>
        <time>2025-01-17T17:06:06.551Z</time>
      </trkpt>
      <trkpt lat="46.73367" lon="-1.97806">
        <ele>9.2</ele>
        <time>2025-01-17T17:06:07.551Z</time>
      </trkpt>
      <trkpt lat="46.73366" lon="-1.97803">
        <ele>9.1</ele>
        <time>2025-01-17T17:06:08.551Z</time>
      </trkpt>
      <trkpt lat="46.73365" lon="-1.978">
        <ele>9</ele>
        <time>2025-01-17T17:06:09.551Z</time>
      </trkpt>
      <trkpt lat="46.73364" lon="-1.97798">
        <ele>8.9</ele>
        <time>2025-01-17T17:06:10.550Z</time>
      </trkpt>
      <trkpt lat="46.73362" lon="-1.97796">
        <ele>8.8</ele>
        <time>2025-01-17T17:06:11.550Z</time>
      </trkpt>
      <trkpt lat="46.73361" lon="-1.97792">
        <ele>8.5</ele>
        <time>2025-01-17T17:06:12.550Z</time>
      </trkpt>
      <trkpt lat="46.7336" lon="-1.9779">
        <ele>8.2</ele>
        <time>2025-01-17T17:06:13.550Z</time>
      </trkpt>
      <trkpt lat="46.7336" lon="-1.97787">
        <ele>7.9</ele>
        <time>2025-01-17T17:06:14.551Z</time>
      </trkpt>
      <trkpt lat="46.7336" lon="-1.97784">
        <ele>7.6</ele>
        <time>2025-01-17T17:06:15.551Z</time>
      </trkpt>
      <trkpt lat="46.73359" lon="-1.97782">
        <ele>7.3</ele>
        <time>2025-01-17T17:06:16.551Z</time>
      </trkpt>
      <trkpt lat="46.73358" lon="-1.97779">
        <ele>7</ele>
        <time>2025-01-17T17:06:17.551Z</time>
      </trkpt>
      <trkpt lat="46.73356" lon="-1.97776">
        <ele>6.8</ele>
        <time>2025-01-17T17:06:18.551Z</time>
      </trkpt>
      <trkpt lat="46.73354" lon="-1.97774">
        <ele>6.9</ele>
        <time>2025-01-17T17:06:19.551Z</time>
      </trkpt>
      <trkpt lat="46.73352" lon="-1.97771">
        <ele>7</ele>
        <time>2025-01-17T17:06:20.551Z</time>
      </trkpt>
      <trkpt lat="46.73352" lon="-1.97768">
        <ele>7.1</ele>
        <time>2025-01-17T17:06:21.551Z</time>
      </trkpt>
      <trkpt lat="46.73352" lon="-1.97766">
        <ele>7.3</ele>
        <time>2025-01-17T17:06:22.550Z</time>
      </trkpt>
      <trkpt lat="46.73351" lon="-1.97763">
        <ele>7.5</ele>
        <time>2025-01-17T17:06:23.550Z</time>
      </trkpt>
      <trkpt lat="46.7335" lon="-1.97761">
        <ele>7.7</ele>
        <time>2025-01-17T17:06:24.550Z</time>
      </trkpt>
      <trkpt lat="46.73348" lon="-1.97759">
        <ele>8.1</ele>
        <time>2025-01-17T17:06:25.550Z</time>
      </trkpt>
      <trkpt lat="46.73345" lon="-1.97757">
        <ele>8.7</ele>
        <time>2025-01-17T17:06:26.550Z</time>
      </trkpt>
      <trkpt lat="46.73343" lon="-1.97755">
        <ele>9.3</ele>
        <time>2025-01-17T17:06:27.551Z</time>
      </trkpt>
      <trkpt lat="46.73341" lon="-1.97753">
        <ele>10</ele>
        <time>2025-01-17T17:06:28.550Z</time>
      </trkpt>
      <trkpt lat="46.73339" lon="-1.97752">
        <ele>10.4</ele>
        <time>2025-01-17T17:06:29.550Z</time>
      </trkpt>
      <trkpt lat="46.73339" lon="-1.97752">
        <ele>10.6</ele>
        <time>2025-01-17T17:06:30.550Z</time>
      </trkpt>
      <trkpt lat="46.73338" lon="-1.97751">
        <ele>10.8</ele>
        <time>2025-01-17T17:06:31.550Z</time>
      </trkpt>
      <trkpt lat="46.73338" lon="-1.97751">
        <ele>10.9</ele>
        <time>2025-01-17T17:06:32.551Z</time>
      </trkpt>
      <trkpt lat="46.73339" lon="-1.97751">
        <ele>10.6</ele>
        <time>2025-01-17T17:06:33.550Z</time>
      </trkpt>
      <trkpt lat="46.7334" lon="-1.97749">
        <ele>10.7</ele>
        <time>2025-01-17T17:06:34.550Z</time>
      </trkpt>
      <trkpt lat="46.73339" lon="-1.97748">
        <ele>10.9</ele>
        <time>2025-01-17T17:06:35.550Z</time>
      </trkpt>
      <trkpt lat="46.73339" lon="-1.97747">
        <ele>11</ele>
        <time>2025-01-17T17:06:36.550Z</time>
      </trkpt>
      <trkpt lat="46.73338" lon="-1.97746">
        <ele>11.1</ele>
        <time>2025-01-17T17:06:37.551Z</time>
      </trkpt>
      <trkpt lat="46.73338" lon="-1.97745">
        <ele>11.2</ele>
        <time>2025-01-17T17:06:38.550Z</time>
      </trkpt>
      <trkpt lat="46.73338" lon="-1.97743">
        <ele>11.3</ele>
        <time>2025-01-17T17:06:39.550Z</time>
      </trkpt>
      <trkpt lat="46.73337" lon="-1.97742">
        <ele>11.5</ele>
        <time>2025-01-17T17:06:40.551Z</time>
      </trkpt>
      <trkpt lat="46.73336" lon="-1.9774">
        <ele>11.8</ele>
        <time>2025-01-17T17:06:41.551Z</time>
      </trkpt>
      <trkpt lat="46.73335" lon="-1.97738">
        <ele>12</ele>
        <time>2025-01-17T17:06:42.550Z</time>
      </trkpt>
      <trkpt lat="46.73335" lon="-1.97737">
        <ele>12.1</ele>
        <time>2025-01-17T17:06:43.551Z</time>
      </trkpt>
      <trkpt lat="46.73334" lon="-1.97734">
        <ele>12.4</ele>
        <time>2025-01-17T17:06:44.551Z</time>
      </trkpt>
      <trkpt lat="46.73334" lon="-1.97731">
        <ele>12.6</ele>
        <time>2025-01-17T17:06:45.550Z</time>
      </trkpt>
      <trkpt lat="46.73335" lon="-1.97728">
        <ele>12.5</ele>
        <time>2025-01-17T17:06:46.550Z</time>
      </trkpt>
      <trkpt lat="46.73335" lon="-1.97726">
        <ele>12.5</ele>
        <time>2025-01-17T17:06:47.550Z</time>
      </trkpt>
      <trkpt lat="46.73333" lon="-1.97724">
        <ele>12.9</ele>
        <time>2025-01-17T17:06:48.550Z</time>
      </trkpt>
      <trkpt lat="46.73332" lon="-1.97723">
        <ele>12.9</ele>
        <time>2025-01-17T17:06:49.550Z</time>
      </trkpt>
      <trkpt lat="46.73331" lon="-1.97722">
        <ele>12.9</ele>
        <time>2025-01-17T17:06:50.551Z</time>
      </trkpt>
      <trkpt lat="46.73329" lon="-1.97721">
        <ele>12.7</ele>
        <time>2025-01-17T17:06:51.551Z</time>
      </trkpt>
      <trkpt lat="46.73327" lon="-1.9772">
        <ele>12.6</ele>
        <time>2025-01-17T17:06:52.550Z</time>
      </trkpt>
      <trkpt lat="46.73325" lon="-1.9772">
        <ele>12.6</ele>
        <time>2025-01-17T17:06:53.551Z</time>
      </trkpt>
      <trkpt lat="46.73324" lon="-1.9772">
        <ele>12.5</ele>
        <time>2025-01-17T17:06:54.551Z</time>
      </trkpt>
      <trkpt lat="46.73323" lon="-1.97718">
        <ele>12.5</ele>
        <time>2025-01-17T17:06:55.551Z</time>
      </trkpt>
      <trkpt lat="46.73323" lon="-1.97717">
        <ele>12.4</ele>
        <time>2025-01-17T17:06:56.551Z</time>
      </trkpt>
      <trkpt lat="46.73322" lon="-1.97714">
        <ele>12.3</ele>
        <time>2025-01-17T17:06:57.550Z</time>
      </trkpt>
      <trkpt lat="46.73322" lon="-1.97713">
        <ele>12.3</ele>
        <time>2025-01-17T17:06:58.551Z</time>
      </trkpt>
      <trkpt lat="46.7332" lon="-1.97711">
        <ele>12.3</ele>
        <time>2025-01-17T17:06:59.551Z</time>
      </trkpt>
      <trkpt lat="46.73318" lon="-1.97711">
        <ele>12.3</ele>
        <time>2025-01-17T17:07:00.550Z</time>
      </trkpt>
      <trkpt lat="46.73315" lon="-1.97708">
        <ele>12.5</ele>
        <time>2025-01-17T17:07:01.550Z</time>
      </trkpt>
      <trkpt lat="46.73313" lon="-1.97707">
        <ele>12.6</ele>
        <time>2025-01-17T17:07:02.551Z</time>
      </trkpt>
      <trkpt lat="46.73309" lon="-1.97707">
        <ele>12.9</ele>
        <time>2025-01-17T17:07:03.550Z</time>
      </trkpt>
      <trkpt lat="46.73307" lon="-1.97707">
        <ele>13</ele>
        <time>2025-01-17T17:07:04.551Z</time>
      </trkpt>
      <trkpt lat="46.73305" lon="-1.97707">
        <ele>13</ele>
        <time>2025-01-17T17:07:05.550Z</time>
      </trkpt>
      <trkpt lat="46.73303" lon="-1.97707">
        <ele>12.6</ele>
        <time>2025-01-17T17:07:06.551Z</time>
      </trkpt>
      <trkpt lat="46.733" lon="-1.97706">
        <ele>12.3</ele>
        <time>2025-01-17T17:07:07.550Z</time>
      </trkpt>
      <trkpt lat="46.73298" lon="-1.97706">
        <ele>12.1</ele>
        <time>2025-01-17T17:07:08.551Z</time>
      </trkpt>
      <trkpt lat="46.73295" lon="-1.97705">
        <ele>11.7</ele>
        <time>2025-01-17T17:07:09.550Z</time>
      </trkpt>
      <trkpt lat="46.73293" lon="-1.97703">
        <ele>11.5</ele>
        <time>2025-01-17T17:07:10.550Z</time>
      </trkpt>
      <trkpt lat="46.73292" lon="-1.97701">
        <ele>11.4</ele>
        <time>2025-01-17T17:07:11.550Z</time>
      </trkpt>
      <trkpt lat="46.73291" lon="-1.97699">
        <ele>11.2</ele>
        <time>2025-01-17T17:07:12.551Z</time>
      </trkpt>
      <trkpt lat="46.7329" lon="-1.97698">
        <ele>11</ele>
        <time>2025-01-17T17:07:13.550Z</time>
      </trkpt>
      <trkpt lat="46.73289" lon="-1.97696">
        <ele>10.9</ele>
        <time>2025-01-17T17:07:14.550Z</time>
      </trkpt>
      <trkpt lat="46.73288" lon="-1.97695">
        <ele>10.8</ele>
        <time>2025-01-17T17:07:15.551Z</time>
      </trkpt>
      <trkpt lat="46.73287" lon="-1.97693">
        <ele>10.6</ele>
        <time>2025-01-17T17:07:16.551Z</time>
      </trkpt>
      <trkpt lat="46.73287" lon="-1.97691">
        <ele>10.3</ele>
        <time>2025-01-17T17:07:17.550Z</time>
      </trkpt>
      <trkpt lat="46.73286" lon="-1.97689">
        <ele>10</ele>
        <time>2025-01-17T17:07:18.550Z</time>
      </trkpt>
      <trkpt lat="46.73286" lon="-1.97687">
        <ele>9.8</ele>
        <time>2025-01-17T17:07:19.550Z</time>
      </trkpt>
      <trkpt lat="46.73285" lon="-1.97685">
        <ele>9.4</ele>
        <time>2025-01-17T17:07:20.551Z</time>
      </trkpt>
      <trkpt lat="46.73284" lon="-1.97683">
        <ele>8.9</ele>
        <time>2025-01-17T17:07:21.551Z</time>
      </trkpt>
      <trkpt lat="46.73283" lon="-1.9768">
        <ele>8.6</ele>
        <time>2025-01-17T17:07:22.551Z</time>
      </trkpt>
      <trkpt lat="46.73282" lon="-1.97677">
        <ele>8.2</ele>
        <time>2025-01-17T17:07:23.550Z</time>
      </trkpt>
      <trkpt lat="46.73282" lon="-1.97676">
        <ele>7.9</ele>
        <time>2025-01-17T17:07:24.551Z</time>
      </trkpt>
      <trkpt lat="46.73281" lon="-1.97673">
        <ele>7.4</ele>
        <time>2025-01-17T17:07:25.550Z</time>
      </trkpt>
      <trkpt lat="46.73281" lon="-1.9767">
        <ele>7</ele>
        <time>2025-01-17T17:07:26.551Z</time>
      </trkpt>
      <trkpt lat="46.73281" lon="-1.97666">
        <ele>6.7</ele>
        <time>2025-01-17T17:07:27.551Z</time>
      </trkpt>
      <trkpt lat="46.7328" lon="-1.97664">
        <ele>6.7</ele>
        <time>2025-01-17T17:07:28.551Z</time>
      </trkpt>
      <trkpt lat="46.7328" lon="-1.97661">
        <ele>6.7</ele>
        <time>2025-01-17T17:07:29.551Z</time>
      </trkpt>
      <trkpt lat="46.73279" lon="-1.97658">
        <ele>6.6</ele>
        <time>2025-01-17T17:07:30.551Z</time>
      </trkpt>
      <trkpt lat="46.73278" lon="-1.97654">
        <ele>6.6</ele>
        <time>2025-01-17T17:07:31.551Z</time>
      </trkpt>
      <trkpt lat="46.73278" lon="-1.9765">
        <ele>6.6</ele>
        <time>2025-01-17T17:07:32.550Z</time>
      </trkpt>
      <trkpt lat="46.73277" lon="-1.97647">
        <ele>6.9</ele>
        <time>2025-01-17T17:07:33.551Z</time>
      </trkpt>
      <trkpt lat="46.73276" lon="-1.97645">
        <ele>7.1</ele>
        <time>2025-01-17T17:07:34.550Z</time>
      </trkpt>
      <trkpt lat="46.73275" lon="-1.97643">
        <ele>7.3</ele>
        <time>2025-01-17T17:07:35.550Z</time>
      </trkpt>
      <trkpt lat="46.73273" lon="-1.97639">
        <ele>7.5</ele>
        <time>2025-01-17T17:07:36.551Z</time>
      </trkpt>
      <trkpt lat="46.73272" lon="-1.97637">
        <ele>7.7</ele>
        <time>2025-01-17T17:07:37.551Z</time>
      </trkpt>
      <trkpt lat="46.7327" lon="-1.97634">
        <ele>7.8</ele>
        <time>2025-01-17T17:07:38.550Z</time>
      </trkpt>
      <trkpt lat="46.73269" lon="-1.97631">
        <ele>7.9</ele>
        <time>2025-01-17T17:07:39.551Z</time>
      </trkpt>
      <trkpt lat="46.73267" lon="-1.97626">
        <ele>8</ele>
        <time>2025-01-17T17:07:40.551Z</time>
      </trkpt>
      <trkpt lat="46.73266" lon="-1.97623">
        <ele>8</ele>
        <time>2025-01-17T17:07:41.551Z</time>
      </trkpt>
      <trkpt lat="46.73265" lon="-1.97619">
        <ele>8.1</ele>
        <time>2025-01-17T17:07:42.550Z</time>
      </trkpt>
      <trkpt lat="46.73264" lon="-1.97617">
        <ele>8.1</ele>
        <time>2025-01-17T17:07:43.550Z</time>
      </trkpt>
      <trkpt lat="46.73261" lon="-1.97614">
        <ele>8.3</ele>
        <time>2025-01-17T17:07:44.550Z</time>
      </trkpt>
      <trkpt lat="46.73258" lon="-1.97611">
        <ele>8.4</ele>
        <time>2025-01-17T17:07:45.551Z</time>
      </trkpt>
      <trkpt lat="46.73257" lon="-1.97607">
        <ele>8.5</ele>
        <time>2025-01-17T17:07:46.551Z</time>
      </trkpt>
      <trkpt lat="46.73255" lon="-1.97602">
        <ele>8.7</ele>
        <time>2025-01-17T17:07:47.551Z</time>
      </trkpt>
      <trkpt lat="46.73252" lon="-1.97598">
        <ele>8.8</ele>
        <time>2025-01-17T17:07:48.550Z</time>
      </trkpt>
      <trkpt lat="46.73251" lon="-1.97595">
        <ele>8.9</ele>
        <time>2025-01-17T17:07:49.550Z</time>
      </trkpt>
      <trkpt lat="46.73251" lon="-1.97593">
        <ele>8.9</ele>
        <time>2025-01-17T17:07:50.550Z</time>
      </trkpt>
      <trkpt lat="46.7325" lon="-1.9759">
        <ele>9</ele>
        <time>2025-01-17T17:07:51.550Z</time>
      </trkpt>
      <trkpt lat="46.73249" lon="-1.97588">
        <ele>8.9</ele>
        <time>2025-01-17T17:07:52.551Z</time>
      </trkpt>
      <trkpt lat="46.73248" lon="-1.97585">
        <ele>8.8</ele>
        <time>2025-01-17T17:07:53.550Z</time>
      </trkpt>
      <trkpt lat="46.73246" lon="-1.97582">
        <ele>8.8</ele>
        <time>2025-01-17T17:07:54.550Z</time>
      </trkpt>
      <trkpt lat="46.73244" lon="-1.97579">
        <ele>9.1</ele>
        <time>2025-01-17T17:07:55.551Z</time>
      </trkpt>
      <trkpt lat="46.73243" lon="-1.97574">
        <ele>9.6</ele>
        <time>2025-01-17T17:07:56.551Z</time>
      </trkpt>
      <trkpt lat="46.73242" lon="-1.97571">
        <ele>9.9</ele>
        <time>2025-01-17T17:07:57.551Z</time>
      </trkpt>
      <trkpt lat="46.73241" lon="-1.97568">
        <ele>10.2</ele>
        <time>2025-01-17T17:07:58.551Z</time>
      </trkpt>
      <trkpt lat="46.7324" lon="-1.97566">
        <ele>10.4</ele>
        <time>2025-01-17T17:07:59.551Z</time>
      </trkpt>
      <trkpt lat="46.7324" lon="-1.97562">
        <ele>10.8</ele>
        <time>2025-01-17T17:08:00.550Z</time>
      </trkpt>
      <trkpt lat="46.73239" lon="-1.97559">
        <ele>11.2</ele>
        <time>2025-01-17T17:08:01.551Z</time>
      </trkpt>
      <trkpt lat="46.73238" lon="-1.97555">
        <ele>11.6</ele>
        <time>2025-01-17T17:08:02.550Z</time>
      </trkpt>
      <trkpt lat="46.73237" lon="-1.97551">
        <ele>11.8</ele>
        <time>2025-01-17T17:08:03.551Z</time>
      </trkpt>
      <trkpt lat="46.73237" lon="-1.97547">
        <ele>12</ele>
        <time>2025-01-17T17:08:04.550Z</time>
      </trkpt>
      <trkpt lat="46.73237" lon="-1.97543">
        <ele>12.2</ele>
        <time>2025-01-17T17:08:05.551Z</time>
      </trkpt>
      <trkpt lat="46.73236" lon="-1.97541">
        <ele>12.3</ele>
        <time>2025-01-17T17:08:06.551Z</time>
      </trkpt>
      <trkpt lat="46.73234" lon="-1.97538">
        <ele>12.4</ele>
        <time>2025-01-17T17:08:07.551Z</time>
      </trkpt>
      <trkpt lat="46.73232" lon="-1.97535">
        <ele>12.6</ele>
        <time>2025-01-17T17:08:08.551Z</time>
      </trkpt>
      <trkpt lat="46.73231" lon="-1.97533">
        <ele>12.7</ele>
        <time>2025-01-17T17:08:09.551Z</time>
      </trkpt>
      <trkpt lat="46.73229" lon="-1.97531">
        <ele>12.8</ele>
        <time>2025-01-17T17:08:10.551Z</time>
      </trkpt>
      <trkpt lat="46.73228" lon="-1.97528">
        <ele>13</ele>
        <time>2025-01-17T17:08:11.551Z</time>
      </trkpt>
      <trkpt lat="46.73226" lon="-1.97525">
        <ele>13</ele>
        <time>2025-01-17T17:08:12.550Z</time>
      </trkpt>
      <trkpt lat="46.73223" lon="-1.97523">
        <ele>13</ele>
        <time>2025-01-17T17:08:13.551Z</time>
      </trkpt>
      <trkpt lat="46.73221" lon="-1.97521">
        <ele>13.1</ele>
        <time>2025-01-17T17:08:14.550Z</time>
      </trkpt>
      <trkpt lat="46.73219" lon="-1.97518">
        <ele>13.1</ele>
        <time>2025-01-17T17:08:15.550Z</time>
      </trkpt>
      <trkpt lat="46.73217" lon="-1.97516">
        <ele>13.2</ele>
        <time>2025-01-17T17:08:16.551Z</time>
      </trkpt>
      <trkpt lat="46.73216" lon="-1.97513">
        <ele>13.2</ele>
        <time>2025-01-17T17:08:17.551Z</time>
      </trkpt>
      <trkpt lat="46.73216" lon="-1.97509">
        <ele>13.1</ele>
        <time>2025-01-17T17:08:18.550Z</time>
      </trkpt>
      <trkpt lat="46.73217" lon="-1.97506">
        <ele>13.1</ele>
        <time>2025-01-17T17:08:19.551Z</time>
      </trkpt>
      <trkpt lat="46.73217" lon="-1.97503">
        <ele>13</ele>
        <time>2025-01-17T17:08:20.550Z</time>
      </trkpt>
      <trkpt lat="46.73216" lon="-1.975">
        <ele>13</ele>
        <time>2025-01-17T17:08:21.550Z</time>
      </trkpt>
      <trkpt lat="46.73216" lon="-1.97496">
        <ele>12.7</ele>
        <time>2025-01-17T17:08:22.550Z</time>
      </trkpt>
      <trkpt lat="46.73216" lon="-1.97492">
        <ele>12.4</ele>
        <time>2025-01-17T17:08:23.550Z</time>
      </trkpt>
      <trkpt lat="46.73215" lon="-1.97488">
        <ele>12.2</ele>
        <time>2025-01-17T17:08:24.550Z</time>
      </trkpt>
      <trkpt lat="46.73214" lon="-1.97486">
        <ele>12</ele>
        <time>2025-01-17T17:08:25.551Z</time>
      </trkpt>
      <trkpt lat="46.73212" lon="-1.97485">
        <ele>11.9</ele>
        <time>2025-01-17T17:08:26.551Z</time>
      </trkpt>
      <trkpt lat="46.73212" lon="-1.97484">
        <ele>11.8</ele>
        <time>2025-01-17T17:08:27.551Z</time>
      </trkpt>
      <trkpt lat="46.7321" lon="-1.97484">
        <ele>11.8</ele>
        <time>2025-01-17T17:08:28.550Z</time>
      </trkpt>
      <trkpt lat="46.73209" lon="-1.97485">
        <ele>11.9</ele>
        <time>2025-01-17T17:08:29.551Z</time>
      </trkpt>
      <trkpt lat="46.73208" lon="-1.97486">
        <ele>12</ele>
        <time>2025-01-17T17:08:30.551Z</time>
      </trkpt>
      <trkpt lat="46.73208" lon="-1.97488">
        <ele>12.2</ele>
        <time>2025-01-17T17:08:31.551Z</time>
      </trkpt>
      <trkpt lat="46.73207" lon="-1.9749">
        <ele>12.3</ele>
        <time>2025-01-17T17:08:32.550Z</time>
      </trkpt>
      <trkpt lat="46.73206" lon="-1.97492">
        <ele>12.4</ele>
        <time>2025-01-17T17:08:33.550Z</time>
      </trkpt>
      <trkpt lat="46.73206" lon="-1.97494">
        <ele>12.5</ele>
        <time>2025-01-17T17:08:34.551Z</time>
      </trkpt>
      <trkpt lat="46.73204" lon="-1.97496">
        <ele>12.7</ele>
        <time>2025-01-17T17:08:35.551Z</time>
      </trkpt>
      <trkpt lat="46.73201" lon="-1.97498">
        <ele>12.8</ele>
        <time>2025-01-17T17:08:36.551Z</time>
      </trkpt>
      <trkpt lat="46.73199" lon="-1.97499">
        <ele>12.9</ele>
        <time>2025-01-17T17:08:37.550Z</time>
      </trkpt>
      <trkpt lat="46.73197" lon="-1.97499">
        <ele>12.9</ele>
        <time>2025-01-17T17:08:38.550Z</time>
      </trkpt>
      <trkpt lat="46.73195" lon="-1.975">
        <ele>13</ele>
        <time>2025-01-17T17:08:39.550Z</time>
      </trkpt>
      <trkpt lat="46.73193" lon="-1.975">
        <ele>13.2</ele>
        <time>2025-01-17T17:08:40.550Z</time>
      </trkpt>
      <trkpt lat="46.73192" lon="-1.97498">
        <ele>13.3</ele>
        <time>2025-01-17T17:08:41.551Z</time>
      </trkpt>
      <trkpt lat="46.73191" lon="-1.97497">
        <ele>13.3</ele>
        <time>2025-01-17T17:08:42.551Z</time>
      </trkpt>
      <trkpt lat="46.73189" lon="-1.97497">
        <ele>13.6</ele>
        <time>2025-01-17T17:08:43.550Z</time>
      </trkpt>
      <trkpt lat="46.73186" lon="-1.97496">
        <ele>14</ele>
        <time>2025-01-17T17:08:44.550Z</time>
      </trkpt>
      <trkpt lat="46.73184" lon="-1.97495">
        <ele>14.3</ele>
        <time>2025-01-17T17:08:45.550Z</time>
      </trkpt>
      <trkpt lat="46.73182" lon="-1.97494">
        <ele>14.5</ele>
        <time>2025-01-17T17:08:46.551Z</time>
      </trkpt>
      <trkpt lat="46.73181" lon="-1.97494">
        <ele>14.7</ele>
        <time>2025-01-17T17:08:47.550Z</time>
      </trkpt>
      <trkpt lat="46.7318" lon="-1.97495">
        <ele>14.9</ele>
        <time>2025-01-17T17:08:48.550Z</time>
      </trkpt>
      <trkpt lat="46.7318" lon="-1.97496">
        <ele>15.1</ele>
        <time>2025-01-17T17:08:49.550Z</time>
      </trkpt>
      <trkpt lat="46.73179" lon="-1.97498">
        <ele>15.6</ele>
        <time>2025-01-17T17:08:50.551Z</time>
      </trkpt>
      <trkpt lat="46.73178" lon="-1.97499">
        <ele>15.8</ele>
        <time>2025-01-17T17:08:51.551Z</time>
      </trkpt>
      <trkpt lat="46.73178" lon="-1.97501">
        <ele>16</ele>
        <time>2025-01-17T17:08:52.550Z</time>
      </trkpt>
      <trkpt lat="46.73179" lon="-1.97503">
        <ele>16.2</ele>
        <time>2025-01-17T17:08:53.551Z</time>
      </trkpt>
      <trkpt lat="46.73179" lon="-1.97504">
        <ele>16.3</ele>
        <time>2025-01-17T17:08:54.550Z</time>
      </trkpt>
      <trkpt lat="46.73179" lon="-1.97505">
        <ele>16.4</ele>
        <time>2025-01-17T17:08:55.550Z</time>
      </trkpt>
      <trkpt lat="46.73179" lon="-1.97506">
        <ele>16.6</ele>
        <time>2025-01-17T17:08:56.550Z</time>
      </trkpt>
      <trkpt lat="46.7318" lon="-1.97507">
        <ele>16.6</ele>
        <time>2025-01-17T17:08:57.550Z</time>
      </trkpt>
      <trkpt lat="46.7318" lon="-1.97508">
        <ele>16.8</ele>
        <time>2025-01-17T17:08:58.550Z</time>
      </trkpt>
      <trkpt lat="46.7318" lon="-1.9751">
        <ele>17</ele>
        <time>2025-01-17T17:08:59.551Z</time>
      </trkpt>
      <trkpt lat="46.7318" lon="-1.97512">
        <ele>17.2</ele>
        <time>2025-01-17T17:09:00.551Z</time>
      </trkpt>
      <trkpt lat="46.7318" lon="-1.97513">
        <ele>17.5</ele>
        <time>2025-01-17T17:09:01.551Z</time>
      </trkpt>
      <trkpt lat="46.73179" lon="-1.97513">
        <ele>17.7</ele>
        <time>2025-01-17T17:09:02.550Z</time>
      </trkpt>
      <trkpt lat="46.73179" lon="-1.97514">
        <ele>18</ele>
        <time>2025-01-17T17:09:03.550Z</time>
      </trkpt>
      <trkpt lat="46.73178" lon="-1.97515">
        <ele>18.3</ele>
        <time>2025-01-17T17:09:04.550Z</time>
      </trkpt>
      <trkpt lat="46.73178" lon="-1.97515">
        <ele>18.4</ele>
        <time>2025-01-17T17:09:05.551Z</time>
      </trkpt>
      <trkpt lat="46.73177" lon="-1.97516">
        <ele>18.7</ele>
        <time>2025-01-17T17:09:06.550Z</time>
      </trkpt>
      <trkpt lat="46.73177" lon="-1.97518">
        <ele>18.9</ele>
        <time>2025-01-17T17:09:07.550Z</time>
      </trkpt>
      <trkpt lat="46.73176" lon="-1.9752">
        <ele>19.6</ele>
        <time>2025-01-17T17:09:08.551Z</time>
      </trkpt>
      <trkpt lat="46.73176" lon="-1.97522">
        <ele>20</ele>
        <time>2025-01-17T17:09:09.551Z</time>
      </trkpt>
      <trkpt lat="46.73176" lon="-1.97523">
        <ele>20.1</ele>
        <time>2025-01-17T17:09:10.550Z</time>
      </trkpt>
      <trkpt lat="46.73176" lon="-1.97524">
        <ele>20.3</ele>
        <time>2025-01-17T17:09:11.550Z</time>
      </trkpt>
      <trkpt lat="46.73176" lon="-1.97525">
        <ele>20.6</ele>
        <time>2025-01-17T17:09:12.551Z</time>
      </trkpt>
      <trkpt lat="46.73175" lon="-1.97526">
        <ele>20.9</ele>
        <time>2025-01-17T17:09:13.550Z</time>
      </trkpt>
      <trkpt lat="46.73175" lon="-1.97527">
        <ele>21.1</ele>
        <time>2025-01-17T17:09:14.551Z</time>
      </trkpt>
      <trkpt lat="46.73175" lon="-1.97528">
        <ele>21.4</ele>
        <time>2025-01-17T17:09:15.551Z</time>
      </trkpt>
      <trkpt lat="46.73174" lon="-1.97528">
        <ele>21.7</ele>
        <time>2025-01-17T17:09:16.551Z</time>
      </trkpt>
      <trkpt lat="46.73173" lon="-1.97529">
        <ele>22</ele>
        <time>2025-01-17T17:09:17.551Z</time>
      </trkpt>
      <trkpt lat="46.73173" lon="-1.9753">
        <ele>22.1</ele>
        <time>2025-01-17T17:09:18.550Z</time>
      </trkpt>
      <trkpt lat="46.73173" lon="-1.9753">
        <ele>22.3</ele>
        <time>2025-01-17T17:09:19.550Z</time>
      </trkpt>
      <trkpt lat="46.73172" lon="-1.97531">
        <ele>22.5</ele>
        <time>2025-01-17T17:09:20.550Z</time>
      </trkpt>
      <trkpt lat="46.73171" lon="-1.97531">
        <ele>22.7</ele>
        <time>2025-01-17T17:09:21.550Z</time>
      </trkpt>
      <trkpt lat="46.7317" lon="-1.97531">
        <ele>23.3</ele>
        <time>2025-01-17T17:09:22.550Z</time>
      </trkpt>
      <trkpt lat="46.73168" lon="-1.97531">
        <ele>23.9</ele>
        <time>2025-01-17T17:09:23.550Z</time>
      </trkpt>
      <trkpt lat="46.73167" lon="-1.97531">
        <ele>24.2</ele>
        <time>2025-01-17T17:09:24.551Z</time>
      </trkpt>
      <trkpt lat="46.73167" lon="-1.97533">
        <ele>24.3</ele>
        <time>2025-01-17T17:09:25.550Z</time>
      </trkpt>
      <trkpt lat="46.73166" lon="-1.97533">
        <ele>24.4</ele>
        <time>2025-01-17T17:09:26.551Z</time>
      </trkpt>
      <trkpt lat="46.73166" lon="-1.97534">
        <ele>24.4</ele>
        <time>2025-01-17T17:09:27.551Z</time>
      </trkpt>
      <trkpt lat="46.73166" lon="-1.97535">
        <ele>24.5</ele>
        <time>2025-01-17T17:09:28.551Z</time>
      </trkpt>
      <trkpt lat="46.73166" lon="-1.97537">
        <ele>24.6</ele>
        <time>2025-01-17T17:09:29.550Z</time>
      </trkpt>
      <trkpt lat="46.73165" lon="-1.97538">
        <ele>24.6</ele>
        <time>2025-01-17T17:09:30.550Z</time>
      </trkpt>
      <trkpt lat="46.73164" lon="-1.9754">
        <ele>24.7</ele>
        <time>2025-01-17T17:09:31.550Z</time>
      </trkpt>
      <trkpt lat="46.73164" lon="-1.9754">
        <ele>24.7</ele>
        <time>2025-01-17T17:09:32.550Z</time>
      </trkpt>
      <trkpt lat="46.73163" lon="-1.97541">
        <ele>24.7</ele>
        <time>2025-01-17T17:09:33.551Z</time>
      </trkpt>
      <trkpt lat="46.73164" lon="-1.97542">
        <ele>24.8</ele>
        <time>2025-01-17T17:09:34.550Z</time>
      </trkpt>
      <trkpt lat="46.73165" lon="-1.97544">
        <ele>25</ele>
        <time>2025-01-17T17:09:35.550Z</time>
      </trkpt>
      <trkpt lat="46.73166" lon="-1.97545">
        <ele>25.2</ele>
        <time>2025-01-17T17:09:36.550Z</time>
      </trkpt>
      <trkpt lat="46.73167" lon="-1.97547">
        <ele>25.4</ele>
        <time>2025-01-17T17:09:37.550Z</time>
      </trkpt>
      <trkpt lat="46.73167" lon="-1.97549">
        <ele>25.5</ele>
        <time>2025-01-17T17:09:38.550Z</time>
      </trkpt>
      <trkpt lat="46.73168" lon="-1.97551">
        <ele>25.4</ele>
        <time>2025-01-17T17:09:39.551Z</time>
      </trkpt>
      <trkpt lat="46.73168" lon="-1.97554">
        <ele>25.4</ele>
        <time>2025-01-17T17:09:40.551Z</time>
      </trkpt>
      <trkpt lat="46.73169" lon="-1.97557">
        <ele>24.9</ele>
        <time>2025-01-17T17:09:41.551Z</time>
      </trkpt>
      <trkpt lat="46.7317" lon="-1.97558">
        <ele>24.3</ele>
        <time>2025-01-17T17:09:42.551Z</time>
      </trkpt>
      <trkpt lat="46.73172" lon="-1.9756">
        <ele>23.4</ele>
        <time>2025-01-17T17:09:43.551Z</time>
      </trkpt>
      <trkpt lat="46.73174" lon="-1.97562">
        <ele>22.6</ele>
        <time>2025-01-17T17:09:44.551Z</time>
      </trkpt>
      <trkpt lat="46.73175" lon="-1.97563">
        <ele>22.1</ele>
        <time>2025-01-17T17:09:45.550Z</time>
      </trkpt>
      <trkpt lat="46.73176" lon="-1.97564">
        <ele>21.7</ele>
        <time>2025-01-17T17:09:46.551Z</time>
      </trkpt>
      <trkpt lat="46.73178" lon="-1.97565">
        <ele>21</ele>
        <time>2025-01-17T17:09:47.550Z</time>
      </trkpt>
      <trkpt lat="46.7318" lon="-1.97566">
        <ele>20.6</ele>
        <time>2025-01-17T17:09:48.550Z</time>
      </trkpt>
      <trkpt lat="46.73181" lon="-1.97568">
        <ele>20.1</ele>
        <time>2025-01-17T17:09:49.551Z</time>
      </trkpt>
      <trkpt lat="46.73182" lon="-1.97571">
        <ele>19.6</ele>
        <time>2025-01-17T17:09:50.551Z</time>
      </trkpt>
      <trkpt lat="46.73182" lon="-1.97573">
        <ele>19.4</ele>
        <time>2025-01-17T17:09:51.550Z</time>
      </trkpt>
      <trkpt lat="46.73181" lon="-1.97574">
        <ele>19.4</ele>
        <time>2025-01-17T17:09:52.550Z</time>
      </trkpt>
      <trkpt lat="46.73181" lon="-1.97576">
        <ele>19.3</ele>
        <time>2025-01-17T17:09:53.550Z</time>
      </trkpt>
      <trkpt lat="46.7318" lon="-1.97579">
        <ele>19</ele>
        <time>2025-01-17T17:09:54.551Z</time>
      </trkpt>
      <trkpt lat="46.7318" lon="-1.97582">
        <ele>18.7</ele>
        <time>2025-01-17T17:09:55.551Z</time>
      </trkpt>
      <trkpt lat="46.73179" lon="-1.97585">
        <ele>18.4</ele>
        <time>2025-01-17T17:09:56.551Z</time>
      </trkpt>
      <trkpt lat="46.73179" lon="-1.97588">
        <ele>18.3</ele>
        <time>2025-01-17T17:09:57.551Z</time>
      </trkpt>
      <trkpt lat="46.73181" lon="-1.97592">
        <ele>18.2</ele>
        <time>2025-01-17T17:09:58.550Z</time>
      </trkpt>
      <trkpt lat="46.73182" lon="-1.97596">
        <ele>18.2</ele>
        <time>2025-01-17T17:09:59.550Z</time>
      </trkpt>
      <trkpt lat="46.73184" lon="-1.97599">
        <ele>18.4</ele>
        <time>2025-01-17T17:10:00.550Z</time>
      </trkpt>
      <trkpt lat="46.73186" lon="-1.97602">
        <ele>18.6</ele>
        <time>2025-01-17T17:10:01.550Z</time>
      </trkpt>
      <trkpt lat="46.73188" lon="-1.97606">
        <ele>19</ele>
        <time>2025-01-17T17:10:02.551Z</time>
      </trkpt>
      <trkpt lat="46.7319" lon="-1.97609">
        <ele>19.7</ele>
        <time>2025-01-17T17:10:03.551Z</time>
      </trkpt>
      <trkpt lat="46.73192" lon="-1.97612">
        <ele>20.3</ele>
        <time>2025-01-17T17:10:04.550Z</time>
      </trkpt>
      <trkpt lat="46.73194" lon="-1.97614">
        <ele>20.8</ele>
        <time>2025-01-17T17:10:05.550Z</time>
      </trkpt>
      <trkpt lat="46.73195" lon="-1.97616">
        <ele>20.7</ele>
        <time>2025-01-17T17:10:06.551Z</time>
      </trkpt>
      <trkpt lat="46.73196" lon="-1.9762">
        <ele>20.3</ele>
        <time>2025-01-17T17:10:07.550Z</time>
      </trkpt>
      <trkpt lat="46.73197" lon="-1.97622">
        <ele>20.2</ele>
        <time>2025-01-17T17:10:08.551Z</time>
      </trkpt>
      <trkpt lat="46.73197" lon="-1.97623">
        <ele>20</ele>
        <time>2025-01-17T17:10:09.551Z</time>
      </trkpt>
      <trkpt lat="46.73198" lon="-1.97624">
        <ele>19.7</ele>
        <time>2025-01-17T17:10:10.551Z</time>
      </trkpt>
      <trkpt lat="46.732" lon="-1.97626">
        <ele>19.2</ele>
        <time>2025-01-17T17:10:11.550Z</time>
      </trkpt>
      <trkpt lat="46.73202" lon="-1.97628">
        <ele>18.4</ele>
        <time>2025-01-17T17:10:12.550Z</time>
      </trkpt>
      <trkpt lat="46.73204" lon="-1.97631">
        <ele>17.9</ele>
        <time>2025-01-17T17:10:13.550Z</time>
      </trkpt>
      <trkpt lat="46.73205" lon="-1.97634">
        <ele>17.6</ele>
        <time>2025-01-17T17:10:14.550Z</time>
      </trkpt>
      <trkpt lat="46.73206" lon="-1.97637">
        <ele>17.5</ele>
        <time>2025-01-17T17:10:15.551Z</time>
      </trkpt>
      <trkpt lat="46.73207" lon="-1.9764">
        <ele>17.3</ele>
        <time>2025-01-17T17:10:16.551Z</time>
      </trkpt>
      <trkpt lat="46.73208" lon="-1.97644">
        <ele>16.8</ele>
        <time>2025-01-17T17:10:17.551Z</time>
      </trkpt>
      <trkpt lat="46.73209" lon="-1.97647">
        <ele>16.4</ele>
        <time>2025-01-17T17:10:18.551Z</time>
      </trkpt>
      <trkpt lat="46.73209" lon="-1.9765">
        <ele>16.2</ele>
        <time>2025-01-17T17:10:19.550Z</time>
      </trkpt>
      <trkpt lat="46.73209" lon="-1.97654">
        <ele>16.1</ele>
        <time>2025-01-17T17:10:20.550Z</time>
      </trkpt>
      <trkpt lat="46.7321" lon="-1.97658">
        <ele>15.9</ele>
        <time>2025-01-17T17:10:21.550Z</time>
      </trkpt>
      <trkpt lat="46.7321" lon="-1.97662">
        <ele>15.7</ele>
        <time>2025-01-17T17:10:22.550Z</time>
      </trkpt>
      <trkpt lat="46.73211" lon="-1.97666">
        <ele>15.6</ele>
        <time>2025-01-17T17:10:23.550Z</time>
      </trkpt>
      <trkpt lat="46.73211" lon="-1.97669">
        <ele>15.6</ele>
        <time>2025-01-17T17:10:24.550Z</time>
      </trkpt>
      <trkpt lat="46.73211" lon="-1.97672">
        <ele>15.7</ele>
        <time>2025-01-17T17:10:25.550Z</time>
      </trkpt>
      <trkpt lat="46.73211" lon="-1.97675">
        <ele>15.8</ele>
        <time>2025-01-17T17:10:26.550Z</time>
      </trkpt>
      <trkpt lat="46.73211" lon="-1.97678">
        <ele>15.9</ele>
        <time>2025-01-17T17:10:27.550Z</time>
      </trkpt>
      <trkpt lat="46.73212" lon="-1.97682">
        <ele>16</ele>
        <time>2025-01-17T17:10:28.551Z</time>
      </trkpt>
      <trkpt lat="46.73212" lon="-1.97685">
        <ele>16</ele>
        <time>2025-01-17T17:10:29.551Z</time>
      </trkpt>
      <trkpt lat="46.73212" lon="-1.97689">
        <ele>16.1</ele>
        <time>2025-01-17T17:10:30.550Z</time>
      </trkpt>
      <trkpt lat="46.73213" lon="-1.97691">
        <ele>16.2</ele>
        <time>2025-01-17T17:10:31.550Z</time>
      </trkpt>
      <trkpt lat="46.73212" lon="-1.97696">
        <ele>16.4</ele>
        <time>2025-01-17T17:10:32.550Z</time>
      </trkpt>
      <trkpt lat="46.73212" lon="-1.97698">
        <ele>16.7</ele>
        <time>2025-01-17T17:10:33.550Z</time>
      </trkpt>
      <trkpt lat="46.73211" lon="-1.97701">
        <ele>16.9</ele>
        <time>2025-01-17T17:10:34.550Z</time>
      </trkpt>
      <trkpt lat="46.73211" lon="-1.97705">
        <ele>17.4</ele>
        <time>2025-01-17T17:10:35.550Z</time>
      </trkpt>
      <trkpt lat="46.73212" lon="-1.97707">
        <ele>17.7</ele>
        <time>2025-01-17T17:10:36.550Z</time>
      </trkpt>
      <trkpt lat="46.73212" lon="-1.97709">
        <ele>18</ele>
        <time>2025-01-17T17:10:37.551Z</time>
      </trkpt>
      <trkpt lat="46.73213" lon="-1.97712">
        <ele>18.4</ele>
        <time>2025-01-17T17:10:38.550Z</time>
      </trkpt>
      <trkpt lat="46.73214" lon="-1.97714">
        <ele>18.7</ele>
        <time>2025-01-17T17:10:39.550Z</time>
      </trkpt>
      <trkpt lat="46.73214" lon="-1.97716">
        <ele>19.1</ele>
        <time>2025-01-17T17:10:40.550Z</time>
      </trkpt>
      <trkpt lat="46.73216" lon="-1.97719">
        <ele>19.6</ele>
        <time>2025-01-17T17:10:41.551Z</time>
      </trkpt>
      <trkpt lat="46.73216" lon="-1.97721">
        <ele>19.9</ele>
        <time>2025-01-17T17:10:42.551Z</time>
      </trkpt>
      <trkpt lat="46.73217" lon="-1.97725">
        <ele>20.2</ele>
        <time>2025-01-17T17:10:43.550Z</time>
      </trkpt>
      <trkpt lat="46.73216" lon="-1.97729">
        <ele>20.2</ele>
        <time>2025-01-17T17:10:44.550Z</time>
      </trkpt>
      <trkpt lat="46.73216" lon="-1.97732">
        <ele>20.3</ele>
        <time>2025-01-17T17:10:45.550Z</time>
      </trkpt>
      <trkpt lat="46.73217" lon="-1.97734">
        <ele>20.4</ele>
        <time>2025-01-17T17:10:46.551Z</time>
      </trkpt>
      <trkpt lat="46.73219" lon="-1.97735">
        <ele>20.6</ele>
        <time>2025-01-17T17:10:47.551Z</time>
      </trkpt>
      <trkpt lat="46.7322" lon="-1.97737">
        <ele>20.8</ele>
        <time>2025-01-17T17:10:48.551Z</time>
      </trkpt>
      <trkpt lat="46.73223" lon="-1.97739">
        <ele>21</ele>
        <time>2025-01-17T17:10:49.551Z</time>
      </trkpt>
      <trkpt lat="46.73226" lon="-1.97742">
        <ele>20.9</ele>
        <time>2025-01-17T17:10:50.550Z</time>
      </trkpt>
      <trkpt lat="46.73227" lon="-1.97744">
        <ele>20.9</ele>
        <time>2025-01-17T17:10:51.550Z</time>
      </trkpt>
      <trkpt lat="46.73229" lon="-1.97746">
        <ele>20.9</ele>
        <time>2025-01-17T17:10:52.550Z</time>
      </trkpt>
      <trkpt lat="46.7323" lon="-1.97748">
        <ele>20.9</ele>
        <time>2025-01-17T17:10:53.550Z</time>
      </trkpt>
      <trkpt lat="46.73233" lon="-1.97751">
        <ele>20.9</ele>
        <time>2025-01-17T17:10:54.551Z</time>
      </trkpt>
      <trkpt lat="46.73235" lon="-1.97753">
        <ele>20.8</ele>
        <time>2025-01-17T17:10:55.551Z</time>
      </trkpt>
      <trkpt lat="46.73236" lon="-1.97754">
        <ele>20.7</ele>
        <time>2025-01-17T17:10:56.551Z</time>
      </trkpt>
      <trkpt lat="46.73239" lon="-1.97756">
        <ele>20.7</ele>
        <time>2025-01-17T17:10:57.551Z</time>
      </trkpt>
      <trkpt lat="46.73242" lon="-1.97757">
        <ele>20.7</ele>
        <time>2025-01-17T17:10:58.550Z</time>
      </trkpt>
      <trkpt lat="46.73245" lon="-1.97758">
        <ele>20.8</ele>
        <time>2025-01-17T17:10:59.550Z</time>
      </trkpt>
      <trkpt lat="46.73247" lon="-1.97759">
        <ele>20.9</ele>
        <time>2025-01-17T17:11:00.551Z</time>
      </trkpt>
      <trkpt lat="46.73249" lon="-1.97759">
        <ele>20.9</ele>
        <time>2025-01-17T17:11:01.550Z</time>
      </trkpt>
      <trkpt lat="46.73249" lon="-1.9776">
        <ele>20.9</ele>
        <time>2025-01-17T17:11:02.550Z</time>
      </trkpt>
      <trkpt lat="46.7325" lon="-1.97761">
        <ele>21</ele>
        <time>2025-01-17T17:11:03.550Z</time>
      </trkpt>
      <trkpt lat="46.73251" lon="-1.97762">
        <ele>20.8</ele>
        <time>2025-01-17T17:11:04.550Z</time>
      </trkpt>
      <trkpt lat="46.73252" lon="-1.97763">
        <ele>20.4</ele>
        <time>2025-01-17T17:11:05.550Z</time>
      </trkpt>
      <trkpt lat="46.73253" lon="-1.97763">
        <ele>20.2</ele>
        <time>2025-01-17T17:11:06.550Z</time>
      </trkpt>
      <trkpt lat="46.73253" lon="-1.97764">
        <ele>20</ele>
        <time>2025-01-17T17:11:07.550Z</time>
      </trkpt>
      <trkpt lat="46.73254" lon="-1.97766">
        <ele>19.8</ele>
        <time>2025-01-17T17:11:08.550Z</time>
      </trkpt>
      <trkpt lat="46.73255" lon="-1.97768">
        <ele>19.6</ele>
        <time>2025-01-17T17:11:09.550Z</time>
      </trkpt>
      <trkpt lat="46.73255" lon="-1.9777">
        <ele>19.7</ele>
        <time>2025-01-17T17:11:10.550Z</time>
      </trkpt>
      <trkpt lat="46.73255" lon="-1.97773">
        <ele>19.6</ele>
        <time>2025-01-17T17:11:11.550Z</time>
      </trkpt>
      <trkpt lat="46.73255" lon="-1.97775">
        <ele>19.6</ele>
        <time>2025-01-17T17:11:12.550Z</time>
      </trkpt>
      <trkpt lat="46.73256" lon="-1.97779">
        <ele>19.4</ele>
        <time>2025-01-17T17:11:13.550Z</time>
      </trkpt>
      <trkpt lat="46.73257" lon="-1.97781">
        <ele>19.1</ele>
        <time>2025-01-17T17:11:14.551Z</time>
      </trkpt>
      <trkpt lat="46.73258" lon="-1.97785">
        <ele>18.5</ele>
        <time>2025-01-17T17:11:15.551Z</time>
      </trkpt>
      <trkpt lat="46.7326" lon="-1.97787">
        <ele>18</ele>
        <time>2025-01-17T17:11:16.551Z</time>
      </trkpt>
      <trkpt lat="46.7326" lon="-1.97791">
        <ele>17.7</ele>
        <time>2025-01-17T17:11:17.551Z</time>
      </trkpt>
      <trkpt lat="46.7326" lon="-1.97796">
        <ele>17.4</ele>
        <time>2025-01-17T17:11:18.551Z</time>
      </trkpt>
      <trkpt lat="46.7326" lon="-1.97799">
        <ele>17.3</ele>
        <time>2025-01-17T17:11:19.551Z</time>
      </trkpt>
      <trkpt lat="46.7326" lon="-1.97803">
        <ele>17</ele>
        <time>2025-01-17T17:11:20.550Z</time>
      </trkpt>
      <trkpt lat="46.73261" lon="-1.97807">
        <ele>16.8</ele>
        <time>2025-01-17T17:11:21.550Z</time>
      </trkpt>
      <trkpt lat="46.73262" lon="-1.97811">
        <ele>16.5</ele>
        <time>2025-01-17T17:11:22.550Z</time>
      </trkpt>
      <trkpt lat="46.73263" lon="-1.97815">
        <ele>16.2</ele>
        <time>2025-01-17T17:11:23.551Z</time>
      </trkpt>
      <trkpt lat="46.73265" lon="-1.97818">
        <ele>16</ele>
        <time>2025-01-17T17:11:24.551Z</time>
      </trkpt>
      <trkpt lat="46.73266" lon="-1.97821">
        <ele>15.9</ele>
        <time>2025-01-17T17:11:25.551Z</time>
      </trkpt>
      <trkpt lat="46.73267" lon="-1.97825">
        <ele>15.8</ele>
        <time>2025-01-17T17:11:26.551Z</time>
      </trkpt>
      <trkpt lat="46.73268" lon="-1.97828">
        <ele>15.7</ele>
        <time>2025-01-17T17:11:27.550Z</time>
      </trkpt>
      <trkpt lat="46.73269" lon="-1.9783">
        <ele>15.7</ele>
        <time>2025-01-17T17:11:28.550Z</time>
      </trkpt>
      <trkpt lat="46.73269" lon="-1.97833">
        <ele>15.7</ele>
        <time>2025-01-17T17:11:29.551Z</time>
      </trkpt>
      <trkpt lat="46.7327" lon="-1.97837">
        <ele>15.6</ele>
        <time>2025-01-17T17:11:30.551Z</time>
      </trkpt>
      <trkpt lat="46.73271" lon="-1.9784">
        <ele>15.6</ele>
        <time>2025-01-17T17:11:31.551Z</time>
      </trkpt>
      <trkpt lat="46.73273" lon="-1.97843">
        <ele>15.6</ele>
        <time>2025-01-17T17:11:32.550Z</time>
      </trkpt>
      <trkpt lat="46.73274" lon="-1.97848">
        <ele>15.6</ele>
        <time>2025-01-17T17:11:33.550Z</time>
      </trkpt>
      <trkpt lat="46.73274" lon="-1.97851">
        <ele>15.5</ele>
        <time>2025-01-17T17:11:34.550Z</time>
      </trkpt>
      <trkpt lat="46.73274" lon="-1.97855">
        <ele>15.5</ele>
        <time>2025-01-17T17:11:35.550Z</time>
      </trkpt>
      <trkpt lat="46.73275" lon="-1.97858">
        <ele>15.5</ele>
        <time>2025-01-17T17:11:36.551Z</time>
      </trkpt>
      <trkpt lat="46.73274" lon="-1.97862">
        <ele>15.4</ele>
        <time>2025-01-17T17:11:37.550Z</time>
      </trkpt>
      <trkpt lat="46.73274" lon="-1.97865">
        <ele>15.3</ele>
        <time>2025-01-17T17:11:38.551Z</time>
      </trkpt>
      <trkpt lat="46.73274" lon="-1.97869">
        <ele>15.1</ele>
        <time>2025-01-17T17:11:39.551Z</time>
      </trkpt>
      <trkpt lat="46.73274" lon="-1.97871">
        <ele>15.1</ele>
        <time>2025-01-17T17:11:40.550Z</time>
      </trkpt>
      <trkpt lat="46.73274" lon="-1.97874">
        <ele>15.1</ele>
        <time>2025-01-17T17:11:41.550Z</time>
      </trkpt>
      <trkpt lat="46.73274" lon="-1.97876">
        <ele>15.2</ele>
        <time>2025-01-17T17:11:42.550Z</time>
      </trkpt>
      <trkpt lat="46.73275" lon="-1.9788">
        <ele>15.4</ele>
        <time>2025-01-17T17:11:43.550Z</time>
      </trkpt>
      <trkpt lat="46.73276" lon="-1.97884">
        <ele>15.5</ele>
        <time>2025-01-17T17:11:44.551Z</time>
      </trkpt>
      <trkpt lat="46.73277" lon="-1.97887">
        <ele>15.8</ele>
        <time>2025-01-17T17:11:45.551Z</time>
      </trkpt>
      <trkpt lat="46.73277" lon="-1.97892">
        <ele>15.8</ele>
        <time>2025-01-17T17:11:46.551Z</time>
      </trkpt>
      <trkpt lat="46.73277" lon="-1.979">
        <ele>15.5</ele>
        <time>2025-01-17T17:11:47.551Z</time>
      </trkpt>
      <trkpt lat="46.73277" lon="-1.97904">
        <ele>15.2</ele>
        <time>2025-01-17T17:11:48.550Z</time>
      </trkpt>
      <trkpt lat="46.73276" lon="-1.97907">
        <ele>14.9</ele>
        <time>2025-01-17T17:11:49.550Z</time>
      </trkpt>
      <trkpt lat="46.73275" lon="-1.97909">
        <ele>14.5</ele>
        <time>2025-01-17T17:11:50.550Z</time>
      </trkpt>
      <trkpt lat="46.73275" lon="-1.97911">
        <ele>14.3</ele>
        <time>2025-01-17T17:11:51.550Z</time>
      </trkpt>
      <trkpt lat="46.73274" lon="-1.97913">
        <ele>14</ele>
        <time>2025-01-17T17:11:52.551Z</time>
      </trkpt>
      <trkpt lat="46.73273" lon="-1.97916">
        <ele>13.7</ele>
        <time>2025-01-17T17:11:53.551Z</time>
      </trkpt>
      <trkpt lat="46.73273" lon="-1.97918">
        <ele>13.4</ele>
        <time>2025-01-17T17:11:54.551Z</time>
      </trkpt>
      <trkpt lat="46.73272" lon="-1.97922">
        <ele>13.1</ele>
        <time>2025-01-17T17:11:55.550Z</time>
      </trkpt>
      <trkpt lat="46.73271" lon="-1.97926">
        <ele>12.7</ele>
        <time>2025-01-17T17:11:56.551Z</time>
      </trkpt>
      <trkpt lat="46.73271" lon="-1.9793">
        <ele>12.6</ele>
        <time>2025-01-17T17:11:57.550Z</time>
      </trkpt>
      <trkpt lat="46.73271" lon="-1.97933">
        <ele>12.7</ele>
        <time>2025-01-17T17:11:58.550Z</time>
      </trkpt>
      <trkpt lat="46.73272" lon="-1.97936">
        <ele>12.8</ele>
        <time>2025-01-17T17:11:59.550Z</time>
      </trkpt>
      <trkpt lat="46.73273" lon="-1.9794">
        <ele>12.8</ele>
        <time>2025-01-17T17:12:00.550Z</time>
      </trkpt>
      <trkpt lat="46.73273" lon="-1.97943">
        <ele>12.8</ele>
        <time>2025-01-17T17:12:01.551Z</time>
      </trkpt>
      <trkpt lat="46.73274" lon="-1.97948">
        <ele>13.2</ele>
        <time>2025-01-17T17:12:02.551Z</time>
      </trkpt>
      <trkpt lat="46.73275" lon="-1.97952">
        <ele>13.5</ele>
        <time>2025-01-17T17:12:03.551Z</time>
      </trkpt>
      <trkpt lat="46.73276" lon="-1.97955">
        <ele>13.9</ele>
        <time>2025-01-17T17:12:04.550Z</time>
      </trkpt>
      <trkpt lat="46.73277" lon="-1.97959">
        <ele>14.3</ele>
        <time>2025-01-17T17:12:05.551Z</time>
      </trkpt>
      <trkpt lat="46.73279" lon="-1.97963">
        <ele>14.6</ele>
        <time>2025-01-17T17:12:06.550Z</time>
      </trkpt>
      <trkpt lat="46.73279" lon="-1.97966">
        <ele>14.7</ele>
        <time>2025-01-17T17:12:07.550Z</time>
      </trkpt>
      <trkpt lat="46.73279" lon="-1.97968">
        <ele>14.7</ele>
        <time>2025-01-17T17:12:08.551Z</time>
      </trkpt>
      <trkpt lat="46.7328" lon="-1.97971">
        <ele>14.8</ele>
        <time>2025-01-17T17:12:09.551Z</time>
      </trkpt>
      <trkpt lat="46.73281" lon="-1.97974">
        <ele>14.5</ele>
        <time>2025-01-17T17:12:10.550Z</time>
      </trkpt>
      <trkpt lat="46.73283" lon="-1.97977">
        <ele>14</ele>
        <time>2025-01-17T17:12:11.550Z</time>
      </trkpt>
      <trkpt lat="46.73284" lon="-1.97982">
        <ele>13.5</ele>
        <time>2025-01-17T17:12:12.550Z</time>
      </trkpt>
      <trkpt lat="46.73285" lon="-1.97984">
        <ele>13.2</ele>
        <time>2025-01-17T17:12:13.550Z</time>
      </trkpt>
      <trkpt lat="46.73286" lon="-1.97986">
        <ele>13</ele>
        <time>2025-01-17T17:12:14.551Z</time>
      </trkpt>
      <trkpt lat="46.73287" lon="-1.97989">
        <ele>12.7</ele>
        <time>2025-01-17T17:12:15.551Z</time>
      </trkpt>
      <trkpt lat="46.73289" lon="-1.97993">
        <ele>12.4</ele>
        <time>2025-01-17T17:12:16.551Z</time>
      </trkpt>
      <trkpt lat="46.73292" lon="-1.97994">
        <ele>12.5</ele>
        <time>2025-01-17T17:12:17.550Z</time>
      </trkpt>
      <trkpt lat="46.73294" lon="-1.97997">
        <ele>12.3</ele>
        <time>2025-01-17T17:12:18.551Z</time>
      </trkpt>
      <trkpt lat="46.73294" lon="-1.98">
        <ele>12.2</ele>
        <time>2025-01-17T17:12:19.550Z</time>
      </trkpt>
      <trkpt lat="46.73295" lon="-1.98004">
        <ele>12.1</ele>
        <time>2025-01-17T17:12:20.551Z</time>
      </trkpt>
      <trkpt lat="46.73296" lon="-1.98008">
        <ele>12.2</ele>
        <time>2025-01-17T17:12:21.550Z</time>
      </trkpt>
      <trkpt lat="46.73296" lon="-1.98012">
        <ele>12.1</ele>
        <time>2025-01-17T17:12:22.550Z</time>
      </trkpt>
      <trkpt lat="46.73297" lon="-1.98015">
        <ele>12.2</ele>
        <time>2025-01-17T17:12:23.550Z</time>
      </trkpt>
      <trkpt lat="46.73297" lon="-1.98017">
        <ele>12.3</ele>
        <time>2025-01-17T17:12:24.551Z</time>
      </trkpt>
      <trkpt lat="46.73298" lon="-1.98019">
        <ele>12.3</ele>
        <time>2025-01-17T17:12:25.551Z</time>
      </trkpt>
      <trkpt lat="46.73298" lon="-1.98021">
        <ele>12.3</ele>
        <time>2025-01-17T17:12:26.551Z</time>
      </trkpt>
      <trkpt lat="46.73298" lon="-1.98024">
        <ele>12.3</ele>
        <time>2025-01-17T17:12:27.551Z</time>
      </trkpt>
      <trkpt lat="46.73297" lon="-1.98026">
        <ele>12.2</ele>
        <time>2025-01-17T17:12:28.551Z</time>
      </trkpt>
      <trkpt lat="46.73297" lon="-1.98029">
        <ele>12.2</ele>
        <time>2025-01-17T17:12:29.550Z</time>
      </trkpt>
      <trkpt lat="46.73296" lon="-1.9803">
        <ele>11.9</ele>
        <time>2025-01-17T17:12:30.550Z</time>
      </trkpt>
      <trkpt lat="46.73294" lon="-1.98031">
        <ele>11.3</ele>
        <time>2025-01-17T17:12:31.550Z</time>
      </trkpt>
      <trkpt lat="46.73291" lon="-1.98032">
        <ele>10.6</ele>
        <time>2025-01-17T17:12:32.550Z</time>
      </trkpt>
      <trkpt lat="46.73289" lon="-1.98033">
        <ele>10.2</ele>
        <time>2025-01-17T17:12:33.551Z</time>
      </trkpt>
      <trkpt lat="46.73286" lon="-1.98035">
        <ele>9.5</ele>
        <time>2025-01-17T17:12:34.551Z</time>
      </trkpt>
      <trkpt lat="46.73284" lon="-1.98037">
        <ele>8.9</ele>
        <time>2025-01-17T17:12:35.551Z</time>
      </trkpt>
      <trkpt lat="46.73281" lon="-1.9804">
        <ele>8.3</ele>
        <time>2025-01-17T17:12:36.550Z</time>
      </trkpt>
      <trkpt lat="46.73279" lon="-1.98043">
        <ele>7.6</ele>
        <time>2025-01-17T17:12:37.551Z</time>
      </trkpt>
      <trkpt lat="46.73276" lon="-1.98046">
        <ele>7.2</ele>
        <time>2025-01-17T17:12:38.550Z</time>
      </trkpt>
      <trkpt lat="46.73274" lon="-1.98049">
        <ele>6.9</ele>
        <time>2025-01-17T17:12:39.550Z</time>
      </trkpt>
      <trkpt lat="46.73271" lon="-1.9805">
        <ele>6.6</ele>
        <time>2025-01-17T17:12:40.550Z</time>
      </trkpt>
      <trkpt lat="46.73269" lon="-1.98049">
        <ele>6.5</ele>
        <time>2025-01-17T17:12:41.551Z</time>
      </trkpt>
      <trkpt lat="46.73266" lon="-1.98048">
        <ele>6.3</ele>
        <time>2025-01-17T17:12:42.551Z</time>
      </trkpt>
      <trkpt lat="46.73263" lon="-1.98046">
        <ele>6.1</ele>
        <time>2025-01-17T17:12:43.551Z</time>
      </trkpt>
      <trkpt lat="46.7326" lon="-1.98044">
        <ele>5.9</ele>
        <time>2025-01-17T17:12:44.551Z</time>
      </trkpt>
      <trkpt lat="46.73257" lon="-1.98042">
        <ele>5.6</ele>
        <time>2025-01-17T17:12:45.551Z</time>
      </trkpt>
      <trkpt lat="46.73255" lon="-1.98041">
        <ele>5.4</ele>
        <time>2025-01-17T17:12:46.550Z</time>
      </trkpt>
      <trkpt lat="46.73253" lon="-1.98039">
        <ele>5.3</ele>
        <time>2025-01-17T17:12:47.550Z</time>
      </trkpt>
      <trkpt lat="46.7325" lon="-1.98037">
        <ele>5</ele>
        <time>2025-01-17T17:12:48.550Z</time>
      </trkpt>
      <trkpt lat="46.73248" lon="-1.98037">
        <ele>4.9</ele>
        <time>2025-01-17T17:12:49.550Z</time>
      </trkpt>
      <trkpt lat="46.73245" lon="-1.98037">
        <ele>4.8</ele>
        <time>2025-01-17T17:12:50.551Z</time>
      </trkpt>
      <trkpt lat="46.73242" lon="-1.98036">
        <ele>4.7</ele>
        <time>2025-01-17T17:12:51.551Z</time>
      </trkpt>
      <trkpt lat="46.73239" lon="-1.98036">
        <ele>4.6</ele>
        <time>2025-01-17T17:12:52.551Z</time>
      </trkpt>
      <trkpt lat="46.73236" lon="-1.98036">
        <ele>4.5</ele>
        <time>2025-01-17T17:12:53.550Z</time>
      </trkpt>
      <trkpt lat="46.73233" lon="-1.98036">
        <ele>4.4</ele>
        <time>2025-01-17T17:12:54.550Z</time>
      </trkpt>
      <trkpt lat="46.73229" lon="-1.98037">
        <ele>4.3</ele>
        <time>2025-01-17T17:12:55.550Z</time>
      </trkpt>
      <trkpt lat="46.73227" lon="-1.98038">
        <ele>4.2</ele>
        <time>2025-01-17T17:12:56.550Z</time>
      </trkpt>
      <trkpt lat="46.73224" lon="-1.98039">
        <ele>4.1</ele>
        <time>2025-01-17T17:12:57.551Z</time>
      </trkpt>
      <trkpt lat="46.73222" lon="-1.98041">
        <ele>4</ele>
        <time>2025-01-17T17:12:58.551Z</time>
      </trkpt>
      <trkpt lat="46.73219" lon="-1.98042">
        <ele>4</ele>
        <time>2025-01-17T17:12:59.551Z</time>
      </trkpt>
      <trkpt lat="46.73217" lon="-1.98043">
        <ele>4</ele>
        <time>2025-01-17T17:13:00.551Z</time>
      </trkpt>
      <trkpt lat="46.73215" lon="-1.98044">
        <ele>4</ele>
        <time>2025-01-17T17:13:01.551Z</time>
      </trkpt>
      <trkpt lat="46.73213" lon="-1.98044">
        <ele>4</ele>
        <time>2025-01-17T17:13:02.550Z</time>
      </trkpt>
      <trkpt lat="46.7321" lon="-1.98045">
        <ele>4</ele>
        <time>2025-01-17T17:13:03.550Z</time>
      </trkpt>
      <trkpt lat="46.73207" lon="-1.98046">
        <ele>4</ele>
        <time>2025-01-17T17:13:04.550Z</time>
      </trkpt>
      <trkpt lat="46.73204" lon="-1.98047">
        <ele>4</ele>
        <time>2025-01-17T17:13:05.550Z</time>
      </trkpt>
      <trkpt lat="46.73203" lon="-1.98048">
        <ele>4</ele>
        <time>2025-01-17T17:13:06.551Z</time>
      </trkpt>
      <trkpt lat="46.73201" lon="-1.98049">
        <ele>4</ele>
        <time>2025-01-17T17:13:07.551Z</time>
      </trkpt>
      <trkpt lat="46.73198" lon="-1.98049">
        <ele>4</ele>
        <time>2025-01-17T17:13:08.550Z</time>
      </trkpt>
      <trkpt lat="46.73196" lon="-1.98049">
        <ele>4</ele>
        <time>2025-01-17T17:13:09.550Z</time>
      </trkpt>
      <trkpt lat="46.73194" lon="-1.98049">
        <ele>4</ele>
        <time>2025-01-17T17:13:10.551Z</time>
      </trkpt>
      <trkpt lat="46.73192" lon="-1.98049">
        <ele>4</ele>
        <time>2025-01-17T17:13:11.551Z</time>
      </trkpt>
      <trkpt lat="46.73189" lon="-1.9805">
        <ele>4</ele>
        <time>2025-01-17T17:13:12.550Z</time>
      </trkpt>
      <trkpt lat="46.73187" lon="-1.98052">
        <ele>4</ele>
        <time>2025-01-17T17:13:13.550Z</time>
      </trkpt>
      <trkpt lat="46.73184" lon="-1.98053">
        <ele>4</ele>
        <time>2025-01-17T17:13:14.550Z</time>
      </trkpt>
      <trkpt lat="46.73182" lon="-1.98055">
        <ele>4</ele>
        <time>2025-01-17T17:13:15.551Z</time>
      </trkpt>
      <trkpt lat="46.7318" lon="-1.98056">
        <ele>4</ele>
        <time>2025-01-17T17:13:16.551Z</time>
      </trkpt>
      <trkpt lat="46.73178" lon="-1.98056">
        <ele>4</ele>
        <time>2025-01-17T17:13:17.551Z</time>
      </trkpt>
      <trkpt lat="46.73175" lon="-1.98057">
        <ele>4</ele>
        <time>2025-01-17T17:13:18.551Z</time>
      </trkpt>
      <trkpt lat="46.73174" lon="-1.98057">
        <ele>4</ele>
        <time>2025-01-17T17:13:19.550Z</time>
      </trkpt>
      <trkpt lat="46.73172" lon="-1.98056">
        <ele>4</ele>
        <time>2025-01-17T17:13:20.550Z</time>
      </trkpt>
      <trkpt lat="46.73169" lon="-1.98056">
        <ele>4</ele>
        <time>2025-01-17T17:13:21.550Z</time>
      </trkpt>
      <trkpt lat="46.73168" lon="-1.98053">
        <ele>4</ele>
        <time>2025-01-17T17:13:22.550Z</time>
      </trkpt>
      <trkpt lat="46.73166" lon="-1.9805">
        <ele>4</ele>
        <time>2025-01-17T17:13:23.551Z</time>
      </trkpt>
      <trkpt lat="46.73165" lon="-1.98047">
        <ele>4.1</ele>
        <time>2025-01-17T17:13:24.550Z</time>
      </trkpt>
      <trkpt lat="46.73165" lon="-1.98044">
        <ele>4.1</ele>
        <time>2025-01-17T17:13:25.550Z</time>
      </trkpt>
      <trkpt lat="46.73164" lon="-1.9804">
        <ele>4.2</ele>
        <time>2025-01-17T17:13:26.550Z</time>
      </trkpt>
      <trkpt lat="46.73163" lon="-1.98038">
        <ele>4.2</ele>
        <time>2025-01-17T17:13:27.551Z</time>
      </trkpt>
      <trkpt lat="46.73162" lon="-1.98035">
        <ele>4.3</ele>
        <time>2025-01-17T17:13:28.551Z</time>
      </trkpt>
      <trkpt lat="46.73162" lon="-1.98031">
        <ele>4.4</ele>
        <time>2025-01-17T17:13:29.551Z</time>
      </trkpt>
      <trkpt lat="46.73161" lon="-1.98028">
        <ele>4.4</ele>
        <time>2025-01-17T17:13:30.551Z</time>
      </trkpt>
      <trkpt lat="46.7316" lon="-1.98024">
        <ele>4.5</ele>
        <time>2025-01-17T17:13:31.551Z</time>
      </trkpt>
      <trkpt lat="46.73159" lon="-1.9802">
        <ele>4.5</ele>
        <time>2025-01-17T17:13:32.550Z</time>
      </trkpt>
      <trkpt lat="46.73159" lon="-1.98016">
        <ele>4.4</ele>
        <time>2025-01-17T17:13:33.550Z</time>
      </trkpt>
      <trkpt lat="46.73159" lon="-1.98013">
        <ele>4.4</ele>
        <time>2025-01-17T17:13:34.550Z</time>
      </trkpt>
      <trkpt lat="46.73158" lon="-1.9801">
        <ele>4.4</ele>
        <time>2025-01-17T17:13:35.551Z</time>
      </trkpt>
      <trkpt lat="46.73157" lon="-1.98007">
        <ele>4.4</ele>
        <time>2025-01-17T17:13:36.551Z</time>
      </trkpt>
      <trkpt lat="46.73156" lon="-1.98003">
        <ele>4.4</ele>
        <time>2025-01-17T17:13:37.551Z</time>
      </trkpt>
      <trkpt lat="46.73154" lon="-1.98001">
        <ele>4.5</ele>
        <time>2025-01-17T17:13:38.551Z</time>
      </trkpt>
      <trkpt lat="46.73152" lon="-1.97999">
        <ele>4.5</ele>
        <time>2025-01-17T17:13:39.551Z</time>
      </trkpt>
      <trkpt lat="46.7315" lon="-1.97996">
        <ele>4.7</ele>
        <time>2025-01-17T17:13:40.550Z</time>
      </trkpt>
      <trkpt lat="46.73147" lon="-1.97995">
        <ele>4.8</ele>
        <time>2025-01-17T17:13:41.550Z</time>
      </trkpt>
      <trkpt lat="46.73146" lon="-1.97993">
        <ele>5</ele>
        <time>2025-01-17T17:13:42.550Z</time>
      </trkpt>
      <trkpt lat="46.73144" lon="-1.97991">
        <ele>5.1</ele>
        <time>2025-01-17T17:13:43.550Z</time>
      </trkpt>
      <trkpt lat="46.73143" lon="-1.97989">
        <ele>5.2</ele>
        <time>2025-01-17T17:13:44.551Z</time>
      </trkpt>
      <trkpt lat="46.73142" lon="-1.97988">
        <ele>5.3</ele>
        <time>2025-01-17T17:13:45.550Z</time>
      </trkpt>
      <trkpt lat="46.73141" lon="-1.97985">
        <ele>5.4</ele>
        <time>2025-01-17T17:13:46.550Z</time>
      </trkpt>
      <trkpt lat="46.73141" lon="-1.97983">
        <ele>5.5</ele>
        <time>2025-01-17T17:13:47.550Z</time>
      </trkpt>
      <trkpt lat="46.73141" lon="-1.9798">
        <ele>5.6</ele>
        <time>2025-01-17T17:13:48.551Z</time>
      </trkpt>
      <trkpt lat="46.7314" lon="-1.97977">
        <ele>5.7</ele>
        <time>2025-01-17T17:13:49.551Z</time>
      </trkpt>
      <trkpt lat="46.7314" lon="-1.97975">
        <ele>5.8</ele>
        <time>2025-01-17T17:13:50.551Z</time>
      </trkpt>
      <trkpt lat="46.7314" lon="-1.97973">
        <ele>5.9</ele>
        <time>2025-01-17T17:13:51.550Z</time>
      </trkpt>
      <trkpt lat="46.73138" lon="-1.97971">
        <ele>6</ele>
        <time>2025-01-17T17:13:52.551Z</time>
      </trkpt>
      <trkpt lat="46.73137" lon="-1.97969">
        <ele>6</ele>
        <time>2025-01-17T17:13:53.550Z</time>
      </trkpt>
      <trkpt lat="46.73137" lon="-1.97965">
        <ele>6.1</ele>
        <time>2025-01-17T17:13:54.550Z</time>
      </trkpt>
      <trkpt lat="46.73136" lon="-1.97962">
        <ele>6.2</ele>
        <time>2025-01-17T17:13:55.550Z</time>
      </trkpt>
      <trkpt lat="46.73137" lon="-1.97959">
        <ele>6.3</ele>
        <time>2025-01-17T17:13:56.550Z</time>
      </trkpt>
      <trkpt lat="46.73138" lon="-1.97956">
        <ele>6.5</ele>
        <time>2025-01-17T17:13:57.551Z</time>
      </trkpt>
      <trkpt lat="46.73139" lon="-1.97953">
        <ele>6.7</ele>
        <time>2025-01-17T17:13:58.551Z</time>
      </trkpt>
      <trkpt lat="46.7314" lon="-1.97952">
        <ele>6.7</ele>
        <time>2025-01-17T17:13:59.551Z</time>
      </trkpt>
      <trkpt lat="46.73141" lon="-1.97948">
        <ele>6.7</ele>
        <time>2025-01-17T17:14:00.551Z</time>
      </trkpt>
      <trkpt lat="46.73142" lon="-1.97945">
        <ele>6.8</ele>
        <time>2025-01-17T17:14:01.550Z</time>
      </trkpt>
      <trkpt lat="46.73142" lon="-1.97942">
        <ele>6.9</ele>
        <time>2025-01-17T17:14:02.550Z</time>
      </trkpt>
      <trkpt lat="46.73142" lon="-1.97939">
        <ele>7.1</ele>
        <time>2025-01-17T17:14:03.551Z</time>
      </trkpt>
      <trkpt lat="46.73143" lon="-1.97936">
        <ele>7.2</ele>
        <time>2025-01-17T17:14:04.550Z</time>
      </trkpt>
      <trkpt lat="46.73143" lon="-1.97932">
        <ele>7.4</ele>
        <time>2025-01-17T17:14:05.551Z</time>
      </trkpt>
      <trkpt lat="46.73144" lon="-1.9793">
        <ele>7.5</ele>
        <time>2025-01-17T17:14:06.551Z</time>
      </trkpt>
      <trkpt lat="46.73144" lon="-1.97927">
        <ele>7.6</ele>
        <time>2025-01-17T17:14:07.550Z</time>
      </trkpt>
      <trkpt lat="46.73143" lon="-1.97924">
        <ele>7.8</ele>
        <time>2025-01-17T17:14:08.550Z</time>
      </trkpt>
      <trkpt lat="46.73143" lon="-1.97921">
        <ele>8.1</ele>
        <time>2025-01-17T17:14:09.550Z</time>
      </trkpt>
      <trkpt lat="46.73143" lon="-1.97917">
        <ele>8.3</ele>
        <time>2025-01-17T17:14:10.550Z</time>
      </trkpt>
      <trkpt lat="46.73143" lon="-1.97914">
        <ele>8.2</ele>
        <time>2025-01-17T17:14:11.551Z</time>
      </trkpt>
      <trkpt lat="46.73144" lon="-1.97911">
        <ele>8.2</ele>
        <time>2025-01-17T17:14:12.551Z</time>
      </trkpt>
      <trkpt lat="46.73143" lon="-1.97907">
        <ele>8.3</ele>
        <time>2025-01-17T17:14:13.551Z</time>
      </trkpt>
      <trkpt lat="46.73142" lon="-1.97903">
        <ele>8.5</ele>
        <time>2025-01-17T17:14:14.551Z</time>
      </trkpt>
      <trkpt lat="46.73141" lon="-1.97899">
        <ele>8.6</ele>
        <time>2025-01-17T17:14:15.550Z</time>
      </trkpt>
      <trkpt lat="46.73142" lon="-1.97896">
        <ele>8.6</ele>
        <time>2025-01-17T17:14:16.551Z</time>
      </trkpt>
      <trkpt lat="46.73143" lon="-1.97892">
        <ele>8.4</ele>
        <time>2025-01-17T17:14:17.550Z</time>
      </trkpt>
      <trkpt lat="46.73143" lon="-1.97888">
        <ele>8.4</ele>
        <time>2025-01-17T17:14:18.550Z</time>
      </trkpt>
      <trkpt lat="46.73143" lon="-1.97885">
        <ele>8.5</ele>
        <time>2025-01-17T17:14:19.551Z</time>
      </trkpt>
      <trkpt lat="46.73143" lon="-1.97881">
        <ele>8.4</ele>
        <time>2025-01-17T17:14:20.551Z</time>
      </trkpt>
      <trkpt lat="46.73142" lon="-1.97878">
        <ele>8.5</ele>
        <time>2025-01-17T17:14:21.551Z</time>
      </trkpt>
      <trkpt lat="46.73142" lon="-1.97874">
        <ele>8.5</ele>
        <time>2025-01-17T17:14:22.551Z</time>
      </trkpt>
      <trkpt lat="46.73142" lon="-1.97869">
        <ele>8.5</ele>
        <time>2025-01-17T17:14:23.551Z</time>
      </trkpt>
      <trkpt lat="46.73142" lon="-1.97865">
        <ele>8.4</ele>
        <time>2025-01-17T17:14:24.551Z</time>
      </trkpt>
      <trkpt lat="46.73143" lon="-1.97862">
        <ele>8.3</ele>
        <time>2025-01-17T17:14:25.551Z</time>
      </trkpt>
      <trkpt lat="46.73143" lon="-1.97858">
        <ele>8.6</ele>
        <time>2025-01-17T17:14:26.551Z</time>
      </trkpt>
      <trkpt lat="46.73142" lon="-1.97855">
        <ele>9.1</ele>
        <time>2025-01-17T17:14:27.551Z</time>
      </trkpt>
      <trkpt lat="46.73141" lon="-1.97852">
        <ele>9.6</ele>
        <time>2025-01-17T17:14:28.550Z</time>
      </trkpt>
      <trkpt lat="46.73141" lon="-1.97849">
        <ele>10</ele>
        <time>2025-01-17T17:14:29.550Z</time>
      </trkpt>
      <trkpt lat="46.7314" lon="-1.97846">
        <ele>10.4</ele>
        <time>2025-01-17T17:14:30.550Z</time>
      </trkpt>
      <trkpt lat="46.7314" lon="-1.97843">
        <ele>10.7</ele>
        <time>2025-01-17T17:14:31.551Z</time>
      </trkpt>
      <trkpt lat="46.7314" lon="-1.97841">
        <ele>11</ele>
        <time>2025-01-17T17:14:32.551Z</time>
      </trkpt>
      <trkpt lat="46.7314" lon="-1.9784">
        <ele>11</ele>
        <time>2025-01-17T17:14:33.551Z</time>
      </trkpt>
      <trkpt lat="46.73141" lon="-1.97839">
        <ele>11</ele>
        <time>2025-01-17T17:14:34.551Z</time>
      </trkpt>
      <trkpt lat="46.73142" lon="-1.97837">
        <ele>11</ele>
        <time>2025-01-17T17:14:35.551Z</time>
      </trkpt>
      <trkpt lat="46.73143" lon="-1.97836">
        <ele>11.1</ele>
        <time>2025-01-17T17:14:36.550Z</time>
      </trkpt>
      <trkpt lat="46.73143" lon="-1.97832">
        <ele>11.2</ele>
        <time>2025-01-17T17:14:37.551Z</time>
      </trkpt>
      <trkpt lat="46.73143" lon="-1.9783">
        <ele>11.3</ele>
        <time>2025-01-17T17:14:38.550Z</time>
      </trkpt>
      <trkpt lat="46.73142" lon="-1.97827">
        <ele>11.5</ele>
        <time>2025-01-17T17:14:39.550Z</time>
      </trkpt>
      <trkpt lat="46.73142" lon="-1.97825">
        <ele>11.6</ele>
        <time>2025-01-17T17:14:40.551Z</time>
      </trkpt>
      <trkpt lat="46.7314" lon="-1.97821">
        <ele>11.8</ele>
        <time>2025-01-17T17:14:41.551Z</time>
      </trkpt>
      <trkpt lat="46.73139" lon="-1.97819">
        <ele>12</ele>
        <time>2025-01-17T17:14:42.550Z</time>
      </trkpt>
      <trkpt lat="46.73138" lon="-1.97816">
        <ele>12.1</ele>
        <time>2025-01-17T17:14:43.550Z</time>
      </trkpt>
      <trkpt lat="46.73138" lon="-1.97814">
        <ele>12.1</ele>
        <time>2025-01-17T17:14:44.550Z</time>
      </trkpt>
      <trkpt lat="46.73137" lon="-1.97811">
        <ele>12.2</ele>
        <time>2025-01-17T17:14:45.550Z</time>
      </trkpt>
      <trkpt lat="46.73136" lon="-1.97808">
        <ele>12.2</ele>
        <time>2025-01-17T17:14:46.551Z</time>
      </trkpt>
      <trkpt lat="46.73135" lon="-1.97805">
        <ele>12.3</ele>
        <time>2025-01-17T17:14:47.550Z</time>
      </trkpt>
      <trkpt lat="46.73133" lon="-1.97802">
        <ele>12.1</ele>
        <time>2025-01-17T17:14:48.551Z</time>
      </trkpt>
      <trkpt lat="46.73132" lon="-1.978">
        <ele>12</ele>
        <time>2025-01-17T17:14:49.550Z</time>
      </trkpt>
      <trkpt lat="46.73132" lon="-1.97797">
        <ele>11.7</ele>
        <time>2025-01-17T17:14:50.551Z</time>
      </trkpt>
      <trkpt lat="46.73132" lon="-1.97794">
        <ele>11.4</ele>
        <time>2025-01-17T17:14:51.551Z</time>
      </trkpt>
      <trkpt lat="46.73132" lon="-1.9779">
        <ele>11.1</ele>
        <time>2025-01-17T17:14:52.551Z</time>
      </trkpt>
      <trkpt lat="46.73131" lon="-1.97786">
        <ele>10.8</ele>
        <time>2025-01-17T17:14:53.551Z</time>
      </trkpt>
      <trkpt lat="46.73131" lon="-1.97783">
        <ele>10.6</ele>
        <time>2025-01-17T17:14:54.551Z</time>
      </trkpt>
      <trkpt lat="46.7313" lon="-1.97779">
        <ele>10.4</ele>
        <time>2025-01-17T17:14:55.551Z</time>
      </trkpt>
      <trkpt lat="46.7313" lon="-1.97775">
        <ele>10.2</ele>
        <time>2025-01-17T17:14:56.551Z</time>
      </trkpt>
      <trkpt lat="46.7313" lon="-1.97772">
        <ele>10.1</ele>
        <time>2025-01-17T17:14:57.550Z</time>
      </trkpt>
      <trkpt lat="46.7313" lon="-1.97769">
        <ele>9.9</ele>
        <time>2025-01-17T17:14:58.551Z</time>
      </trkpt>
      <trkpt lat="46.7313" lon="-1.97766">
        <ele>9.7</ele>
        <time>2025-01-17T17:14:59.551Z</time>
      </trkpt>
      <trkpt lat="46.7313" lon="-1.97761">
        <ele>9.5</ele>
        <time>2025-01-17T17:15:00.551Z</time>
      </trkpt>
      <trkpt lat="46.7313" lon="-1.97758">
        <ele>9.4</ele>
        <time>2025-01-17T17:15:01.551Z</time>
      </trkpt>
      <trkpt lat="46.73128" lon="-1.97754">
        <ele>9.3</ele>
        <time>2025-01-17T17:15:02.550Z</time>
      </trkpt>
      <trkpt lat="46.73127" lon="-1.97749">
        <ele>9.2</ele>
        <time>2025-01-17T17:15:03.550Z</time>
      </trkpt>
      <trkpt lat="46.73127" lon="-1.97745">
        <ele>8.7</ele>
        <time>2025-01-17T17:15:04.550Z</time>
      </trkpt>
      <trkpt lat="46.73127" lon="-1.9774">
        <ele>8.2</ele>
        <time>2025-01-17T17:15:05.551Z</time>
      </trkpt>
      <trkpt lat="46.73125" lon="-1.97736">
        <ele>7.9</ele>
        <time>2025-01-17T17:15:06.550Z</time>
      </trkpt>
      <trkpt lat="46.73125" lon="-1.97731">
        <ele>7.5</ele>
        <time>2025-01-17T17:15:07.550Z</time>
      </trkpt>
      <trkpt lat="46.73124" lon="-1.97727">
        <ele>7.1</ele>
        <time>2025-01-17T17:15:08.550Z</time>
      </trkpt>
      <trkpt lat="46.73123" lon="-1.97723">
        <ele>6.8</ele>
        <time>2025-01-17T17:15:09.550Z</time>
      </trkpt>
      <trkpt lat="46.73122" lon="-1.97719">
        <ele>6.7</ele>
        <time>2025-01-17T17:15:10.550Z</time>
      </trkpt>
      <trkpt lat="46.73121" lon="-1.97713">
        <ele>6.3</ele>
        <time>2025-01-17T17:15:11.550Z</time>
      </trkpt>
      <trkpt lat="46.73121" lon="-1.9771">
        <ele>6.1</ele>
        <time>2025-01-17T17:15:12.550Z</time>
      </trkpt>
      <trkpt lat="46.7312" lon="-1.97707">
        <ele>5.9</ele>
        <time>2025-01-17T17:15:13.551Z</time>
      </trkpt>
      <trkpt lat="46.73121" lon="-1.97702">
        <ele>5.5</ele>
        <time>2025-01-17T17:15:14.551Z</time>
      </trkpt>
      <trkpt lat="46.73122" lon="-1.97697">
        <ele>5.2</ele>
        <time>2025-01-17T17:15:15.551Z</time>
      </trkpt>
      <trkpt lat="46.73121" lon="-1.97693">
        <ele>5</ele>
        <time>2025-01-17T17:15:16.551Z</time>
      </trkpt>
      <trkpt lat="46.7312" lon="-1.9769">
        <ele>4.9</ele>
        <time>2025-01-17T17:15:17.551Z</time>
      </trkpt>
      <trkpt lat="46.7312" lon="-1.97687">
        <ele>4.9</ele>
        <time>2025-01-17T17:15:18.550Z</time>
      </trkpt>
      <trkpt lat="46.73119" lon="-1.97682">
        <ele>4.9</ele>
        <time>2025-01-17T17:15:19.550Z</time>
      </trkpt>
      <trkpt lat="46.73118" lon="-1.97679">
        <ele>4.9</ele>
        <time>2025-01-17T17:15:20.550Z</time>
      </trkpt>
      <trkpt lat="46.73118" lon="-1.97676">
        <ele>4.8</ele>
        <time>2025-01-17T17:15:21.550Z</time>
      </trkpt>
      <trkpt lat="46.73117" lon="-1.97672">
        <ele>4.8</ele>
        <time>2025-01-17T17:15:22.551Z</time>
      </trkpt>
      <trkpt lat="46.73117" lon="-1.97669">
        <ele>4.8</ele>
        <time>2025-01-17T17:15:23.550Z</time>
      </trkpt>
      <trkpt lat="46.73116" lon="-1.97665">
        <ele>4.8</ele>
        <time>2025-01-17T17:15:24.550Z</time>
      </trkpt>
      <trkpt lat="46.73115" lon="-1.97662">
        <ele>4.7</ele>
        <time>2025-01-17T17:15:25.551Z</time>
      </trkpt>
      <trkpt lat="46.73113" lon="-1.97657">
        <ele>4.6</ele>
        <time>2025-01-17T17:15:26.550Z</time>
      </trkpt>
      <trkpt lat="46.73111" lon="-1.97653">
        <ele>4.5</ele>
        <time>2025-01-17T17:15:27.550Z</time>
      </trkpt>
      <trkpt lat="46.7311" lon="-1.9765">
        <ele>4.5</ele>
        <time>2025-01-17T17:15:28.551Z</time>
      </trkpt>
      <trkpt lat="46.73109" lon="-1.97646">
        <ele>4.5</ele>
        <time>2025-01-17T17:15:29.550Z</time>
      </trkpt>
      <trkpt lat="46.73109" lon="-1.97643">
        <ele>4.4</ele>
        <time>2025-01-17T17:15:30.550Z</time>
      </trkpt>
      <trkpt lat="46.73107" lon="-1.9764">
        <ele>4.5</ele>
        <time>2025-01-17T17:15:31.551Z</time>
      </trkpt>
      <trkpt lat="46.73106" lon="-1.97638">
        <ele>4.6</ele>
        <time>2025-01-17T17:15:32.551Z</time>
      </trkpt>
      <trkpt lat="46.73105" lon="-1.97635">
        <ele>4.7</ele>
        <time>2025-01-17T17:15:33.551Z</time>
      </trkpt>
      <trkpt lat="46.73105" lon="-1.97633">
        <ele>4.8</ele>
        <time>2025-01-17T17:15:34.551Z</time>
      </trkpt>
      <trkpt lat="46.73104" lon="-1.9763">
        <ele>5</ele>
        <time>2025-01-17T17:15:35.550Z</time>
      </trkpt>
      <trkpt lat="46.73102" lon="-1.97627">
        <ele>5.1</ele>
        <time>2025-01-17T17:15:36.550Z</time>
      </trkpt>
      <trkpt lat="46.73101" lon="-1.97624">
        <ele>5.2</ele>
        <time>2025-01-17T17:15:37.550Z</time>
      </trkpt>
      <trkpt lat="46.73099" lon="-1.97622">
        <ele>5.4</ele>
        <time>2025-01-17T17:15:38.550Z</time>
      </trkpt>
      <trkpt lat="46.73097" lon="-1.9762">
        <ele>5.5</ele>
        <time>2025-01-17T17:15:39.550Z</time>
      </trkpt>
      <trkpt lat="46.73095" lon="-1.97618">
        <ele>5.6</ele>
        <time>2025-01-17T17:15:40.551Z</time>
      </trkpt>
      <trkpt lat="46.73093" lon="-1.97615">
        <ele>5.7</ele>
        <time>2025-01-17T17:15:41.551Z</time>
      </trkpt>
      <trkpt lat="46.73092" lon="-1.97611">
        <ele>5.7</ele>
        <time>2025-01-17T17:15:42.550Z</time>
      </trkpt>
      <trkpt lat="46.7309" lon="-1.97608">
        <ele>6</ele>
        <time>2025-01-17T17:15:43.551Z</time>
      </trkpt>
      <trkpt lat="46.73089" lon="-1.97607">
        <ele>6.2</ele>
        <time>2025-01-17T17:15:44.550Z</time>
      </trkpt>
      <trkpt lat="46.73089" lon="-1.97604">
        <ele>6.4</ele>
        <time>2025-01-17T17:15:45.550Z</time>
      </trkpt>
      <trkpt lat="46.73088" lon="-1.97601">
        <ele>6.6</ele>
        <time>2025-01-17T17:15:46.550Z</time>
      </trkpt>
      <trkpt lat="46.73086" lon="-1.976">
        <ele>6.8</ele>
        <time>2025-01-17T17:15:47.550Z</time>
      </trkpt>
      <trkpt lat="46.73083" lon="-1.97598">
        <ele>7</ele>
        <time>2025-01-17T17:15:48.551Z</time>
      </trkpt>
      <trkpt lat="46.73081" lon="-1.97598">
        <ele>7.5</ele>
        <time>2025-01-17T17:15:49.551Z</time>
      </trkpt>
      <trkpt lat="46.73079" lon="-1.97596">
        <ele>8</ele>
        <time>2025-01-17T17:15:50.551Z</time>
      </trkpt>
      <trkpt lat="46.73077" lon="-1.97594">
        <ele>8.5</ele>
        <time>2025-01-17T17:15:51.551Z</time>
      </trkpt>
      <trkpt lat="46.73075" lon="-1.97593">
        <ele>9</ele>
        <time>2025-01-17T17:15:52.550Z</time>
      </trkpt>
      <trkpt lat="46.73073" lon="-1.97592">
        <ele>9.4</ele>
        <time>2025-01-17T17:15:53.550Z</time>
      </trkpt>
      <trkpt lat="46.73071" lon="-1.97593">
        <ele>9.8</ele>
        <time>2025-01-17T17:15:54.550Z</time>
      </trkpt>
      <trkpt lat="46.73067" lon="-1.97592">
        <ele>10.4</ele>
        <time>2025-01-17T17:15:55.550Z</time>
      </trkpt>
      <trkpt lat="46.73065" lon="-1.97591">
        <ele>10.9</ele>
        <time>2025-01-17T17:15:56.551Z</time>
      </trkpt>
      <trkpt lat="46.73062" lon="-1.97591">
        <ele>11.4</ele>
        <time>2025-01-17T17:15:57.551Z</time>
      </trkpt>
      <trkpt lat="46.73058" lon="-1.97592">
        <ele>12.2</ele>
        <time>2025-01-17T17:15:58.551Z</time>
      </trkpt>
      <trkpt lat="46.73055" lon="-1.97593">
        <ele>12.7</ele>
        <time>2025-01-17T17:15:59.551Z</time>
      </trkpt>
      <trkpt lat="46.73051" lon="-1.97593">
        <ele>12.7</ele>
        <time>2025-01-17T17:16:00.551Z</time>
      </trkpt>
      <trkpt lat="46.73048" lon="-1.97591">
        <ele>12.7</ele>
        <time>2025-01-17T17:16:01.550Z</time>
      </trkpt>
      <trkpt lat="46.73045" lon="-1.9759">
        <ele>12.6</ele>
        <time>2025-01-17T17:16:02.550Z</time>
      </trkpt>
      <trkpt lat="46.73041" lon="-1.9759">
        <ele>12.6</ele>
        <time>2025-01-17T17:16:03.550Z</time>
      </trkpt>
      <trkpt lat="46.73038" lon="-1.97586">
        <ele>12.1</ele>
        <time>2025-01-17T17:16:04.550Z</time>
      </trkpt>
      <trkpt lat="46.73035" lon="-1.97584">
        <ele>11.6</ele>
        <time>2025-01-17T17:16:05.550Z</time>
      </trkpt>
      <trkpt lat="46.73034" lon="-1.97582">
        <ele>11.4</ele>
        <time>2025-01-17T17:16:06.551Z</time>
      </trkpt>
      <trkpt lat="46.73032" lon="-1.97582">
        <ele>11.2</ele>
        <time>2025-01-17T17:16:07.551Z</time>
      </trkpt>
      <trkpt lat="46.73032" lon="-1.97581">
        <ele>11.2</ele>
        <time>2025-01-17T17:16:08.551Z</time>
      </trkpt>
      <trkpt lat="46.73033" lon="-1.97581">
        <ele>11.3</ele>
        <time>2025-01-17T17:16:09.550Z</time>
      </trkpt>
      <trkpt lat="46.73033" lon="-1.97581">
        <ele>11.3</ele>
        <time>2025-01-17T17:16:10.550Z</time>
      </trkpt>
      <trkpt lat="46.73035" lon="-1.9758">
        <ele>11.4</ele>
        <time>2025-01-17T17:16:11.551Z</time>
      </trkpt>
      <trkpt lat="46.73036" lon="-1.97579">
        <ele>11.6</ele>
        <time>2025-01-17T17:16:12.550Z</time>
      </trkpt>
      <trkpt lat="46.73038" lon="-1.97578">
        <ele>11.7</ele>
        <time>2025-01-17T17:16:13.550Z</time>
      </trkpt>
      <trkpt lat="46.7304" lon="-1.97577">
        <ele>12</ele>
        <time>2025-01-17T17:16:14.550Z</time>
      </trkpt>
      <trkpt lat="46.73041" lon="-1.97576">
        <ele>12.2</ele>
        <time>2025-01-17T17:16:15.551Z</time>
      </trkpt>
      <trkpt lat="46.73042" lon="-1.97576">
        <ele>12.3</ele>
        <time>2025-01-17T17:16:16.550Z</time>
      </trkpt>
      <trkpt lat="46.73043" lon="-1.97575">
        <ele>12.5</ele>
        <time>2025-01-17T17:16:17.551Z</time>
      </trkpt>
      <trkpt lat="46.73046" lon="-1.97572">
        <ele>13</ele>
        <time>2025-01-17T17:16:18.551Z</time>
      </trkpt>
      <trkpt lat="46.73048" lon="-1.9757">
        <ele>13.5</ele>
        <time>2025-01-17T17:16:19.551Z</time>
      </trkpt>
      <trkpt lat="46.73049" lon="-1.97568">
        <ele>14.1</ele>
        <time>2025-01-17T17:16:20.550Z</time>
      </trkpt>
      <trkpt lat="46.73051" lon="-1.97565">
        <ele>14.7</ele>
        <time>2025-01-17T17:16:21.550Z</time>
      </trkpt>
      <trkpt lat="46.73053" lon="-1.97563">
        <ele>15.4</ele>
        <time>2025-01-17T17:16:22.550Z</time>
      </trkpt>
      <trkpt lat="46.73054" lon="-1.9756">
        <ele>16.1</ele>
        <time>2025-01-17T17:16:23.550Z</time>
      </trkpt>
      <trkpt lat="46.73055" lon="-1.97557">
        <ele>16.7</ele>
        <time>2025-01-17T17:16:24.550Z</time>
      </trkpt>
      <trkpt lat="46.73056" lon="-1.97555">
        <ele>17</ele>
        <time>2025-01-17T17:16:25.550Z</time>
      </trkpt>
      <trkpt lat="46.73056" lon="-1.97553">
        <ele>16.8</ele>
        <time>2025-01-17T17:16:26.551Z</time>
      </trkpt>
      <trkpt lat="46.73057" lon="-1.97551">
        <ele>16.6</ele>
        <time>2025-01-17T17:16:27.551Z</time>
      </trkpt>
      <trkpt lat="46.73057" lon="-1.9755">
        <ele>16.5</ele>
        <time>2025-01-17T17:16:28.550Z</time>
      </trkpt>
      <trkpt lat="46.73057" lon="-1.97549">
        <ele>16.5</ele>
        <time>2025-01-17T17:16:29.550Z</time>
      </trkpt>
      <trkpt lat="46.73057" lon="-1.97547">
        <ele>16.4</ele>
        <time>2025-01-17T17:16:30.550Z</time>
      </trkpt>
      <trkpt lat="46.73057" lon="-1.97544">
        <ele>16.4</ele>
        <time>2025-01-17T17:16:31.550Z</time>
      </trkpt>
      <trkpt lat="46.73056" lon="-1.97543">
        <ele>16.4</ele>
        <time>2025-01-17T17:16:32.550Z</time>
      </trkpt>
      <trkpt lat="46.73056" lon="-1.9754">
        <ele>16.4</ele>
        <time>2025-01-17T17:16:33.550Z</time>
      </trkpt>
      <trkpt lat="46.73056" lon="-1.97537">
        <ele>16.3</ele>
        <time>2025-01-17T17:16:34.550Z</time>
      </trkpt>
      <trkpt lat="46.73056" lon="-1.97535">
        <ele>16.2</ele>
        <time>2025-01-17T17:16:35.551Z</time>
      </trkpt>
      <trkpt lat="46.73056" lon="-1.97532">
        <ele>16.1</ele>
        <time>2025-01-17T17:16:36.551Z</time>
      </trkpt>
      <trkpt lat="46.73057" lon="-1.97529">
        <ele>16</ele>
        <time>2025-01-17T17:16:37.551Z</time>
      </trkpt>
      <trkpt lat="46.73058" lon="-1.97526">
        <ele>15.8</ele>
        <time>2025-01-17T17:16:38.550Z</time>
      </trkpt>
      <trkpt lat="46.73058" lon="-1.97524">
        <ele>15.7</ele>
        <time>2025-01-17T17:16:39.550Z</time>
      </trkpt>
      <trkpt lat="46.73058" lon="-1.9752">
        <ele>15.5</ele>
        <time>2025-01-17T17:16:40.550Z</time>
      </trkpt>
      <trkpt lat="46.73059" lon="-1.9752">
        <ele>15.5</ele>
        <time>2025-01-17T17:16:41.550Z</time>
      </trkpt>
      <trkpt lat="46.7306" lon="-1.97518">
        <ele>15.5</ele>
        <time>2025-01-17T17:16:42.550Z</time>
      </trkpt>
      <trkpt lat="46.73061" lon="-1.97517">
        <ele>15.5</ele>
        <time>2025-01-17T17:16:43.551Z</time>
      </trkpt>
      <trkpt lat="46.73063" lon="-1.97515">
        <ele>15.5</ele>
        <time>2025-01-17T17:16:44.551Z</time>
      </trkpt>
      <trkpt lat="46.73063" lon="-1.97512">
        <ele>15.5</ele>
        <time>2025-01-17T17:16:45.550Z</time>
      </trkpt>
      <trkpt lat="46.73064" lon="-1.97511">
        <ele>15.6</ele>
        <time>2025-01-17T17:16:46.550Z</time>
      </trkpt>
      <trkpt lat="46.73065" lon="-1.9751">
        <ele>15.7</ele>
        <time>2025-01-17T17:16:47.551Z</time>
      </trkpt>
      <trkpt lat="46.73067" lon="-1.97508">
        <ele>15.9</ele>
        <time>2025-01-17T17:16:48.550Z</time>
      </trkpt>
      <trkpt lat="46.73069" lon="-1.97507">
        <ele>16.2</ele>
        <time>2025-01-17T17:16:49.550Z</time>
      </trkpt>
      <trkpt lat="46.73071" lon="-1.97507">
        <ele>16.4</ele>
        <time>2025-01-17T17:16:50.550Z</time>
      </trkpt>
      <trkpt lat="46.73073" lon="-1.97507">
        <ele>16.7</ele>
        <time>2025-01-17T17:16:51.550Z</time>
      </trkpt>
      <trkpt lat="46.73075" lon="-1.97506">
        <ele>17</ele>
        <time>2025-01-17T17:16:52.550Z</time>
      </trkpt>
      <trkpt lat="46.73077" lon="-1.97506">
        <ele>17.4</ele>
        <time>2025-01-17T17:16:53.550Z</time>
      </trkpt>
      <trkpt lat="46.73079" lon="-1.97505">
        <ele>17.6</ele>
        <time>2025-01-17T17:16:54.550Z</time>
      </trkpt>
      <trkpt lat="46.73081" lon="-1.97505">
        <ele>18</ele>
        <time>2025-01-17T17:16:55.551Z</time>
      </trkpt>
      <trkpt lat="46.73083" lon="-1.97505">
        <ele>18.3</ele>
        <time>2025-01-17T17:16:56.551Z</time>
      </trkpt>
      <trkpt lat="46.73085" lon="-1.97505">
        <ele>18.4</ele>
        <time>2025-01-17T17:16:57.551Z</time>
      </trkpt>
      <trkpt lat="46.73088" lon="-1.97505">
        <ele>18.8</ele>
        <time>2025-01-17T17:16:58.551Z</time>
      </trkpt>
      <trkpt lat="46.73093" lon="-1.97503">
        <ele>19.5</ele>
        <time>2025-01-17T17:16:59.550Z</time>
      </trkpt>
      <trkpt lat="46.73096" lon="-1.97502">
        <ele>19.8</ele>
        <time>2025-01-17T17:17:00.550Z</time>
      </trkpt>
      <trkpt lat="46.73098" lon="-1.975">
        <ele>20.1</ele>
        <time>2025-01-17T17:17:01.550Z</time>
      </trkpt>
      <trkpt lat="46.731" lon="-1.97499">
        <ele>20.1</ele>
        <time>2025-01-17T17:17:02.551Z</time>
      </trkpt>
      <trkpt lat="46.73101" lon="-1.97499">
        <ele>20.1</ele>
        <time>2025-01-17T17:17:03.550Z</time>
      </trkpt>
      <trkpt lat="46.73102" lon="-1.97498">
        <ele>20.2</ele>
        <time>2025-01-17T17:17:04.550Z</time>
      </trkpt>
      <trkpt lat="46.73104" lon="-1.97497">
        <ele>20.4</ele>
        <time>2025-01-17T17:17:05.550Z</time>
      </trkpt>
      <trkpt lat="46.73107" lon="-1.97494">
        <ele>20.5</ele>
        <time>2025-01-17T17:17:06.550Z</time>
      </trkpt>
      <trkpt lat="46.73109" lon="-1.97492">
        <ele>20.7</ele>
        <time>2025-01-17T17:17:07.550Z</time>
      </trkpt>
      <trkpt lat="46.7311" lon="-1.97491">
        <ele>20.9</ele>
        <time>2025-01-17T17:17:08.551Z</time>
      </trkpt>
      <trkpt lat="46.73112" lon="-1.97489">
        <ele>20.9</ele>
        <time>2025-01-17T17:17:09.551Z</time>
      </trkpt>
      <trkpt lat="46.73114" lon="-1.97486">
        <ele>20.8</ele>
        <time>2025-01-17T17:17:10.550Z</time>
      </trkpt>
      <trkpt lat="46.73114" lon="-1.97481">
        <ele>20.7</ele>
        <time>2025-01-17T17:17:11.550Z</time>
      </trkpt>
      <trkpt lat="46.73116" lon="-1.97477">
        <ele>20.5</ele>
        <time>2025-01-17T17:17:12.551Z</time>
      </trkpt>
      <trkpt lat="46.73121" lon="-1.97473">
        <ele>20</ele>
        <time>2025-01-17T17:17:13.550Z</time>
      </trkpt>
      <trkpt lat="46.73127" lon="-1.97467">
        <ele>19.1</ele>
        <time>2025-01-17T17:17:14.550Z</time>
      </trkpt>
      <trkpt lat="46.73127" lon="-1.97462">
        <ele>18.9</ele>
        <time>2025-01-17T17:17:15.550Z</time>
      </trkpt>
      <trkpt lat="46.73126" lon="-1.97456">
        <ele>18.8</ele>
        <time>2025-01-17T17:17:16.550Z</time>
      </trkpt>
      <trkpt lat="46.73123" lon="-1.97451">
        <ele>18.9</ele>
        <time>2025-01-17T17:17:17.551Z</time>
      </trkpt>
      <trkpt lat="46.73121" lon="-1.97447">
        <ele>19</ele>
        <time>2025-01-17T17:17:18.551Z</time>
      </trkpt>
      <trkpt lat="46.73121" lon="-1.97444">
        <ele>18.9</ele>
        <time>2025-01-17T17:17:19.550Z</time>
      </trkpt>
      <trkpt lat="46.73122" lon="-1.97441">
        <ele>18.8</ele>
        <time>2025-01-17T17:17:20.550Z</time>
      </trkpt>
      <trkpt lat="46.73122" lon="-1.97438">
        <ele>18.8</ele>
        <time>2025-01-17T17:17:21.551Z</time>
      </trkpt>
      <trkpt lat="46.73124" lon="-1.97435">
        <ele>18.6</ele>
        <time>2025-01-17T17:17:22.550Z</time>
      </trkpt>
      <trkpt lat="46.73125" lon="-1.97433">
        <ele>18.5</ele>
        <time>2025-01-17T17:17:23.551Z</time>
      </trkpt>
      <trkpt lat="46.73126" lon="-1.9743">
        <ele>18.4</ele>
        <time>2025-01-17T17:17:24.550Z</time>
      </trkpt>
      <trkpt lat="46.73127" lon="-1.97428">
        <ele>18.3</ele>
        <time>2025-01-17T17:17:25.550Z</time>
      </trkpt>
      <trkpt lat="46.73129" lon="-1.97426">
        <ele>18.3</ele>
        <time>2025-01-17T17:17:26.551Z</time>
      </trkpt>
      <trkpt lat="46.7313" lon="-1.97424">
        <ele>18.3</ele>
        <time>2025-01-17T17:17:27.550Z</time>
      </trkpt>
      <trkpt lat="46.73131" lon="-1.97421">
        <ele>18.2</ele>
        <time>2025-01-17T17:17:28.550Z</time>
      </trkpt>
      <trkpt lat="46.73132" lon="-1.97418">
        <ele>18.2</ele>
        <time>2025-01-17T17:17:29.551Z</time>
      </trkpt>
      <trkpt lat="46.73133" lon="-1.97416">
        <ele>18.3</ele>
        <time>2025-01-17T17:17:30.550Z</time>
      </trkpt>
      <trkpt lat="46.73133" lon="-1.97416">
        <ele>18.3</ele>
        <time>2025-01-17T17:17:31.551Z</time>
      </trkpt>
      <trkpt lat="46.73135" lon="-1.97414">
        <ele>18.5</ele>
        <time>2025-01-17T17:17:32.551Z</time>
      </trkpt>
      <trkpt lat="46.73135" lon="-1.97412">
        <ele>18.8</ele>
        <time>2025-01-17T17:17:33.550Z</time>
      </trkpt>
      <trkpt lat="46.73136" lon="-1.9741">
        <ele>19</ele>
        <time>2025-01-17T17:17:34.551Z</time>
      </trkpt>
      <trkpt lat="46.73135" lon="-1.97409">
        <ele>19.1</ele>
        <time>2025-01-17T17:17:35.550Z</time>
      </trkpt>
      <trkpt lat="46.73135" lon="-1.97406">
        <ele>19.4</ele>
        <time>2025-01-17T17:17:36.551Z</time>
      </trkpt>
      <trkpt lat="46.73135" lon="-1.97404">
        <ele>19.7</ele>
        <time>2025-01-17T17:17:37.550Z</time>
      </trkpt>
      <trkpt lat="46.73133" lon="-1.97404">
        <ele>19.7</ele>
        <time>2025-01-17T17:17:38.551Z</time>
      </trkpt>
      <trkpt lat="46.73131" lon="-1.97405">
        <ele>19.4</ele>
        <time>2025-01-17T17:17:39.550Z</time>
      </trkpt>
      <trkpt lat="46.7313" lon="-1.97405">
        <ele>19.5</ele>
        <time>2025-01-17T17:17:40.550Z</time>
      </trkpt>
      <trkpt lat="46.73129" lon="-1.97406">
        <ele>19.3</ele>
        <time>2025-01-17T17:17:41.550Z</time>
      </trkpt>
      <trkpt lat="46.73128" lon="-1.97406">
        <ele>19.3</ele>
        <time>2025-01-17T17:17:42.550Z</time>
      </trkpt>
      <trkpt lat="46.73128" lon="-1.97405">
        <ele>19.4</ele>
        <time>2025-01-17T17:17:43.551Z</time>
      </trkpt>
      <trkpt lat="46.73127" lon="-1.97405">
        <ele>19.4</ele>
        <time>2025-01-17T17:17:44.551Z</time>
      </trkpt>
      <trkpt lat="46.73126" lon="-1.97403">
        <ele>19.5</ele>
        <time>2025-01-17T17:17:45.551Z</time>
      </trkpt>
      <trkpt lat="46.73126" lon="-1.97402">
        <ele>19.6</ele>
        <time>2025-01-17T17:17:46.550Z</time>
      </trkpt>
      <trkpt lat="46.73128" lon="-1.974">
        <ele>19.8</ele>
        <time>2025-01-17T17:17:47.550Z</time>
      </trkpt>
      <trkpt lat="46.73129" lon="-1.97398">
        <ele>20.1</ele>
        <time>2025-01-17T17:17:48.550Z</time>
      </trkpt>
      <trkpt lat="46.73131" lon="-1.97395">
        <ele>20.6</ele>
        <time>2025-01-17T17:17:49.550Z</time>
      </trkpt>
      <trkpt lat="46.73132" lon="-1.97392">
        <ele>20.9</ele>
        <time>2025-01-17T17:17:50.550Z</time>
      </trkpt>
      <trkpt lat="46.73133" lon="-1.97389">
        <ele>21.3</ele>
        <time>2025-01-17T17:17:51.551Z</time>
      </trkpt>
      <trkpt lat="46.73133" lon="-1.97387">
        <ele>21.6</ele>
        <time>2025-01-17T17:17:52.550Z</time>
      </trkpt>
      <trkpt lat="46.73134" lon="-1.97384">
        <ele>21.9</ele>
        <time>2025-01-17T17:17:53.550Z</time>
      </trkpt>
      <trkpt lat="46.73134" lon="-1.97382">
        <ele>22.2</ele>
        <time>2025-01-17T17:17:54.551Z</time>
      </trkpt>
      <trkpt lat="46.73134" lon="-1.9738">
        <ele>22.3</ele>
        <time>2025-01-17T17:17:55.551Z</time>
      </trkpt>
      <trkpt lat="46.73133" lon="-1.97377">
        <ele>22.4</ele>
        <time>2025-01-17T17:17:56.550Z</time>
      </trkpt>
      <trkpt lat="46.73132" lon="-1.97375">
        <ele>22.5</ele>
        <time>2025-01-17T17:17:57.550Z</time>
      </trkpt>
      <trkpt lat="46.73131" lon="-1.97372">
        <ele>22.7</ele>
        <time>2025-01-17T17:17:58.551Z</time>
      </trkpt>
      <trkpt lat="46.73131" lon="-1.9737">
        <ele>22.8</ele>
        <time>2025-01-17T17:17:59.550Z</time>
      </trkpt>
      <trkpt lat="46.73131" lon="-1.97366">
        <ele>23</ele>
        <time>2025-01-17T17:18:00.551Z</time>
      </trkpt>
      <trkpt lat="46.73131" lon="-1.97363">
        <ele>23.4</ele>
        <time>2025-01-17T17:18:01.550Z</time>
      </trkpt>
      <trkpt lat="46.73131" lon="-1.97361">
        <ele>23.6</ele>
        <time>2025-01-17T17:18:02.551Z</time>
      </trkpt>
      <trkpt lat="46.73132" lon="-1.97359">
        <ele>23.9</ele>
        <time>2025-01-17T17:18:03.550Z</time>
      </trkpt>
      <trkpt lat="46.73133" lon="-1.97357">
        <ele>24.1</ele>
        <time>2025-01-17T17:18:04.551Z</time>
      </trkpt>
      <trkpt lat="46.73132" lon="-1.97355">
        <ele>24.2</ele>
        <time>2025-01-17T17:18:05.550Z</time>
      </trkpt>
      <trkpt lat="46.73132" lon="-1.97353">
        <ele>24.3</ele>
        <time>2025-01-17T17:18:06.550Z</time>
      </trkpt>
      <trkpt lat="46.73131" lon="-1.97352">
        <ele>24.2</ele>
        <time>2025-01-17T17:18:07.550Z</time>
      </trkpt>
      <trkpt lat="46.7313" lon="-1.9735">
        <ele>24.1</ele>
        <time>2025-01-17T17:18:08.550Z</time>
      </trkpt>
      <trkpt lat="46.73131" lon="-1.97346">
        <ele>24.6</ele>
        <time>2025-01-17T17:18:09.550Z</time>
      </trkpt>
      <trkpt lat="46.73132" lon="-1.97342">
        <ele>24.9</ele>
        <time>2025-01-17T17:18:10.551Z</time>
      </trkpt>
      <trkpt lat="46.73132" lon="-1.97339">
        <ele>25.2</ele>
        <time>2025-01-17T17:18:11.551Z</time>
      </trkpt>
      <trkpt lat="46.73135" lon="-1.97332">
        <ele>26.1</ele>
        <time>2025-01-17T17:18:12.551Z</time>
      </trkpt>
      <trkpt lat="46.73136" lon="-1.97329">
        <ele>26.3</ele>
        <time>2025-01-17T17:18:13.551Z</time>
      </trkpt>
      <trkpt lat="46.73136" lon="-1.97325">
        <ele>26.6</ele>
        <time>2025-01-17T17:18:14.550Z</time>
      </trkpt>
      <trkpt lat="46.73136" lon="-1.97322">
        <ele>26.5</ele>
        <time>2025-01-17T17:18:15.551Z</time>
      </trkpt>
      <trkpt lat="46.73135" lon="-1.97319">
        <ele>26.4</ele>
        <time>2025-01-17T17:18:16.550Z</time>
      </trkpt>
      <trkpt lat="46.73134" lon="-1.97316">
        <ele>26.3</ele>
        <time>2025-01-17T17:18:17.551Z</time>
      </trkpt>
      <trkpt lat="46.73133" lon="-1.97314">
        <ele>26.3</ele>
        <time>2025-01-17T17:18:18.551Z</time>
      </trkpt>
      <trkpt lat="46.73132" lon="-1.97312">
        <ele>26.3</ele>
        <time>2025-01-17T17:18:19.551Z</time>
      </trkpt>
      <trkpt lat="46.73132" lon="-1.9731">
        <ele>26.3</ele>
        <time>2025-01-17T17:18:20.551Z</time>
      </trkpt>
      <trkpt lat="46.73131" lon="-1.97308">
        <ele>26.3</ele>
        <time>2025-01-17T17:18:21.551Z</time>
      </trkpt>
      <trkpt lat="46.7313" lon="-1.97305">
        <ele>26.4</ele>
        <time>2025-01-17T17:18:22.550Z</time>
      </trkpt>
      <trkpt lat="46.73129" lon="-1.97302">
        <ele>26.5</ele>
        <time>2025-01-17T17:18:23.550Z</time>
      </trkpt>
      <trkpt lat="46.73129" lon="-1.97299">
        <ele>26.8</ele>
        <time>2025-01-17T17:18:24.550Z</time>
      </trkpt>
      <trkpt lat="46.73129" lon="-1.97294">
        <ele>27.1</ele>
        <time>2025-01-17T17:18:25.550Z</time>
      </trkpt>
      <trkpt lat="46.73129" lon="-1.9729">
        <ele>27.4</ele>
        <time>2025-01-17T17:18:26.551Z</time>
      </trkpt>
      <trkpt lat="46.73128" lon="-1.97287">
        <ele>27.7</ele>
        <time>2025-01-17T17:18:27.550Z</time>
      </trkpt>
      <trkpt lat="46.73127" lon="-1.97285">
        <ele>27.9</ele>
        <time>2025-01-17T17:18:28.551Z</time>
      </trkpt>
      <trkpt lat="46.73127" lon="-1.97282">
        <ele>28.1</ele>
        <time>2025-01-17T17:18:29.551Z</time>
      </trkpt>
      <trkpt lat="46.73127" lon="-1.9728">
        <ele>28.2</ele>
        <time>2025-01-17T17:18:30.550Z</time>
      </trkpt>
      <trkpt lat="46.73127" lon="-1.97278">
        <ele>28.4</ele>
        <time>2025-01-17T17:18:31.550Z</time>
      </trkpt>
      <trkpt lat="46.73126" lon="-1.97276">
        <ele>28.4</ele>
        <time>2025-01-17T17:18:32.551Z</time>
      </trkpt>
      <trkpt lat="46.73125" lon="-1.97274">
        <ele>28.4</ele>
        <time>2025-01-17T17:18:33.551Z</time>
      </trkpt>
      <trkpt lat="46.73125" lon="-1.97273">
        <ele>28.3</ele>
        <time>2025-01-17T17:18:34.550Z</time>
      </trkpt>
      <trkpt lat="46.73125" lon="-1.97271">
        <ele>28.3</ele>
        <time>2025-01-17T17:18:35.550Z</time>
      </trkpt>
      <trkpt lat="46.73125" lon="-1.97268">
        <ele>28.2</ele>
        <time>2025-01-17T17:18:36.550Z</time>
      </trkpt>
      <trkpt lat="46.73125" lon="-1.97266">
        <ele>28.1</ele>
        <time>2025-01-17T17:18:37.550Z</time>
      </trkpt>
      <trkpt lat="46.73126" lon="-1.97263">
        <ele>27.9</ele>
        <time>2025-01-17T17:18:38.551Z</time>
      </trkpt>
      <trkpt lat="46.73126" lon="-1.97261">
        <ele>27.8</ele>
        <time>2025-01-17T17:18:39.551Z</time>
      </trkpt>
      <trkpt lat="46.73128" lon="-1.9726">
        <ele>27.7</ele>
        <time>2025-01-17T17:18:40.550Z</time>
      </trkpt>
      <trkpt lat="46.7313" lon="-1.97259">
        <ele>27.4</ele>
        <time>2025-01-17T17:18:41.550Z</time>
      </trkpt>
      <trkpt lat="46.73131" lon="-1.97257">
        <ele>27.2</ele>
        <time>2025-01-17T17:18:42.550Z</time>
      </trkpt>
      <trkpt lat="46.73132" lon="-1.97255">
        <ele>27</ele>
        <time>2025-01-17T17:18:43.550Z</time>
      </trkpt>
      <trkpt lat="46.73136" lon="-1.97253">
        <ele>26.5</ele>
        <time>2025-01-17T17:18:44.551Z</time>
      </trkpt>
      <trkpt lat="46.73136" lon="-1.9725">
        <ele>26.3</ele>
        <time>2025-01-17T17:18:45.551Z</time>
      </trkpt>
      <trkpt lat="46.73136" lon="-1.97246">
        <ele>25.8</ele>
        <time>2025-01-17T17:18:46.550Z</time>
      </trkpt>
      <trkpt lat="46.73136" lon="-1.97243">
        <ele>25.3</ele>
        <time>2025-01-17T17:18:47.550Z</time>
      </trkpt>
      <trkpt lat="46.73135" lon="-1.97239">
        <ele>24.9</ele>
        <time>2025-01-17T17:18:48.550Z</time>
      </trkpt>
      <trkpt lat="46.73135" lon="-1.97235">
        <ele>24.4</ele>
        <time>2025-01-17T17:18:49.551Z</time>
      </trkpt>
      <trkpt lat="46.73135" lon="-1.97232">
        <ele>24</ele>
        <time>2025-01-17T17:18:50.551Z</time>
      </trkpt>
      <trkpt lat="46.73133" lon="-1.9723">
        <ele>24.2</ele>
        <time>2025-01-17T17:18:51.551Z</time>
      </trkpt>
      <trkpt lat="46.7313" lon="-1.97225">
        <ele>24.4</ele>
        <time>2025-01-17T17:18:52.551Z</time>
      </trkpt>
      <trkpt lat="46.73126" lon="-1.9722">
        <ele>24.5</ele>
        <time>2025-01-17T17:18:53.551Z</time>
      </trkpt>
      <trkpt lat="46.73124" lon="-1.97215">
        <ele>24.3</ele>
        <time>2025-01-17T17:18:54.550Z</time>
      </trkpt>
      <trkpt lat="46.73124" lon="-1.97211">
        <ele>23.9</ele>
        <time>2025-01-17T17:18:55.550Z</time>
      </trkpt>
      <trkpt lat="46.73124" lon="-1.97207">
        <ele>23.5</ele>
        <time>2025-01-17T17:18:56.550Z</time>
      </trkpt>
      <trkpt lat="46.73123" lon="-1.97204">
        <ele>23.2</ele>
        <time>2025-01-17T17:18:57.551Z</time>
      </trkpt>
      <trkpt lat="46.73121" lon="-1.97199">
        <ele>23.2</ele>
        <time>2025-01-17T17:18:58.551Z</time>
      </trkpt>
      <trkpt lat="46.7312" lon="-1.97194">
        <ele>23.2</ele>
        <time>2025-01-17T17:18:59.550Z</time>
      </trkpt>
      <trkpt lat="46.73117" lon="-1.97189">
        <ele>23</ele>
        <time>2025-01-17T17:19:00.550Z</time>
      </trkpt>
      <trkpt lat="46.73116" lon="-1.97185">
        <ele>22.9</ele>
        <time>2025-01-17T17:19:01.550Z</time>
      </trkpt>
      <trkpt lat="46.73113" lon="-1.97182">
        <ele>23.2</ele>
        <time>2025-01-17T17:19:02.551Z</time>
      </trkpt>
      <trkpt lat="46.73111" lon="-1.97179">
        <ele>23.7</ele>
        <time>2025-01-17T17:19:03.551Z</time>
      </trkpt>
      <trkpt lat="46.73108" lon="-1.97175">
        <ele>23</ele>
        <time>2025-01-17T17:19:04.551Z</time>
      </trkpt>
      <trkpt lat="46.73107" lon="-1.97174">
        <ele>22.9</ele>
        <time>2025-01-17T17:19:05.550Z</time>
      </trkpt>
      <trkpt lat="46.73104" lon="-1.97173">
        <ele>22.7</ele>
        <time>2025-01-17T17:19:06.550Z</time>
      </trkpt>
      <trkpt lat="46.73103" lon="-1.97172">
        <ele>22.6</ele>
        <time>2025-01-17T17:19:07.550Z</time>
      </trkpt>
      <trkpt lat="46.73101" lon="-1.9717">
        <ele>22.3</ele>
        <time>2025-01-17T17:19:08.551Z</time>
      </trkpt>
      <trkpt lat="46.73099" lon="-1.97169">
        <ele>22.2</ele>
        <time>2025-01-17T17:19:09.551Z</time>
      </trkpt>
      <trkpt lat="46.73097" lon="-1.97168">
        <ele>22.1</ele>
        <time>2025-01-17T17:19:10.550Z</time>
      </trkpt>
      <trkpt lat="46.73097" lon="-1.97165">
        <ele>21.8</ele>
        <time>2025-01-17T17:19:11.551Z</time>
      </trkpt>
      <trkpt lat="46.73095" lon="-1.97163">
        <ele>21.5</ele>
        <time>2025-01-17T17:19:12.551Z</time>
      </trkpt>
      <trkpt lat="46.73094" lon="-1.97161">
        <ele>21.2</ele>
        <time>2025-01-17T17:19:13.551Z</time>
      </trkpt>
      <trkpt lat="46.73093" lon="-1.97159">
        <ele>21</ele>
        <time>2025-01-17T17:19:14.550Z</time>
      </trkpt>
      <trkpt lat="46.73092" lon="-1.97156">
        <ele>20.8</ele>
        <time>2025-01-17T17:19:15.550Z</time>
      </trkpt>
      <trkpt lat="46.73088" lon="-1.97152">
        <ele>21.1</ele>
        <time>2025-01-17T17:19:16.550Z</time>
      </trkpt>
      <trkpt lat="46.73086" lon="-1.97152">
        <ele>21.5</ele>
        <time>2025-01-17T17:19:17.550Z</time>
      </trkpt>
      <trkpt lat="46.73083" lon="-1.97152">
        <ele>22</ele>
        <time>2025-01-17T17:19:18.551Z</time>
      </trkpt>
      <trkpt lat="46.73081" lon="-1.97153">
        <ele>22</ele>
        <time>2025-01-17T17:19:19.551Z</time>
      </trkpt>
      <trkpt lat="46.73078" lon="-1.97154">
        <ele>21.9</ele>
        <time>2025-01-17T17:19:20.551Z</time>
      </trkpt>
      <trkpt lat="46.73076" lon="-1.97155">
        <ele>21.9</ele>
        <time>2025-01-17T17:19:21.551Z</time>
      </trkpt>
      <trkpt lat="46.73075" lon="-1.97154">
        <ele>21.8</ele>
        <time>2025-01-17T17:19:22.551Z</time>
      </trkpt>
      <trkpt lat="46.73073" lon="-1.97154">
        <ele>21.8</ele>
        <time>2025-01-17T17:19:23.550Z</time>
      </trkpt>
      <trkpt lat="46.73071" lon="-1.97154">
        <ele>21.8</ele>
        <time>2025-01-17T17:19:24.550Z</time>
      </trkpt>
      <trkpt lat="46.7307" lon="-1.97153">
        <ele>21.8</ele>
        <time>2025-01-17T17:19:25.550Z</time>
      </trkpt>
      <trkpt lat="46.7307" lon="-1.97153">
        <ele>21.8</ele>
        <time>2025-01-17T17:19:26.550Z</time>
      </trkpt>
      <trkpt lat="46.73068" lon="-1.97152">
        <ele>21.7</ele>
        <time>2025-01-17T17:19:27.550Z</time>
      </trkpt>
      <trkpt lat="46.73066" lon="-1.97151">
        <ele>21.7</ele>
        <time>2025-01-17T17:19:28.550Z</time>
      </trkpt>
      <trkpt lat="46.73064" lon="-1.97151">
        <ele>21.7</ele>
        <time>2025-01-17T17:19:29.551Z</time>
      </trkpt>
      <trkpt lat="46.73063" lon="-1.9715">
        <ele>21.7</ele>
        <time>2025-01-17T17:19:30.551Z</time>
      </trkpt>
      <trkpt lat="46.7306" lon="-1.9715">
        <ele>21.7</ele>
        <time>2025-01-17T17:19:31.551Z</time>
      </trkpt>
      <trkpt lat="46.73058" lon="-1.9715">
        <ele>21.6</ele>
        <time>2025-01-17T17:19:32.550Z</time>
      </trkpt>
      <trkpt lat="46.73056" lon="-1.97149">
        <ele>21.6</ele>
        <time>2025-01-17T17:19:33.550Z</time>
      </trkpt>
      <trkpt lat="46.73054" lon="-1.97149">
        <ele>21.7</ele>
        <time>2025-01-17T17:19:34.551Z</time>
      </trkpt>
      <trkpt lat="46.73051" lon="-1.9715">
        <ele>21.8</ele>
        <time>2025-01-17T17:19:35.551Z</time>
      </trkpt>
      <trkpt lat="46.73048" lon="-1.9715">
        <ele>22</ele>
        <time>2025-01-17T17:19:36.551Z</time>
      </trkpt>
      <trkpt lat="46.73045" lon="-1.9715">
        <ele>22.1</ele>
        <time>2025-01-17T17:19:37.551Z</time>
      </trkpt>
      <trkpt lat="46.73041" lon="-1.97151">
        <ele>22.2</ele>
        <time>2025-01-17T17:19:38.550Z</time>
      </trkpt>
      <trkpt lat="46.73038" lon="-1.97151">
        <ele>22.3</ele>
        <time>2025-01-17T17:19:39.551Z</time>
      </trkpt>
      <trkpt lat="46.73035" lon="-1.97151">
        <ele>22.4</ele>
        <time>2025-01-17T17:19:40.551Z</time>
      </trkpt>
      <trkpt lat="46.73032" lon="-1.9715">
        <ele>22.6</ele>
        <time>2025-01-17T17:19:41.550Z</time>
      </trkpt>
      <trkpt lat="46.7303" lon="-1.97148">
        <ele>23</ele>
        <time>2025-01-17T17:19:42.550Z</time>
      </trkpt>
      <trkpt lat="46.73025" lon="-1.97147">
        <ele>23.2</ele>
        <time>2025-01-17T17:19:43.551Z</time>
      </trkpt>
      <trkpt lat="46.73019" lon="-1.97147">
        <ele>23.4</ele>
        <time>2025-01-17T17:19:44.550Z</time>
      </trkpt>
      <trkpt lat="46.73016" lon="-1.97146">
        <ele>23.6</ele>
        <time>2025-01-17T17:19:45.550Z</time>
      </trkpt>
      <trkpt lat="46.73013" lon="-1.97145">
        <ele>23.8</ele>
        <time>2025-01-17T17:19:46.550Z</time>
      </trkpt>
      <trkpt lat="46.73013" lon="-1.97144">
        <ele>23.9</ele>
        <time>2025-01-17T17:19:47.551Z</time>
      </trkpt>
      <trkpt lat="46.73013" lon="-1.97143">
        <ele>24.1</ele>
        <time>2025-01-17T17:19:48.551Z</time>
      </trkpt>
      <trkpt lat="46.73012" lon="-1.97142">
        <ele>24.2</ele>
        <time>2025-01-17T17:19:49.551Z</time>
      </trkpt>
      <trkpt lat="46.73011" lon="-1.97141">
        <ele>24.4</ele>
        <time>2025-01-17T17:19:50.551Z</time>
      </trkpt>
      <trkpt lat="46.7301" lon="-1.9714">
        <ele>24.5</ele>
        <time>2025-01-17T17:19:51.551Z</time>
      </trkpt>
      <trkpt lat="46.7301" lon="-1.97139">
        <ele>24.6</ele>
        <time>2025-01-17T17:19:52.550Z</time>
      </trkpt>
      <trkpt lat="46.73009" lon="-1.97137">
        <ele>24.8</ele>
        <time>2025-01-17T17:19:53.550Z</time>
      </trkpt>
      <trkpt lat="46.73008" lon="-1.97136">
        <ele>25</ele>
        <time>2025-01-17T17:19:54.550Z</time>
      </trkpt>
      <trkpt lat="46.73005" lon="-1.97137">
        <ele>25</ele>
        <time>2025-01-17T17:19:55.550Z</time>
      </trkpt>
      <trkpt lat="46.73003" lon="-1.97138">
        <ele>24.9</ele>
        <time>2025-01-17T17:19:56.551Z</time>
      </trkpt>
      <trkpt lat="46.73001" lon="-1.9714">
        <ele>24.8</ele>
        <time>2025-01-17T17:19:57.551Z</time>
      </trkpt>
      <trkpt lat="46.73001" lon="-1.97142">
        <ele>24.6</ele>
        <time>2025-01-17T17:19:58.551Z</time>
      </trkpt>
      <trkpt lat="46.73" lon="-1.97143">
        <ele>24.4</ele>
        <time>2025-01-17T17:19:59.551Z</time>
      </trkpt>
      <trkpt lat="46.73001" lon="-1.97144">
        <ele>24.2</ele>
        <time>2025-01-17T17:20:00.551Z</time>
      </trkpt>
      <trkpt lat="46.73002" lon="-1.97144">
        <ele>24.2</ele>
        <time>2025-01-17T17:20:01.550Z</time>
      </trkpt>
      <trkpt lat="46.73003" lon="-1.97146">
        <ele>23.9</ele>
        <time>2025-01-17T17:20:02.551Z</time>
      </trkpt>
      <trkpt lat="46.73002" lon="-1.97148">
        <ele>23.6</ele>
        <time>2025-01-17T17:20:03.551Z</time>
      </trkpt>
      <trkpt lat="46.73002" lon="-1.9715">
        <ele>23.3</ele>
        <time>2025-01-17T17:20:04.551Z</time>
      </trkpt>
      <trkpt lat="46.73001" lon="-1.97152">
        <ele>23.1</ele>
        <time>2025-01-17T17:20:05.550Z</time>
      </trkpt>
      <trkpt lat="46.73" lon="-1.97154">
        <ele>22.8</ele>
        <time>2025-01-17T17:20:06.551Z</time>
      </trkpt>
      <trkpt lat="46.73" lon="-1.97157">
        <ele>22.4</ele>
        <time>2025-01-17T17:20:07.551Z</time>
      </trkpt>
      <trkpt lat="46.73" lon="-1.9716">
        <ele>22</ele>
        <time>2025-01-17T17:20:08.551Z</time>
      </trkpt>
      <trkpt lat="46.73" lon="-1.97163">
        <ele>21.6</ele>
        <time>2025-01-17T17:20:09.551Z</time>
      </trkpt>
      <trkpt lat="46.72999" lon="-1.97166">
        <ele>21.3</ele>
        <time>2025-01-17T17:20:10.551Z</time>
      </trkpt>
      <trkpt lat="46.72999" lon="-1.97168">
        <ele>21.1</ele>
        <time>2025-01-17T17:20:11.551Z</time>
      </trkpt>
      <trkpt lat="46.72999" lon="-1.9717">
        <ele>20.8</ele>
        <time>2025-01-17T17:20:12.551Z</time>
      </trkpt>
      <trkpt lat="46.73" lon="-1.97171">
        <ele>20.5</ele>
        <time>2025-01-17T17:20:13.550Z</time>
      </trkpt>
      <trkpt lat="46.73001" lon="-1.97173">
        <ele>20.3</ele>
        <time>2025-01-17T17:20:14.550Z</time>
      </trkpt>
      <trkpt lat="46.73002" lon="-1.97175">
        <ele>20.1</ele>
        <time>2025-01-17T17:20:15.550Z</time>
      </trkpt>
      <trkpt lat="46.73002" lon="-1.97178">
        <ele>19.8</ele>
        <time>2025-01-17T17:20:16.550Z</time>
      </trkpt>
      <trkpt lat="46.73002" lon="-1.97182">
        <ele>19.4</ele>
        <time>2025-01-17T17:20:17.551Z</time>
      </trkpt>
      <trkpt lat="46.73003" lon="-1.97185">
        <ele>19.1</ele>
        <time>2025-01-17T17:20:18.550Z</time>
      </trkpt>
      <trkpt lat="46.73004" lon="-1.97187">
        <ele>18.8</ele>
        <time>2025-01-17T17:20:19.550Z</time>
      </trkpt>
      <trkpt lat="46.73005" lon="-1.9719">
        <ele>18.5</ele>
        <time>2025-01-17T17:20:20.550Z</time>
      </trkpt>
      <trkpt lat="46.73006" lon="-1.97192">
        <ele>18.2</ele>
        <time>2025-01-17T17:20:21.550Z</time>
      </trkpt>
      <trkpt lat="46.73007" lon="-1.97194">
        <ele>18</ele>
        <time>2025-01-17T17:20:22.551Z</time>
      </trkpt>
      <trkpt lat="46.73008" lon="-1.97197">
        <ele>17.7</ele>
        <time>2025-01-17T17:20:23.550Z</time>
      </trkpt>
      <trkpt lat="46.73008" lon="-1.972">
        <ele>17.2</ele>
        <time>2025-01-17T17:20:24.550Z</time>
      </trkpt>
      <trkpt lat="46.73009" lon="-1.97203">
        <ele>16.8</ele>
        <time>2025-01-17T17:20:25.550Z</time>
      </trkpt>
      <trkpt lat="46.7301" lon="-1.97206">
        <ele>16.5</ele>
        <time>2025-01-17T17:20:26.550Z</time>
      </trkpt>
      <trkpt lat="46.73011" lon="-1.97208">
        <ele>16.3</ele>
        <time>2025-01-17T17:20:27.550Z</time>
      </trkpt>
      <trkpt lat="46.73013" lon="-1.97209">
        <ele>16.2</ele>
        <time>2025-01-17T17:20:28.550Z</time>
      </trkpt>
      <trkpt lat="46.73014" lon="-1.97211">
        <ele>16</ele>
        <time>2025-01-17T17:20:29.551Z</time>
      </trkpt>
      <trkpt lat="46.73015" lon="-1.97212">
        <ele>15.9</ele>
        <time>2025-01-17T17:20:30.551Z</time>
      </trkpt>
      <trkpt lat="46.73015" lon="-1.97214">
        <ele>15.5</ele>
        <time>2025-01-17T17:20:31.551Z</time>
      </trkpt>
      <trkpt lat="46.73014" lon="-1.97217">
        <ele>15.1</ele>
        <time>2025-01-17T17:20:32.551Z</time>
      </trkpt>
      <trkpt lat="46.73013" lon="-1.9722">
        <ele>14.8</ele>
        <time>2025-01-17T17:20:33.551Z</time>
      </trkpt>
      <trkpt lat="46.73012" lon="-1.97221">
        <ele>14.6</ele>
        <time>2025-01-17T17:20:34.550Z</time>
      </trkpt>
      <trkpt lat="46.73011" lon="-1.97222">
        <ele>14.5</ele>
        <time>2025-01-17T17:20:35.550Z</time>
      </trkpt>
      <trkpt lat="46.73011" lon="-1.97223">
        <ele>14.3</ele>
        <time>2025-01-17T17:20:36.550Z</time>
      </trkpt>
      <trkpt lat="46.73011" lon="-1.97224">
        <ele>14.2</ele>
        <time>2025-01-17T17:20:37.550Z</time>
      </trkpt>
      <trkpt lat="46.7301" lon="-1.97226">
        <ele>14.1</ele>
        <time>2025-01-17T17:20:38.550Z</time>
      </trkpt>
      <trkpt lat="46.73008" lon="-1.97227">
        <ele>13.9</ele>
        <time>2025-01-17T17:20:39.551Z</time>
      </trkpt>
      <trkpt lat="46.73006" lon="-1.97229">
        <ele>13.7</ele>
        <time>2025-01-17T17:20:40.551Z</time>
      </trkpt>
      <trkpt lat="46.73003" lon="-1.97231">
        <ele>13.5</ele>
        <time>2025-01-17T17:20:41.551Z</time>
      </trkpt>
      <trkpt lat="46.73001" lon="-1.97234">
        <ele>13.2</ele>
        <time>2025-01-17T17:20:42.550Z</time>
      </trkpt>
      <trkpt lat="46.72998" lon="-1.97236">
        <ele>13.1</ele>
        <time>2025-01-17T17:20:43.550Z</time>
      </trkpt>
      <trkpt lat="46.72997" lon="-1.97237">
        <ele>13.1</ele>
        <time>2025-01-17T17:20:44.550Z</time>
      </trkpt>
      <trkpt lat="46.72996" lon="-1.97237">
        <ele>13.1</ele>
        <time>2025-01-17T17:20:45.551Z</time>
      </trkpt>
      <trkpt lat="46.72995" lon="-1.97237">
        <ele>13.1</ele>
        <time>2025-01-17T17:20:46.551Z</time>
      </trkpt>
      <trkpt lat="46.72995" lon="-1.97236">
        <ele>13.2</ele>
        <time>2025-01-17T17:20:47.551Z</time>
      </trkpt>
      <trkpt lat="46.72994" lon="-1.97236">
        <ele>13.3</ele>
        <time>2025-01-17T17:20:48.550Z</time>
      </trkpt>
      <trkpt lat="46.72992" lon="-1.97235">
        <ele>13.4</ele>
        <time>2025-01-17T17:20:49.550Z</time>
      </trkpt>
      <trkpt lat="46.7299" lon="-1.97236">
        <ele>13.4</ele>
        <time>2025-01-17T17:20:50.550Z</time>
      </trkpt>
      <trkpt lat="46.72988" lon="-1.97237">
        <ele>13.3</ele>
        <time>2025-01-17T17:20:51.551Z</time>
      </trkpt>
      <trkpt lat="46.72985" lon="-1.97239">
        <ele>13.3</ele>
        <time>2025-01-17T17:20:52.551Z</time>
      </trkpt>
      <trkpt lat="46.72983" lon="-1.97238">
        <ele>13.3</ele>
        <time>2025-01-17T17:20:53.551Z</time>
      </trkpt>
      <trkpt lat="46.72983" lon="-1.97237">
        <ele>13.5</ele>
        <time>2025-01-17T17:20:54.551Z</time>
      </trkpt>
      <trkpt lat="46.72984" lon="-1.97236">
        <ele>13.6</ele>
        <time>2025-01-17T17:20:55.551Z</time>
      </trkpt>
      <trkpt lat="46.72983" lon="-1.97235">
        <ele>13.8</ele>
        <time>2025-01-17T17:20:56.550Z</time>
      </trkpt>
      <trkpt lat="46.72983" lon="-1.97233">
        <ele>14</ele>
        <time>2025-01-17T17:20:57.550Z</time>
      </trkpt>
      <trkpt lat="46.72981" lon="-1.97231">
        <ele>14.3</ele>
        <time>2025-01-17T17:20:58.550Z</time>
      </trkpt>
      <trkpt lat="46.72979" lon="-1.9723">
        <ele>14.5</ele>
        <time>2025-01-17T17:20:59.551Z</time>
      </trkpt>
      <trkpt lat="46.72977" lon="-1.97229">
        <ele>14.8</ele>
        <time>2025-01-17T17:21:00.550Z</time>
      </trkpt>
      <trkpt lat="46.72975" lon="-1.97229">
        <ele>14.9</ele>
        <time>2025-01-17T17:21:01.550Z</time>
      </trkpt>
      <trkpt lat="46.72974" lon="-1.97228">
        <ele>15.1</ele>
        <time>2025-01-17T17:21:02.550Z</time>
      </trkpt>
      <trkpt lat="46.72972" lon="-1.97228">
        <ele>15.2</ele>
        <time>2025-01-17T17:21:03.551Z</time>
      </trkpt>
      <trkpt lat="46.72971" lon="-1.97227">
        <ele>15.3</ele>
        <time>2025-01-17T17:21:04.551Z</time>
      </trkpt>
      <trkpt lat="46.7297" lon="-1.97227">
        <ele>15.4</ele>
        <time>2025-01-17T17:21:05.551Z</time>
      </trkpt>
      <trkpt lat="46.72969" lon="-1.97227">
        <ele>15.6</ele>
        <time>2025-01-17T17:21:06.551Z</time>
      </trkpt>
      <trkpt lat="46.72967" lon="-1.97227">
        <ele>15.7</ele>
        <time>2025-01-17T17:21:07.551Z</time>
      </trkpt>
      <trkpt lat="46.72965" lon="-1.97225">
        <ele>16</ele>
        <time>2025-01-17T17:21:08.550Z</time>
      </trkpt>
      <trkpt lat="46.72963" lon="-1.97225">
        <ele>16.2</ele>
        <time>2025-01-17T17:21:09.551Z</time>
      </trkpt>
      <trkpt lat="46.72961" lon="-1.97225">
        <ele>16.4</ele>
        <time>2025-01-17T17:21:10.551Z</time>
      </trkpt>
      <trkpt lat="46.72958" lon="-1.97224">
        <ele>16.6</ele>
        <time>2025-01-17T17:21:11.551Z</time>
      </trkpt>
      <trkpt lat="46.72957" lon="-1.97224">
        <ele>16.9</ele>
        <time>2025-01-17T17:21:12.551Z</time>
      </trkpt>
      <trkpt lat="46.72955" lon="-1.97222">
        <ele>17.3</ele>
        <time>2025-01-17T17:21:13.550Z</time>
      </trkpt>
      <trkpt lat="46.72955" lon="-1.97219">
        <ele>17.7</ele>
        <time>2025-01-17T17:21:14.550Z</time>
      </trkpt>
      <trkpt lat="46.72954" lon="-1.97216">
        <ele>18.2</ele>
        <time>2025-01-17T17:21:15.551Z</time>
      </trkpt>
      <trkpt lat="46.72954" lon="-1.97215">
        <ele>18.3</ele>
        <time>2025-01-17T17:21:16.551Z</time>
      </trkpt>
      <trkpt lat="46.72953" lon="-1.97213">
        <ele>18.7</ele>
        <time>2025-01-17T17:21:17.551Z</time>
      </trkpt>
      <trkpt lat="46.72952" lon="-1.97212">
        <ele>19</ele>
        <time>2025-01-17T17:21:18.551Z</time>
      </trkpt>
      <trkpt lat="46.72952" lon="-1.97212">
        <ele>19</ele>
        <time>2025-01-17T17:21:19.551Z</time>
      </trkpt>
      <trkpt lat="46.72951" lon="-1.97211">
        <ele>19.1</ele>
        <time>2025-01-17T17:21:20.551Z</time>
      </trkpt>
      <trkpt lat="46.72951" lon="-1.97212">
        <ele>19.1</ele>
        <time>2025-01-17T17:21:21.551Z</time>
      </trkpt>
      <trkpt lat="46.72951" lon="-1.97211">
        <ele>19.1</ele>
        <time>2025-01-17T17:21:22.551Z</time>
      </trkpt>
      <trkpt lat="46.7295" lon="-1.97211">
        <ele>19.3</ele>
        <time>2025-01-17T17:21:23.551Z</time>
      </trkpt>
      <trkpt lat="46.72949" lon="-1.97211">
        <ele>19.3</ele>
        <time>2025-01-17T17:21:24.551Z</time>
      </trkpt>
      <trkpt lat="46.72948" lon="-1.9721">
        <ele>19.5</ele>
        <time>2025-01-17T17:21:25.551Z</time>
      </trkpt>
      <trkpt lat="46.72947" lon="-1.97209">
        <ele>19.7</ele>
        <time>2025-01-17T17:21:26.550Z</time>
      </trkpt>
      <trkpt lat="46.72947" lon="-1.97209">
        <ele>19.7</ele>
        <time>2025-01-17T17:21:27.550Z</time>
      </trkpt>
      <trkpt lat="46.72948" lon="-1.97208">
        <ele>19.8</ele>
        <time>2025-01-17T17:21:28.550Z</time>
      </trkpt>
      <trkpt lat="46.72948" lon="-1.97208">
        <ele>19.8</ele>
        <time>2025-01-17T17:21:29.550Z</time>
      </trkpt>
      <trkpt lat="46.72948" lon="-1.97207">
        <ele>20</ele>
        <time>2025-01-17T17:21:30.551Z</time>
      </trkpt>
      <trkpt lat="46.72947" lon="-1.97205">
        <ele>20.3</ele>
        <time>2025-01-17T17:21:31.551Z</time>
      </trkpt>
      <trkpt lat="46.72947" lon="-1.97201">
        <ele>20.8</ele>
        <time>2025-01-17T17:21:32.550Z</time>
      </trkpt>
      <trkpt lat="46.72947" lon="-1.97198">
        <ele>21.4</ele>
        <time>2025-01-17T17:21:33.551Z</time>
      </trkpt>
      <trkpt lat="46.72946" lon="-1.97196">
        <ele>21.7</ele>
        <time>2025-01-17T17:21:34.550Z</time>
      </trkpt>
      <trkpt lat="46.72946" lon="-1.97194">
        <ele>22.1</ele>
        <time>2025-01-17T17:21:35.550Z</time>
      </trkpt>
      <trkpt lat="46.72945" lon="-1.97192">
        <ele>22.5</ele>
        <time>2025-01-17T17:21:36.551Z</time>
      </trkpt>
      <trkpt lat="46.72944" lon="-1.9719">
        <ele>23</ele>
        <time>2025-01-17T17:21:37.550Z</time>
      </trkpt>
      <trkpt lat="46.72943" lon="-1.97189">
        <ele>23.2</ele>
        <time>2025-01-17T17:21:38.550Z</time>
      </trkpt>
      <trkpt lat="46.72942" lon="-1.97187">
        <ele>23.7</ele>
        <time>2025-01-17T17:21:39.550Z</time>
      </trkpt>
      <trkpt lat="46.72943" lon="-1.97185">
        <ele>24</ele>
        <time>2025-01-17T17:21:40.551Z</time>
      </trkpt>
      <trkpt lat="46.72943" lon="-1.97183">
        <ele>24.4</ele>
        <time>2025-01-17T17:21:41.551Z</time>
      </trkpt>
      <trkpt lat="46.72944" lon="-1.97181">
        <ele>24.9</ele>
        <time>2025-01-17T17:21:42.551Z</time>
      </trkpt>
      <trkpt lat="46.72945" lon="-1.97179">
        <ele>25.3</ele>
        <time>2025-01-17T17:21:43.550Z</time>
      </trkpt>
      <trkpt lat="46.72945" lon="-1.97176">
        <ele>25.9</ele>
        <time>2025-01-17T17:21:44.550Z</time>
      </trkpt>
      <trkpt lat="46.72945" lon="-1.97176">
        <ele>26</ele>
        <time>2025-01-17T17:21:45.550Z</time>
      </trkpt>
      <trkpt lat="46.72945" lon="-1.97173">
        <ele>26.7</ele>
        <time>2025-01-17T17:21:46.550Z</time>
      </trkpt>
      <trkpt lat="46.72943" lon="-1.97172">
        <ele>26.9</ele>
        <time>2025-01-17T17:21:47.550Z</time>
      </trkpt>
      <trkpt lat="46.72943" lon="-1.97171">
        <ele>27</ele>
        <time>2025-01-17T17:21:48.551Z</time>
      </trkpt>
      <trkpt lat="46.72943" lon="-1.97171">
        <ele>27.2</ele>
        <time>2025-01-17T17:21:49.551Z</time>
      </trkpt>
      <trkpt lat="46.72942" lon="-1.9717">
        <ele>27.3</ele>
        <time>2025-01-17T17:21:50.551Z</time>
      </trkpt>
      <trkpt lat="46.7294" lon="-1.9717">
        <ele>27.3</ele>
        <time>2025-01-17T17:21:51.550Z</time>
      </trkpt>
      <trkpt lat="46.72939" lon="-1.97171">
        <ele>27.1</ele>
        <time>2025-01-17T17:21:52.551Z</time>
      </trkpt>
      <trkpt lat="46.72938" lon="-1.97171">
        <ele>27.1</ele>
        <time>2025-01-17T17:21:53.551Z</time>
      </trkpt>
      <trkpt lat="46.72938" lon="-1.97171">
        <ele>27.1</ele>
        <time>2025-01-17T17:21:54.550Z</time>
      </trkpt>
      <trkpt lat="46.72938" lon="-1.9717">
        <ele>27.3</ele>
        <time>2025-01-17T17:21:55.550Z</time>
      </trkpt>
      <trkpt lat="46.7294" lon="-1.97168">
        <ele>27.7</ele>
        <time>2025-01-17T17:21:56.550Z</time>
      </trkpt>
      <trkpt lat="46.72941" lon="-1.97167">
        <ele>28</ele>
        <time>2025-01-17T17:21:57.550Z</time>
      </trkpt>
      <trkpt lat="46.72942" lon="-1.97166">
        <ele>28.1</ele>
        <time>2025-01-17T17:21:58.550Z</time>
      </trkpt>
      <trkpt lat="46.72942" lon="-1.97164">
        <ele>28.2</ele>
        <time>2025-01-17T17:21:59.550Z</time>
      </trkpt>
      <trkpt lat="46.72942" lon="-1.97162">
        <ele>28.4</ele>
        <time>2025-01-17T17:22:00.550Z</time>
      </trkpt>
      <trkpt lat="46.72942" lon="-1.97159">
        <ele>28.7</ele>
        <time>2025-01-17T17:22:01.551Z</time>
      </trkpt>
      <trkpt lat="46.72942" lon="-1.97157">
        <ele>28.9</ele>
        <time>2025-01-17T17:22:02.551Z</time>
      </trkpt>
      <trkpt lat="46.72942" lon="-1.97153">
        <ele>29.3</ele>
        <time>2025-01-17T17:22:03.551Z</time>
      </trkpt>
      <trkpt lat="46.72942" lon="-1.97151">
        <ele>29.5</ele>
        <time>2025-01-17T17:22:04.551Z</time>
      </trkpt>
      <trkpt lat="46.72942" lon="-1.97151">
        <ele>29.5</ele>
        <time>2025-01-17T17:22:05.551Z</time>
      </trkpt>
      <trkpt lat="46.72942" lon="-1.9715">
        <ele>29.5</ele>
        <time>2025-01-17T17:22:06.550Z</time>
      </trkpt>
      <trkpt lat="46.72943" lon="-1.9715">
        <ele>29.7</ele>
        <time>2025-01-17T17:22:07.550Z</time>
      </trkpt>
      <trkpt lat="46.72943" lon="-1.97149">
        <ele>29.7</ele>
        <time>2025-01-17T17:22:08.550Z</time>
      </trkpt>
      <trkpt lat="46.72942" lon="-1.97148">
        <ele>29.8</ele>
        <time>2025-01-17T17:22:09.550Z</time>
      </trkpt>
      <trkpt lat="46.72943" lon="-1.97145">
        <ele>30.1</ele>
        <time>2025-01-17T17:22:10.550Z</time>
      </trkpt>
      <trkpt lat="46.72944" lon="-1.97143">
        <ele>30.5</ele>
        <time>2025-01-17T17:22:11.551Z</time>
      </trkpt>
      <trkpt lat="46.72944" lon="-1.97141">
        <ele>30.7</ele>
        <time>2025-01-17T17:22:12.550Z</time>
      </trkpt>
      <trkpt lat="46.72944" lon="-1.97139">
        <ele>30.8</ele>
        <time>2025-01-17T17:22:13.551Z</time>
      </trkpt>
      <trkpt lat="46.72942" lon="-1.97137">
        <ele>30.3</ele>
        <time>2025-01-17T17:22:14.551Z</time>
      </trkpt>
      <trkpt lat="46.7294" lon="-1.97136">
        <ele>29.7</ele>
        <time>2025-01-17T17:22:15.551Z</time>
      </trkpt>
      <trkpt lat="46.72939" lon="-1.97135">
        <ele>29.4</ele>
        <time>2025-01-17T17:22:16.550Z</time>
      </trkpt>
      <trkpt lat="46.72939" lon="-1.97135">
        <ele>29.4</ele>
        <time>2025-01-17T17:22:17.550Z</time>
      </trkpt>
      <trkpt lat="46.72938" lon="-1.97136">
        <ele>29.3</ele>
        <time>2025-01-17T17:22:18.550Z</time>
      </trkpt>
      <trkpt lat="46.72937" lon="-1.97137">
        <ele>29.3</ele>
        <time>2025-01-17T17:22:19.550Z</time>
      </trkpt>
      <trkpt lat="46.72936" lon="-1.97137">
        <ele>29.3</ele>
        <time>2025-01-17T17:22:20.551Z</time>
      </trkpt>
      <trkpt lat="46.72935" lon="-1.97137">
        <ele>28.9</ele>
        <time>2025-01-17T17:22:21.551Z</time>
      </trkpt>
      <trkpt lat="46.72933" lon="-1.97137">
        <ele>28.6</ele>
        <time>2025-01-17T17:22:22.550Z</time>
      </trkpt>
      <trkpt lat="46.72933" lon="-1.97136">
        <ele>28.4</ele>
        <time>2025-01-17T17:22:23.550Z</time>
      </trkpt>
      <trkpt lat="46.72931" lon="-1.97135">
        <ele>28.1</ele>
        <time>2025-01-17T17:22:24.551Z</time>
      </trkpt>
      <trkpt lat="46.7293" lon="-1.97134">
        <ele>27.8</ele>
        <time>2025-01-17T17:22:25.551Z</time>
      </trkpt>
      <trkpt lat="46.72929" lon="-1.97134">
        <ele>27.5</ele>
        <time>2025-01-17T17:22:26.551Z</time>
      </trkpt>
      <trkpt lat="46.72927" lon="-1.97132">
        <ele>27</ele>
        <time>2025-01-17T17:22:27.550Z</time>
      </trkpt>
      <trkpt lat="46.72925" lon="-1.9713">
        <ele>26.5</ele>
        <time>2025-01-17T17:22:28.551Z</time>
      </trkpt>
      <trkpt lat="46.72923" lon="-1.97127">
        <ele>26</ele>
        <time>2025-01-17T17:22:29.550Z</time>
      </trkpt>
      <trkpt lat="46.72922" lon="-1.97123">
        <ele>25.4</ele>
        <time>2025-01-17T17:22:30.550Z</time>
      </trkpt>
      <trkpt lat="46.72921" lon="-1.9712">
        <ele>25.1</ele>
        <time>2025-01-17T17:22:31.550Z</time>
      </trkpt>
      <trkpt lat="46.72919" lon="-1.97116">
        <ele>24.6</ele>
        <time>2025-01-17T17:22:32.551Z</time>
      </trkpt>
      <trkpt lat="46.72918" lon="-1.97114">
        <ele>24.3</ele>
        <time>2025-01-17T17:22:33.551Z</time>
      </trkpt>
      <trkpt lat="46.72918" lon="-1.97112">
        <ele>24.1</ele>
        <time>2025-01-17T17:22:34.551Z</time>
      </trkpt>
      <trkpt lat="46.72919" lon="-1.97109">
        <ele>24.1</ele>
        <time>2025-01-17T17:22:35.551Z</time>
      </trkpt>
      <trkpt lat="46.72919" lon="-1.97106">
        <ele>24.1</ele>
        <time>2025-01-17T17:22:36.551Z</time>
      </trkpt>
      <trkpt lat="46.72919" lon="-1.97103">
        <ele>24.1</ele>
        <time>2025-01-17T17:22:37.551Z</time>
      </trkpt>
      <trkpt lat="46.7292" lon="-1.971">
        <ele>24.1</ele>
        <time>2025-01-17T17:22:38.550Z</time>
      </trkpt>
      <trkpt lat="46.72919" lon="-1.97097">
        <ele>24</ele>
        <time>2025-01-17T17:22:39.550Z</time>
      </trkpt>
      <trkpt lat="46.72918" lon="-1.97094">
        <ele>24</ele>
        <time>2025-01-17T17:22:40.550Z</time>
      </trkpt>
      <trkpt lat="46.72919" lon="-1.9709">
        <ele>24</ele>
        <time>2025-01-17T17:22:41.550Z</time>
      </trkpt>
      <trkpt lat="46.7292" lon="-1.97087">
        <ele>23.9</ele>
        <time>2025-01-17T17:22:42.551Z</time>
      </trkpt>
      <trkpt lat="46.72921" lon="-1.97083">
        <ele>23.8</ele>
        <time>2025-01-17T17:22:43.550Z</time>
      </trkpt>
      <trkpt lat="46.72923" lon="-1.9708">
        <ele>23.7</ele>
        <time>2025-01-17T17:22:44.550Z</time>
      </trkpt>
      <trkpt lat="46.72925" lon="-1.97077">
        <ele>23.5</ele>
        <time>2025-01-17T17:22:45.550Z</time>
      </trkpt>
      <trkpt lat="46.72926" lon="-1.97075">
        <ele>23.5</ele>
        <time>2025-01-17T17:22:46.550Z</time>
      </trkpt>
      <trkpt lat="46.72927" lon="-1.97073">
        <ele>23.4</ele>
        <time>2025-01-17T17:22:47.550Z</time>
      </trkpt>
      <trkpt lat="46.72929" lon="-1.9707">
        <ele>23.3</ele>
        <time>2025-01-17T17:22:48.550Z</time>
      </trkpt>
      <trkpt lat="46.7293" lon="-1.97067">
        <ele>23.2</ele>
        <time>2025-01-17T17:22:49.551Z</time>
      </trkpt>
      <trkpt lat="46.7293" lon="-1.97064">
        <ele>23.1</ele>
        <time>2025-01-17T17:22:50.551Z</time>
      </trkpt>
      <trkpt lat="46.7293" lon="-1.97061">
        <ele>23.1</ele>
        <time>2025-01-17T17:22:51.550Z</time>
      </trkpt>
      <trkpt lat="46.7293" lon="-1.97058">
        <ele>23</ele>
        <time>2025-01-17T17:22:52.551Z</time>
      </trkpt>
      <trkpt lat="46.72929" lon="-1.97056">
        <ele>23</ele>
        <time>2025-01-17T17:22:53.550Z</time>
      </trkpt>
      <trkpt lat="46.72928" lon="-1.97054">
        <ele>22.9</ele>
        <time>2025-01-17T17:22:54.550Z</time>
      </trkpt>
      <trkpt lat="46.72928" lon="-1.97053">
        <ele>22.9</ele>
        <time>2025-01-17T17:22:55.551Z</time>
      </trkpt>
      <trkpt lat="46.72929" lon="-1.9705">
        <ele>22.8</ele>
        <time>2025-01-17T17:22:56.550Z</time>
      </trkpt>
      <trkpt lat="46.72929" lon="-1.97048">
        <ele>22.8</ele>
        <time>2025-01-17T17:22:57.551Z</time>
      </trkpt>
      <trkpt lat="46.72929" lon="-1.97045">
        <ele>22.7</ele>
        <time>2025-01-17T17:22:58.551Z</time>
      </trkpt>
      <trkpt lat="46.7293" lon="-1.97042">
        <ele>22.7</ele>
        <time>2025-01-17T17:22:59.551Z</time>
      </trkpt>
      <trkpt lat="46.72931" lon="-1.9704">
        <ele>22.8</ele>
        <time>2025-01-17T17:23:00.551Z</time>
      </trkpt>
      <trkpt lat="46.72933" lon="-1.97037">
        <ele>23</ele>
        <time>2025-01-17T17:23:01.551Z</time>
      </trkpt>
      <trkpt lat="46.72934" lon="-1.97035">
        <ele>23.1</ele>
        <time>2025-01-17T17:23:02.550Z</time>
      </trkpt>
      <trkpt lat="46.72934" lon="-1.97032">
        <ele>23.1</ele>
        <time>2025-01-17T17:23:03.550Z</time>
      </trkpt>
      <trkpt lat="46.72935" lon="-1.97031">
        <ele>23.2</ele>
        <time>2025-01-17T17:23:04.550Z</time>
      </trkpt>
      <trkpt lat="46.72935" lon="-1.97028">
        <ele>23.3</ele>
        <time>2025-01-17T17:23:05.550Z</time>
      </trkpt>
      <trkpt lat="46.72937" lon="-1.97026">
        <ele>23.5</ele>
        <time>2025-01-17T17:23:06.550Z</time>
      </trkpt>
      <trkpt lat="46.72937" lon="-1.97024">
        <ele>23.5</ele>
        <time>2025-01-17T17:23:07.550Z</time>
      </trkpt>
      <trkpt lat="46.72938" lon="-1.97021">
        <ele>23.5</ele>
        <time>2025-01-17T17:23:08.551Z</time>
      </trkpt>
      <trkpt lat="46.7294" lon="-1.97017">
        <ele>23.9</ele>
        <time>2025-01-17T17:23:09.551Z</time>
      </trkpt>
      <trkpt lat="46.72941" lon="-1.97015">
        <ele>24</ele>
        <time>2025-01-17T17:23:10.550Z</time>
      </trkpt>
      <trkpt lat="46.72943" lon="-1.97012">
        <ele>24.1</ele>
        <time>2025-01-17T17:23:11.551Z</time>
      </trkpt>
      <trkpt lat="46.72943" lon="-1.97009">
        <ele>24.1</ele>
        <time>2025-01-17T17:23:12.551Z</time>
      </trkpt>
      <trkpt lat="46.72943" lon="-1.97007">
        <ele>23.9</ele>
        <time>2025-01-17T17:23:13.551Z</time>
      </trkpt>
      <trkpt lat="46.72941" lon="-1.97005">
        <ele>23.6</ele>
        <time>2025-01-17T17:23:14.550Z</time>
      </trkpt>
      <trkpt lat="46.72941" lon="-1.97002">
        <ele>23.4</ele>
        <time>2025-01-17T17:23:15.550Z</time>
      </trkpt>
      <trkpt lat="46.7294" lon="-1.96999">
        <ele>23.2</ele>
        <time>2025-01-17T17:23:16.551Z</time>
      </trkpt>
      <trkpt lat="46.72939" lon="-1.96996">
        <ele>22.7</ele>
        <time>2025-01-17T17:23:17.550Z</time>
      </trkpt>
      <trkpt lat="46.72938" lon="-1.96993">
        <ele>22.4</ele>
        <time>2025-01-17T17:23:18.550Z</time>
      </trkpt>
      <trkpt lat="46.72936" lon="-1.96991">
        <ele>22</ele>
        <time>2025-01-17T17:23:19.550Z</time>
      </trkpt>
      <trkpt lat="46.72934" lon="-1.96988">
        <ele>21.6</ele>
        <time>2025-01-17T17:23:20.551Z</time>
      </trkpt>
      <trkpt lat="46.72933" lon="-1.96984">
        <ele>21.3</ele>
        <time>2025-01-17T17:23:21.551Z</time>
      </trkpt>
      <trkpt lat="46.72933" lon="-1.96981">
        <ele>21.1</ele>
        <time>2025-01-17T17:23:22.550Z</time>
      </trkpt>
      <trkpt lat="46.72931" lon="-1.96978">
        <ele>20.8</ele>
        <time>2025-01-17T17:23:23.551Z</time>
      </trkpt>
      <trkpt lat="46.7293" lon="-1.96975">
        <ele>20.5</ele>
        <time>2025-01-17T17:23:24.551Z</time>
      </trkpt>
      <trkpt lat="46.72929" lon="-1.96973">
        <ele>20.4</ele>
        <time>2025-01-17T17:23:25.550Z</time>
      </trkpt>
      <trkpt lat="46.7293" lon="-1.96971">
        <ele>20.4</ele>
        <time>2025-01-17T17:23:26.551Z</time>
      </trkpt>
      <trkpt lat="46.72929" lon="-1.96967">
        <ele>20.4</ele>
        <time>2025-01-17T17:23:27.550Z</time>
      </trkpt>
      <trkpt lat="46.72928" lon="-1.96962">
        <ele>20.3</ele>
        <time>2025-01-17T17:23:28.551Z</time>
      </trkpt>
      <trkpt lat="46.72927" lon="-1.96957">
        <ele>20.2</ele>
        <time>2025-01-17T17:23:29.551Z</time>
      </trkpt>
      <trkpt lat="46.72925" lon="-1.96953">
        <ele>20.2</ele>
        <time>2025-01-17T17:23:30.550Z</time>
      </trkpt>
      <trkpt lat="46.72923" lon="-1.9695">
        <ele>20.1</ele>
        <time>2025-01-17T17:23:31.551Z</time>
      </trkpt>
      <trkpt lat="46.72919" lon="-1.9695">
        <ele>19.9</ele>
        <time>2025-01-17T17:23:32.550Z</time>
      </trkpt>
      <trkpt lat="46.72917" lon="-1.96948">
        <ele>19.9</ele>
        <time>2025-01-17T17:23:33.550Z</time>
      </trkpt>
      <trkpt lat="46.72913" lon="-1.96946">
        <ele>19.7</ele>
        <time>2025-01-17T17:23:34.551Z</time>
      </trkpt>
      <trkpt lat="46.7291" lon="-1.96945">
        <ele>19.5</ele>
        <time>2025-01-17T17:23:35.551Z</time>
      </trkpt>
      <trkpt lat="46.72909" lon="-1.96942">
        <ele>19.6</ele>
        <time>2025-01-17T17:23:36.551Z</time>
      </trkpt>
      <trkpt lat="46.72908" lon="-1.9694">
        <ele>19.6</ele>
        <time>2025-01-17T17:23:37.550Z</time>
      </trkpt>
      <trkpt lat="46.72907" lon="-1.96937">
        <ele>19.7</ele>
        <time>2025-01-17T17:23:38.550Z</time>
      </trkpt>
      <trkpt lat="46.72905" lon="-1.96935">
        <ele>19.7</ele>
        <time>2025-01-17T17:23:39.550Z</time>
      </trkpt>
      <trkpt lat="46.72903" lon="-1.96933">
        <ele>19.6</ele>
        <time>2025-01-17T17:23:40.551Z</time>
      </trkpt>
      <trkpt lat="46.72901" lon="-1.96931">
        <ele>19.7</ele>
        <time>2025-01-17T17:23:41.551Z</time>
      </trkpt>
      <trkpt lat="46.72902" lon="-1.96926">
        <ele>19.9</ele>
        <time>2025-01-17T17:23:42.551Z</time>
      </trkpt>
      <trkpt lat="46.72903" lon="-1.96921">
        <ele>20.3</ele>
        <time>2025-01-17T17:23:43.550Z</time>
      </trkpt>
      <trkpt lat="46.72904" lon="-1.96917">
        <ele>20.5</ele>
        <time>2025-01-17T17:23:44.550Z</time>
      </trkpt>
      <trkpt lat="46.72904" lon="-1.96914">
        <ele>20.7</ele>
        <time>2025-01-17T17:23:45.551Z</time>
      </trkpt>
      <trkpt lat="46.72903" lon="-1.96911">
        <ele>20.8</ele>
        <time>2025-01-17T17:23:46.550Z</time>
      </trkpt>
      <trkpt lat="46.72902" lon="-1.96909">
        <ele>20.9</ele>
        <time>2025-01-17T17:23:47.550Z</time>
      </trkpt>
      <trkpt lat="46.72902" lon="-1.96906">
        <ele>21.1</ele>
        <time>2025-01-17T17:23:48.551Z</time>
      </trkpt>
      <trkpt lat="46.72902" lon="-1.96904">
        <ele>21.2</ele>
        <time>2025-01-17T17:23:49.551Z</time>
      </trkpt>
      <trkpt lat="46.72901" lon="-1.96902">
        <ele>21.3</ele>
        <time>2025-01-17T17:23:50.551Z</time>
      </trkpt>
      <trkpt lat="46.729" lon="-1.96899">
        <ele>21.4</ele>
        <time>2025-01-17T17:23:51.550Z</time>
      </trkpt>
      <trkpt lat="46.729" lon="-1.96895">
        <ele>21.6</ele>
        <time>2025-01-17T17:23:52.550Z</time>
      </trkpt>
      <trkpt lat="46.72899" lon="-1.96892">
        <ele>21.8</ele>
        <time>2025-01-17T17:23:53.550Z</time>
      </trkpt>
      <trkpt lat="46.72899" lon="-1.96888">
        <ele>22</ele>
        <time>2025-01-17T17:23:54.551Z</time>
      </trkpt>
      <trkpt lat="46.72897" lon="-1.96884">
        <ele>22</ele>
        <time>2025-01-17T17:23:55.550Z</time>
      </trkpt>
      <trkpt lat="46.72896" lon="-1.96881">
        <ele>21.9</ele>
        <time>2025-01-17T17:23:56.550Z</time>
      </trkpt>
      <trkpt lat="46.72893" lon="-1.96878">
        <ele>21.9</ele>
        <time>2025-01-17T17:23:57.550Z</time>
      </trkpt>
      <trkpt lat="46.72891" lon="-1.96876">
        <ele>22</ele>
        <time>2025-01-17T17:23:58.550Z</time>
      </trkpt>
      <trkpt lat="46.72889" lon="-1.96875">
        <ele>22</ele>
        <time>2025-01-17T17:23:59.550Z</time>
      </trkpt>
      <trkpt lat="46.72887" lon="-1.96874">
        <ele>22</ele>
        <time>2025-01-17T17:24:00.550Z</time>
      </trkpt>
      <trkpt lat="46.72886" lon="-1.96873">
        <ele>22.1</ele>
        <time>2025-01-17T17:24:01.551Z</time>
      </trkpt>
      <trkpt lat="46.72885" lon="-1.96872">
        <ele>22.1</ele>
        <time>2025-01-17T17:24:02.551Z</time>
      </trkpt>
      <trkpt lat="46.72884" lon="-1.9687">
        <ele>22.1</ele>
        <time>2025-01-17T17:24:03.551Z</time>
      </trkpt>
      <trkpt lat="46.72882" lon="-1.9687">
        <ele>22.2</ele>
        <time>2025-01-17T17:24:04.551Z</time>
      </trkpt>
      <trkpt lat="46.7288" lon="-1.96868">
        <ele>22.2</ele>
        <time>2025-01-17T17:24:05.550Z</time>
      </trkpt>
      <trkpt lat="46.72878" lon="-1.96865">
        <ele>22.3</ele>
        <time>2025-01-17T17:24:06.550Z</time>
      </trkpt>
      <trkpt lat="46.72876" lon="-1.96863">
        <ele>22.4</ele>
        <time>2025-01-17T17:24:07.550Z</time>
      </trkpt>
      <trkpt lat="46.72874" lon="-1.96862">
        <ele>22.5</ele>
        <time>2025-01-17T17:24:08.551Z</time>
      </trkpt>
      <trkpt lat="46.72872" lon="-1.9686">
        <ele>22.6</ele>
        <time>2025-01-17T17:24:09.551Z</time>
      </trkpt>
      <trkpt lat="46.7287" lon="-1.96859">
        <ele>22.6</ele>
        <time>2025-01-17T17:24:10.551Z</time>
      </trkpt>
      <trkpt lat="46.72867" lon="-1.96858">
        <ele>22.7</ele>
        <time>2025-01-17T17:24:11.550Z</time>
      </trkpt>
      <trkpt lat="46.72863" lon="-1.96858">
        <ele>22.8</ele>
        <time>2025-01-17T17:24:12.550Z</time>
      </trkpt>
      <trkpt lat="46.7286" lon="-1.96857">
        <ele>22.8</ele>
        <time>2025-01-17T17:24:13.550Z</time>
      </trkpt>
      <trkpt lat="46.72856" lon="-1.96857">
        <ele>22.7</ele>
        <time>2025-01-17T17:24:14.551Z</time>
      </trkpt>
      <trkpt lat="46.72854" lon="-1.96858">
        <ele>22.6</ele>
        <time>2025-01-17T17:24:15.550Z</time>
      </trkpt>
      <trkpt lat="46.72852" lon="-1.96858">
        <ele>22.6</ele>
        <time>2025-01-17T17:24:16.550Z</time>
      </trkpt>
      <trkpt lat="46.7285" lon="-1.96858">
        <ele>22.5</ele>
        <time>2025-01-17T17:24:17.550Z</time>
      </trkpt>
      <trkpt lat="46.72849" lon="-1.96858">
        <ele>22.5</ele>
        <time>2025-01-17T17:24:18.550Z</time>
      </trkpt>
      <trkpt lat="46.72848" lon="-1.96857">
        <ele>22.4</ele>
        <time>2025-01-17T17:24:19.551Z</time>
      </trkpt>
      <trkpt lat="46.72848" lon="-1.96857">
        <ele>22.4</ele>
        <time>2025-01-17T17:24:20.551Z</time>
      </trkpt>
      <trkpt lat="46.72848" lon="-1.96856">
        <ele>22.4</ele>
        <time>2025-01-17T17:24:21.551Z</time>
      </trkpt>
      <trkpt lat="46.72846" lon="-1.96856">
        <ele>22.4</ele>
        <time>2025-01-17T17:24:22.550Z</time>
      </trkpt>
      <trkpt lat="46.72844" lon="-1.96855">
        <ele>22.3</ele>
        <time>2025-01-17T17:24:23.550Z</time>
      </trkpt>
      <trkpt lat="46.72843" lon="-1.96854">
        <ele>22.3</ele>
        <time>2025-01-17T17:24:24.550Z</time>
      </trkpt>
      <trkpt lat="46.72842" lon="-1.96854">
        <ele>22.2</ele>
        <time>2025-01-17T17:24:25.551Z</time>
      </trkpt>
      <trkpt lat="46.72842" lon="-1.96853">
        <ele>22.2</ele>
        <time>2025-01-17T17:24:26.551Z</time>
      </trkpt>
      <trkpt lat="46.72841" lon="-1.96853">
        <ele>22.2</ele>
        <time>2025-01-17T17:24:27.550Z</time>
      </trkpt>
      <trkpt lat="46.72841" lon="-1.96853">
        <ele>22.2</ele>
        <time>2025-01-17T17:24:28.550Z</time>
      </trkpt>
      <trkpt lat="46.7284" lon="-1.96854">
        <ele>22.2</ele>
        <time>2025-01-17T17:24:29.550Z</time>
      </trkpt>
      <trkpt lat="46.72839" lon="-1.96855">
        <ele>22.2</ele>
        <time>2025-01-17T17:24:30.550Z</time>
      </trkpt>
      <trkpt lat="46.72838" lon="-1.96855">
        <ele>22.1</ele>
        <time>2025-01-17T17:24:31.551Z</time>
      </trkpt>
      <trkpt lat="46.72837" lon="-1.96855">
        <ele>22.1</ele>
        <time>2025-01-17T17:24:32.551Z</time>
      </trkpt>
      <trkpt lat="46.72837" lon="-1.96855">
        <ele>22.1</ele>
        <time>2025-01-17T17:24:33.551Z</time>
      </trkpt>
      <trkpt lat="46.72835" lon="-1.96856">
        <ele>22</ele>
        <time>2025-01-17T17:24:34.550Z</time>
      </trkpt>
      <trkpt lat="46.72835" lon="-1.96856">
        <ele>22</ele>
        <time>2025-01-17T17:24:35.550Z</time>
      </trkpt>
      <trkpt lat="46.72835" lon="-1.96858">
        <ele>22</ele>
        <time>2025-01-17T17:24:36.550Z</time>
      </trkpt>
      <trkpt lat="46.72835" lon="-1.96859">
        <ele>22.1</ele>
        <time>2025-01-17T17:24:37.550Z</time>
      </trkpt>
      <trkpt lat="46.72837" lon="-1.9686">
        <ele>22.1</ele>
        <time>2025-01-17T17:24:38.551Z</time>
      </trkpt>
      <trkpt lat="46.72838" lon="-1.96862">
        <ele>22.1</ele>
        <time>2025-01-17T17:24:39.551Z</time>
      </trkpt>
      <trkpt lat="46.72839" lon="-1.96863">
        <ele>22.2</ele>
        <time>2025-01-17T17:24:40.550Z</time>
      </trkpt>
      <trkpt lat="46.7284" lon="-1.96865">
        <ele>22.2</ele>
        <time>2025-01-17T17:24:41.550Z</time>
      </trkpt>
      <trkpt lat="46.72842" lon="-1.96867">
        <ele>22.3</ele>
        <time>2025-01-17T17:24:42.551Z</time>
      </trkpt>
      <trkpt lat="46.72844" lon="-1.96869">
        <ele>22.3</ele>
        <time>2025-01-17T17:24:43.550Z</time>
      </trkpt>
      <trkpt lat="46.72845" lon="-1.96872">
        <ele>22.3</ele>
        <time>2025-01-17T17:24:44.550Z</time>
      </trkpt>
      <trkpt lat="46.72847" lon="-1.96874">
        <ele>22.3</ele>
        <time>2025-01-17T17:24:45.550Z</time>
      </trkpt>
      <trkpt lat="46.72849" lon="-1.96876">
        <ele>22.2</ele>
        <time>2025-01-17T17:24:46.551Z</time>
      </trkpt>
      <trkpt lat="46.72849" lon="-1.9688">
        <ele>22.2</ele>
        <time>2025-01-17T17:24:47.551Z</time>
      </trkpt>
      <trkpt lat="46.7285" lon="-1.96883">
        <ele>22.1</ele>
        <time>2025-01-17T17:24:48.550Z</time>
      </trkpt>
      <trkpt lat="46.72851" lon="-1.96886">
        <ele>22.1</ele>
        <time>2025-01-17T17:24:49.550Z</time>
      </trkpt>
      <trkpt lat="46.72852" lon="-1.9689">
        <ele>21.9</ele>
        <time>2025-01-17T17:24:50.550Z</time>
      </trkpt>
      <trkpt lat="46.72852" lon="-1.96893">
        <ele>21.7</ele>
        <time>2025-01-17T17:24:51.551Z</time>
      </trkpt>
      <trkpt lat="46.72853" lon="-1.96898">
        <ele>21.3</ele>
        <time>2025-01-17T17:24:52.550Z</time>
      </trkpt>
      <trkpt lat="46.72853" lon="-1.96902">
        <ele>21</ele>
        <time>2025-01-17T17:24:53.551Z</time>
      </trkpt>
      <trkpt lat="46.72854" lon="-1.96905">
        <ele>20.8</ele>
        <time>2025-01-17T17:24:54.551Z</time>
      </trkpt>
      <trkpt lat="46.72854" lon="-1.96908">
        <ele>20.6</ele>
        <time>2025-01-17T17:24:55.550Z</time>
      </trkpt>
      <trkpt lat="46.72856" lon="-1.96911">
        <ele>20.4</ele>
        <time>2025-01-17T17:24:56.550Z</time>
      </trkpt>
      <trkpt lat="46.72856" lon="-1.96913">
        <ele>20.2</ele>
        <time>2025-01-17T17:24:57.550Z</time>
      </trkpt>
      <trkpt lat="46.72857" lon="-1.96916">
        <ele>20</ele>
        <time>2025-01-17T17:24:58.550Z</time>
      </trkpt>
      <trkpt lat="46.72858" lon="-1.96919">
        <ele>19.7</ele>
        <time>2025-01-17T17:24:59.550Z</time>
      </trkpt>
      <trkpt lat="46.72858" lon="-1.96923">
        <ele>19.3</ele>
        <time>2025-01-17T17:25:00.551Z</time>
      </trkpt>
      <trkpt lat="46.72858" lon="-1.96927">
        <ele>18.9</ele>
        <time>2025-01-17T17:25:01.551Z</time>
      </trkpt>
      <trkpt lat="46.72859" lon="-1.9693">
        <ele>18.6</ele>
        <time>2025-01-17T17:25:02.551Z</time>
      </trkpt>
      <trkpt lat="46.72861" lon="-1.96933">
        <ele>18.2</ele>
        <time>2025-01-17T17:25:03.551Z</time>
      </trkpt>
      <trkpt lat="46.72862" lon="-1.96937">
        <ele>17.8</ele>
        <time>2025-01-17T17:25:04.551Z</time>
      </trkpt>
      <trkpt lat="46.72863" lon="-1.96941">
        <ele>17.5</ele>
        <time>2025-01-17T17:25:05.551Z</time>
      </trkpt>
      <trkpt lat="46.72865" lon="-1.96944">
        <ele>17.2</ele>
        <time>2025-01-17T17:25:06.550Z</time>
      </trkpt>
      <trkpt lat="46.72866" lon="-1.96947">
        <ele>17</ele>
        <time>2025-01-17T17:25:07.550Z</time>
      </trkpt>
      <trkpt lat="46.72868" lon="-1.9695">
        <ele>16.7</ele>
        <time>2025-01-17T17:25:08.550Z</time>
      </trkpt>
      <trkpt lat="46.72869" lon="-1.96953">
        <ele>16.5</ele>
        <time>2025-01-17T17:25:09.550Z</time>
      </trkpt>
      <trkpt lat="46.72871" lon="-1.96955">
        <ele>16.3</ele>
        <time>2025-01-17T17:25:10.550Z</time>
      </trkpt>
      <trkpt lat="46.72873" lon="-1.96958">
        <ele>16.2</ele>
        <time>2025-01-17T17:25:11.550Z</time>
      </trkpt>
      <trkpt lat="46.72873" lon="-1.96962">
        <ele>15.8</ele>
        <time>2025-01-17T17:25:12.551Z</time>
      </trkpt>
      <trkpt lat="46.72873" lon="-1.96966">
        <ele>15.4</ele>
        <time>2025-01-17T17:25:13.550Z</time>
      </trkpt>
      <trkpt lat="46.72874" lon="-1.9697">
        <ele>15.1</ele>
        <time>2025-01-17T17:25:14.551Z</time>
      </trkpt>
      <trkpt lat="46.72874" lon="-1.96971">
        <ele>15</ele>
        <time>2025-01-17T17:25:15.550Z</time>
      </trkpt>
      <trkpt lat="46.72875" lon="-1.96974">
        <ele>14.8</ele>
        <time>2025-01-17T17:25:16.550Z</time>
      </trkpt>
      <trkpt lat="46.72876" lon="-1.96977">
        <ele>14.5</ele>
        <time>2025-01-17T17:25:17.551Z</time>
      </trkpt>
      <trkpt lat="46.72877" lon="-1.96982">
        <ele>14.1</ele>
        <time>2025-01-17T17:25:18.551Z</time>
      </trkpt>
      <trkpt lat="46.72877" lon="-1.96987">
        <ele>13.6</ele>
        <time>2025-01-17T17:25:19.551Z</time>
      </trkpt>
      <trkpt lat="46.72877" lon="-1.9699">
        <ele>13.2</ele>
        <time>2025-01-17T17:25:20.551Z</time>
      </trkpt>
      <trkpt lat="46.72876" lon="-1.96993">
        <ele>12.8</ele>
        <time>2025-01-17T17:25:21.551Z</time>
      </trkpt>
      <trkpt lat="46.72875" lon="-1.96996">
        <ele>12.5</ele>
        <time>2025-01-17T17:25:22.550Z</time>
      </trkpt>
      <trkpt lat="46.72874" lon="-1.96999">
        <ele>12</ele>
        <time>2025-01-17T17:25:23.550Z</time>
      </trkpt>
      <trkpt lat="46.72873" lon="-1.97001">
        <ele>11.8</ele>
        <time>2025-01-17T17:25:24.550Z</time>
      </trkpt>
      <trkpt lat="46.72875" lon="-1.97005">
        <ele>11.7</ele>
        <time>2025-01-17T17:25:25.550Z</time>
      </trkpt>
      <trkpt lat="46.72873" lon="-1.97007">
        <ele>11.4</ele>
        <time>2025-01-17T17:25:26.550Z</time>
      </trkpt>
      <trkpt lat="46.72872" lon="-1.97011">
        <ele>11</ele>
        <time>2025-01-17T17:25:27.550Z</time>
      </trkpt>
      <trkpt lat="46.72871" lon="-1.97014">
        <ele>10.7</ele>
        <time>2025-01-17T17:25:28.550Z</time>
      </trkpt>
      <trkpt lat="46.7287" lon="-1.97016">
        <ele>10.5</ele>
        <time>2025-01-17T17:25:29.551Z</time>
      </trkpt>
      <trkpt lat="46.72869" lon="-1.97018">
        <ele>10.3</ele>
        <time>2025-01-17T17:25:30.551Z</time>
      </trkpt>
      <trkpt lat="46.72868" lon="-1.97022">
        <ele>9.9</ele>
        <time>2025-01-17T17:25:31.551Z</time>
      </trkpt>
      <trkpt lat="46.72866" lon="-1.97026">
        <ele>9.5</ele>
        <time>2025-01-17T17:25:32.550Z</time>
      </trkpt>
      <trkpt lat="46.72865" lon="-1.9703">
        <ele>9.2</ele>
        <time>2025-01-17T17:25:33.550Z</time>
      </trkpt>
      <trkpt lat="46.72864" lon="-1.97033">
        <ele>8.9</ele>
        <time>2025-01-17T17:25:34.551Z</time>
      </trkpt>
      <trkpt lat="46.72862" lon="-1.97035">
        <ele>8.6</ele>
        <time>2025-01-17T17:25:35.550Z</time>
      </trkpt>
      <trkpt lat="46.72861" lon="-1.97036">
        <ele>8.4</ele>
        <time>2025-01-17T17:25:36.551Z</time>
      </trkpt>
      <trkpt lat="46.72861" lon="-1.97039">
        <ele>8.2</ele>
        <time>2025-01-17T17:25:37.551Z</time>
      </trkpt>
      <trkpt lat="46.72861" lon="-1.97042">
        <ele>8</ele>
        <time>2025-01-17T17:25:38.550Z</time>
      </trkpt>
      <trkpt lat="46.72862" lon="-1.97045">
        <ele>7.9</ele>
        <time>2025-01-17T17:25:39.550Z</time>
      </trkpt>
      <trkpt lat="46.72859" lon="-1.97048">
        <ele>7.6</ele>
        <time>2025-01-17T17:25:40.550Z</time>
      </trkpt>
      <trkpt lat="46.72857" lon="-1.97052">
        <ele>7.3</ele>
        <time>2025-01-17T17:25:41.551Z</time>
      </trkpt>
      <trkpt lat="46.72854" lon="-1.97054">
        <ele>7.1</ele>
        <time>2025-01-17T17:25:42.550Z</time>
      </trkpt>
      <trkpt lat="46.72853" lon="-1.97056">
        <ele>6.9</ele>
        <time>2025-01-17T17:25:43.550Z</time>
      </trkpt>
      <trkpt lat="46.72853" lon="-1.97059">
        <ele>6.8</ele>
        <time>2025-01-17T17:25:44.551Z</time>
      </trkpt>
      <trkpt lat="46.72854" lon="-1.97061">
        <ele>6.6</ele>
        <time>2025-01-17T17:25:45.551Z</time>
      </trkpt>
      <trkpt lat="46.72854" lon="-1.97064">
        <ele>6.4</ele>
        <time>2025-01-17T17:25:46.550Z</time>
      </trkpt>
      <trkpt lat="46.72855" lon="-1.97068">
        <ele>6.1</ele>
        <time>2025-01-17T17:25:47.551Z</time>
      </trkpt>
      <trkpt lat="46.72855" lon="-1.97072">
        <ele>5.8</ele>
        <time>2025-01-17T17:25:48.550Z</time>
      </trkpt>
      <trkpt lat="46.72855" lon="-1.97075">
        <ele>5.6</ele>
        <time>2025-01-17T17:25:49.550Z</time>
      </trkpt>
      <trkpt lat="46.72855" lon="-1.97079">
        <ele>5.3</ele>
        <time>2025-01-17T17:25:50.550Z</time>
      </trkpt>
      <trkpt lat="46.72855" lon="-1.97082">
        <ele>5.1</ele>
        <time>2025-01-17T17:25:51.550Z</time>
      </trkpt>
      <trkpt lat="46.72855" lon="-1.97085">
        <ele>5</ele>
        <time>2025-01-17T17:25:52.551Z</time>
      </trkpt>
      <trkpt lat="46.72855" lon="-1.97088">
        <ele>5</ele>
        <time>2025-01-17T17:25:53.551Z</time>
      </trkpt>
      <trkpt lat="46.72855" lon="-1.97091">
        <ele>5</ele>
        <time>2025-01-17T17:25:54.551Z</time>
      </trkpt>
      <trkpt lat="46.72855" lon="-1.97094">
        <ele>5</ele>
        <time>2025-01-17T17:25:55.551Z</time>
      </trkpt>
      <trkpt lat="46.72855" lon="-1.97098">
        <ele>5</ele>
        <time>2025-01-17T17:25:56.550Z</time>
      </trkpt>
      <trkpt lat="46.72855" lon="-1.97102">
        <ele>5</ele>
        <time>2025-01-17T17:25:57.551Z</time>
      </trkpt>
      <trkpt lat="46.72855" lon="-1.97104">
        <ele>5</ele>
        <time>2025-01-17T17:25:58.551Z</time>
      </trkpt>
      <trkpt lat="46.72854" lon="-1.97105">
        <ele>5</ele>
        <time>2025-01-17T17:25:59.551Z</time>
      </trkpt>
      <trkpt lat="46.72853" lon="-1.97106">
        <ele>5</ele>
        <time>2025-01-17T17:26:00.551Z</time>
      </trkpt>
      <trkpt lat="46.72852" lon="-1.97107">
        <ele>5</ele>
        <time>2025-01-17T17:26:01.551Z</time>
      </trkpt>
      <trkpt lat="46.72852" lon="-1.97107">
        <ele>5</ele>
        <time>2025-01-17T17:26:02.551Z</time>
      </trkpt>
      <trkpt lat="46.72851" lon="-1.97108">
        <ele>5</ele>
        <time>2025-01-17T17:26:03.551Z</time>
      </trkpt>
      <trkpt lat="46.7285" lon="-1.97109">
        <ele>5</ele>
        <time>2025-01-17T17:26:04.550Z</time>
      </trkpt>
      <trkpt lat="46.72849" lon="-1.97109">
        <ele>5</ele>
        <time>2025-01-17T17:26:05.551Z</time>
      </trkpt>
      <trkpt lat="46.72848" lon="-1.97109">
        <ele>5</ele>
        <time>2025-01-17T17:26:06.550Z</time>
      </trkpt>
      <trkpt lat="46.72847" lon="-1.97108">
        <ele>5</ele>
        <time>2025-01-17T17:26:07.551Z</time>
      </trkpt>
      <trkpt lat="46.72845" lon="-1.97108">
        <ele>5</ele>
        <time>2025-01-17T17:26:08.550Z</time>
      </trkpt>
      <trkpt lat="46.72844" lon="-1.97108">
        <ele>5</ele>
        <time>2025-01-17T17:26:09.551Z</time>
      </trkpt>
      <trkpt lat="46.72842" lon="-1.97108">
        <ele>5</ele>
        <time>2025-01-17T17:26:10.550Z</time>
      </trkpt>
      <trkpt lat="46.72841" lon="-1.97108">
        <ele>5</ele>
        <time>2025-01-17T17:26:11.551Z</time>
      </trkpt>
      <trkpt lat="46.72839" lon="-1.97109">
        <ele>5</ele>
        <time>2025-01-17T17:26:12.551Z</time>
      </trkpt>
      <trkpt lat="46.72837" lon="-1.97111">
        <ele>5</ele>
        <time>2025-01-17T17:26:13.550Z</time>
      </trkpt>
      <trkpt lat="46.72836" lon="-1.97111">
        <ele>5</ele>
        <time>2025-01-17T17:26:14.551Z</time>
      </trkpt>
      <trkpt lat="46.72835" lon="-1.97111">
        <ele>5</ele>
        <time>2025-01-17T17:26:15.551Z</time>
      </trkpt>
      <trkpt lat="46.72835" lon="-1.9711">
        <ele>5</ele>
        <time>2025-01-17T17:26:16.551Z</time>
      </trkpt>
      <trkpt lat="46.72834" lon="-1.97108">
        <ele>5</ele>
        <time>2025-01-17T17:26:17.551Z</time>
      </trkpt>
      <trkpt lat="46.72832" lon="-1.97106">
        <ele>5</ele>
        <time>2025-01-17T17:26:18.550Z</time>
      </trkpt>
      <trkpt lat="46.7283" lon="-1.97105">
        <ele>5</ele>
        <time>2025-01-17T17:26:19.550Z</time>
      </trkpt>
      <trkpt lat="46.72826" lon="-1.97104">
        <ele>5</ele>
        <time>2025-01-17T17:26:20.550Z</time>
      </trkpt>
      <trkpt lat="46.72824" lon="-1.97103">
        <ele>5</ele>
        <time>2025-01-17T17:26:21.551Z</time>
      </trkpt>
      <trkpt lat="46.72821" lon="-1.97102">
        <ele>5</ele>
        <time>2025-01-17T17:26:22.551Z</time>
      </trkpt>
      <trkpt lat="46.72819" lon="-1.97101">
        <ele>5</ele>
        <time>2025-01-17T17:26:23.551Z</time>
      </trkpt>
      <trkpt lat="46.72818" lon="-1.971">
        <ele>5</ele>
        <time>2025-01-17T17:26:24.551Z</time>
      </trkpt>
      <trkpt lat="46.72816" lon="-1.97099">
        <ele>5</ele>
        <time>2025-01-17T17:26:25.550Z</time>
      </trkpt>
      <trkpt lat="46.72815" lon="-1.97097">
        <ele>5</ele>
        <time>2025-01-17T17:26:26.550Z</time>
      </trkpt>
      <trkpt lat="46.72814" lon="-1.97097">
        <ele>5</ele>
        <time>2025-01-17T17:26:27.550Z</time>
      </trkpt>
      <trkpt lat="46.72812" lon="-1.97097">
        <ele>5</ele>
        <time>2025-01-17T17:26:28.550Z</time>
      </trkpt>
      <trkpt lat="46.7281" lon="-1.97097">
        <ele>5</ele>
        <time>2025-01-17T17:26:29.551Z</time>
      </trkpt>
      <trkpt lat="46.72809" lon="-1.97096">
        <ele>5</ele>
        <time>2025-01-17T17:26:30.550Z</time>
      </trkpt>
      <trkpt lat="46.72808" lon="-1.97096">
        <ele>5</ele>
        <time>2025-01-17T17:26:31.550Z</time>
      </trkpt>
      <trkpt lat="46.72808" lon="-1.97097">
        <ele>5</ele>
        <time>2025-01-17T17:26:32.550Z</time>
      </trkpt>
      <trkpt lat="46.72806" lon="-1.97097">
        <ele>5</ele>
        <time>2025-01-17T17:26:33.550Z</time>
      </trkpt>
      <trkpt lat="46.72805" lon="-1.97097">
        <ele>5</ele>
        <time>2025-01-17T17:26:34.550Z</time>
      </trkpt>
      <trkpt lat="46.72803" lon="-1.97097">
        <ele>5.1</ele>
        <time>2025-01-17T17:26:35.550Z</time>
      </trkpt>
      <trkpt lat="46.72799" lon="-1.97095">
        <ele>5.1</ele>
        <time>2025-01-17T17:26:36.551Z</time>
      </trkpt>
      <trkpt lat="46.72796" lon="-1.97093">
        <ele>5.1</ele>
        <time>2025-01-17T17:26:37.551Z</time>
      </trkpt>
      <trkpt lat="46.72791" lon="-1.97092">
        <ele>5.2</ele>
        <time>2025-01-17T17:26:38.550Z</time>
      </trkpt>
      <trkpt lat="46.72788" lon="-1.97092">
        <ele>5.2</ele>
        <time>2025-01-17T17:26:39.550Z</time>
      </trkpt>
      <trkpt lat="46.72786" lon="-1.97092">
        <ele>5.2</ele>
        <time>2025-01-17T17:26:40.550Z</time>
      </trkpt>
      <trkpt lat="46.72784" lon="-1.97093">
        <ele>5.3</ele>
        <time>2025-01-17T17:26:41.550Z</time>
      </trkpt>
      <trkpt lat="46.72782" lon="-1.97095">
        <ele>5.4</ele>
        <time>2025-01-17T17:26:42.551Z</time>
      </trkpt>
      <trkpt lat="46.72779" lon="-1.97096">
        <ele>5.5</ele>
        <time>2025-01-17T17:26:43.551Z</time>
      </trkpt>
      <trkpt lat="46.72777" lon="-1.97096">
        <ele>5.5</ele>
        <time>2025-01-17T17:26:44.551Z</time>
      </trkpt>
      <trkpt lat="46.72776" lon="-1.97095">
        <ele>5.6</ele>
        <time>2025-01-17T17:26:45.551Z</time>
      </trkpt>
      <trkpt lat="46.72775" lon="-1.97093">
        <ele>5.6</ele>
        <time>2025-01-17T17:26:46.551Z</time>
      </trkpt>
      <trkpt lat="46.72774" lon="-1.9709">
        <ele>5.7</ele>
        <time>2025-01-17T17:26:47.550Z</time>
      </trkpt>
      <trkpt lat="46.72772" lon="-1.97089">
        <ele>5.9</ele>
        <time>2025-01-17T17:26:48.550Z</time>
      </trkpt>
      <trkpt lat="46.72772" lon="-1.97089">
        <ele>5.9</ele>
        <time>2025-01-17T17:26:49.550Z</time>
      </trkpt>
      <trkpt lat="46.72771" lon="-1.97087">
        <ele>5.9</ele>
        <time>2025-01-17T17:26:50.550Z</time>
      </trkpt>
      <trkpt lat="46.72772" lon="-1.97086">
        <ele>5.9</ele>
        <time>2025-01-17T17:26:51.551Z</time>
      </trkpt>
      <trkpt lat="46.72771" lon="-1.97086">
        <ele>5.9</ele>
        <time>2025-01-17T17:26:52.550Z</time>
      </trkpt>
      <trkpt lat="46.7277" lon="-1.97085">
        <ele>6.2</ele>
        <time>2025-01-17T17:26:53.551Z</time>
      </trkpt>
      <trkpt lat="46.72767" lon="-1.97086">
        <ele>6.5</ele>
        <time>2025-01-17T17:26:54.551Z</time>
      </trkpt>
      <trkpt lat="46.72766" lon="-1.97086">
        <ele>6.7</ele>
        <time>2025-01-17T17:26:55.550Z</time>
      </trkpt>
      <trkpt lat="46.72764" lon="-1.97087">
        <ele>6.9</ele>
        <time>2025-01-17T17:26:56.551Z</time>
      </trkpt>
      <trkpt lat="46.72761" lon="-1.97088">
        <ele>7.3</ele>
        <time>2025-01-17T17:26:57.551Z</time>
      </trkpt>
      <trkpt lat="46.72758" lon="-1.97088">
        <ele>7.5</ele>
        <time>2025-01-17T17:26:58.550Z</time>
      </trkpt>
      <trkpt lat="46.72755" lon="-1.97088">
        <ele>7.9</ele>
        <time>2025-01-17T17:26:59.551Z</time>
      </trkpt>
      <trkpt lat="46.72753" lon="-1.97088">
        <ele>8.1</ele>
        <time>2025-01-17T17:27:00.551Z</time>
      </trkpt>
      <trkpt lat="46.72751" lon="-1.97087">
        <ele>8.5</ele>
        <time>2025-01-17T17:27:01.550Z</time>
      </trkpt>
      <trkpt lat="46.7275" lon="-1.97087">
        <ele>8.7</ele>
        <time>2025-01-17T17:27:02.550Z</time>
      </trkpt>
      <trkpt lat="46.72748" lon="-1.97086">
        <ele>8.7</ele>
        <time>2025-01-17T17:27:03.550Z</time>
      </trkpt>
      <trkpt lat="46.72746" lon="-1.97086">
        <ele>8.6</ele>
        <time>2025-01-17T17:27:04.550Z</time>
      </trkpt>
      <trkpt lat="46.72744" lon="-1.97086">
        <ele>8.6</ele>
        <time>2025-01-17T17:27:05.550Z</time>
      </trkpt>
      <trkpt lat="46.72742" lon="-1.97085">
        <ele>8.6</ele>
        <time>2025-01-17T17:27:06.551Z</time>
      </trkpt>
      <trkpt lat="46.72738" lon="-1.97085">
        <ele>8.5</ele>
        <time>2025-01-17T17:27:07.551Z</time>
      </trkpt>
      <trkpt lat="46.72735" lon="-1.97084">
        <ele>8.5</ele>
        <time>2025-01-17T17:27:08.551Z</time>
      </trkpt>
      <trkpt lat="46.72732" lon="-1.97083">
        <ele>8.4</ele>
        <time>2025-01-17T17:27:09.551Z</time>
      </trkpt>
      <trkpt lat="46.7273" lon="-1.97082">
        <ele>8.4</ele>
        <time>2025-01-17T17:27:10.550Z</time>
      </trkpt>
      <trkpt lat="46.72728" lon="-1.9708">
        <ele>8.4</ele>
        <time>2025-01-17T17:27:11.550Z</time>
      </trkpt>
      <trkpt lat="46.72727" lon="-1.97078">
        <ele>8.4</ele>
        <time>2025-01-17T17:27:12.550Z</time>
      </trkpt>
      <trkpt lat="46.72725" lon="-1.97077">
        <ele>8.3</ele>
        <time>2025-01-17T17:27:13.551Z</time>
      </trkpt>
      <trkpt lat="46.72723" lon="-1.97076">
        <ele>8.3</ele>
        <time>2025-01-17T17:27:14.550Z</time>
      </trkpt>
      <trkpt lat="46.72722" lon="-1.97075">
        <ele>8.3</ele>
        <time>2025-01-17T17:27:15.550Z</time>
      </trkpt>
      <trkpt lat="46.72722" lon="-1.97074">
        <ele>8.3</ele>
        <time>2025-01-17T17:27:16.551Z</time>
      </trkpt>
      <trkpt lat="46.72721" lon="-1.97073">
        <ele>8.3</ele>
        <time>2025-01-17T17:27:17.551Z</time>
      </trkpt>
      <trkpt lat="46.72719" lon="-1.97072">
        <ele>8.3</ele>
        <time>2025-01-17T17:27:18.551Z</time>
      </trkpt>
      <trkpt lat="46.72716" lon="-1.97071">
        <ele>8.1</ele>
        <time>2025-01-17T17:27:19.551Z</time>
      </trkpt>
      <trkpt lat="46.72713" lon="-1.97069">
        <ele>8</ele>
        <time>2025-01-17T17:27:20.551Z</time>
      </trkpt>
      <trkpt lat="46.72711" lon="-1.97067">
        <ele>7.9</ele>
        <time>2025-01-17T17:27:21.551Z</time>
      </trkpt>
      <trkpt lat="46.72708" lon="-1.97064">
        <ele>7.8</ele>
        <time>2025-01-17T17:27:22.551Z</time>
      </trkpt>
      <trkpt lat="46.72705" lon="-1.97062">
        <ele>7.7</ele>
        <time>2025-01-17T17:27:23.551Z</time>
      </trkpt>
      <trkpt lat="46.72703" lon="-1.97059">
        <ele>7.6</ele>
        <time>2025-01-17T17:27:24.551Z</time>
      </trkpt>
      <trkpt lat="46.72702" lon="-1.97057">
        <ele>7.5</ele>
        <time>2025-01-17T17:27:25.551Z</time>
      </trkpt>
      <trkpt lat="46.72701" lon="-1.97054">
        <ele>7.7</ele>
        <time>2025-01-17T17:27:26.551Z</time>
      </trkpt>
      <trkpt lat="46.727" lon="-1.97052">
        <ele>7.9</ele>
        <time>2025-01-17T17:27:27.550Z</time>
      </trkpt>
      <trkpt lat="46.72698" lon="-1.9705">
        <ele>8.1</ele>
        <time>2025-01-17T17:27:28.551Z</time>
      </trkpt>
      <trkpt lat="46.72696" lon="-1.97048">
        <ele>8.2</ele>
        <time>2025-01-17T17:27:29.551Z</time>
      </trkpt>
      <trkpt lat="46.72694" lon="-1.97047">
        <ele>8.2</ele>
        <time>2025-01-17T17:27:30.551Z</time>
      </trkpt>
      <trkpt lat="46.72691" lon="-1.97045">
        <ele>8.2</ele>
        <time>2025-01-17T17:27:31.550Z</time>
      </trkpt>
      <trkpt lat="46.72689" lon="-1.97043">
        <ele>8.3</ele>
        <time>2025-01-17T17:27:32.550Z</time>
      </trkpt>
      <trkpt lat="46.72687" lon="-1.97042">
        <ele>8.3</ele>
        <time>2025-01-17T17:27:33.550Z</time>
      </trkpt>
      <trkpt lat="46.72684" lon="-1.9704">
        <ele>8.3</ele>
        <time>2025-01-17T17:27:34.551Z</time>
      </trkpt>
      <trkpt lat="46.72682" lon="-1.97038">
        <ele>8.3</ele>
        <time>2025-01-17T17:27:35.550Z</time>
      </trkpt>
      <trkpt lat="46.72681" lon="-1.97036">
        <ele>8.3</ele>
        <time>2025-01-17T17:27:36.551Z</time>
      </trkpt>
      <trkpt lat="46.72679" lon="-1.97034">
        <ele>8.2</ele>
        <time>2025-01-17T17:27:37.550Z</time>
      </trkpt>
      <trkpt lat="46.72676" lon="-1.97033">
        <ele>8</ele>
        <time>2025-01-17T17:27:38.550Z</time>
      </trkpt>
      <trkpt lat="46.72673" lon="-1.9703">
        <ele>7.8</ele>
        <time>2025-01-17T17:27:39.550Z</time>
      </trkpt>
      <trkpt lat="46.72671" lon="-1.97027">
        <ele>7.8</ele>
        <time>2025-01-17T17:27:40.550Z</time>
      </trkpt>
      <trkpt lat="46.72669" lon="-1.97025">
        <ele>7.9</ele>
        <time>2025-01-17T17:27:41.551Z</time>
      </trkpt>
      <trkpt lat="46.72667" lon="-1.97024">
        <ele>7.7</ele>
        <time>2025-01-17T17:27:42.551Z</time>
      </trkpt>
      <trkpt lat="46.72666" lon="-1.97024">
        <ele>7.7</ele>
        <time>2025-01-17T17:27:43.550Z</time>
      </trkpt>
      <trkpt lat="46.72665" lon="-1.97023">
        <ele>7.7</ele>
        <time>2025-01-17T17:27:44.550Z</time>
      </trkpt>
      <trkpt lat="46.72663" lon="-1.97023">
        <ele>7.7</ele>
        <time>2025-01-17T17:27:45.551Z</time>
      </trkpt>
      <trkpt lat="46.7266" lon="-1.97022">
        <ele>7.6</ele>
        <time>2025-01-17T17:27:46.551Z</time>
      </trkpt>
      <trkpt lat="46.72658" lon="-1.9702">
        <ele>7.8</ele>
        <time>2025-01-17T17:27:47.550Z</time>
      </trkpt>
      <trkpt lat="46.72653" lon="-1.97017">
        <ele>8</ele>
        <time>2025-01-17T17:27:48.551Z</time>
      </trkpt>
      <trkpt lat="46.7265" lon="-1.97016">
        <ele>7.8</ele>
        <time>2025-01-17T17:27:49.550Z</time>
      </trkpt>
      <trkpt lat="46.72648" lon="-1.97014">
        <ele>7.8</ele>
        <time>2025-01-17T17:27:50.550Z</time>
      </trkpt>
      <trkpt lat="46.72646" lon="-1.97014">
        <ele>7.7</ele>
        <time>2025-01-17T17:27:51.551Z</time>
      </trkpt>
      <trkpt lat="46.72646" lon="-1.97013">
        <ele>7.7</ele>
        <time>2025-01-17T17:27:52.550Z</time>
      </trkpt>
      <trkpt lat="46.72645" lon="-1.97011">
        <ele>7.8</ele>
        <time>2025-01-17T17:27:53.551Z</time>
      </trkpt>
      <trkpt lat="46.72644" lon="-1.97009">
        <ele>7.9</ele>
        <time>2025-01-17T17:27:54.550Z</time>
      </trkpt>
      <trkpt lat="46.72643" lon="-1.97007">
        <ele>8</ele>
        <time>2025-01-17T17:27:55.550Z</time>
      </trkpt>
      <trkpt lat="46.72644" lon="-1.97004">
        <ele>8.3</ele>
        <time>2025-01-17T17:27:56.551Z</time>
      </trkpt>
      <trkpt lat="46.72643" lon="-1.97001">
        <ele>8.5</ele>
        <time>2025-01-17T17:27:57.550Z</time>
      </trkpt>
      <trkpt lat="46.72642" lon="-1.96998">
        <ele>8.6</ele>
        <time>2025-01-17T17:27:58.551Z</time>
      </trkpt>
      <trkpt lat="46.72639" lon="-1.96994">
        <ele>8.7</ele>
        <time>2025-01-17T17:27:59.550Z</time>
      </trkpt>
      <trkpt lat="46.72636" lon="-1.96991">
        <ele>8.8</ele>
        <time>2025-01-17T17:28:00.551Z</time>
      </trkpt>
      <trkpt lat="46.72635" lon="-1.96988">
        <ele>9.2</ele>
        <time>2025-01-17T17:28:01.550Z</time>
      </trkpt>
      <trkpt lat="46.72633" lon="-1.96985">
        <ele>9.5</ele>
        <time>2025-01-17T17:28:02.550Z</time>
      </trkpt>
      <trkpt lat="46.72633" lon="-1.96983">
        <ele>9.7</ele>
        <time>2025-01-17T17:28:03.550Z</time>
      </trkpt>
      <trkpt lat="46.72634" lon="-1.96982">
        <ele>9.8</ele>
        <time>2025-01-17T17:28:04.551Z</time>
      </trkpt>
      <trkpt lat="46.72634" lon="-1.96983">
        <ele>9.7</ele>
        <time>2025-01-17T17:28:05.551Z</time>
      </trkpt>
      <trkpt lat="46.72635" lon="-1.96983">
        <ele>9.7</ele>
        <time>2025-01-17T17:28:06.551Z</time>
      </trkpt>
      <trkpt lat="46.72635" lon="-1.96984">
        <ele>9.6</ele>
        <time>2025-01-17T17:28:07.551Z</time>
      </trkpt>
      <trkpt lat="46.72635" lon="-1.96983">
        <ele>9.7</ele>
        <time>2025-01-17T17:28:08.550Z</time>
      </trkpt>
      <trkpt lat="46.72635" lon="-1.96983">
        <ele>9.7</ele>
        <time>2025-01-17T17:28:09.551Z</time>
      </trkpt>
      <trkpt lat="46.72633" lon="-1.96983">
        <ele>9.6</ele>
        <time>2025-01-17T17:28:10.551Z</time>
      </trkpt>
      <trkpt lat="46.72634" lon="-1.96982">
        <ele>9.7</ele>
        <time>2025-01-17T17:28:11.550Z</time>
      </trkpt>
      <trkpt lat="46.72636" lon="-1.9698">
        <ele>10</ele>
        <time>2025-01-17T17:28:12.550Z</time>
      </trkpt>
      <trkpt lat="46.72638" lon="-1.96978">
        <ele>10.3</ele>
        <time>2025-01-17T17:28:13.551Z</time>
      </trkpt>
      <trkpt lat="46.7264" lon="-1.96976">
        <ele>10.8</ele>
        <time>2025-01-17T17:28:14.550Z</time>
      </trkpt>
      <trkpt lat="46.72641" lon="-1.96974">
        <ele>11.2</ele>
        <time>2025-01-17T17:28:15.551Z</time>
      </trkpt>
      <trkpt lat="46.72642" lon="-1.96971">
        <ele>11.7</ele>
        <time>2025-01-17T17:28:16.550Z</time>
      </trkpt>
      <trkpt lat="46.72644" lon="-1.96969">
        <ele>12.3</ele>
        <time>2025-01-17T17:28:17.550Z</time>
      </trkpt>
      <trkpt lat="46.72645" lon="-1.96966">
        <ele>12.8</ele>
        <time>2025-01-17T17:28:18.550Z</time>
      </trkpt>
      <trkpt lat="46.72645" lon="-1.96965">
        <ele>12.9</ele>
        <time>2025-01-17T17:28:19.550Z</time>
      </trkpt>
      <trkpt lat="46.72645" lon="-1.96965">
        <ele>13.1</ele>
        <time>2025-01-17T17:28:20.551Z</time>
      </trkpt>
      <trkpt lat="46.72646" lon="-1.96964">
        <ele>13.4</ele>
        <time>2025-01-17T17:28:21.551Z</time>
      </trkpt>
      <trkpt lat="46.72647" lon="-1.96963">
        <ele>13.6</ele>
        <time>2025-01-17T17:28:22.550Z</time>
      </trkpt>
      <trkpt lat="46.72647" lon="-1.96961">
        <ele>13.9</ele>
        <time>2025-01-17T17:28:23.550Z</time>
      </trkpt>
      <trkpt lat="46.72649" lon="-1.96959">
        <ele>14.6</ele>
        <time>2025-01-17T17:28:24.550Z</time>
      </trkpt>
      <trkpt lat="46.7265" lon="-1.96956">
        <ele>15.1</ele>
        <time>2025-01-17T17:28:25.551Z</time>
      </trkpt>
      <trkpt lat="46.72651" lon="-1.96955">
        <ele>15.7</ele>
        <time>2025-01-17T17:28:26.551Z</time>
      </trkpt>
      <trkpt lat="46.72653" lon="-1.96955">
        <ele>16</ele>
        <time>2025-01-17T17:28:27.550Z</time>
      </trkpt>
      <trkpt lat="46.72653" lon="-1.96954">
        <ele>16.2</ele>
        <time>2025-01-17T17:28:28.550Z</time>
      </trkpt>
      <trkpt lat="46.72655" lon="-1.96953">
        <ele>16.7</ele>
        <time>2025-01-17T17:28:29.551Z</time>
      </trkpt>
      <trkpt lat="46.72656" lon="-1.96953">
        <ele>17</ele>
        <time>2025-01-17T17:28:30.550Z</time>
      </trkpt>
      <trkpt lat="46.72657" lon="-1.96954">
        <ele>17.1</ele>
        <time>2025-01-17T17:28:31.550Z</time>
      </trkpt>
      <trkpt lat="46.72658" lon="-1.96954">
        <ele>17.4</ele>
        <time>2025-01-17T17:28:32.550Z</time>
      </trkpt>
      <trkpt lat="46.72661" lon="-1.96952">
        <ele>18.2</ele>
        <time>2025-01-17T17:28:33.551Z</time>
      </trkpt>
      <trkpt lat="46.72663" lon="-1.96951">
        <ele>18.9</ele>
        <time>2025-01-17T17:28:34.550Z</time>
      </trkpt>
      <trkpt lat="46.72665" lon="-1.96951">
        <ele>19.4</ele>
        <time>2025-01-17T17:28:35.551Z</time>
      </trkpt>
      <trkpt lat="46.72666" lon="-1.9695">
        <ele>19.9</ele>
        <time>2025-01-17T17:28:36.551Z</time>
      </trkpt>
      <trkpt lat="46.72667" lon="-1.9695">
        <ele>20.2</ele>
        <time>2025-01-17T17:28:37.550Z</time>
      </trkpt>
      <trkpt lat="46.72668" lon="-1.96948">
        <ele>20.5</ele>
        <time>2025-01-17T17:28:38.550Z</time>
      </trkpt>
      <trkpt lat="46.7267" lon="-1.96948">
        <ele>21</ele>
        <time>2025-01-17T17:28:39.551Z</time>
      </trkpt>
      <trkpt lat="46.72673" lon="-1.96946">
        <ele>21.8</ele>
        <time>2025-01-17T17:28:40.551Z</time>
      </trkpt>
      <trkpt lat="46.72674" lon="-1.96945">
        <ele>22.3</ele>
        <time>2025-01-17T17:28:41.550Z</time>
      </trkpt>
      <trkpt lat="46.72674" lon="-1.96945">
        <ele>22.4</ele>
        <time>2025-01-17T17:28:42.550Z</time>
      </trkpt>
      <trkpt lat="46.72675" lon="-1.96944">
        <ele>22.6</ele>
        <time>2025-01-17T17:28:43.551Z</time>
      </trkpt>
      <trkpt lat="46.72676" lon="-1.96943">
        <ele>22.7</ele>
        <time>2025-01-17T17:28:44.551Z</time>
      </trkpt>
      <trkpt lat="46.72676" lon="-1.96942">
        <ele>22.8</ele>
        <time>2025-01-17T17:28:45.551Z</time>
      </trkpt>
      <trkpt lat="46.72677" lon="-1.96942">
        <ele>22.9</ele>
        <time>2025-01-17T17:28:46.550Z</time>
      </trkpt>
      <trkpt lat="46.72677" lon="-1.96941">
        <ele>22.9</ele>
        <time>2025-01-17T17:28:47.550Z</time>
      </trkpt>
      <trkpt lat="46.72676" lon="-1.96941">
        <ele>22.9</ele>
        <time>2025-01-17T17:28:48.551Z</time>
      </trkpt>
      <trkpt lat="46.72677" lon="-1.9694">
        <ele>22.9</ele>
        <time>2025-01-17T17:28:49.550Z</time>
      </trkpt>
      <trkpt lat="46.72677" lon="-1.96938">
        <ele>23</ele>
        <time>2025-01-17T17:28:50.550Z</time>
      </trkpt>
      <trkpt lat="46.72677" lon="-1.96938">
        <ele>23.1</ele>
        <time>2025-01-17T17:28:51.550Z</time>
      </trkpt>
      <trkpt lat="46.72678" lon="-1.96937">
        <ele>23.2</ele>
        <time>2025-01-17T17:28:52.550Z</time>
      </trkpt>
      <trkpt lat="46.72679" lon="-1.96937">
        <ele>23.3</ele>
        <time>2025-01-17T17:28:53.550Z</time>
      </trkpt>
      <trkpt lat="46.72679" lon="-1.96936">
        <ele>23.3</ele>
        <time>2025-01-17T17:28:54.551Z</time>
      </trkpt>
      <trkpt lat="46.7268" lon="-1.96935">
        <ele>23.4</ele>
        <time>2025-01-17T17:28:55.550Z</time>
      </trkpt>
      <trkpt lat="46.7268" lon="-1.96934">
        <ele>23.4</ele>
        <time>2025-01-17T17:28:56.550Z</time>
      </trkpt>
      <trkpt lat="46.72681" lon="-1.96932">
        <ele>23.5</ele>
        <time>2025-01-17T17:28:57.550Z</time>
      </trkpt>
      <trkpt lat="46.72682" lon="-1.96931">
        <ele>23.6</ele>
        <time>2025-01-17T17:28:58.550Z</time>
      </trkpt>
      <trkpt lat="46.72683" lon="-1.9693">
        <ele>23.6</ele>
        <time>2025-01-17T17:28:59.550Z</time>
      </trkpt>
      <trkpt lat="46.72683" lon="-1.96928">
        <ele>23.6</ele>
        <time>2025-01-17T17:29:00.551Z</time>
      </trkpt>
      <trkpt lat="46.72683" lon="-1.96927">
        <ele>23.6</ele>
        <time>2025-01-17T17:29:01.551Z</time>
      </trkpt>
      <trkpt lat="46.72683" lon="-1.96925">
        <ele>23.6</ele>
        <time>2025-01-17T17:29:02.551Z</time>
      </trkpt>
      <trkpt lat="46.72684" lon="-1.96923">
        <ele>23.5</ele>
        <time>2025-01-17T17:29:03.550Z</time>
      </trkpt>
      <trkpt lat="46.72683" lon="-1.96921">
        <ele>23.5</ele>
        <time>2025-01-17T17:29:04.551Z</time>
      </trkpt>
      <trkpt lat="46.72683" lon="-1.96919">
        <ele>23.5</ele>
        <time>2025-01-17T17:29:05.550Z</time>
      </trkpt>
      <trkpt lat="46.72683" lon="-1.96918">
        <ele>23.4</ele>
        <time>2025-01-17T17:29:06.550Z</time>
      </trkpt>
      <trkpt lat="46.72684" lon="-1.96915">
        <ele>23.1</ele>
        <time>2025-01-17T17:29:07.550Z</time>
      </trkpt>
      <trkpt lat="46.72686" lon="-1.96912">
        <ele>22.8</ele>
        <time>2025-01-17T17:29:08.551Z</time>
      </trkpt>
      <trkpt lat="46.72687" lon="-1.96909">
        <ele>22.5</ele>
        <time>2025-01-17T17:29:09.551Z</time>
      </trkpt>
      <trkpt lat="46.72689" lon="-1.96906">
        <ele>22.2</ele>
        <time>2025-01-17T17:29:10.551Z</time>
      </trkpt>
      <trkpt lat="46.7269" lon="-1.96903">
        <ele>22</ele>
        <time>2025-01-17T17:29:11.551Z</time>
      </trkpt>
      <trkpt lat="46.72692" lon="-1.96901">
        <ele>21.8</ele>
        <time>2025-01-17T17:29:12.551Z</time>
      </trkpt>
      <trkpt lat="46.72693" lon="-1.96899">
        <ele>21.7</ele>
        <time>2025-01-17T17:29:13.551Z</time>
      </trkpt>
      <trkpt lat="46.72694" lon="-1.96896">
        <ele>21.5</ele>
        <time>2025-01-17T17:29:14.550Z</time>
      </trkpt>
      <trkpt lat="46.72695" lon="-1.96894">
        <ele>21.3</ele>
        <time>2025-01-17T17:29:15.551Z</time>
      </trkpt>
      <trkpt lat="46.72696" lon="-1.96891">
        <ele>21.1</ele>
        <time>2025-01-17T17:29:16.551Z</time>
      </trkpt>
      <trkpt lat="46.72697" lon="-1.96889">
        <ele>20.9</ele>
        <time>2025-01-17T17:29:17.551Z</time>
      </trkpt>
      <trkpt lat="46.72697" lon="-1.96888">
        <ele>20.9</ele>
        <time>2025-01-17T17:29:18.551Z</time>
      </trkpt>
      <trkpt lat="46.72697" lon="-1.96887">
        <ele>20.9</ele>
        <time>2025-01-17T17:29:19.550Z</time>
      </trkpt>
      <trkpt lat="46.72698" lon="-1.96886">
        <ele>20.9</ele>
        <time>2025-01-17T17:29:20.550Z</time>
      </trkpt>
      <trkpt lat="46.72699" lon="-1.96885">
        <ele>20.9</ele>
        <time>2025-01-17T17:29:21.551Z</time>
      </trkpt>
      <trkpt lat="46.727" lon="-1.96884">
        <ele>20.8</ele>
        <time>2025-01-17T17:29:22.551Z</time>
      </trkpt>
      <trkpt lat="46.72702" lon="-1.96884">
        <ele>20.7</ele>
        <time>2025-01-17T17:29:23.550Z</time>
      </trkpt>
      <trkpt lat="46.72703" lon="-1.96884">
        <ele>20.6</ele>
        <time>2025-01-17T17:29:24.551Z</time>
      </trkpt>
      <trkpt lat="46.72705" lon="-1.96883">
        <ele>20.5</ele>
        <time>2025-01-17T17:29:25.551Z</time>
      </trkpt>
      <trkpt lat="46.72706" lon="-1.9688">
        <ele>20.4</ele>
        <time>2025-01-17T17:29:26.550Z</time>
      </trkpt>
      <trkpt lat="46.72708" lon="-1.96878">
        <ele>20.1</ele>
        <time>2025-01-17T17:29:27.550Z</time>
      </trkpt>
      <trkpt lat="46.7271" lon="-1.96877">
        <ele>19.9</ele>
        <time>2025-01-17T17:29:28.551Z</time>
      </trkpt>
      <trkpt lat="46.72712" lon="-1.96876">
        <ele>19.7</ele>
        <time>2025-01-17T17:29:29.550Z</time>
      </trkpt>
      <trkpt lat="46.72714" lon="-1.96874">
        <ele>19.4</ele>
        <time>2025-01-17T17:29:30.551Z</time>
      </trkpt>
      <trkpt lat="46.72716" lon="-1.96873">
        <ele>19</ele>
        <time>2025-01-17T17:29:31.550Z</time>
      </trkpt>
      <trkpt lat="46.72717" lon="-1.96872">
        <ele>18.8</ele>
        <time>2025-01-17T17:29:32.550Z</time>
      </trkpt>
      <trkpt lat="46.72718" lon="-1.9687">
        <ele>18.5</ele>
        <time>2025-01-17T17:29:33.550Z</time>
      </trkpt>
      <trkpt lat="46.72719" lon="-1.96867">
        <ele>18.2</ele>
        <time>2025-01-17T17:29:34.550Z</time>
      </trkpt>
      <trkpt lat="46.7272" lon="-1.96865">
        <ele>17.9</ele>
        <time>2025-01-17T17:29:35.551Z</time>
      </trkpt>
      <trkpt lat="46.7272" lon="-1.96863">
        <ele>17.6</ele>
        <time>2025-01-17T17:29:36.550Z</time>
      </trkpt>
      <trkpt lat="46.72721" lon="-1.96861">
        <ele>17.2</ele>
        <time>2025-01-17T17:29:37.550Z</time>
      </trkpt>
      <trkpt lat="46.72722" lon="-1.96858">
        <ele>17</ele>
        <time>2025-01-17T17:29:38.551Z</time>
      </trkpt>
      <trkpt lat="46.72722" lon="-1.96854">
        <ele>17</ele>
        <time>2025-01-17T17:29:39.551Z</time>
      </trkpt>
      <trkpt lat="46.72723" lon="-1.96851">
        <ele>17</ele>
        <time>2025-01-17T17:29:40.551Z</time>
      </trkpt>
      <trkpt lat="46.72723" lon="-1.96848">
        <ele>17</ele>
        <time>2025-01-17T17:29:41.550Z</time>
      </trkpt>
      <trkpt lat="46.72723" lon="-1.96846">
        <ele>17</ele>
        <time>2025-01-17T17:29:42.550Z</time>
      </trkpt>
      <trkpt lat="46.72724" lon="-1.96843">
        <ele>17</ele>
        <time>2025-01-17T17:29:43.550Z</time>
      </trkpt>
      <trkpt lat="46.72724" lon="-1.96842">
        <ele>17</ele>
        <time>2025-01-17T17:29:44.551Z</time>
      </trkpt>
      <trkpt lat="46.72723" lon="-1.96841">
        <ele>17</ele>
        <time>2025-01-17T17:29:45.550Z</time>
      </trkpt>
      <trkpt lat="46.72723" lon="-1.96837">
        <ele>17</ele>
        <time>2025-01-17T17:29:46.550Z</time>
      </trkpt>
      <trkpt lat="46.72722" lon="-1.96834">
        <ele>17</ele>
        <time>2025-01-17T17:29:47.550Z</time>
      </trkpt>
      <trkpt lat="46.72722" lon="-1.96832">
        <ele>16.8</ele>
        <time>2025-01-17T17:29:48.551Z</time>
      </trkpt>
      <trkpt lat="46.72723" lon="-1.9683">
        <ele>16.6</ele>
        <time>2025-01-17T17:29:49.550Z</time>
      </trkpt>
      <trkpt lat="46.72724" lon="-1.96827">
        <ele>16.2</ele>
        <time>2025-01-17T17:29:50.551Z</time>
      </trkpt>
      <trkpt lat="46.72726" lon="-1.96824">
        <ele>15.6</ele>
        <time>2025-01-17T17:29:51.551Z</time>
      </trkpt>
      <trkpt lat="46.72728" lon="-1.9682">
        <ele>15.1</ele>
        <time>2025-01-17T17:29:52.551Z</time>
      </trkpt>
      <trkpt lat="46.72729" lon="-1.96817">
        <ele>14.7</ele>
        <time>2025-01-17T17:29:53.551Z</time>
      </trkpt>
      <trkpt lat="46.72729" lon="-1.96812">
        <ele>14.2</ele>
        <time>2025-01-17T17:29:54.550Z</time>
      </trkpt>
      <trkpt lat="46.72731" lon="-1.96808">
        <ele>13.7</ele>
        <time>2025-01-17T17:29:55.551Z</time>
      </trkpt>
      <trkpt lat="46.72733" lon="-1.96804">
        <ele>13.2</ele>
        <time>2025-01-17T17:29:56.550Z</time>
      </trkpt>
      <trkpt lat="46.72736" lon="-1.96801">
        <ele>12.9</ele>
        <time>2025-01-17T17:29:57.550Z</time>
      </trkpt>
      <trkpt lat="46.72738" lon="-1.96798">
        <ele>12.8</ele>
        <time>2025-01-17T17:29:58.551Z</time>
      </trkpt>
      <trkpt lat="46.72739" lon="-1.96794">
        <ele>12.6</ele>
        <time>2025-01-17T17:29:59.551Z</time>
      </trkpt>
      <trkpt lat="46.7274" lon="-1.9679">
        <ele>12.5</ele>
        <time>2025-01-17T17:30:00.551Z</time>
      </trkpt>
      <trkpt lat="46.72739" lon="-1.96787">
        <ele>12.5</ele>
        <time>2025-01-17T17:30:01.550Z</time>
      </trkpt>
      <trkpt lat="46.72737" lon="-1.96783">
        <ele>12.5</ele>
        <time>2025-01-17T17:30:02.550Z</time>
      </trkpt>
      <trkpt lat="46.72736" lon="-1.96779">
        <ele>12.5</ele>
        <time>2025-01-17T17:30:03.550Z</time>
      </trkpt>
      <trkpt lat="46.72736" lon="-1.96775">
        <ele>12.6</ele>
        <time>2025-01-17T17:30:04.550Z</time>
      </trkpt>
      <trkpt lat="46.72736" lon="-1.96771">
        <ele>12.6</ele>
        <time>2025-01-17T17:30:05.550Z</time>
      </trkpt>
      <trkpt lat="46.72736" lon="-1.96768">
        <ele>12.7</ele>
        <time>2025-01-17T17:30:06.551Z</time>
      </trkpt>
      <trkpt lat="46.72734" lon="-1.96764">
        <ele>12.8</ele>
        <time>2025-01-17T17:30:07.551Z</time>
      </trkpt>
      <trkpt lat="46.72732" lon="-1.96762">
        <ele>12.8</ele>
        <time>2025-01-17T17:30:08.550Z</time>
      </trkpt>
      <trkpt lat="46.72729" lon="-1.96761">
        <ele>12.9</ele>
        <time>2025-01-17T17:30:09.551Z</time>
      </trkpt>
      <trkpt lat="46.72727" lon="-1.9676">
        <ele>12.9</ele>
        <time>2025-01-17T17:30:10.551Z</time>
      </trkpt>
      <trkpt lat="46.72727" lon="-1.96758">
        <ele>13</ele>
        <time>2025-01-17T17:30:11.551Z</time>
      </trkpt>
      <trkpt lat="46.72725" lon="-1.96756">
        <ele>13</ele>
        <time>2025-01-17T17:30:12.550Z</time>
      </trkpt>
      <trkpt lat="46.72724" lon="-1.96755">
        <ele>13</ele>
        <time>2025-01-17T17:30:13.551Z</time>
      </trkpt>
      <trkpt lat="46.72722" lon="-1.96754">
        <ele>13</ele>
        <time>2025-01-17T17:30:14.550Z</time>
      </trkpt>
      <trkpt lat="46.7272" lon="-1.96752">
        <ele>13.4</ele>
        <time>2025-01-17T17:30:15.550Z</time>
      </trkpt>
      <trkpt lat="46.72719" lon="-1.96749">
        <ele>13.6</ele>
        <time>2025-01-17T17:30:16.550Z</time>
      </trkpt>
      <trkpt lat="46.72719" lon="-1.96746">
        <ele>13.7</ele>
        <time>2025-01-17T17:30:17.551Z</time>
      </trkpt>
      <trkpt lat="46.72718" lon="-1.96743">
        <ele>13.8</ele>
        <time>2025-01-17T17:30:18.550Z</time>
      </trkpt>
      <trkpt lat="46.72716" lon="-1.9674">
        <ele>14.1</ele>
        <time>2025-01-17T17:30:19.551Z</time>
      </trkpt>
      <trkpt lat="46.72716" lon="-1.96737">
        <ele>14.2</ele>
        <time>2025-01-17T17:30:20.551Z</time>
      </trkpt>
      <trkpt lat="46.72717" lon="-1.96733">
        <ele>14</ele>
        <time>2025-01-17T17:30:21.550Z</time>
      </trkpt>
      <trkpt lat="46.72717" lon="-1.9673">
        <ele>13.9</ele>
        <time>2025-01-17T17:30:22.550Z</time>
      </trkpt>
      <trkpt lat="46.72716" lon="-1.96727">
        <ele>14.1</ele>
        <time>2025-01-17T17:30:23.551Z</time>
      </trkpt>
      <trkpt lat="46.72715" lon="-1.96725">
        <ele>14.3</ele>
        <time>2025-01-17T17:30:24.551Z</time>
      </trkpt>
      <trkpt lat="46.72714" lon="-1.96722">
        <ele>14.6</ele>
        <time>2025-01-17T17:30:25.550Z</time>
      </trkpt>
      <trkpt lat="46.72713" lon="-1.96719">
        <ele>14.7</ele>
        <time>2025-01-17T17:30:26.551Z</time>
      </trkpt>
      <trkpt lat="46.72713" lon="-1.96715">
        <ele>14.7</ele>
        <time>2025-01-17T17:30:27.551Z</time>
      </trkpt>
      <trkpt lat="46.72712" lon="-1.96712">
        <ele>14.9</ele>
        <time>2025-01-17T17:30:28.550Z</time>
      </trkpt>
      <trkpt lat="46.72711" lon="-1.96709">
        <ele>15</ele>
        <time>2025-01-17T17:30:29.551Z</time>
      </trkpt>
      <trkpt lat="46.72711" lon="-1.96707">
        <ele>15</ele>
        <time>2025-01-17T17:30:30.550Z</time>
      </trkpt>
      <trkpt lat="46.72711" lon="-1.96705">
        <ele>15.1</ele>
        <time>2025-01-17T17:30:31.550Z</time>
      </trkpt>
      <trkpt lat="46.72711" lon="-1.96703">
        <ele>15.1</ele>
        <time>2025-01-17T17:30:32.550Z</time>
      </trkpt>
      <trkpt lat="46.72711" lon="-1.96699">
        <ele>15.1</ele>
        <time>2025-01-17T17:30:33.550Z</time>
      </trkpt>
      <trkpt lat="46.72711" lon="-1.96697">
        <ele>15.1</ele>
        <time>2025-01-17T17:30:34.550Z</time>
      </trkpt>
      <trkpt lat="46.72712" lon="-1.96693">
        <ele>14.8</ele>
        <time>2025-01-17T17:30:35.551Z</time>
      </trkpt>
      <trkpt lat="46.72714" lon="-1.9669">
        <ele>14.4</ele>
        <time>2025-01-17T17:30:36.550Z</time>
      </trkpt>
      <trkpt lat="46.72715" lon="-1.96687">
        <ele>14</ele>
        <time>2025-01-17T17:30:37.550Z</time>
      </trkpt>
      <trkpt lat="46.72715" lon="-1.96685">
        <ele>13.9</ele>
        <time>2025-01-17T17:30:38.551Z</time>
      </trkpt>
      <trkpt lat="46.72716" lon="-1.96681">
        <ele>13.6</ele>
        <time>2025-01-17T17:30:39.550Z</time>
      </trkpt>
      <trkpt lat="46.72719" lon="-1.96677">
        <ele>12.9</ele>
        <time>2025-01-17T17:30:40.550Z</time>
      </trkpt>
      <trkpt lat="46.72722" lon="-1.96671">
        <ele>12.2</ele>
        <time>2025-01-17T17:30:41.551Z</time>
      </trkpt>
      <trkpt lat="46.72724" lon="-1.96666">
        <ele>11.9</ele>
        <time>2025-01-17T17:30:42.551Z</time>
      </trkpt>
      <trkpt lat="46.72725" lon="-1.96662">
        <ele>11.8</ele>
        <time>2025-01-17T17:30:43.550Z</time>
      </trkpt>
      <trkpt lat="46.72725" lon="-1.96657">
        <ele>11.8</ele>
        <time>2025-01-17T17:30:44.550Z</time>
      </trkpt>
      <trkpt lat="46.72723" lon="-1.96655">
        <ele>12</ele>
        <time>2025-01-17T17:30:45.550Z</time>
      </trkpt>
      <trkpt lat="46.72722" lon="-1.96653">
        <ele>12</ele>
        <time>2025-01-17T17:30:46.550Z</time>
      </trkpt>
      <trkpt lat="46.72722" lon="-1.96651">
        <ele>12.1</ele>
        <time>2025-01-17T17:30:47.550Z</time>
      </trkpt>
      <trkpt lat="46.72722" lon="-1.96649">
        <ele>12.1</ele>
        <time>2025-01-17T17:30:48.551Z</time>
      </trkpt>
      <trkpt lat="46.72722" lon="-1.96648">
        <ele>12.1</ele>
        <time>2025-01-17T17:30:49.551Z</time>
      </trkpt>
      <trkpt lat="46.72722" lon="-1.96646">
        <ele>12</ele>
        <time>2025-01-17T17:30:50.551Z</time>
      </trkpt>
      <trkpt lat="46.72723" lon="-1.96643">
        <ele>12</ele>
        <time>2025-01-17T17:30:51.551Z</time>
      </trkpt>
      <trkpt lat="46.72723" lon="-1.96641">
        <ele>12</ele>
        <time>2025-01-17T17:30:52.551Z</time>
      </trkpt>
      <trkpt lat="46.72723" lon="-1.96639">
        <ele>11.9</ele>
        <time>2025-01-17T17:30:53.550Z</time>
      </trkpt>
      <trkpt lat="46.72723" lon="-1.96637">
        <ele>11.9</ele>
        <time>2025-01-17T17:30:54.550Z</time>
      </trkpt>
      <trkpt lat="46.72723" lon="-1.96635">
        <ele>12</ele>
        <time>2025-01-17T17:30:55.551Z</time>
      </trkpt>
      <trkpt lat="46.72723" lon="-1.96633">
        <ele>11.9</ele>
        <time>2025-01-17T17:30:56.551Z</time>
      </trkpt>
      <trkpt lat="46.72724" lon="-1.96632">
        <ele>11.9</ele>
        <time>2025-01-17T17:30:57.551Z</time>
      </trkpt>
      <trkpt lat="46.72726" lon="-1.96631">
        <ele>11.8</ele>
        <time>2025-01-17T17:30:58.550Z</time>
      </trkpt>
      <trkpt lat="46.72727" lon="-1.96629">
        <ele>11.8</ele>
        <time>2025-01-17T17:30:59.551Z</time>
      </trkpt>
      <trkpt lat="46.72727" lon="-1.96626">
        <ele>11.8</ele>
        <time>2025-01-17T17:31:00.551Z</time>
      </trkpt>
      <trkpt lat="46.72727" lon="-1.96623">
        <ele>11.9</ele>
        <time>2025-01-17T17:31:01.551Z</time>
      </trkpt>
      <trkpt lat="46.72726" lon="-1.9662">
        <ele>11.9</ele>
        <time>2025-01-17T17:31:02.551Z</time>
      </trkpt>
      <trkpt lat="46.72726" lon="-1.96617">
        <ele>11.9</ele>
        <time>2025-01-17T17:31:03.551Z</time>
      </trkpt>
      <trkpt lat="46.72727" lon="-1.96613">
        <ele>12</ele>
        <time>2025-01-17T17:31:04.550Z</time>
      </trkpt>
      <trkpt lat="46.72727" lon="-1.96611">
        <ele>12</ele>
        <time>2025-01-17T17:31:05.550Z</time>
      </trkpt>
      <trkpt lat="46.72727" lon="-1.96609">
        <ele>12.1</ele>
        <time>2025-01-17T17:31:06.550Z</time>
      </trkpt>
      <trkpt lat="46.72727" lon="-1.96606">
        <ele>12.1</ele>
        <time>2025-01-17T17:31:07.550Z</time>
      </trkpt>
      <trkpt lat="46.72726" lon="-1.96605">
        <ele>12.2</ele>
        <time>2025-01-17T17:31:08.551Z</time>
      </trkpt>
      <trkpt lat="46.72725" lon="-1.96602">
        <ele>12.3</ele>
        <time>2025-01-17T17:31:09.551Z</time>
      </trkpt>
      <trkpt lat="46.72724" lon="-1.96601">
        <ele>12.4</ele>
        <time>2025-01-17T17:31:10.551Z</time>
      </trkpt>
      <trkpt lat="46.72722" lon="-1.966">
        <ele>12.4</ele>
        <time>2025-01-17T17:31:11.551Z</time>
      </trkpt>
      <trkpt lat="46.72721" lon="-1.96599">
        <ele>12.6</ele>
        <time>2025-01-17T17:31:12.550Z</time>
      </trkpt>
      <trkpt lat="46.7272" lon="-1.96599">
        <ele>12.7</ele>
        <time>2025-01-17T17:31:13.551Z</time>
      </trkpt>
      <trkpt lat="46.72718" lon="-1.96599">
        <ele>12.8</ele>
        <time>2025-01-17T17:31:14.550Z</time>
      </trkpt>
      <trkpt lat="46.72717" lon="-1.96598">
        <ele>12.9</ele>
        <time>2025-01-17T17:31:15.550Z</time>
      </trkpt>
      <trkpt lat="46.72715" lon="-1.96597">
        <ele>13.1</ele>
        <time>2025-01-17T17:31:16.550Z</time>
      </trkpt>
      <trkpt lat="46.72713" lon="-1.96597">
        <ele>13.4</ele>
        <time>2025-01-17T17:31:17.551Z</time>
      </trkpt>
      <trkpt lat="46.72711" lon="-1.96597">
        <ele>13.5</ele>
        <time>2025-01-17T17:31:18.551Z</time>
      </trkpt>
      <trkpt lat="46.72711" lon="-1.96596">
        <ele>13.6</ele>
        <time>2025-01-17T17:31:19.550Z</time>
      </trkpt>
      <trkpt lat="46.7271" lon="-1.96596">
        <ele>13.7</ele>
        <time>2025-01-17T17:31:20.550Z</time>
      </trkpt>
      <trkpt lat="46.72709" lon="-1.96596">
        <ele>13.8</ele>
        <time>2025-01-17T17:31:21.550Z</time>
      </trkpt>
      <trkpt lat="46.72708" lon="-1.96595">
        <ele>13.9</ele>
        <time>2025-01-17T17:31:22.551Z</time>
      </trkpt>
      <trkpt lat="46.72707" lon="-1.96594">
        <ele>14</ele>
        <time>2025-01-17T17:31:23.551Z</time>
      </trkpt>
      <trkpt lat="46.72706" lon="-1.96594">
        <ele>14.1</ele>
        <time>2025-01-17T17:31:24.551Z</time>
      </trkpt>
      <trkpt lat="46.72705" lon="-1.96594">
        <ele>14.3</ele>
        <time>2025-01-17T17:31:25.551Z</time>
      </trkpt>
      <trkpt lat="46.72704" lon="-1.96593">
        <ele>14.4</ele>
        <time>2025-01-17T17:31:26.550Z</time>
      </trkpt>
      <trkpt lat="46.72704" lon="-1.96593">
        <ele>14.4</ele>
        <time>2025-01-17T17:31:27.550Z</time>
      </trkpt>
      <trkpt lat="46.72703" lon="-1.96593">
        <ele>14.5</ele>
        <time>2025-01-17T17:31:28.550Z</time>
      </trkpt>
      <trkpt lat="46.72703" lon="-1.96593">
        <ele>14.5</ele>
        <time>2025-01-17T17:31:29.550Z</time>
      </trkpt>
      <trkpt lat="46.72701" lon="-1.96594">
        <ele>14.6</ele>
        <time>2025-01-17T17:31:30.551Z</time>
      </trkpt>
      <trkpt lat="46.72701" lon="-1.96593">
        <ele>14.6</ele>
        <time>2025-01-17T17:31:31.551Z</time>
      </trkpt>
      <trkpt lat="46.72701" lon="-1.96593">
        <ele>14.7</ele>
        <time>2025-01-17T17:31:32.551Z</time>
      </trkpt>
      <trkpt lat="46.72701" lon="-1.96594">
        <ele>14.7</ele>
        <time>2025-01-17T17:31:33.550Z</time>
      </trkpt>
      <trkpt lat="46.72698" lon="-1.96597">
        <ele>14.8</ele>
        <time>2025-01-17T17:31:34.550Z</time>
      </trkpt>
      <trkpt lat="46.72695" lon="-1.96598">
        <ele>14.9</ele>
        <time>2025-01-17T17:31:35.550Z</time>
      </trkpt>
      <trkpt lat="46.72694" lon="-1.96597">
        <ele>15</ele>
        <time>2025-01-17T17:31:36.550Z</time>
      </trkpt>
      <trkpt lat="46.72692" lon="-1.96597">
        <ele>15</ele>
        <time>2025-01-17T17:31:37.550Z</time>
      </trkpt>
      <trkpt lat="46.72691" lon="-1.96597">
        <ele>14.9</ele>
        <time>2025-01-17T17:31:38.550Z</time>
      </trkpt>
      <trkpt lat="46.7269" lon="-1.96597">
        <ele>14.9</ele>
        <time>2025-01-17T17:31:39.550Z</time>
      </trkpt>
      <trkpt lat="46.72689" lon="-1.96597">
        <ele>14.9</ele>
        <time>2025-01-17T17:31:40.550Z</time>
      </trkpt>
      <trkpt lat="46.72689" lon="-1.96596">
        <ele>15</ele>
        <time>2025-01-17T17:31:41.550Z</time>
      </trkpt>
      <trkpt lat="46.72689" lon="-1.96593">
        <ele>15.1</ele>
        <time>2025-01-17T17:31:42.550Z</time>
      </trkpt>
      <trkpt lat="46.72688" lon="-1.96591">
        <ele>15.2</ele>
        <time>2025-01-17T17:31:43.551Z</time>
      </trkpt>
      <trkpt lat="46.72686" lon="-1.9659">
        <ele>15.1</ele>
        <time>2025-01-17T17:31:44.550Z</time>
      </trkpt>
      <trkpt lat="46.72685" lon="-1.96589">
        <ele>15.1</ele>
        <time>2025-01-17T17:31:45.550Z</time>
      </trkpt>
      <trkpt lat="46.72684" lon="-1.96588">
        <ele>15.1</ele>
        <time>2025-01-17T17:31:46.550Z</time>
      </trkpt>
      <trkpt lat="46.72683" lon="-1.96587">
        <ele>15.1</ele>
        <time>2025-01-17T17:31:47.551Z</time>
      </trkpt>
      <trkpt lat="46.72681" lon="-1.96587">
        <ele>15</ele>
        <time>2025-01-17T17:31:48.551Z</time>
      </trkpt>
      <trkpt lat="46.7268" lon="-1.96587">
        <ele>14.9</ele>
        <time>2025-01-17T17:31:49.551Z</time>
      </trkpt>
      <trkpt lat="46.72679" lon="-1.96587">
        <ele>14.9</ele>
        <time>2025-01-17T17:31:50.550Z</time>
      </trkpt>
      <trkpt lat="46.72679" lon="-1.96586">
        <ele>14.9</ele>
        <time>2025-01-17T17:31:51.551Z</time>
      </trkpt>
      <trkpt lat="46.72686" lon="-1.96594">
        <ele>15</ele>
      </trkpt>
      <trkpt lat="46.72693" lon="-1.96601">
        <ele>14.7</ele>
      </trkpt>
      <trkpt lat="46.727" lon="-1.96608">
        <ele>13.8</ele>
      </trkpt>
      <trkpt lat="46.72707" lon="-1.96615">
        <ele>13.3</ele>
      </trkpt>
      <trkpt lat="46.72713" lon="-1.96622">
        <ele>12.9</ele>
      </trkpt>
      <trkpt lat="46.7272" lon="-1.9663">
        <ele>12.2</ele>
      </trkpt>
      <trkpt lat="46.72727" lon="-1.96637">
        <ele>11.7</ele>
      </trkpt>
      <trkpt lat="46.72734" lon="-1.96644">
        <ele>11.2</ele>
        <time>2025-01-17T17:33:59.292Z</time>
      </trkpt>
      <trkpt lat="46.72734" lon="-1.96642">
        <ele>11.1</ele>
        <time>2025-01-17T17:34:00.291Z</time>
      </trkpt>
      <trkpt lat="46.72731" lon="-1.96642">
        <ele>11.3</ele>
        <time>2025-01-17T17:34:01.292Z</time>
      </trkpt>
      <trkpt lat="46.7273" lon="-1.96642">
        <ele>11.5</ele>
        <time>2025-01-17T17:34:02.291Z</time>
      </trkpt>
      <trkpt lat="46.72727" lon="-1.96644">
        <ele>11.7</ele>
        <time>2025-01-17T17:34:03.292Z</time>
      </trkpt>
      <trkpt lat="46.72725" lon="-1.96644">
        <ele>11.8</ele>
        <time>2025-01-17T17:34:04.292Z</time>
      </trkpt>
      <trkpt lat="46.72723" lon="-1.96643">
        <ele>11.9</ele>
        <time>2025-01-17T17:34:05.292Z</time>
      </trkpt>
      <trkpt lat="46.72722" lon="-1.96643">
        <ele>12</ele>
        <time>2025-01-17T17:34:06.291Z</time>
      </trkpt>
      <trkpt lat="46.7272" lon="-1.96644">
        <ele>12.3</ele>
        <time>2025-01-17T17:34:07.292Z</time>
      </trkpt>
      <trkpt lat="46.7272" lon="-1.96644">
        <ele>12.4</ele>
        <time>2025-01-17T17:34:08.292Z</time>
      </trkpt>
      <trkpt lat="46.7272" lon="-1.96643">
        <ele>12.4</ele>
        <time>2025-01-17T17:34:09.291Z</time>
      </trkpt>
      <trkpt lat="46.72719" lon="-1.96643">
        <ele>12.5</ele>
        <time>2025-01-17T17:34:10.291Z</time>
      </trkpt>
      <trkpt lat="46.72719" lon="-1.96642">
        <ele>12.4</ele>
        <time>2025-01-17T17:34:11.292Z</time>
      </trkpt>
      <trkpt lat="46.72719" lon="-1.9664">
        <ele>12.4</ele>
        <time>2025-01-17T17:34:12.292Z</time>
      </trkpt>
      <trkpt lat="46.7272" lon="-1.96639">
        <ele>12.4</ele>
        <time>2025-01-17T17:34:13.291Z</time>
      </trkpt>
      <trkpt lat="46.72719" lon="-1.96638">
        <ele>12.4</ele>
        <time>2025-01-17T17:34:14.292Z</time>
      </trkpt>
      <trkpt lat="46.72719" lon="-1.96636">
        <ele>12.4</ele>
        <time>2025-01-17T17:34:15.292Z</time>
      </trkpt>
      <trkpt lat="46.72719" lon="-1.96634">
        <ele>12.4</ele>
        <time>2025-01-17T17:34:16.292Z</time>
      </trkpt>
      <trkpt lat="46.72718" lon="-1.96633">
        <ele>12.5</ele>
        <time>2025-01-17T17:34:17.291Z</time>
      </trkpt>
      <trkpt lat="46.72718" lon="-1.96631">
        <ele>12.6</ele>
        <time>2025-01-17T17:34:18.291Z</time>
      </trkpt>
      <trkpt lat="46.72718" lon="-1.96628">
        <ele>12.5</ele>
        <time>2025-01-17T17:34:19.291Z</time>
      </trkpt>
      <trkpt lat="46.72719" lon="-1.96626">
        <ele>12.4</ele>
        <time>2025-01-17T17:34:20.291Z</time>
      </trkpt>
      <trkpt lat="46.72718" lon="-1.96624">
        <ele>12.4</ele>
        <time>2025-01-17T17:34:21.291Z</time>
      </trkpt>
      <trkpt lat="46.72718" lon="-1.96623">
        <ele>12.4</ele>
        <time>2025-01-17T17:34:22.292Z</time>
      </trkpt>
      <trkpt lat="46.72717" lon="-1.96624">
        <ele>12.6</ele>
        <time>2025-01-17T17:34:23.292Z</time>
      </trkpt>
      <trkpt lat="46.72716" lon="-1.96625">
        <ele>12.7</ele>
        <time>2025-01-17T17:34:24.291Z</time>
      </trkpt>
      <trkpt lat="46.72715" lon="-1.96625">
        <ele>12.8</ele>
        <time>2025-01-17T17:34:25.292Z</time>
      </trkpt>
      <trkpt lat="46.72715" lon="-1.96626">
        <ele>12.8</ele>
        <time>2025-01-17T17:34:26.291Z</time>
      </trkpt>
      <trkpt lat="46.72715" lon="-1.96627">
        <ele>12.8</ele>
        <time>2025-01-17T17:34:27.291Z</time>
      </trkpt>
      <trkpt lat="46.72716" lon="-1.96627">
        <ele>12.7</ele>
        <time>2025-01-17T17:34:28.292Z</time>
      </trkpt>
      <trkpt lat="46.72717" lon="-1.96628">
        <ele>12.7</ele>
        <time>2025-01-17T17:34:29.292Z</time>
      </trkpt>
      <trkpt lat="46.72718" lon="-1.96628">
        <ele>12.6</ele>
        <time>2025-01-17T17:34:30.292Z</time>
      </trkpt>
      <trkpt lat="46.72719" lon="-1.96628">
        <ele>12.4</ele>
        <time>2025-01-17T17:34:31.291Z</time>
      </trkpt>
      <trkpt lat="46.72719" lon="-1.96628">
        <ele>12.4</ele>
        <time>2025-01-17T17:34:32.292Z</time>
      </trkpt>
      <trkpt lat="46.72719" lon="-1.96629">
        <ele>12.4</ele>
        <time>2025-01-17T17:34:33.292Z</time>
      </trkpt>
      <trkpt lat="46.72719" lon="-1.96629">
        <ele>12.4</ele>
        <time>2025-01-17T17:34:34.292Z</time>
      </trkpt>
      <trkpt lat="46.7272" lon="-1.96627">
        <ele>12.2</ele>
        <time>2025-01-17T17:34:35.291Z</time>
      </trkpt>
      <trkpt lat="46.7272" lon="-1.96624">
        <ele>12.2</ele>
        <time>2025-01-17T17:34:36.291Z</time>
      </trkpt>
      <trkpt lat="46.7272" lon="-1.96621">
        <ele>12.2</ele>
        <time>2025-01-17T17:34:37.291Z</time>
      </trkpt>
      <trkpt lat="46.7272" lon="-1.96619">
        <ele>12.2</ele>
        <time>2025-01-17T17:34:38.291Z</time>
      </trkpt>
      <trkpt lat="46.7272" lon="-1.96618">
        <ele>12.2</ele>
        <time>2025-01-17T17:34:39.292Z</time>
      </trkpt>
      <trkpt lat="46.72719" lon="-1.96617">
        <ele>12.3</ele>
        <time>2025-01-17T17:34:40.291Z</time>
      </trkpt>
      <trkpt lat="46.72719" lon="-1.96616">
        <ele>12.3</ele>
        <time>2025-01-17T17:34:41.292Z</time>
      </trkpt>
      <trkpt lat="46.72719" lon="-1.96615">
        <ele>12.3</ele>
        <time>2025-01-17T17:34:42.291Z</time>
      </trkpt>
      <trkpt lat="46.72719" lon="-1.96613">
        <ele>12.3</ele>
        <time>2025-01-17T17:34:43.291Z</time>
      </trkpt>
      <trkpt lat="46.72717" lon="-1.96612">
        <ele>12.4</ele>
        <time>2025-01-17T17:34:44.291Z</time>
      </trkpt>
      <trkpt lat="46.72715" lon="-1.96611">
        <ele>12.5</ele>
        <time>2025-01-17T17:34:45.291Z</time>
      </trkpt>
      <trkpt lat="46.72714" lon="-1.9661">
        <ele>12.7</ele>
        <time>2025-01-17T17:34:46.291Z</time>
      </trkpt>
      <trkpt lat="46.72713" lon="-1.96609">
        <ele>12.8</ele>
        <time>2025-01-17T17:34:47.292Z</time>
      </trkpt>
      <trkpt lat="46.72712" lon="-1.96607">
        <ele>12.9</ele>
        <time>2025-01-17T17:34:48.292Z</time>
      </trkpt>
      <trkpt lat="46.72712" lon="-1.96605">
        <ele>13</ele>
        <time>2025-01-17T17:34:49.292Z</time>
      </trkpt>
      <trkpt lat="46.72712" lon="-1.96604">
        <ele>13.1</ele>
        <time>2025-01-17T17:34:50.292Z</time>
      </trkpt>
      <trkpt lat="46.72712" lon="-1.96603">
        <ele>13.1</ele>
        <time>2025-01-17T17:34:51.292Z</time>
      </trkpt>
      <trkpt lat="46.7271" lon="-1.96604">
        <ele>13.3</ele>
        <time>2025-01-17T17:34:52.291Z</time>
      </trkpt>
      <trkpt lat="46.72708" lon="-1.96603">
        <ele>13.5</ele>
        <time>2025-01-17T17:34:53.292Z</time>
      </trkpt>
      <trkpt lat="46.72706" lon="-1.96602">
        <ele>13.7</ele>
        <time>2025-01-17T17:34:54.291Z</time>
      </trkpt>
      <trkpt lat="46.72704" lon="-1.96602">
        <ele>13.8</ele>
        <time>2025-01-17T17:34:55.292Z</time>
      </trkpt>
      <trkpt lat="46.72703" lon="-1.96602">
        <ele>14</ele>
        <time>2025-01-17T17:34:56.292Z</time>
      </trkpt>
      <trkpt lat="46.72702" lon="-1.96602">
        <ele>14.1</ele>
        <time>2025-01-17T17:34:57.291Z</time>
      </trkpt>
      <trkpt lat="46.72701" lon="-1.96601">
        <ele>14.2</ele>
        <time>2025-01-17T17:34:58.291Z</time>
      </trkpt>
      <trkpt lat="46.727" lon="-1.96599">
        <ele>14.3</ele>
        <time>2025-01-17T17:34:59.291Z</time>
      </trkpt>
      <trkpt lat="46.72699" lon="-1.96599">
        <ele>14.5</ele>
        <time>2025-01-17T17:35:00.291Z</time>
      </trkpt>
      <trkpt lat="46.72697" lon="-1.96599">
        <ele>14.7</ele>
        <time>2025-01-17T17:35:01.292Z</time>
      </trkpt>
      <trkpt lat="46.72695" lon="-1.96599">
        <ele>14.8</ele>
        <time>2025-01-17T17:35:02.292Z</time>
      </trkpt>
      <trkpt lat="46.72694" lon="-1.96599">
        <ele>14.8</ele>
        <time>2025-01-17T17:35:03.292Z</time>
      </trkpt>
      <trkpt lat="46.72692" lon="-1.966">
        <ele>14.8</ele>
        <time>2025-01-17T17:35:04.292Z</time>
      </trkpt>
      <trkpt lat="46.72691" lon="-1.96599">
        <ele>14.9</ele>
        <time>2025-01-17T17:35:05.292Z</time>
      </trkpt>
      <trkpt lat="46.72695" lon="-1.96591">
        <ele>15.4</ele>
        <time>2025-01-17T17:35:06.291Z</time>
      </trkpt>
      <trkpt lat="46.72695" lon="-1.96588">
        <ele>15.6</ele>
        <time>2025-01-17T17:35:07.292Z</time>
      </trkpt>
      <trkpt lat="46.72694" lon="-1.96587">
        <ele>15.7</ele>
        <time>2025-01-17T17:35:08.292Z</time>
      </trkpt>
      <trkpt lat="46.72693" lon="-1.96587">
        <ele>15.7</ele>
        <time>2025-01-17T17:35:09.291Z</time>
      </trkpt>
      <trkpt lat="46.7269" lon="-1.96588">
        <ele>15.4</ele>
        <time>2025-01-17T17:35:10.292Z</time>
      </trkpt>
      <trkpt lat="46.72688" lon="-1.96588">
        <ele>15.3</ele>
        <time>2025-01-17T17:35:11.292Z</time>
      </trkpt>
      <trkpt lat="46.72688" lon="-1.96588">
        <ele>15.3</ele>
        <time>2025-01-17T17:35:12.292Z</time>
      </trkpt>
      <trkpt lat="46.72687" lon="-1.96588">
        <ele>15.3</ele>
        <time>2025-01-17T17:35:13.292Z</time>
      </trkpt>
      <trkpt lat="46.72687" lon="-1.96588">
        <ele>15.3</ele>
        <time>2025-01-17T17:35:14.292Z</time>
      </trkpt>
      <trkpt lat="46.72686" lon="-1.96588">
        <ele>15.2</ele>
        <time>2025-01-17T17:35:15.291Z</time>
      </trkpt>
      <trkpt lat="46.72684" lon="-1.96588">
        <ele>15.1</ele>
        <time>2025-01-17T17:35:16.291Z</time>
      </trkpt>
      <trkpt lat="46.72683" lon="-1.96587">
        <ele>15.1</ele>
        <time>2025-01-17T17:35:17.291Z</time>
      </trkpt>
      <trkpt lat="46.72682" lon="-1.96588">
        <ele>15</ele>
        <time>2025-01-17T17:35:18.291Z</time>
      </trkpt>
      <trkpt lat="46.7268" lon="-1.96589">
        <ele>14.9</ele>
        <time>2025-01-17T17:35:19.292Z</time>
      </trkpt>
      <trkpt lat="46.72679" lon="-1.96589">
        <ele>14.8</ele>
        <time>2025-01-17T17:35:20.292Z</time>
      </trkpt>
      <trkpt lat="46.72678" lon="-1.9659">
        <ele>14.7</ele>
        <time>2025-01-17T17:35:21.292Z</time>
      </trkpt>
      <trkpt lat="46.72676" lon="-1.9659">
        <ele>14.7</ele>
        <time>2025-01-17T17:35:22.292Z</time>
      </trkpt>
      <trkpt lat="46.72676" lon="-1.9659">
        <ele>14.6</ele>
        <time>2025-01-17T17:35:23.292Z</time>
      </trkpt>
      <trkpt lat="46.72675" lon="-1.9659">
        <ele>14.6</ele>
        <time>2025-01-17T17:35:24.291Z</time>
      </trkpt>
      <trkpt lat="46.72674" lon="-1.9659">
        <ele>14.6</ele>
        <time>2025-01-17T17:35:25.291Z</time>
      </trkpt>
      <trkpt lat="46.72674" lon="-1.96589">
        <ele>14.6</ele>
        <time>2025-01-17T17:35:26.291Z</time>
      </trkpt>
      <trkpt lat="46.72673" lon="-1.96589">
        <ele>14.5</ele>
        <time>2025-01-17T17:35:27.291Z</time>
      </trkpt>
      <trkpt lat="46.72673" lon="-1.9659">
        <ele>14.5</ele>
        <time>2025-01-17T17:35:28.291Z</time>
      </trkpt>
      <trkpt lat="46.72672" lon="-1.9659">
        <ele>14.5</ele>
        <time>2025-01-17T17:35:29.292Z</time>
      </trkpt>
      <trkpt lat="46.72673" lon="-1.9659">
        <ele>14.5</ele>
        <time>2025-01-17T17:35:30.291Z</time>
      </trkpt>
      <trkpt lat="46.72673" lon="-1.96589">
        <ele>14.5</ele>
        <time>2025-01-17T17:35:31.291Z</time>
      </trkpt>
      <trkpt lat="46.72673" lon="-1.96589">
        <ele>14.5</ele>
        <time>2025-01-17T17:35:32.291Z</time>
      </trkpt>
      <trkpt lat="46.72672" lon="-1.96589">
        <ele>14.5</ele>
        <time>2025-01-17T17:35:33.292Z</time>
      </trkpt>
      <trkpt lat="46.72673" lon="-1.96587">
        <ele>14.5</ele>
        <time>2025-01-17T17:35:34.292Z</time>
      </trkpt>
      <trkpt lat="46.72674" lon="-1.96584">
        <ele>14.6</ele>
        <time>2025-01-17T17:35:35.292Z</time>
      </trkpt>
      <trkpt lat="46.72675" lon="-1.96582">
        <ele>14.4</ele>
        <time>2025-01-17T17:35:36.291Z</time>
      </trkpt>
      <trkpt lat="46.72675" lon="-1.96581">
        <ele>14.3</ele>
        <time>2025-01-17T17:35:37.292Z</time>
      </trkpt>
      <trkpt lat="46.72675" lon="-1.9658">
        <ele>14.2</ele>
        <time>2025-01-17T17:35:38.291Z</time>
      </trkpt>
      <trkpt lat="46.72674" lon="-1.96579">
        <ele>13.9</ele>
        <time>2025-01-17T17:35:39.291Z</time>
      </trkpt>
      <trkpt lat="46.72672" lon="-1.96578">
        <ele>13.6</ele>
        <time>2025-01-17T17:35:40.291Z</time>
      </trkpt>
      <trkpt lat="46.7267" lon="-1.96578">
        <ele>13.4</ele>
        <time>2025-01-17T17:35:41.291Z</time>
      </trkpt>
      <trkpt lat="46.72668" lon="-1.96578">
        <ele>13.4</ele>
        <time>2025-01-17T17:35:42.292Z</time>
      </trkpt>
      <trkpt lat="46.72666" lon="-1.96579">
        <ele>13.3</ele>
        <time>2025-01-17T17:35:43.292Z</time>
      </trkpt>
      <trkpt lat="46.72666" lon="-1.96579">
        <ele>13.3</ele>
        <time>2025-01-17T17:35:44.291Z</time>
      </trkpt>
      <trkpt lat="46.72665" lon="-1.96579">
        <ele>13.3</ele>
        <time>2025-01-17T17:35:45.291Z</time>
      </trkpt>
      <trkpt lat="46.72664" lon="-1.96579">
        <ele>13.4</ele>
        <time>2025-01-17T17:35:46.291Z</time>
      </trkpt>
      <trkpt lat="46.72664" lon="-1.96579">
        <ele>13.3</ele>
        <time>2025-01-17T17:35:47.292Z</time>
      </trkpt>
      <trkpt lat="46.72664" lon="-1.96579">
        <ele>13.4</ele>
        <time>2025-01-17T17:35:48.291Z</time>
      </trkpt>
      <trkpt lat="46.72664" lon="-1.9658">
        <ele>13.5</ele>
        <time>2025-01-17T17:35:49.292Z</time>
      </trkpt>
      <trkpt lat="46.72664" lon="-1.96581">
        <ele>13.7</ele>
        <time>2025-01-17T17:35:50.291Z</time>
      </trkpt>
      <trkpt lat="46.72662" lon="-1.96583">
        <ele>14</ele>
        <time>2025-01-17T17:35:51.292Z</time>
      </trkpt>
      <trkpt lat="46.72662" lon="-1.96584">
        <ele>14</ele>
        <time>2025-01-17T17:35:52.291Z</time>
      </trkpt>
      <trkpt lat="46.72661" lon="-1.96585">
        <ele>14.1</ele>
        <time>2025-01-17T17:35:53.291Z</time>
      </trkpt>
      <trkpt lat="46.7266" lon="-1.96585">
        <ele>14.1</ele>
        <time>2025-01-17T17:35:54.291Z</time>
      </trkpt>
      <trkpt lat="46.72658" lon="-1.96585">
        <ele>14.1</ele>
        <time>2025-01-17T17:35:55.291Z</time>
      </trkpt>
      <trkpt lat="46.72657" lon="-1.96584">
        <ele>14</ele>
        <time>2025-01-17T17:35:56.292Z</time>
      </trkpt>
      <trkpt lat="46.72656" lon="-1.96584">
        <ele>14</ele>
        <time>2025-01-17T17:35:57.291Z</time>
      </trkpt>
      <trkpt lat="46.72656" lon="-1.96583">
        <ele>13.9</ele>
        <time>2025-01-17T17:35:58.291Z</time>
      </trkpt>
      <trkpt lat="46.72656" lon="-1.96582">
        <ele>13.7</ele>
        <time>2025-01-17T17:35:59.292Z</time>
      </trkpt>
      <trkpt lat="46.72655" lon="-1.9658">
        <ele>13.5</ele>
        <time>2025-01-17T17:36:00.292Z</time>
      </trkpt>
      <trkpt lat="46.72653" lon="-1.96579">
        <ele>13.3</ele>
        <time>2025-01-17T17:36:01.292Z</time>
      </trkpt>
      <trkpt lat="46.72651" lon="-1.96578">
        <ele>13</ele>
        <time>2025-01-17T17:36:02.292Z</time>
      </trkpt>
      <trkpt lat="46.72647" lon="-1.96577">
        <ele>13</ele>
        <time>2025-01-17T17:36:03.292Z</time>
      </trkpt>
      <trkpt lat="46.72645" lon="-1.96578">
        <ele>13</ele>
        <time>2025-01-17T17:36:04.291Z</time>
      </trkpt>
      <trkpt lat="46.72644" lon="-1.96577">
        <ele>12.9</ele>
        <time>2025-01-17T17:36:05.291Z</time>
      </trkpt>
      <trkpt lat="46.72643" lon="-1.96576">
        <ele>12.8</ele>
        <time>2025-01-17T17:36:06.291Z</time>
      </trkpt>
      <trkpt lat="46.72641" lon="-1.96575">
        <ele>12.5</ele>
        <time>2025-01-17T17:36:07.291Z</time>
      </trkpt>
      <trkpt lat="46.72639" lon="-1.96575">
        <ele>12.5</ele>
        <time>2025-01-17T17:36:08.292Z</time>
      </trkpt>
      <trkpt lat="46.72639" lon="-1.96574">
        <ele>12.3</ele>
        <time>2025-01-17T17:36:09.292Z</time>
      </trkpt>
      <trkpt lat="46.72637" lon="-1.96573">
        <ele>12.1</ele>
        <time>2025-01-17T17:36:10.292Z</time>
      </trkpt>
      <trkpt lat="46.72635" lon="-1.96573">
        <ele>11.9</ele>
        <time>2025-01-17T17:36:11.292Z</time>
      </trkpt>
      <trkpt lat="46.72634" lon="-1.96572">
        <ele>11.8</ele>
        <time>2025-01-17T17:36:12.291Z</time>
      </trkpt>
      <trkpt lat="46.72633" lon="-1.96571">
        <ele>11.5</ele>
        <time>2025-01-17T17:36:13.292Z</time>
      </trkpt>
      <trkpt lat="46.72632" lon="-1.9657">
        <ele>11.3</ele>
        <time>2025-01-17T17:36:14.291Z</time>
      </trkpt>
      <trkpt lat="46.72631" lon="-1.96568">
        <ele>11</ele>
        <time>2025-01-17T17:36:15.291Z</time>
      </trkpt>
      <trkpt lat="46.7263" lon="-1.96567">
        <ele>10.8</ele>
        <time>2025-01-17T17:36:16.291Z</time>
      </trkpt>
      <trkpt lat="46.7263" lon="-1.96566">
        <ele>10.5</ele>
        <time>2025-01-17T17:36:17.292Z</time>
      </trkpt>
      <trkpt lat="46.72629" lon="-1.96565">
        <ele>10.3</ele>
        <time>2025-01-17T17:36:18.292Z</time>
      </trkpt>
      <trkpt lat="46.72629" lon="-1.96564">
        <ele>10.1</ele>
        <time>2025-01-17T17:36:19.292Z</time>
      </trkpt>
      <trkpt lat="46.72628" lon="-1.96563">
        <ele>10</ele>
        <time>2025-01-17T17:36:20.292Z</time>
      </trkpt>
      <trkpt lat="46.72628" lon="-1.96563">
        <ele>9.9</ele>
        <time>2025-01-17T17:36:21.291Z</time>
      </trkpt>
      <trkpt lat="46.72628" lon="-1.96563">
        <ele>9.9</ele>
        <time>2025-01-17T17:36:22.291Z</time>
      </trkpt>
      <trkpt lat="46.72627" lon="-1.96564">
        <ele>10</ele>
        <time>2025-01-17T17:36:23.291Z</time>
      </trkpt>
      <trkpt lat="46.72628" lon="-1.96565">
        <ele>10.2</ele>
        <time>2025-01-17T17:36:24.291Z</time>
      </trkpt>
      <trkpt lat="46.72629" lon="-1.96565">
        <ele>10.4</ele>
        <time>2025-01-17T17:36:25.292Z</time>
      </trkpt>
      <trkpt lat="46.72628" lon="-1.96568">
        <ele>10.8</ele>
        <time>2025-01-17T17:36:26.292Z</time>
      </trkpt>
      <trkpt lat="46.72628" lon="-1.9657">
        <ele>11.2</ele>
        <time>2025-01-17T17:36:27.292Z</time>
      </trkpt>
      <trkpt lat="46.72627" lon="-1.96572">
        <ele>11.5</ele>
        <time>2025-01-17T17:36:28.291Z</time>
      </trkpt>
      <trkpt lat="46.72628" lon="-1.96574">
        <ele>11.9</ele>
        <time>2025-01-17T17:36:29.292Z</time>
      </trkpt>
      <trkpt lat="46.72628" lon="-1.96576">
        <ele>12.2</ele>
        <time>2025-01-17T17:36:30.292Z</time>
      </trkpt>
      <trkpt lat="46.72627" lon="-1.96577">
        <ele>12.5</ele>
        <time>2025-01-17T17:36:31.292Z</time>
      </trkpt>
      <trkpt lat="46.72627" lon="-1.96579">
        <ele>12.8</ele>
        <time>2025-01-17T17:36:32.291Z</time>
      </trkpt>
      <trkpt lat="46.72627" lon="-1.96581">
        <ele>13.2</ele>
        <time>2025-01-17T17:36:33.292Z</time>
      </trkpt>
      <trkpt lat="46.72628" lon="-1.96584">
        <ele>13.6</ele>
        <time>2025-01-17T17:36:34.291Z</time>
      </trkpt>
      <trkpt lat="46.72629" lon="-1.96585">
        <ele>13.8</ele>
        <time>2025-01-17T17:36:35.291Z</time>
      </trkpt>
      <trkpt lat="46.72629" lon="-1.96587">
        <ele>14</ele>
        <time>2025-01-17T17:36:36.292Z</time>
      </trkpt>
      <trkpt lat="46.72629" lon="-1.96589">
        <ele>14.2</ele>
        <time>2025-01-17T17:36:37.292Z</time>
      </trkpt>
      <trkpt lat="46.72629" lon="-1.96592">
        <ele>14.5</ele>
        <time>2025-01-17T17:36:38.292Z</time>
      </trkpt>
      <trkpt lat="46.72631" lon="-1.96594">
        <ele>14.7</ele>
        <time>2025-01-17T17:36:39.292Z</time>
      </trkpt>
      <trkpt lat="46.72633" lon="-1.96594">
        <ele>14.7</ele>
        <time>2025-01-17T17:36:40.292Z</time>
      </trkpt>
      <trkpt lat="46.72634" lon="-1.96596">
        <ele>14.9</ele>
        <time>2025-01-17T17:36:41.291Z</time>
      </trkpt>
      <trkpt lat="46.72634" lon="-1.96599">
        <ele>15.1</ele>
        <time>2025-01-17T17:36:42.291Z</time>
      </trkpt>
      <trkpt lat="46.72634" lon="-1.96601">
        <ele>15.3</ele>
        <time>2025-01-17T17:36:43.291Z</time>
      </trkpt>
      <trkpt lat="46.72633" lon="-1.96604">
        <ele>15.6</ele>
        <time>2025-01-17T17:36:44.292Z</time>
      </trkpt>
      <trkpt lat="46.72633" lon="-1.96607">
        <ele>15.8</ele>
        <time>2025-01-17T17:36:45.292Z</time>
      </trkpt>
      <trkpt lat="46.72632" lon="-1.96609">
        <ele>16</ele>
        <time>2025-01-17T17:36:46.292Z</time>
      </trkpt>
      <trkpt lat="46.72632" lon="-1.96611">
        <ele>16.2</ele>
        <time>2025-01-17T17:36:47.292Z</time>
      </trkpt>
      <trkpt lat="46.72631" lon="-1.96614">
        <ele>16.4</ele>
        <time>2025-01-17T17:36:48.292Z</time>
      </trkpt>
      <trkpt lat="46.7263" lon="-1.96616">
        <ele>16.5</ele>
        <time>2025-01-17T17:36:49.291Z</time>
      </trkpt>
      <trkpt lat="46.72628" lon="-1.96618">
        <ele>16.6</ele>
        <time>2025-01-17T17:36:50.292Z</time>
      </trkpt>
      <trkpt lat="46.72626" lon="-1.9662">
        <ele>16.8</ele>
        <time>2025-01-17T17:36:51.291Z</time>
      </trkpt>
      <trkpt lat="46.72624" lon="-1.96622">
        <ele>16.9</ele>
        <time>2025-01-17T17:36:52.292Z</time>
      </trkpt>
      <trkpt lat="46.72623" lon="-1.96622">
        <ele>17</ele>
        <time>2025-01-17T17:36:53.291Z</time>
      </trkpt>
      <trkpt lat="46.72622" lon="-1.96623">
        <ele>17</ele>
        <time>2025-01-17T17:36:54.292Z</time>
      </trkpt>
      <trkpt lat="46.7262" lon="-1.96625">
        <ele>17.2</ele>
        <time>2025-01-17T17:36:55.291Z</time>
      </trkpt>
      <trkpt lat="46.72618" lon="-1.96627">
        <ele>17.3</ele>
        <time>2025-01-17T17:36:56.292Z</time>
      </trkpt>
      <trkpt lat="46.72617" lon="-1.96629">
        <ele>17.4</ele>
        <time>2025-01-17T17:36:57.292Z</time>
      </trkpt>
      <trkpt lat="46.72615" lon="-1.96629">
        <ele>17.5</ele>
        <time>2025-01-17T17:36:58.292Z</time>
      </trkpt>
      <trkpt lat="46.72613" lon="-1.96629">
        <ele>17.6</ele>
        <time>2025-01-17T17:36:59.292Z</time>
      </trkpt>
      <trkpt lat="46.72612" lon="-1.9663">
        <ele>17.7</ele>
        <time>2025-01-17T17:37:00.291Z</time>
      </trkpt>
      <trkpt lat="46.72612" lon="-1.9663">
        <ele>17.6</ele>
        <time>2025-01-17T17:37:01.291Z</time>
      </trkpt>
      <trkpt lat="46.72611" lon="-1.96631">
        <ele>17.7</ele>
        <time>2025-01-17T17:37:02.291Z</time>
      </trkpt>
      <trkpt lat="46.72608" lon="-1.96635">
        <ele>18</ele>
        <time>2025-01-17T17:37:03.291Z</time>
      </trkpt>
      <trkpt lat="46.72605" lon="-1.96638">
        <ele>18.4</ele>
        <time>2025-01-17T17:37:04.292Z</time>
      </trkpt>
      <trkpt lat="46.72602" lon="-1.96639">
        <ele>18.7</ele>
        <time>2025-01-17T17:37:05.292Z</time>
      </trkpt>
      <trkpt lat="46.726" lon="-1.96641">
        <ele>19</ele>
        <time>2025-01-17T17:37:06.292Z</time>
      </trkpt>
      <trkpt lat="46.72597" lon="-1.96643">
        <ele>19.3</ele>
        <time>2025-01-17T17:37:07.291Z</time>
      </trkpt>
      <trkpt lat="46.72595" lon="-1.96644">
        <ele>19.7</ele>
        <time>2025-01-17T17:37:08.292Z</time>
      </trkpt>
      <trkpt lat="46.72595" lon="-1.96644">
        <ele>19.7</ele>
        <time>2025-01-17T17:37:09.291Z</time>
      </trkpt>
      <trkpt lat="46.72594" lon="-1.96646">
        <ele>19.9</ele>
        <time>2025-01-17T17:37:10.292Z</time>
      </trkpt>
      <trkpt lat="46.72593" lon="-1.96647">
        <ele>20.2</ele>
        <time>2025-01-17T17:37:11.291Z</time>
      </trkpt>
      <trkpt lat="46.72591" lon="-1.96649">
        <ele>20.6</ele>
        <time>2025-01-17T17:37:12.292Z</time>
      </trkpt>
      <trkpt lat="46.72591" lon="-1.9665">
        <ele>20.8</ele>
        <time>2025-01-17T17:37:13.292Z</time>
      </trkpt>
      <trkpt lat="46.7259" lon="-1.96651">
        <ele>21</ele>
        <time>2025-01-17T17:37:14.291Z</time>
      </trkpt>
      <trkpt lat="46.72589" lon="-1.96652">
        <ele>21.2</ele>
        <time>2025-01-17T17:37:15.291Z</time>
      </trkpt>
      <trkpt lat="46.72589" lon="-1.96653">
        <ele>21.4</ele>
        <time>2025-01-17T17:37:16.292Z</time>
      </trkpt>
      <trkpt lat="46.72587" lon="-1.96656">
        <ele>21.9</ele>
        <time>2025-01-17T17:37:17.292Z</time>
      </trkpt>
      <trkpt lat="46.72585" lon="-1.96658">
        <ele>22.4</ele>
        <time>2025-01-17T17:37:18.291Z</time>
      </trkpt>
      <trkpt lat="46.72584" lon="-1.9666">
        <ele>22.8</ele>
        <time>2025-01-17T17:37:19.292Z</time>
      </trkpt>
      <trkpt lat="46.72584" lon="-1.96661">
        <ele>23.1</ele>
        <time>2025-01-17T17:37:20.291Z</time>
      </trkpt>
      <trkpt lat="46.72584" lon="-1.96661">
        <ele>23.2</ele>
        <time>2025-01-17T17:37:21.291Z</time>
      </trkpt>
      <trkpt lat="46.72583" lon="-1.96663">
        <ele>23.4</ele>
        <time>2025-01-17T17:37:22.292Z</time>
      </trkpt>
      <trkpt lat="46.72583" lon="-1.96664">
        <ele>23.6</ele>
        <time>2025-01-17T17:37:23.292Z</time>
      </trkpt>
      <trkpt lat="46.72582" lon="-1.96667">
        <ele>23.9</ele>
        <time>2025-01-17T17:37:24.291Z</time>
      </trkpt>
      <trkpt lat="46.72582" lon="-1.96669">
        <ele>24</ele>
        <time>2025-01-17T17:37:25.291Z</time>
      </trkpt>
      <trkpt lat="46.72581" lon="-1.96671">
        <ele>24.1</ele>
        <time>2025-01-17T17:37:26.291Z</time>
      </trkpt>
      <trkpt lat="46.72582" lon="-1.96672">
        <ele>24.3</ele>
        <time>2025-01-17T17:37:27.291Z</time>
      </trkpt>
      <trkpt lat="46.72584" lon="-1.96673">
        <ele>24.3</ele>
        <time>2025-01-17T17:37:28.292Z</time>
      </trkpt>
      <trkpt lat="46.72585" lon="-1.96674">
        <ele>24.2</ele>
        <time>2025-01-17T17:37:29.292Z</time>
      </trkpt>
      <trkpt lat="46.72585" lon="-1.96674">
        <ele>24.1</ele>
        <time>2025-01-17T17:37:30.292Z</time>
      </trkpt>
      <trkpt lat="46.72586" lon="-1.96675">
        <ele>24.1</ele>
        <time>2025-01-17T17:37:31.291Z</time>
      </trkpt>
      <trkpt lat="46.72586" lon="-1.96676">
        <ele>24.1</ele>
        <time>2025-01-17T17:37:32.292Z</time>
      </trkpt>
      <trkpt lat="46.72586" lon="-1.96677">
        <ele>24.2</ele>
        <time>2025-01-17T17:37:33.291Z</time>
      </trkpt>
      <trkpt lat="46.72585" lon="-1.96678">
        <ele>24.5</ele>
        <time>2025-01-17T17:37:34.291Z</time>
      </trkpt>
      <trkpt lat="46.72584" lon="-1.9668">
        <ele>24.8</ele>
        <time>2025-01-17T17:37:35.291Z</time>
      </trkpt>
      <trkpt lat="46.72583" lon="-1.96682">
        <ele>25.1</ele>
        <time>2025-01-17T17:37:36.291Z</time>
      </trkpt>
      <trkpt lat="46.72582" lon="-1.96684">
        <ele>25.1</ele>
        <time>2025-01-17T17:37:37.292Z</time>
      </trkpt>
      <trkpt lat="46.7258" lon="-1.96687">
        <ele>25.2</ele>
        <time>2025-01-17T17:37:38.291Z</time>
      </trkpt>
      <trkpt lat="46.7258" lon="-1.9669">
        <ele>25.3</ele>
        <time>2025-01-17T17:37:39.291Z</time>
      </trkpt>
      <trkpt lat="46.7258" lon="-1.96692">
        <ele>25.4</ele>
        <time>2025-01-17T17:37:40.292Z</time>
      </trkpt>
      <trkpt lat="46.72579" lon="-1.96694">
        <ele>25.5</ele>
        <time>2025-01-17T17:37:41.292Z</time>
      </trkpt>
      <trkpt lat="46.72579" lon="-1.96696">
        <ele>25.2</ele>
        <time>2025-01-17T17:37:42.291Z</time>
      </trkpt>
      <trkpt lat="46.72578" lon="-1.96698">
        <ele>24.7</ele>
        <time>2025-01-17T17:37:43.291Z</time>
      </trkpt>
      <trkpt lat="46.72577" lon="-1.96701">
        <ele>24.3</ele>
        <time>2025-01-17T17:37:44.291Z</time>
      </trkpt>
      <trkpt lat="46.72577" lon="-1.96703">
        <ele>23.7</ele>
        <time>2025-01-17T17:37:45.292Z</time>
      </trkpt>
      <trkpt lat="46.72576" lon="-1.96706">
        <ele>23.2</ele>
        <time>2025-01-17T17:37:46.292Z</time>
      </trkpt>
      <trkpt lat="46.72576" lon="-1.96708">
        <ele>22.9</ele>
        <time>2025-01-17T17:37:47.292Z</time>
      </trkpt>
      <trkpt lat="46.72576" lon="-1.96709">
        <ele>22.6</ele>
        <time>2025-01-17T17:37:48.292Z</time>
      </trkpt>
      <trkpt lat="46.72576" lon="-1.9671">
        <ele>22.3</ele>
        <time>2025-01-17T17:37:49.292Z</time>
      </trkpt>
      <trkpt lat="46.72576" lon="-1.96711">
        <ele>22.2</ele>
        <time>2025-01-17T17:37:50.291Z</time>
      </trkpt>
      <trkpt lat="46.72576" lon="-1.96712">
        <ele>22</ele>
        <time>2025-01-17T17:37:51.291Z</time>
      </trkpt>
      <trkpt lat="46.72576" lon="-1.96712">
        <ele>22</ele>
        <time>2025-01-17T17:37:52.292Z</time>
      </trkpt>
      <trkpt lat="46.72576" lon="-1.96713">
        <ele>21.8</ele>
        <time>2025-01-17T17:37:53.292Z</time>
      </trkpt>
      <trkpt lat="46.72577" lon="-1.96714">
        <ele>21.7</ele>
        <time>2025-01-17T17:37:54.292Z</time>
      </trkpt>
      <trkpt lat="46.72577" lon="-1.96714">
        <ele>21.8</ele>
        <time>2025-01-17T17:37:55.292Z</time>
      </trkpt>
      <trkpt lat="46.72578" lon="-1.96714">
        <ele>21.9</ele>
        <time>2025-01-17T17:37:56.291Z</time>
      </trkpt>
      <trkpt lat="46.72578" lon="-1.96715">
        <ele>21.7</ele>
        <time>2025-01-17T17:37:57.291Z</time>
      </trkpt>
      <trkpt lat="46.72578" lon="-1.96716">
        <ele>21.5</ele>
        <time>2025-01-17T17:37:58.291Z</time>
      </trkpt>
      <trkpt lat="46.72578" lon="-1.96717">
        <ele>21.4</ele>
        <time>2025-01-17T17:37:59.291Z</time>
      </trkpt>
      <trkpt lat="46.72578" lon="-1.96718">
        <ele>21.2</ele>
        <time>2025-01-17T17:38:00.292Z</time>
      </trkpt>
      <trkpt lat="46.72577" lon="-1.96719">
        <ele>21</ele>
        <time>2025-01-17T17:38:01.292Z</time>
      </trkpt>
      <trkpt lat="46.72578" lon="-1.9672">
        <ele>20.8</ele>
        <time>2025-01-17T17:38:02.292Z</time>
      </trkpt>
      <trkpt lat="46.72577" lon="-1.9672">
        <ele>20.7</ele>
        <time>2025-01-17T17:38:03.292Z</time>
      </trkpt>
      <trkpt lat="46.72577" lon="-1.96721">
        <ele>20.5</ele>
        <time>2025-01-17T17:38:04.292Z</time>
      </trkpt>
      <trkpt lat="46.72577" lon="-1.96723">
        <ele>20.2</ele>
        <time>2025-01-17T17:38:05.292Z</time>
      </trkpt>
      <trkpt lat="46.72577" lon="-1.96725">
        <ele>19.6</ele>
        <time>2025-01-17T17:38:06.291Z</time>
      </trkpt>
      <trkpt lat="46.72577" lon="-1.96726">
        <ele>19.2</ele>
        <time>2025-01-17T17:38:07.292Z</time>
      </trkpt>
      <trkpt lat="46.72576" lon="-1.96728">
        <ele>18.6</ele>
        <time>2025-01-17T17:38:08.291Z</time>
      </trkpt>
      <trkpt lat="46.72576" lon="-1.9673">
        <ele>18.1</ele>
        <time>2025-01-17T17:38:09.291Z</time>
      </trkpt>
      <trkpt lat="46.72576" lon="-1.9673">
        <ele>18</ele>
        <time>2025-01-17T17:38:10.291Z</time>
      </trkpt>
      <trkpt lat="46.72576" lon="-1.9673">
        <ele>18</ele>
        <time>2025-01-17T17:38:11.291Z</time>
      </trkpt>
      <trkpt lat="46.72575" lon="-1.96729">
        <ele>18.3</ele>
        <time>2025-01-17T17:38:12.292Z</time>
      </trkpt>
      <trkpt lat="46.72574" lon="-1.96729">
        <ele>18.3</ele>
        <time>2025-01-17T17:38:13.292Z</time>
      </trkpt>
      <trkpt lat="46.72573" lon="-1.96729">
        <ele>18</ele>
        <time>2025-01-17T17:38:14.292Z</time>
      </trkpt>
      <trkpt lat="46.72571" lon="-1.96731">
        <ele>17.3</ele>
        <time>2025-01-17T17:38:15.292Z</time>
      </trkpt>
      <trkpt lat="46.72568" lon="-1.96733">
        <ele>16.5</ele>
        <time>2025-01-17T17:38:16.292Z</time>
      </trkpt>
      <trkpt lat="46.72565" lon="-1.96735">
        <ele>15.6</ele>
        <time>2025-01-17T17:38:17.292Z</time>
      </trkpt>
      <trkpt lat="46.72565" lon="-1.96737">
        <ele>15</ele>
        <time>2025-01-17T17:38:18.291Z</time>
      </trkpt>
      <trkpt lat="46.72565" lon="-1.96739">
        <ele>14.6</ele>
        <time>2025-01-17T17:38:19.292Z</time>
      </trkpt>
      <trkpt lat="46.72565" lon="-1.9674">
        <ele>14.4</ele>
        <time>2025-01-17T17:38:20.291Z</time>
      </trkpt>
      <trkpt lat="46.72564" lon="-1.96741">
        <ele>13.9</ele>
        <time>2025-01-17T17:38:21.292Z</time>
      </trkpt>
      <trkpt lat="46.72561" lon="-1.96742">
        <ele>13.5</ele>
        <time>2025-01-17T17:38:22.292Z</time>
      </trkpt>
      <trkpt lat="46.7256" lon="-1.96741">
        <ele>13.5</ele>
        <time>2025-01-17T17:38:23.292Z</time>
      </trkpt>
      <trkpt lat="46.72558" lon="-1.96742">
        <ele>13.3</ele>
        <time>2025-01-17T17:38:24.292Z</time>
      </trkpt>
      <trkpt lat="46.72557" lon="-1.96741">
        <ele>13.4</ele>
        <time>2025-01-17T17:38:25.292Z</time>
      </trkpt>
      <trkpt lat="46.72555" lon="-1.9674">
        <ele>13.4</ele>
        <time>2025-01-17T17:38:26.291Z</time>
      </trkpt>
      <trkpt lat="46.72553" lon="-1.9674">
        <ele>13.3</ele>
        <time>2025-01-17T17:38:27.291Z</time>
      </trkpt>
      <trkpt lat="46.72552" lon="-1.9674">
        <ele>13.3</ele>
        <time>2025-01-17T17:38:28.291Z</time>
      </trkpt>
      <trkpt lat="46.72551" lon="-1.9674">
        <ele>13.3</ele>
        <time>2025-01-17T17:38:29.291Z</time>
      </trkpt>
      <trkpt lat="46.7255" lon="-1.96739">
        <ele>13.4</ele>
        <time>2025-01-17T17:38:30.292Z</time>
      </trkpt>
      <trkpt lat="46.72548" lon="-1.96739">
        <ele>13.5</ele>
        <time>2025-01-17T17:38:31.292Z</time>
      </trkpt>
      <trkpt lat="46.72546" lon="-1.96738">
        <ele>13.6</ele>
        <time>2025-01-17T17:38:32.291Z</time>
      </trkpt>
      <trkpt lat="46.72545" lon="-1.96736">
        <ele>13.9</ele>
        <time>2025-01-17T17:38:33.291Z</time>
      </trkpt>
      <trkpt lat="46.72544" lon="-1.96735">
        <ele>14.1</ele>
        <time>2025-01-17T17:38:34.291Z</time>
      </trkpt>
      <trkpt lat="46.72542" lon="-1.96735">
        <ele>14</ele>
        <time>2025-01-17T17:38:35.291Z</time>
      </trkpt>
      <trkpt lat="46.7254" lon="-1.96735">
        <ele>14</ele>
        <time>2025-01-17T17:38:36.292Z</time>
      </trkpt>
      <trkpt lat="46.72537" lon="-1.96734">
        <ele>14</ele>
        <time>2025-01-17T17:38:37.292Z</time>
      </trkpt>
      <trkpt lat="46.72534" lon="-1.96733">
        <ele>14.1</ele>
        <time>2025-01-17T17:38:38.292Z</time>
      </trkpt>
      <trkpt lat="46.72531" lon="-1.96732">
        <ele>14.1</ele>
        <time>2025-01-17T17:38:39.292Z</time>
      </trkpt>
      <trkpt lat="46.72528" lon="-1.96731">
        <ele>14.2</ele>
        <time>2025-01-17T17:38:40.292Z</time>
      </trkpt>
      <trkpt lat="46.72525" lon="-1.9673">
        <ele>14</ele>
        <time>2025-01-17T17:38:41.292Z</time>
      </trkpt>
      <trkpt lat="46.72523" lon="-1.96729">
        <ele>14.1</ele>
        <time>2025-01-17T17:38:42.291Z</time>
      </trkpt>
      <trkpt lat="46.72521" lon="-1.96728">
        <ele>14.2</ele>
        <time>2025-01-17T17:38:43.291Z</time>
      </trkpt>
      <trkpt lat="46.72519" lon="-1.96727">
        <ele>14.1</ele>
        <time>2025-01-17T17:38:44.291Z</time>
      </trkpt>
      <trkpt lat="46.72517" lon="-1.96725">
        <ele>14.2</ele>
        <time>2025-01-17T17:38:45.292Z</time>
      </trkpt>
      <trkpt lat="46.72516" lon="-1.96724">
        <ele>14.3</ele>
        <time>2025-01-17T17:38:46.292Z</time>
      </trkpt>
      <trkpt lat="46.72515" lon="-1.96722">
        <ele>14.6</ele>
        <time>2025-01-17T17:38:47.291Z</time>
      </trkpt>
      <trkpt lat="46.72512" lon="-1.96722">
        <ele>14.4</ele>
        <time>2025-01-17T17:38:48.291Z</time>
      </trkpt>
      <trkpt lat="46.7251" lon="-1.96721">
        <ele>14.4</ele>
        <time>2025-01-17T17:38:49.291Z</time>
      </trkpt>
      <trkpt lat="46.72508" lon="-1.96721">
        <ele>14.2</ele>
        <time>2025-01-17T17:38:50.292Z</time>
      </trkpt>
      <trkpt lat="46.72506" lon="-1.96719">
        <ele>14.2</ele>
        <time>2025-01-17T17:38:51.291Z</time>
      </trkpt>
      <trkpt lat="46.72502" lon="-1.96718">
        <ele>14.1</ele>
        <time>2025-01-17T17:38:52.291Z</time>
      </trkpt>
      <trkpt lat="46.72499" lon="-1.96717">
        <ele>14</ele>
        <time>2025-01-17T17:38:53.291Z</time>
      </trkpt>
      <trkpt lat="46.72496" lon="-1.96717">
        <ele>13.6</ele>
        <time>2025-01-17T17:38:54.291Z</time>
      </trkpt>
      <trkpt lat="46.72494" lon="-1.96716">
        <ele>13.3</ele>
        <time>2025-01-17T17:38:55.292Z</time>
      </trkpt>
      <trkpt lat="46.72492" lon="-1.96715">
        <ele>13.2</ele>
        <time>2025-01-17T17:38:56.292Z</time>
      </trkpt>
      <trkpt lat="46.7249" lon="-1.96715">
        <ele>12.9</ele>
        <time>2025-01-17T17:38:57.292Z</time>
      </trkpt>
      <trkpt lat="46.72489" lon="-1.96714">
        <ele>12.9</ele>
        <time>2025-01-17T17:38:58.292Z</time>
      </trkpt>
      <trkpt lat="46.72488" lon="-1.96711">
        <ele>13.3</ele>
        <time>2025-01-17T17:38:59.292Z</time>
      </trkpt>
      <trkpt lat="46.72486" lon="-1.96711">
        <ele>12.9</ele>
        <time>2025-01-17T17:39:00.291Z</time>
      </trkpt>
      <trkpt lat="46.72484" lon="-1.96711">
        <ele>12.6</ele>
        <time>2025-01-17T17:39:01.291Z</time>
      </trkpt>
      <trkpt lat="46.72483" lon="-1.9671">
        <ele>12.7</ele>
        <time>2025-01-17T17:39:02.291Z</time>
      </trkpt>
      <trkpt lat="46.72482" lon="-1.96709">
        <ele>12.6</ele>
        <time>2025-01-17T17:39:03.292Z</time>
      </trkpt>
      <trkpt lat="46.72479" lon="-1.96709">
        <ele>12.1</ele>
        <time>2025-01-17T17:39:04.292Z</time>
      </trkpt>
      <trkpt lat="46.72476" lon="-1.9671">
        <ele>11.5</ele>
        <time>2025-01-17T17:39:05.292Z</time>
      </trkpt>
      <trkpt lat="46.72473" lon="-1.96709">
        <ele>11</ele>
        <time>2025-01-17T17:39:06.291Z</time>
      </trkpt>
      <trkpt lat="46.72468" lon="-1.9671">
        <ele>10.5</ele>
        <time>2025-01-17T17:39:07.292Z</time>
      </trkpt>
      <trkpt lat="46.72466" lon="-1.96712">
        <ele>10.1</ele>
        <time>2025-01-17T17:39:08.291Z</time>
      </trkpt>
      <trkpt lat="46.72464" lon="-1.96715">
        <ele>9.6</ele>
        <time>2025-01-17T17:39:09.291Z</time>
      </trkpt>
      <trkpt lat="46.72463" lon="-1.96718">
        <ele>9.1</ele>
        <time>2025-01-17T17:39:10.291Z</time>
      </trkpt>
      <trkpt lat="46.72462" lon="-1.96722">
        <ele>8.7</ele>
        <time>2025-01-17T17:39:11.292Z</time>
      </trkpt>
      <trkpt lat="46.72462" lon="-1.96724">
        <ele>8.5</ele>
        <time>2025-01-17T17:39:12.292Z</time>
      </trkpt>
      <trkpt lat="46.72462" lon="-1.96725">
        <ele>8.5</ele>
        <time>2025-01-17T17:39:13.292Z</time>
      </trkpt>
      <trkpt lat="46.72462" lon="-1.96726">
        <ele>8.5</ele>
        <time>2025-01-17T17:39:14.291Z</time>
      </trkpt>
      <trkpt lat="46.72462" lon="-1.96728">
        <ele>8.4</ele>
        <time>2025-01-17T17:39:15.291Z</time>
      </trkpt>
      <trkpt lat="46.72463" lon="-1.9673">
        <ele>8.3</ele>
        <time>2025-01-17T17:39:16.291Z</time>
      </trkpt>
      <trkpt lat="46.72464" lon="-1.96733">
        <ele>8.2</ele>
        <time>2025-01-17T17:39:17.291Z</time>
      </trkpt>
      <trkpt lat="46.72467" lon="-1.96734">
        <ele>8.1</ele>
        <time>2025-01-17T17:39:18.291Z</time>
      </trkpt>
      <trkpt lat="46.72469" lon="-1.96737">
        <ele>8</ele>
        <time>2025-01-17T17:39:19.292Z</time>
      </trkpt>
      <trkpt lat="46.72471" lon="-1.96739">
        <ele>7.8</ele>
        <time>2025-01-17T17:39:20.292Z</time>
      </trkpt>
      <trkpt lat="46.72472" lon="-1.96743">
        <ele>7.5</ele>
        <time>2025-01-17T17:39:21.292Z</time>
      </trkpt>
      <trkpt lat="46.72473" lon="-1.96747">
        <ele>7.2</ele>
        <time>2025-01-17T17:39:22.292Z</time>
      </trkpt>
      <trkpt lat="46.72474" lon="-1.96752">
        <ele>7.1</ele>
        <time>2025-01-17T17:39:23.292Z</time>
      </trkpt>
      <trkpt lat="46.72475" lon="-1.96756">
        <ele>7.1</ele>
        <time>2025-01-17T17:39:24.291Z</time>
      </trkpt>
      <trkpt lat="46.72476" lon="-1.96759">
        <ele>7.1</ele>
        <time>2025-01-17T17:39:25.291Z</time>
      </trkpt>
      <trkpt lat="46.72477" lon="-1.96763">
        <ele>7.1</ele>
        <time>2025-01-17T17:39:26.292Z</time>
      </trkpt>
      <trkpt lat="46.72478" lon="-1.96767">
        <ele>7.1</ele>
        <time>2025-01-17T17:39:27.292Z</time>
      </trkpt>
      <trkpt lat="46.72479" lon="-1.96772">
        <ele>7.1</ele>
        <time>2025-01-17T17:39:28.292Z</time>
      </trkpt>
      <trkpt lat="46.7248" lon="-1.96774">
        <ele>7</ele>
        <time>2025-01-17T17:39:29.292Z</time>
      </trkpt>
      <trkpt lat="46.72482" lon="-1.96777">
        <ele>7</ele>
        <time>2025-01-17T17:39:30.292Z</time>
      </trkpt>
      <trkpt lat="46.72484" lon="-1.96779">
        <ele>7</ele>
        <time>2025-01-17T17:39:31.291Z</time>
      </trkpt>
      <trkpt lat="46.72485" lon="-1.96783">
        <ele>7</ele>
        <time>2025-01-17T17:39:32.291Z</time>
      </trkpt>
      <trkpt lat="46.72486" lon="-1.96786">
        <ele>7</ele>
        <time>2025-01-17T17:39:33.291Z</time>
      </trkpt>
      <trkpt lat="46.72488" lon="-1.96789">
        <ele>7</ele>
        <time>2025-01-17T17:39:34.291Z</time>
      </trkpt>
      <trkpt lat="46.72491" lon="-1.9679">
        <ele>7</ele>
        <time>2025-01-17T17:39:35.292Z</time>
      </trkpt>
      <trkpt lat="46.72493" lon="-1.96793">
        <ele>7</ele>
        <time>2025-01-17T17:39:36.292Z</time>
      </trkpt>
      <trkpt lat="46.72495" lon="-1.96797">
        <ele>7</ele>
        <time>2025-01-17T17:39:37.292Z</time>
      </trkpt>
      <trkpt lat="46.72498" lon="-1.96799">
        <ele>7</ele>
        <time>2025-01-17T17:39:38.292Z</time>
      </trkpt>
      <trkpt lat="46.725" lon="-1.96802">
        <ele>7</ele>
        <time>2025-01-17T17:39:39.292Z</time>
      </trkpt>
      <trkpt lat="46.72503" lon="-1.96804">
        <ele>7.1</ele>
        <time>2025-01-17T17:39:40.291Z</time>
      </trkpt>
      <trkpt lat="46.72505" lon="-1.96809">
        <ele>7.2</ele>
        <time>2025-01-17T17:39:41.291Z</time>
      </trkpt>
      <trkpt lat="46.72507" lon="-1.96811">
        <ele>7.2</ele>
        <time>2025-01-17T17:39:42.291Z</time>
      </trkpt>
      <trkpt lat="46.72509" lon="-1.96815">
        <ele>7.2</ele>
        <time>2025-01-17T17:39:43.291Z</time>
      </trkpt>
      <trkpt lat="46.72511" lon="-1.96817">
        <ele>7.2</ele>
        <time>2025-01-17T17:39:44.292Z</time>
      </trkpt>
      <trkpt lat="46.72513" lon="-1.96818">
        <ele>7.3</ele>
        <time>2025-01-17T17:39:45.292Z</time>
      </trkpt>
      <trkpt lat="46.72515" lon="-1.96821">
        <ele>7.2</ele>
        <time>2025-01-17T17:39:46.292Z</time>
      </trkpt>
      <trkpt lat="46.72516" lon="-1.96825">
        <ele>7.2</ele>
        <time>2025-01-17T17:39:47.292Z</time>
      </trkpt>
      <trkpt lat="46.72517" lon="-1.96829">
        <ele>7.1</ele>
        <time>2025-01-17T17:39:48.291Z</time>
      </trkpt>
      <trkpt lat="46.72519" lon="-1.96832">
        <ele>7</ele>
        <time>2025-01-17T17:39:49.291Z</time>
      </trkpt>
      <trkpt lat="46.72521" lon="-1.96834">
        <ele>7</ele>
        <time>2025-01-17T17:39:50.291Z</time>
      </trkpt>
      <trkpt lat="46.72523" lon="-1.96837">
        <ele>7</ele>
        <time>2025-01-17T17:39:51.291Z</time>
      </trkpt>
      <trkpt lat="46.72523" lon="-1.96841">
        <ele>7</ele>
        <time>2025-01-17T17:39:52.292Z</time>
      </trkpt>
      <trkpt lat="46.72525" lon="-1.96843">
        <ele>7</ele>
        <time>2025-01-17T17:39:53.292Z</time>
      </trkpt>
      <trkpt lat="46.72526" lon="-1.96847">
        <ele>7</ele>
        <time>2025-01-17T17:39:54.292Z</time>
      </trkpt>
      <trkpt lat="46.72527" lon="-1.9685">
        <ele>7</ele>
        <time>2025-01-17T17:39:55.292Z</time>
      </trkpt>
      <trkpt lat="46.72529" lon="-1.96854">
        <ele>7</ele>
        <time>2025-01-17T17:39:56.291Z</time>
      </trkpt>
      <trkpt lat="46.7253" lon="-1.96857">
        <ele>7</ele>
        <time>2025-01-17T17:39:57.292Z</time>
      </trkpt>
      <trkpt lat="46.72531" lon="-1.9686">
        <ele>7</ele>
        <time>2025-01-17T17:39:58.292Z</time>
      </trkpt>
      <trkpt lat="46.72532" lon="-1.96864">
        <ele>7</ele>
        <time>2025-01-17T17:39:59.292Z</time>
      </trkpt>
      <trkpt lat="46.72533" lon="-1.96867">
        <ele>7</ele>
        <time>2025-01-17T17:40:00.292Z</time>
      </trkpt>
      <trkpt lat="46.72536" lon="-1.9687">
        <ele>7</ele>
        <time>2025-01-17T17:40:01.291Z</time>
      </trkpt>
      <trkpt lat="46.72538" lon="-1.96872">
        <ele>7</ele>
        <time>2025-01-17T17:40:02.291Z</time>
      </trkpt>
      <trkpt lat="46.72541" lon="-1.96874">
        <ele>7</ele>
        <time>2025-01-17T17:40:03.292Z</time>
      </trkpt>
      <trkpt lat="46.72544" lon="-1.96875">
        <ele>7</ele>
        <time>2025-01-17T17:40:04.292Z</time>
      </trkpt>
      <trkpt lat="46.72546" lon="-1.96876">
        <ele>7</ele>
        <time>2025-01-17T17:40:05.292Z</time>
      </trkpt>
      <trkpt lat="46.72548" lon="-1.96877">
        <ele>7</ele>
        <time>2025-01-17T17:40:06.292Z</time>
      </trkpt>
      <trkpt lat="46.72551" lon="-1.96878">
        <ele>7</ele>
        <time>2025-01-17T17:40:07.292Z</time>
      </trkpt>
      <trkpt lat="46.72554" lon="-1.9688">
        <ele>7</ele>
        <time>2025-01-17T17:40:08.292Z</time>
      </trkpt>
      <trkpt lat="46.72555" lon="-1.96883">
        <ele>7</ele>
        <time>2025-01-17T17:40:09.292Z</time>
      </trkpt>
      <trkpt lat="46.72557" lon="-1.96886">
        <ele>7</ele>
        <time>2025-01-17T17:40:10.291Z</time>
      </trkpt>
      <trkpt lat="46.72558" lon="-1.9689">
        <ele>7</ele>
        <time>2025-01-17T17:40:11.291Z</time>
      </trkpt>
      <trkpt lat="46.72559" lon="-1.96893">
        <ele>7</ele>
        <time>2025-01-17T17:40:12.291Z</time>
      </trkpt>
      <trkpt lat="46.72561" lon="-1.96895">
        <ele>7</ele>
        <time>2025-01-17T17:40:13.292Z</time>
      </trkpt>
      <trkpt lat="46.72563" lon="-1.96898">
        <ele>7</ele>
        <time>2025-01-17T17:40:14.292Z</time>
      </trkpt>
      <trkpt lat="46.72563" lon="-1.96901">
        <ele>7</ele>
        <time>2025-01-17T17:40:15.292Z</time>
      </trkpt>
      <trkpt lat="46.72564" lon="-1.96903">
        <ele>7</ele>
        <time>2025-01-17T17:40:16.292Z</time>
      </trkpt>
      <trkpt lat="46.72565" lon="-1.96906">
        <ele>7</ele>
        <time>2025-01-17T17:40:17.292Z</time>
      </trkpt>
      <trkpt lat="46.72566" lon="-1.96909">
        <ele>7</ele>
        <time>2025-01-17T17:40:18.292Z</time>
      </trkpt>
      <trkpt lat="46.72569" lon="-1.96911">
        <ele>7</ele>
        <time>2025-01-17T17:40:19.292Z</time>
      </trkpt>
      <trkpt lat="46.7257" lon="-1.96914">
        <ele>7</ele>
        <time>2025-01-17T17:40:20.291Z</time>
      </trkpt>
      <trkpt lat="46.72571" lon="-1.96918">
        <ele>7</ele>
        <time>2025-01-17T17:40:21.291Z</time>
      </trkpt>
      <trkpt lat="46.72571" lon="-1.96922">
        <ele>7</ele>
        <time>2025-01-17T17:40:22.292Z</time>
      </trkpt>
      <trkpt lat="46.72573" lon="-1.96926">
        <ele>7.1</ele>
        <time>2025-01-17T17:40:23.292Z</time>
      </trkpt>
      <trkpt lat="46.72575" lon="-1.96928">
        <ele>7.2</ele>
        <time>2025-01-17T17:40:24.291Z</time>
      </trkpt>
      <trkpt lat="46.72576" lon="-1.96931">
        <ele>7.2</ele>
        <time>2025-01-17T17:40:25.291Z</time>
      </trkpt>
      <trkpt lat="46.72577" lon="-1.96934">
        <ele>7.3</ele>
        <time>2025-01-17T17:40:26.291Z</time>
      </trkpt>
      <trkpt lat="46.72577" lon="-1.96936">
        <ele>7.4</ele>
        <time>2025-01-17T17:40:27.292Z</time>
      </trkpt>
      <trkpt lat="46.72577" lon="-1.96939">
        <ele>7.4</ele>
        <time>2025-01-17T17:40:28.292Z</time>
      </trkpt>
      <trkpt lat="46.72577" lon="-1.96942">
        <ele>7.5</ele>
        <time>2025-01-17T17:40:29.292Z</time>
      </trkpt>
      <trkpt lat="46.72577" lon="-1.96944">
        <ele>7.5</ele>
        <time>2025-01-17T17:40:30.292Z</time>
      </trkpt>
      <trkpt lat="46.72576" lon="-1.96946">
        <ele>7.5</ele>
        <time>2025-01-17T17:40:31.291Z</time>
      </trkpt>
      <trkpt lat="46.72577" lon="-1.96949">
        <ele>7.6</ele>
        <time>2025-01-17T17:40:32.291Z</time>
      </trkpt>
      <trkpt lat="46.72577" lon="-1.96952">
        <ele>7.7</ele>
        <time>2025-01-17T17:40:33.291Z</time>
      </trkpt>
      <trkpt lat="46.72576" lon="-1.96956">
        <ele>7.8</ele>
        <time>2025-01-17T17:40:34.291Z</time>
      </trkpt>
      <trkpt lat="46.72575" lon="-1.9696">
        <ele>7.8</ele>
        <time>2025-01-17T17:40:35.292Z</time>
      </trkpt>
      <trkpt lat="46.72576" lon="-1.96963">
        <ele>7.9</ele>
        <time>2025-01-17T17:40:36.292Z</time>
      </trkpt>
      <trkpt lat="46.72575" lon="-1.96965">
        <ele>7.9</ele>
        <time>2025-01-17T17:40:37.292Z</time>
      </trkpt>
      <trkpt lat="46.72576" lon="-1.96966">
        <ele>8.1</ele>
        <time>2025-01-17T17:40:38.291Z</time>
      </trkpt>
      <trkpt lat="46.72577" lon="-1.96968">
        <ele>8.2</ele>
        <time>2025-01-17T17:40:39.291Z</time>
      </trkpt>
      <trkpt lat="46.72577" lon="-1.96971">
        <ele>8.3</ele>
        <time>2025-01-17T17:40:40.291Z</time>
      </trkpt>
      <trkpt lat="46.72577" lon="-1.96974">
        <ele>8.3</ele>
        <time>2025-01-17T17:40:41.292Z</time>
      </trkpt>
      <trkpt lat="46.72578" lon="-1.96977">
        <ele>8.4</ele>
        <time>2025-01-17T17:40:42.292Z</time>
      </trkpt>
      <trkpt lat="46.72578" lon="-1.9698">
        <ele>8.5</ele>
        <time>2025-01-17T17:40:43.291Z</time>
      </trkpt>
      <trkpt lat="46.72578" lon="-1.96982">
        <ele>8.5</ele>
        <time>2025-01-17T17:40:44.292Z</time>
      </trkpt>
      <trkpt lat="46.72578" lon="-1.96985">
        <ele>8.5</ele>
        <time>2025-01-17T17:40:45.291Z</time>
      </trkpt>
      <trkpt lat="46.72578" lon="-1.96988">
        <ele>8.5</ele>
        <time>2025-01-17T17:40:46.291Z</time>
      </trkpt>
      <trkpt lat="46.72578" lon="-1.96992">
        <ele>8.5</ele>
        <time>2025-01-17T17:40:47.292Z</time>
      </trkpt>
      <trkpt lat="46.72577" lon="-1.96995">
        <ele>8.5</ele>
        <time>2025-01-17T17:40:48.292Z</time>
      </trkpt>
      <trkpt lat="46.72576" lon="-1.96999">
        <ele>8.5</ele>
        <time>2025-01-17T17:40:49.292Z</time>
      </trkpt>
      <trkpt lat="46.72575" lon="-1.97004">
        <ele>8.3</ele>
        <time>2025-01-17T17:40:50.292Z</time>
      </trkpt>
      <trkpt lat="46.72573" lon="-1.97009">
        <ele>8.1</ele>
        <time>2025-01-17T17:40:51.292Z</time>
      </trkpt>
      <trkpt lat="46.72572" lon="-1.97015">
        <ele>7.9</ele>
        <time>2025-01-17T17:40:52.292Z</time>
      </trkpt>
      <trkpt lat="46.72571" lon="-1.97018">
        <ele>7.8</ele>
        <time>2025-01-17T17:40:53.291Z</time>
      </trkpt>
      <trkpt lat="46.72571" lon="-1.97022">
        <ele>7.7</ele>
        <time>2025-01-17T17:40:54.291Z</time>
      </trkpt>
      <trkpt lat="46.72571" lon="-1.97025">
        <ele>7.6</ele>
        <time>2025-01-17T17:40:55.291Z</time>
      </trkpt>
      <trkpt lat="46.7257" lon="-1.97029">
        <ele>7.5</ele>
        <time>2025-01-17T17:40:56.292Z</time>
      </trkpt>
      <trkpt lat="46.72569" lon="-1.97033">
        <ele>7.3</ele>
        <time>2025-01-17T17:40:57.291Z</time>
      </trkpt>
      <trkpt lat="46.72568" lon="-1.97037">
        <ele>7.1</ele>
        <time>2025-01-17T17:40:58.292Z</time>
      </trkpt>
      <trkpt lat="46.72569" lon="-1.97041">
        <ele>7</ele>
        <time>2025-01-17T17:40:59.292Z</time>
      </trkpt>
      <trkpt lat="46.72569" lon="-1.97044">
        <ele>6.9</ele>
        <time>2025-01-17T17:41:00.292Z</time>
      </trkpt>
      <trkpt lat="46.7257" lon="-1.97047">
        <ele>6.8</ele>
        <time>2025-01-17T17:41:01.292Z</time>
      </trkpt>
      <trkpt lat="46.7257" lon="-1.97051">
        <ele>6.7</ele>
        <time>2025-01-17T17:41:02.291Z</time>
      </trkpt>
      <trkpt lat="46.72569" lon="-1.97054">
        <ele>6.6</ele>
        <time>2025-01-17T17:41:03.291Z</time>
      </trkpt>
      <trkpt lat="46.72569" lon="-1.97058">
        <ele>6.5</ele>
        <time>2025-01-17T17:41:04.292Z</time>
      </trkpt>
      <trkpt lat="46.72567" lon="-1.97062">
        <ele>6.4</ele>
        <time>2025-01-17T17:41:05.292Z</time>
      </trkpt>
      <trkpt lat="46.72567" lon="-1.97066">
        <ele>6.4</ele>
        <time>2025-01-17T17:41:06.292Z</time>
      </trkpt>
      <trkpt lat="46.72566" lon="-1.97071">
        <ele>6.3</ele>
        <time>2025-01-17T17:41:07.291Z</time>
      </trkpt>
      <trkpt lat="46.72565" lon="-1.97075">
        <ele>6.2</ele>
        <time>2025-01-17T17:41:08.291Z</time>
      </trkpt>
      <trkpt lat="46.72565" lon="-1.97078">
        <ele>6.1</ele>
        <time>2025-01-17T17:41:09.291Z</time>
      </trkpt>
      <trkpt lat="46.72564" lon="-1.97082">
        <ele>6</ele>
        <time>2025-01-17T17:41:10.291Z</time>
      </trkpt>
      <trkpt lat="46.72563" lon="-1.97084">
        <ele>6</ele>
        <time>2025-01-17T17:41:11.292Z</time>
      </trkpt>
      <trkpt lat="46.72563" lon="-1.97087">
        <ele>6</ele>
        <time>2025-01-17T17:41:12.292Z</time>
      </trkpt>
      <trkpt lat="46.72562" lon="-1.97089">
        <ele>6</ele>
        <time>2025-01-17T17:41:13.292Z</time>
      </trkpt>
      <trkpt lat="46.72562" lon="-1.97092">
        <ele>6</ele>
        <time>2025-01-17T17:41:14.292Z</time>
      </trkpt>
      <trkpt lat="46.72561" lon="-1.97095">
        <ele>6</ele>
        <time>2025-01-17T17:41:15.291Z</time>
      </trkpt>
      <trkpt lat="46.72561" lon="-1.97098">
        <ele>6</ele>
        <time>2025-01-17T17:41:16.291Z</time>
      </trkpt>
      <trkpt lat="46.72561" lon="-1.971">
        <ele>6</ele>
        <time>2025-01-17T17:41:17.291Z</time>
      </trkpt>
      <trkpt lat="46.72562" lon="-1.97103">
        <ele>6</ele>
        <time>2025-01-17T17:41:18.291Z</time>
      </trkpt>
      <trkpt lat="46.72563" lon="-1.97107">
        <ele>6</ele>
        <time>2025-01-17T17:41:19.291Z</time>
      </trkpt>
      <trkpt lat="46.72563" lon="-1.97109">
        <ele>6</ele>
        <time>2025-01-17T17:41:20.292Z</time>
      </trkpt>
      <trkpt lat="46.72563" lon="-1.97112">
        <ele>6</ele>
        <time>2025-01-17T17:41:21.292Z</time>
      </trkpt>
      <trkpt lat="46.72561" lon="-1.97116">
        <ele>6.1</ele>
        <time>2025-01-17T17:41:22.291Z</time>
      </trkpt>
      <trkpt lat="46.7256" lon="-1.97121">
        <ele>6.3</ele>
        <time>2025-01-17T17:41:23.292Z</time>
      </trkpt>
      <trkpt lat="46.7256" lon="-1.97124">
        <ele>6.4</ele>
        <time>2025-01-17T17:41:24.291Z</time>
      </trkpt>
      <trkpt lat="46.72559" lon="-1.97128">
        <ele>6.5</ele>
        <time>2025-01-17T17:41:25.291Z</time>
      </trkpt>
      <trkpt lat="46.72559" lon="-1.97132">
        <ele>6.7</ele>
        <time>2025-01-17T17:41:26.291Z</time>
      </trkpt>
      <trkpt lat="46.72559" lon="-1.97137">
        <ele>6.8</ele>
        <time>2025-01-17T17:41:27.291Z</time>
      </trkpt>
      <trkpt lat="46.7256" lon="-1.9714">
        <ele>6.8</ele>
        <time>2025-01-17T17:41:28.292Z</time>
      </trkpt>
      <trkpt lat="46.7256" lon="-1.97144">
        <ele>6.7</ele>
        <time>2025-01-17T17:41:29.292Z</time>
      </trkpt>
      <trkpt lat="46.7256" lon="-1.97147">
        <ele>6.6</ele>
        <time>2025-01-17T17:41:30.292Z</time>
      </trkpt>
      <trkpt lat="46.7256" lon="-1.9715">
        <ele>6.5</ele>
        <time>2025-01-17T17:41:31.292Z</time>
      </trkpt>
      <trkpt lat="46.72559" lon="-1.97152">
        <ele>6.5</ele>
        <time>2025-01-17T17:41:32.292Z</time>
      </trkpt>
      <trkpt lat="46.72559" lon="-1.97154">
        <ele>6.4</ele>
        <time>2025-01-17T17:41:33.291Z</time>
      </trkpt>
      <trkpt lat="46.72559" lon="-1.97156">
        <ele>6.3</ele>
        <time>2025-01-17T17:41:34.291Z</time>
      </trkpt>
      <trkpt lat="46.72558" lon="-1.97159">
        <ele>6.3</ele>
        <time>2025-01-17T17:41:35.292Z</time>
      </trkpt>
      <trkpt lat="46.72557" lon="-1.97162">
        <ele>6.2</ele>
        <time>2025-01-17T17:41:36.292Z</time>
      </trkpt>
      <trkpt lat="46.72556" lon="-1.97165">
        <ele>6.1</ele>
        <time>2025-01-17T17:41:37.292Z</time>
      </trkpt>
      <trkpt lat="46.72556" lon="-1.97168">
        <ele>6</ele>
        <time>2025-01-17T17:41:38.292Z</time>
      </trkpt>
      <trkpt lat="46.72555" lon="-1.97172">
        <ele>6</ele>
        <time>2025-01-17T17:41:39.291Z</time>
      </trkpt>
      <trkpt lat="46.72554" lon="-1.97175">
        <ele>6</ele>
        <time>2025-01-17T17:41:40.291Z</time>
      </trkpt>
      <trkpt lat="46.72554" lon="-1.97179">
        <ele>6</ele>
        <time>2025-01-17T17:41:41.291Z</time>
      </trkpt>
      <trkpt lat="46.72554" lon="-1.97182">
        <ele>6</ele>
        <time>2025-01-17T17:41:42.292Z</time>
      </trkpt>
      <trkpt lat="46.72555" lon="-1.97186">
        <ele>6</ele>
        <time>2025-01-17T17:41:43.292Z</time>
      </trkpt>
      <trkpt lat="46.72555" lon="-1.97188">
        <ele>6</ele>
        <time>2025-01-17T17:41:44.291Z</time>
      </trkpt>
      <trkpt lat="46.72556" lon="-1.97191">
        <ele>6</ele>
        <time>2025-01-17T17:41:45.291Z</time>
      </trkpt>
      <trkpt lat="46.72556" lon="-1.97194">
        <ele>6</ele>
        <time>2025-01-17T17:41:46.291Z</time>
      </trkpt>
      <trkpt lat="46.72556" lon="-1.97197">
        <ele>6</ele>
        <time>2025-01-17T17:41:47.292Z</time>
      </trkpt>
      <trkpt lat="46.72556" lon="-1.97199">
        <ele>6</ele>
        <time>2025-01-17T17:41:48.291Z</time>
      </trkpt>
      <trkpt lat="46.72555" lon="-1.97202">
        <ele>6</ele>
        <time>2025-01-17T17:41:49.292Z</time>
      </trkpt>
      <trkpt lat="46.72556" lon="-1.97204">
        <ele>6</ele>
        <time>2025-01-17T17:41:50.292Z</time>
      </trkpt>
      <trkpt lat="46.72556" lon="-1.97208">
        <ele>6</ele>
        <time>2025-01-17T17:41:51.292Z</time>
      </trkpt>
      <trkpt lat="46.72556" lon="-1.97212">
        <ele>6</ele>
        <time>2025-01-17T17:41:52.291Z</time>
      </trkpt>
      <trkpt lat="46.72556" lon="-1.97214">
        <ele>6</ele>
        <time>2025-01-17T17:41:53.291Z</time>
      </trkpt>
      <trkpt lat="46.72555" lon="-1.97217">
        <ele>6</ele>
        <time>2025-01-17T17:41:54.291Z</time>
      </trkpt>
      <trkpt lat="46.72555" lon="-1.97221">
        <ele>6</ele>
        <time>2025-01-17T17:41:55.292Z</time>
      </trkpt>
      <trkpt lat="46.72556" lon="-1.97224">
        <ele>6</ele>
        <time>2025-01-17T17:41:56.292Z</time>
      </trkpt>
      <trkpt lat="46.72556" lon="-1.9723">
        <ele>6</ele>
        <time>2025-01-17T17:41:57.292Z</time>
      </trkpt>
      <trkpt lat="46.72555" lon="-1.97233">
        <ele>6</ele>
        <time>2025-01-17T17:41:58.292Z</time>
      </trkpt>
      <trkpt lat="46.72555" lon="-1.97238">
        <ele>6</ele>
        <time>2025-01-17T17:41:59.292Z</time>
      </trkpt>
      <trkpt lat="46.72553" lon="-1.97242">
        <ele>6</ele>
        <time>2025-01-17T17:42:00.291Z</time>
      </trkpt>
      <trkpt lat="46.72552" lon="-1.97246">
        <ele>6</ele>
        <time>2025-01-17T17:42:01.291Z</time>
      </trkpt>
      <trkpt lat="46.72552" lon="-1.97249">
        <ele>6</ele>
        <time>2025-01-17T17:42:02.291Z</time>
      </trkpt>
      <trkpt lat="46.72552" lon="-1.97252">
        <ele>6</ele>
        <time>2025-01-17T17:42:03.291Z</time>
      </trkpt>
      <trkpt lat="46.72552" lon="-1.97254">
        <ele>6</ele>
        <time>2025-01-17T17:42:04.292Z</time>
      </trkpt>
      <trkpt lat="46.72552" lon="-1.97256">
        <ele>6</ele>
        <time>2025-01-17T17:42:05.291Z</time>
      </trkpt>
      <trkpt lat="46.72553" lon="-1.9726">
        <ele>6</ele>
        <time>2025-01-17T17:42:06.291Z</time>
      </trkpt>
      <trkpt lat="46.72554" lon="-1.97263">
        <ele>6</ele>
        <time>2025-01-17T17:42:07.291Z</time>
      </trkpt>
      <trkpt lat="46.72555" lon="-1.97265">
        <ele>6</ele>
        <time>2025-01-17T17:42:08.292Z</time>
      </trkpt>
      <trkpt lat="46.72556" lon="-1.97268">
        <ele>6</ele>
        <time>2025-01-17T17:42:09.292Z</time>
      </trkpt>
      <trkpt lat="46.72557" lon="-1.9727">
        <ele>6</ele>
        <time>2025-01-17T17:42:10.292Z</time>
      </trkpt>
      <trkpt lat="46.72557" lon="-1.97272">
        <ele>6</ele>
        <time>2025-01-17T17:42:11.291Z</time>
      </trkpt>
      <trkpt lat="46.72558" lon="-1.97273">
        <ele>6.1</ele>
        <time>2025-01-17T17:42:12.292Z</time>
      </trkpt>
      <trkpt lat="46.72558" lon="-1.97276">
        <ele>6.1</ele>
        <time>2025-01-17T17:42:13.291Z</time>
      </trkpt>
      <trkpt lat="46.72558" lon="-1.97278">
        <ele>6.1</ele>
        <time>2025-01-17T17:42:14.291Z</time>
      </trkpt>
      <trkpt lat="46.72557" lon="-1.97281">
        <ele>6.1</ele>
        <time>2025-01-17T17:42:15.291Z</time>
      </trkpt>
      <trkpt lat="46.72557" lon="-1.97283">
        <ele>6.1</ele>
        <time>2025-01-17T17:42:16.291Z</time>
      </trkpt>
      <trkpt lat="46.72558" lon="-1.97285">
        <ele>6.1</ele>
        <time>2025-01-17T17:42:17.291Z</time>
      </trkpt>
      <trkpt lat="46.72559" lon="-1.97287">
        <ele>6.1</ele>
        <time>2025-01-17T17:42:18.292Z</time>
      </trkpt>
      <trkpt lat="46.7256" lon="-1.97289">
        <ele>6.2</ele>
        <time>2025-01-17T17:42:19.292Z</time>
      </trkpt>
      <trkpt lat="46.72561" lon="-1.97291">
        <ele>6.2</ele>
        <time>2025-01-17T17:42:20.292Z</time>
      </trkpt>
      <trkpt lat="46.72563" lon="-1.97292">
        <ele>6.3</ele>
        <time>2025-01-17T17:42:21.292Z</time>
      </trkpt>
      <trkpt lat="46.72565" lon="-1.97292">
        <ele>6.4</ele>
        <time>2025-01-17T17:42:22.291Z</time>
      </trkpt>
      <trkpt lat="46.72568" lon="-1.97292">
        <ele>6.5</ele>
        <time>2025-01-17T17:42:23.291Z</time>
      </trkpt>
      <trkpt lat="46.7257" lon="-1.97292">
        <ele>6.5</ele>
        <time>2025-01-17T17:42:24.291Z</time>
      </trkpt>
      <trkpt lat="46.72572" lon="-1.97293">
        <ele>6.6</ele>
        <time>2025-01-17T17:42:25.292Z</time>
      </trkpt>
      <trkpt lat="46.72574" lon="-1.97294">
        <ele>6.7</ele>
        <time>2025-01-17T17:42:26.292Z</time>
      </trkpt>
      <trkpt lat="46.72576" lon="-1.97294">
        <ele>6.7</ele>
        <time>2025-01-17T17:42:27.292Z</time>
      </trkpt>
      <trkpt lat="46.72578" lon="-1.97295">
        <ele>6.8</ele>
        <time>2025-01-17T17:42:28.292Z</time>
      </trkpt>
      <trkpt lat="46.7258" lon="-1.97295">
        <ele>6.9</ele>
        <time>2025-01-17T17:42:29.291Z</time>
      </trkpt>
      <trkpt lat="46.72583" lon="-1.97295">
        <ele>7</ele>
        <time>2025-01-17T17:42:30.291Z</time>
      </trkpt>
      <trkpt lat="46.72585" lon="-1.97294">
        <ele>7</ele>
        <time>2025-01-17T17:42:31.291Z</time>
      </trkpt>
      <trkpt lat="46.72587" lon="-1.97293">
        <ele>6.9</ele>
        <time>2025-01-17T17:42:32.291Z</time>
      </trkpt>
      <trkpt lat="46.72588" lon="-1.97294">
        <ele>6.9</ele>
        <time>2025-01-17T17:42:33.292Z</time>
      </trkpt>
      <trkpt lat="46.72589" lon="-1.97295">
        <ele>6.9</ele>
        <time>2025-01-17T17:42:34.292Z</time>
      </trkpt>
      <trkpt lat="46.72591" lon="-1.97295">
        <ele>6.9</ele>
        <time>2025-01-17T17:42:35.292Z</time>
      </trkpt>
      <trkpt lat="46.72593" lon="-1.97295">
        <ele>6.9</ele>
        <time>2025-01-17T17:42:36.292Z</time>
      </trkpt>
      <trkpt lat="46.72596" lon="-1.97295">
        <ele>6.8</ele>
        <time>2025-01-17T17:42:37.292Z</time>
      </trkpt>
      <trkpt lat="46.72598" lon="-1.97295">
        <ele>6.8</ele>
        <time>2025-01-17T17:42:38.291Z</time>
      </trkpt>
      <trkpt lat="46.72601" lon="-1.97295">
        <ele>6.8</ele>
        <time>2025-01-17T17:42:39.291Z</time>
      </trkpt>
      <trkpt lat="46.72603" lon="-1.97296">
        <ele>6.7</ele>
        <time>2025-01-17T17:42:40.291Z</time>
      </trkpt>
      <trkpt lat="46.72606" lon="-1.97296">
        <ele>6.7</ele>
        <time>2025-01-17T17:42:41.291Z</time>
      </trkpt>
      <trkpt lat="46.72609" lon="-1.97295">
        <ele>6.6</ele>
        <time>2025-01-17T17:42:42.292Z</time>
      </trkpt>
      <trkpt lat="46.72613" lon="-1.97294">
        <ele>6.5</ele>
        <time>2025-01-17T17:42:43.292Z</time>
      </trkpt>
      <trkpt lat="46.72614" lon="-1.97294">
        <ele>6.5</ele>
        <time>2025-01-17T17:42:44.291Z</time>
      </trkpt>
      <trkpt lat="46.72616" lon="-1.97295">
        <ele>6.4</ele>
        <time>2025-01-17T17:42:45.291Z</time>
      </trkpt>
      <trkpt lat="46.72617" lon="-1.97297">
        <ele>6.5</ele>
        <time>2025-01-17T17:42:46.291Z</time>
      </trkpt>
      <trkpt lat="46.7262" lon="-1.97296">
        <ele>6.3</ele>
        <time>2025-01-17T17:42:47.291Z</time>
      </trkpt>
      <trkpt lat="46.72624" lon="-1.97294">
        <ele>6.1</ele>
        <time>2025-01-17T17:42:48.291Z</time>
      </trkpt>
      <trkpt lat="46.72629" lon="-1.97292">
        <ele>5.9</ele>
        <time>2025-01-17T17:42:49.291Z</time>
      </trkpt>
      <trkpt lat="46.72634" lon="-1.97291">
        <ele>5.7</ele>
        <time>2025-01-17T17:42:50.292Z</time>
      </trkpt>
      <trkpt lat="46.72638" lon="-1.97289">
        <ele>5.4</ele>
        <time>2025-01-17T17:42:51.292Z</time>
      </trkpt>
      <trkpt lat="46.72643" lon="-1.97287">
        <ele>5.3</ele>
        <time>2025-01-17T17:42:52.291Z</time>
      </trkpt>
      <trkpt lat="46.72647" lon="-1.97285">
        <ele>5.2</ele>
        <time>2025-01-17T17:42:53.291Z</time>
      </trkpt>
      <trkpt lat="46.72651" lon="-1.97285">
        <ele>5.2</ele>
        <time>2025-01-17T17:42:54.292Z</time>
      </trkpt>
      <trkpt lat="46.72655" lon="-1.97285">
        <ele>5.2</ele>
        <time>2025-01-17T17:42:55.291Z</time>
      </trkpt>
      <trkpt lat="46.72657" lon="-1.97285">
        <ele>5.3</ele>
        <time>2025-01-17T17:42:56.292Z</time>
      </trkpt>
      <trkpt lat="46.72659" lon="-1.97286">
        <ele>5.3</ele>
        <time>2025-01-17T17:42:57.292Z</time>
      </trkpt>
      <trkpt lat="46.72661" lon="-1.97287">
        <ele>5.3</ele>
        <time>2025-01-17T17:42:58.291Z</time>
      </trkpt>
      <trkpt lat="46.72662" lon="-1.97289">
        <ele>5.4</ele>
        <time>2025-01-17T17:42:59.292Z</time>
      </trkpt>
      <trkpt lat="46.72665" lon="-1.9729">
        <ele>5.4</ele>
        <time>2025-01-17T17:43:00.292Z</time>
      </trkpt>
      <trkpt lat="46.72667" lon="-1.97291">
        <ele>5.5</ele>
        <time>2025-01-17T17:43:01.291Z</time>
      </trkpt>
      <trkpt lat="46.7267" lon="-1.97292">
        <ele>5.7</ele>
        <time>2025-01-17T17:43:02.291Z</time>
      </trkpt>
      <trkpt lat="46.72672" lon="-1.97293">
        <ele>5.8</ele>
        <time>2025-01-17T17:43:03.291Z</time>
      </trkpt>
      <trkpt lat="46.72673" lon="-1.97295">
        <ele>6</ele>
        <time>2025-01-17T17:43:04.291Z</time>
      </trkpt>
      <trkpt lat="46.72675" lon="-1.97297">
        <ele>6.2</ele>
        <time>2025-01-17T17:43:05.292Z</time>
      </trkpt>
      <trkpt lat="46.72676" lon="-1.97298">
        <ele>6.3</ele>
        <time>2025-01-17T17:43:06.291Z</time>
      </trkpt>
      <trkpt lat="46.72678" lon="-1.97299">
        <ele>6.5</ele>
        <time>2025-01-17T17:43:07.292Z</time>
      </trkpt>
      <trkpt lat="46.72677" lon="-1.97303">
        <ele>6.6</ele>
        <time>2025-01-17T17:43:08.292Z</time>
      </trkpt>
      <trkpt lat="46.72678" lon="-1.97304">
        <ele>6.8</ele>
        <time>2025-01-17T17:43:09.291Z</time>
      </trkpt>
      <trkpt lat="46.72679" lon="-1.97306">
        <ele>7</ele>
        <time>2025-01-17T17:43:10.291Z</time>
      </trkpt>
      <trkpt lat="46.7268" lon="-1.97309">
        <ele>7.3</ele>
        <time>2025-01-17T17:43:11.292Z</time>
      </trkpt>
      <trkpt lat="46.72681" lon="-1.97311">
        <ele>7.6</ele>
        <time>2025-01-17T17:43:12.292Z</time>
      </trkpt>
      <trkpt lat="46.72682" lon="-1.97312">
        <ele>8</ele>
        <time>2025-01-17T17:43:13.292Z</time>
      </trkpt>
      <trkpt lat="46.72684" lon="-1.97313">
        <ele>8.3</ele>
        <time>2025-01-17T17:43:14.292Z</time>
      </trkpt>
      <trkpt lat="46.72686" lon="-1.97314">
        <ele>8.6</ele>
        <time>2025-01-17T17:43:15.291Z</time>
      </trkpt>
      <trkpt lat="46.72688" lon="-1.97314">
        <ele>8.9</ele>
        <time>2025-01-17T17:43:16.291Z</time>
      </trkpt>
      <trkpt lat="46.7269" lon="-1.97315">
        <ele>9.1</ele>
        <time>2025-01-17T17:43:17.292Z</time>
      </trkpt>
      <trkpt lat="46.72692" lon="-1.97316">
        <ele>9.5</ele>
        <time>2025-01-17T17:43:18.291Z</time>
      </trkpt>
      <trkpt lat="46.72693" lon="-1.97318">
        <ele>10</ele>
        <time>2025-01-17T17:43:19.292Z</time>
      </trkpt>
      <trkpt lat="46.72696" lon="-1.97319">
        <ele>10.5</ele>
        <time>2025-01-17T17:43:20.292Z</time>
      </trkpt>
      <trkpt lat="46.72697" lon="-1.97321">
        <ele>10.9</ele>
        <time>2025-01-17T17:43:21.292Z</time>
      </trkpt>
      <trkpt lat="46.72697" lon="-1.97322">
        <ele>11.2</ele>
        <time>2025-01-17T17:43:22.292Z</time>
      </trkpt>
      <trkpt lat="46.72698" lon="-1.97324">
        <ele>11.7</ele>
        <time>2025-01-17T17:43:23.292Z</time>
      </trkpt>
      <trkpt lat="46.72698" lon="-1.97328">
        <ele>12.4</ele>
        <time>2025-01-17T17:43:24.291Z</time>
      </trkpt>
      <trkpt lat="46.72699" lon="-1.9733">
        <ele>13</ele>
        <time>2025-01-17T17:43:25.291Z</time>
      </trkpt>
      <trkpt lat="46.727" lon="-1.97332">
        <ele>13.5</ele>
        <time>2025-01-17T17:43:26.291Z</time>
      </trkpt>
      <trkpt lat="46.72702" lon="-1.97333">
        <ele>13.8</ele>
        <time>2025-01-17T17:43:27.292Z</time>
      </trkpt>
      <trkpt lat="46.72703" lon="-1.97334">
        <ele>14.3</ele>
        <time>2025-01-17T17:43:28.291Z</time>
      </trkpt>
      <trkpt lat="46.72704" lon="-1.97334">
        <ele>14.6</ele>
        <time>2025-01-17T17:43:29.292Z</time>
      </trkpt>
      <trkpt lat="46.72706" lon="-1.97334">
        <ele>14.9</ele>
        <time>2025-01-17T17:43:30.291Z</time>
      </trkpt>
      <trkpt lat="46.72707" lon="-1.97335">
        <ele>15.2</ele>
        <time>2025-01-17T17:43:31.292Z</time>
      </trkpt>
      <trkpt lat="46.72708" lon="-1.97336">
        <ele>15.5</ele>
        <time>2025-01-17T17:43:32.291Z</time>
      </trkpt>
      <trkpt lat="46.72708" lon="-1.97338">
        <ele>15.7</ele>
        <time>2025-01-17T17:43:33.291Z</time>
      </trkpt>
      <trkpt lat="46.72708" lon="-1.97338">
        <ele>15.8</ele>
        <time>2025-01-17T17:43:34.291Z</time>
      </trkpt>
      <trkpt lat="46.72709" lon="-1.97338">
        <ele>15.9</ele>
        <time>2025-01-17T17:43:35.291Z</time>
      </trkpt>
      <trkpt lat="46.72711" lon="-1.97337">
        <ele>15.9</ele>
        <time>2025-01-17T17:43:36.291Z</time>
      </trkpt>
      <trkpt lat="46.72712" lon="-1.97337">
        <ele>16</ele>
        <time>2025-01-17T17:43:37.291Z</time>
      </trkpt>
      <trkpt lat="46.72713" lon="-1.97337">
        <ele>16.2</ele>
        <time>2025-01-17T17:43:38.291Z</time>
      </trkpt>
      <trkpt lat="46.72714" lon="-1.97337">
        <ele>16.3</ele>
        <time>2025-01-17T17:43:39.291Z</time>
      </trkpt>
      <trkpt lat="46.72715" lon="-1.97337">
        <ele>16.5</ele>
        <time>2025-01-17T17:43:40.291Z</time>
      </trkpt>
      <trkpt lat="46.72716" lon="-1.97337">
        <ele>16.7</ele>
        <time>2025-01-17T17:43:41.292Z</time>
      </trkpt>
      <trkpt lat="46.72716" lon="-1.97338">
        <ele>16.8</ele>
        <time>2025-01-17T17:43:42.292Z</time>
      </trkpt>
      <trkpt lat="46.72717" lon="-1.9734">
        <ele>17</ele>
        <time>2025-01-17T17:43:43.292Z</time>
      </trkpt>
      <trkpt lat="46.72718" lon="-1.9734">
        <ele>17.2</ele>
        <time>2025-01-17T17:43:44.292Z</time>
      </trkpt>
      <trkpt lat="46.72719" lon="-1.9734">
        <ele>17.4</ele>
        <time>2025-01-17T17:43:45.291Z</time>
      </trkpt>
      <trkpt lat="46.72719" lon="-1.97341">
        <ele>17.5</ele>
        <time>2025-01-17T17:43:46.291Z</time>
      </trkpt>
      <trkpt lat="46.72719" lon="-1.97342">
        <ele>17.7</ele>
        <time>2025-01-17T17:43:47.292Z</time>
      </trkpt>
      <trkpt lat="46.7272" lon="-1.97343">
        <ele>17.9</ele>
        <time>2025-01-17T17:43:48.292Z</time>
      </trkpt>
      <trkpt lat="46.72721" lon="-1.97345">
        <ele>18.2</ele>
        <time>2025-01-17T17:43:49.291Z</time>
      </trkpt>
      <trkpt lat="46.72721" lon="-1.97349">
        <ele>18.5</ele>
        <time>2025-01-17T17:43:50.292Z</time>
      </trkpt>
      <trkpt lat="46.72722" lon="-1.97352">
        <ele>19</ele>
        <time>2025-01-17T17:43:51.291Z</time>
      </trkpt>
      <trkpt lat="46.72723" lon="-1.97356">
        <ele>19.5</ele>
        <time>2025-01-17T17:43:52.292Z</time>
      </trkpt>
      <trkpt lat="46.72723" lon="-1.97359">
        <ele>19.9</ele>
        <time>2025-01-17T17:43:53.291Z</time>
      </trkpt>
      <trkpt lat="46.72723" lon="-1.97362">
        <ele>20</ele>
        <time>2025-01-17T17:43:54.291Z</time>
      </trkpt>
      <trkpt lat="46.72723" lon="-1.97365">
        <ele>19.8</ele>
        <time>2025-01-17T17:43:55.292Z</time>
      </trkpt>
      <trkpt lat="46.72723" lon="-1.97366">
        <ele>19.7</ele>
        <time>2025-01-17T17:43:56.291Z</time>
      </trkpt>
      <trkpt lat="46.72724" lon="-1.97367">
        <ele>19.7</ele>
        <time>2025-01-17T17:43:57.292Z</time>
      </trkpt>
      <trkpt lat="46.72725" lon="-1.97369">
        <ele>19.6</ele>
        <time>2025-01-17T17:43:58.291Z</time>
      </trkpt>
      <trkpt lat="46.72726" lon="-1.97369">
        <ele>19.7</ele>
        <time>2025-01-17T17:43:59.291Z</time>
      </trkpt>
      <trkpt lat="46.72729" lon="-1.97369">
        <ele>19.9</ele>
        <time>2025-01-17T17:44:00.291Z</time>
      </trkpt>
      <trkpt lat="46.72731" lon="-1.97368">
        <ele>20.1</ele>
        <time>2025-01-17T17:44:01.292Z</time>
      </trkpt>
      <trkpt lat="46.72733" lon="-1.97368">
        <ele>20.3</ele>
        <time>2025-01-17T17:44:02.292Z</time>
      </trkpt>
      <trkpt lat="46.72734" lon="-1.97368">
        <ele>20.4</ele>
        <time>2025-01-17T17:44:03.292Z</time>
      </trkpt>
      <trkpt lat="46.72735" lon="-1.97369">
        <ele>20.3</ele>
        <time>2025-01-17T17:44:04.291Z</time>
      </trkpt>
      <trkpt lat="46.72735" lon="-1.97369">
        <ele>20.4</ele>
        <time>2025-01-17T17:44:05.291Z</time>
      </trkpt>
      <trkpt lat="46.72736" lon="-1.9737">
        <ele>20.4</ele>
        <time>2025-01-17T17:44:06.291Z</time>
      </trkpt>
      <trkpt lat="46.72737" lon="-1.9737">
        <ele>20.4</ele>
        <time>2025-01-17T17:44:07.292Z</time>
      </trkpt>
      <trkpt lat="46.72738" lon="-1.97371">
        <ele>20.4</ele>
        <time>2025-01-17T17:44:08.292Z</time>
      </trkpt>
      <trkpt lat="46.72739" lon="-1.97371">
        <ele>20.5</ele>
        <time>2025-01-17T17:44:09.291Z</time>
      </trkpt>
      <trkpt lat="46.7274" lon="-1.97372">
        <ele>20.6</ele>
        <time>2025-01-17T17:44:10.291Z</time>
      </trkpt>
      <trkpt lat="46.72742" lon="-1.97372">
        <ele>20.6</ele>
        <time>2025-01-17T17:44:11.291Z</time>
      </trkpt>
      <trkpt lat="46.72743" lon="-1.97373">
        <ele>20.7</ele>
        <time>2025-01-17T17:44:12.291Z</time>
      </trkpt>
      <trkpt lat="46.72744" lon="-1.97374">
        <ele>20.7</ele>
        <time>2025-01-17T17:44:13.291Z</time>
      </trkpt>
      <trkpt lat="46.72745" lon="-1.97374">
        <ele>20.7</ele>
        <time>2025-01-17T17:44:14.292Z</time>
      </trkpt>
      <trkpt lat="46.72746" lon="-1.97375">
        <ele>20.7</ele>
        <time>2025-01-17T17:44:15.292Z</time>
      </trkpt>
      <trkpt lat="46.72747" lon="-1.97376">
        <ele>20.7</ele>
        <time>2025-01-17T17:44:16.292Z</time>
      </trkpt>
      <trkpt lat="46.72749" lon="-1.97377">
        <ele>20.8</ele>
        <time>2025-01-17T17:44:17.292Z</time>
      </trkpt>
      <trkpt lat="46.72749" lon="-1.97378">
        <ele>20.7</ele>
        <time>2025-01-17T17:44:18.292Z</time>
      </trkpt>
      <trkpt lat="46.7275" lon="-1.9738">
        <ele>20.7</ele>
        <time>2025-01-17T17:44:19.291Z</time>
      </trkpt>
      <trkpt lat="46.72751" lon="-1.97381">
        <ele>20.6</ele>
        <time>2025-01-17T17:44:20.292Z</time>
      </trkpt>
      <trkpt lat="46.72752" lon="-1.97384">
        <ele>20.3</ele>
        <time>2025-01-17T17:44:21.291Z</time>
      </trkpt>
      <trkpt lat="46.72752" lon="-1.97386">
        <ele>20.2</ele>
        <time>2025-01-17T17:44:22.291Z</time>
      </trkpt>
      <trkpt lat="46.72753" lon="-1.97389">
        <ele>20</ele>
        <time>2025-01-17T17:44:23.292Z</time>
      </trkpt>
      <trkpt lat="46.72755" lon="-1.97391">
        <ele>19.7</ele>
        <time>2025-01-17T17:44:24.291Z</time>
      </trkpt>
      <trkpt lat="46.72757" lon="-1.97393">
        <ele>19.5</ele>
        <time>2025-01-17T17:44:25.291Z</time>
      </trkpt>
      <trkpt lat="46.7276" lon="-1.97395">
        <ele>19.4</ele>
        <time>2025-01-17T17:44:26.291Z</time>
      </trkpt>
      <trkpt lat="46.72763" lon="-1.97395">
        <ele>19.5</ele>
        <time>2025-01-17T17:44:27.291Z</time>
      </trkpt>
      <trkpt lat="46.72765" lon="-1.97395">
        <ele>19.6</ele>
        <time>2025-01-17T17:44:28.292Z</time>
      </trkpt>
      <trkpt lat="46.72769" lon="-1.97394">
        <ele>19.8</ele>
        <time>2025-01-17T17:44:29.291Z</time>
      </trkpt>
      <trkpt lat="46.72772" lon="-1.97395">
        <ele>19.9</ele>
        <time>2025-01-17T17:44:30.292Z</time>
      </trkpt>
      <trkpt lat="46.72774" lon="-1.97394">
        <ele>20</ele>
        <time>2025-01-17T17:44:31.291Z</time>
      </trkpt>
      <trkpt lat="46.72776" lon="-1.97395">
        <ele>20.1</ele>
        <time>2025-01-17T17:44:32.291Z</time>
      </trkpt>
      <trkpt lat="46.72778" lon="-1.97397">
        <ele>20.3</ele>
        <time>2025-01-17T17:44:33.292Z</time>
      </trkpt>
      <trkpt lat="46.72779" lon="-1.974">
        <ele>20.3</ele>
        <time>2025-01-17T17:44:34.291Z</time>
      </trkpt>
      <trkpt lat="46.7278" lon="-1.97402">
        <ele>20.3</ele>
        <time>2025-01-17T17:44:35.291Z</time>
      </trkpt>
      <trkpt lat="46.72781" lon="-1.97405">
        <ele>20.3</ele>
        <time>2025-01-17T17:44:36.291Z</time>
      </trkpt>
      <trkpt lat="46.72782" lon="-1.97406">
        <ele>20.2</ele>
        <time>2025-01-17T17:44:37.291Z</time>
      </trkpt>
      <trkpt lat="46.72784" lon="-1.97408">
        <ele>20.2</ele>
        <time>2025-01-17T17:44:38.292Z</time>
      </trkpt>
      <trkpt lat="46.72787" lon="-1.97407">
        <ele>19.9</ele>
        <time>2025-01-17T17:44:39.291Z</time>
      </trkpt>
      <trkpt lat="46.7279" lon="-1.97407">
        <ele>19.7</ele>
        <time>2025-01-17T17:44:40.291Z</time>
      </trkpt>
      <trkpt lat="46.72791" lon="-1.97408">
        <ele>19.6</ele>
        <time>2025-01-17T17:44:41.292Z</time>
      </trkpt>
      <trkpt lat="46.72792" lon="-1.9741">
        <ele>19.7</ele>
        <time>2025-01-17T17:44:42.292Z</time>
      </trkpt>
      <trkpt lat="46.72794" lon="-1.97412">
        <ele>19.8</ele>
        <time>2025-01-17T17:44:43.292Z</time>
      </trkpt>
      <trkpt lat="46.72794" lon="-1.97416">
        <ele>20.3</ele>
        <time>2025-01-17T17:44:44.292Z</time>
      </trkpt>
      <trkpt lat="46.72795" lon="-1.97419">
        <ele>20.4</ele>
        <time>2025-01-17T17:44:45.291Z</time>
      </trkpt>
      <trkpt lat="46.72797" lon="-1.97421">
        <ele>20.4</ele>
        <time>2025-01-17T17:44:46.291Z</time>
      </trkpt>
      <trkpt lat="46.72798" lon="-1.97423">
        <ele>20.5</ele>
        <time>2025-01-17T17:44:47.292Z</time>
      </trkpt>
      <trkpt lat="46.72799" lon="-1.97427">
        <ele>20.6</ele>
        <time>2025-01-17T17:44:48.291Z</time>
      </trkpt>
      <trkpt lat="46.728" lon="-1.9743">
        <ele>20.8</ele>
        <time>2025-01-17T17:44:49.292Z</time>
      </trkpt>
      <trkpt lat="46.72801" lon="-1.97433">
        <ele>21</ele>
        <time>2025-01-17T17:44:50.291Z</time>
      </trkpt>
      <trkpt lat="46.72803" lon="-1.97435">
        <ele>21.2</ele>
        <time>2025-01-17T17:44:51.291Z</time>
      </trkpt>
      <trkpt lat="46.72806" lon="-1.97436">
        <ele>21.4</ele>
        <time>2025-01-17T17:44:52.291Z</time>
      </trkpt>
      <trkpt lat="46.72807" lon="-1.97438">
        <ele>21.4</ele>
        <time>2025-01-17T17:44:53.292Z</time>
      </trkpt>
      <trkpt lat="46.72808" lon="-1.9744">
        <ele>21.5</ele>
        <time>2025-01-17T17:44:54.291Z</time>
      </trkpt>
      <trkpt lat="46.72809" lon="-1.97442">
        <ele>21.6</ele>
        <time>2025-01-17T17:44:55.292Z</time>
      </trkpt>
      <trkpt lat="46.7281" lon="-1.97444">
        <ele>21.6</ele>
        <time>2025-01-17T17:44:56.291Z</time>
      </trkpt>
      <trkpt lat="46.72812" lon="-1.97445">
        <ele>21.5</ele>
        <time>2025-01-17T17:44:57.291Z</time>
      </trkpt>
      <trkpt lat="46.72814" lon="-1.97447">
        <ele>21.4</ele>
        <time>2025-01-17T17:44:58.291Z</time>
      </trkpt>
      <trkpt lat="46.72817" lon="-1.97447">
        <ele>21.2</ele>
        <time>2025-01-17T17:44:59.291Z</time>
      </trkpt>
      <trkpt lat="46.72819" lon="-1.97447">
        <ele>21.1</ele>
        <time>2025-01-17T17:45:00.292Z</time>
      </trkpt>
      <trkpt lat="46.7282" lon="-1.97447">
        <ele>21</ele>
        <time>2025-01-17T17:45:01.292Z</time>
      </trkpt>
      <trkpt lat="46.72822" lon="-1.97449">
        <ele>20.9</ele>
        <time>2025-01-17T17:45:02.292Z</time>
      </trkpt>
      <trkpt lat="46.72824" lon="-1.97451">
        <ele>20.8</ele>
        <time>2025-01-17T17:45:03.292Z</time>
      </trkpt>
      <trkpt lat="46.72825" lon="-1.97452">
        <ele>20.8</ele>
        <time>2025-01-17T17:45:04.292Z</time>
      </trkpt>
      <trkpt lat="46.72827" lon="-1.97452">
        <ele>20.6</ele>
        <time>2025-01-17T17:45:05.292Z</time>
      </trkpt>
      <trkpt lat="46.72831" lon="-1.97451">
        <ele>20.4</ele>
        <time>2025-01-17T17:45:06.291Z</time>
      </trkpt>
      <trkpt lat="46.72833" lon="-1.9745">
        <ele>20.2</ele>
        <time>2025-01-17T17:45:07.291Z</time>
      </trkpt>
      <trkpt lat="46.72836" lon="-1.9745">
        <ele>19.8</ele>
        <time>2025-01-17T17:45:08.292Z</time>
      </trkpt>
      <trkpt lat="46.72838" lon="-1.97451">
        <ele>19.5</ele>
        <time>2025-01-17T17:45:09.292Z</time>
      </trkpt>
      <trkpt lat="46.7284" lon="-1.97451">
        <ele>19.3</ele>
        <time>2025-01-17T17:45:10.291Z</time>
      </trkpt>
      <trkpt lat="46.72841" lon="-1.97453">
        <ele>19.2</ele>
        <time>2025-01-17T17:45:11.292Z</time>
      </trkpt>
      <trkpt lat="46.72843" lon="-1.97455">
        <ele>19</ele>
        <time>2025-01-17T17:45:12.292Z</time>
      </trkpt>
      <trkpt lat="46.72846" lon="-1.97457">
        <ele>18.8</ele>
        <time>2025-01-17T17:45:13.291Z</time>
      </trkpt>
      <trkpt lat="46.72847" lon="-1.97459">
        <ele>18.8</ele>
        <time>2025-01-17T17:45:14.291Z</time>
      </trkpt>
      <trkpt lat="46.7285" lon="-1.97462">
        <ele>18.8</ele>
        <time>2025-01-17T17:45:15.292Z</time>
      </trkpt>
      <trkpt lat="46.72852" lon="-1.97464">
        <ele>18.7</ele>
        <time>2025-01-17T17:45:16.292Z</time>
      </trkpt>
      <trkpt lat="46.72854" lon="-1.97465">
        <ele>18.7</ele>
        <time>2025-01-17T17:45:17.291Z</time>
      </trkpt>
      <trkpt lat="46.72856" lon="-1.97467">
        <ele>18.7</ele>
        <time>2025-01-17T17:45:18.291Z</time>
      </trkpt>
      <trkpt lat="46.72859" lon="-1.97469">
        <ele>18.7</ele>
        <time>2025-01-17T17:45:19.291Z</time>
      </trkpt>
      <trkpt lat="46.72861" lon="-1.9747">
        <ele>18.6</ele>
        <time>2025-01-17T17:45:20.292Z</time>
      </trkpt>
      <trkpt lat="46.72865" lon="-1.97471">
        <ele>18.2</ele>
        <time>2025-01-17T17:45:21.292Z</time>
      </trkpt>
      <trkpt lat="46.72867" lon="-1.97473">
        <ele>17.8</ele>
        <time>2025-01-17T17:45:22.291Z</time>
      </trkpt>
      <trkpt lat="46.7287" lon="-1.97476">
        <ele>17.3</ele>
        <time>2025-01-17T17:45:23.291Z</time>
      </trkpt>
      <trkpt lat="46.72872" lon="-1.97479">
        <ele>16.8</ele>
        <time>2025-01-17T17:45:24.291Z</time>
      </trkpt>
      <trkpt lat="46.72875" lon="-1.97481">
        <ele>16.3</ele>
        <time>2025-01-17T17:45:25.291Z</time>
      </trkpt>
      <trkpt lat="46.72877" lon="-1.97484">
        <ele>16.1</ele>
        <time>2025-01-17T17:45:26.291Z</time>
      </trkpt>
      <trkpt lat="46.72878" lon="-1.97487">
        <ele>16</ele>
        <time>2025-01-17T17:45:27.292Z</time>
      </trkpt>
      <trkpt lat="46.72879" lon="-1.97489">
        <ele>15.9</ele>
        <time>2025-01-17T17:45:28.292Z</time>
      </trkpt>
      <trkpt lat="46.7288" lon="-1.97491">
        <ele>15.9</ele>
        <time>2025-01-17T17:45:29.291Z</time>
      </trkpt>
      <trkpt lat="46.7288" lon="-1.97495">
        <ele>15.9</ele>
        <time>2025-01-17T17:45:30.292Z</time>
      </trkpt>
      <trkpt lat="46.72881" lon="-1.97499">
        <ele>16</ele>
        <time>2025-01-17T17:45:31.292Z</time>
      </trkpt>
      <trkpt lat="46.72882" lon="-1.97502">
        <ele>16.2</ele>
        <time>2025-01-17T17:45:32.292Z</time>
      </trkpt>
      <trkpt lat="46.72883" lon="-1.97506">
        <ele>16.4</ele>
        <time>2025-01-17T17:45:33.291Z</time>
      </trkpt>
      <trkpt lat="46.72884" lon="-1.97509">
        <ele>16.8</ele>
        <time>2025-01-17T17:45:34.291Z</time>
      </trkpt>
      <trkpt lat="46.72887" lon="-1.97513">
        <ele>17.2</ele>
        <time>2025-01-17T17:45:35.291Z</time>
      </trkpt>
      <trkpt lat="46.72887" lon="-1.97517">
        <ele>17.6</ele>
        <time>2025-01-17T17:45:36.291Z</time>
      </trkpt>
      <trkpt lat="46.72887" lon="-1.97521">
        <ele>18.1</ele>
        <time>2025-01-17T17:45:37.291Z</time>
      </trkpt>
      <trkpt lat="46.72888" lon="-1.97523">
        <ele>18.4</ele>
        <time>2025-01-17T17:45:38.291Z</time>
      </trkpt>
      <trkpt lat="46.7289" lon="-1.97525">
        <ele>18.6</ele>
        <time>2025-01-17T17:45:39.292Z</time>
      </trkpt>
      <trkpt lat="46.72891" lon="-1.97527">
        <ele>18.5</ele>
        <time>2025-01-17T17:45:40.291Z</time>
      </trkpt>
      <trkpt lat="46.72894" lon="-1.97527">
        <ele>18.2</ele>
        <time>2025-01-17T17:45:41.292Z</time>
      </trkpt>
      <trkpt lat="46.72897" lon="-1.97529">
        <ele>17.9</ele>
        <time>2025-01-17T17:45:42.292Z</time>
      </trkpt>
      <trkpt lat="46.729" lon="-1.97532">
        <ele>17.6</ele>
        <time>2025-01-17T17:45:43.292Z</time>
      </trkpt>
      <trkpt lat="46.72904" lon="-1.97534">
        <ele>17.4</ele>
        <time>2025-01-17T17:45:44.292Z</time>
      </trkpt>
      <trkpt lat="46.72906" lon="-1.97536">
        <ele>17.2</ele>
        <time>2025-01-17T17:45:45.292Z</time>
      </trkpt>
      <trkpt lat="46.72909" lon="-1.97537">
        <ele>17</ele>
        <time>2025-01-17T17:45:46.291Z</time>
      </trkpt>
      <trkpt lat="46.72912" lon="-1.97537">
        <ele>16.8</ele>
        <time>2025-01-17T17:45:47.291Z</time>
      </trkpt>
      <trkpt lat="46.72915" lon="-1.97537">
        <ele>16.5</ele>
        <time>2025-01-17T17:45:48.291Z</time>
      </trkpt>
      <trkpt lat="46.72918" lon="-1.97537">
        <ele>16.3</ele>
        <time>2025-01-17T17:45:49.292Z</time>
      </trkpt>
      <trkpt lat="46.72921" lon="-1.97536">
        <ele>16.3</ele>
        <time>2025-01-17T17:45:50.292Z</time>
      </trkpt>
      <trkpt lat="46.72924" lon="-1.97536">
        <ele>16.4</ele>
        <time>2025-01-17T17:45:51.291Z</time>
      </trkpt>
      <trkpt lat="46.72926" lon="-1.97537">
        <ele>16.6</ele>
        <time>2025-01-17T17:45:52.292Z</time>
      </trkpt>
      <trkpt lat="46.72927" lon="-1.97539">
        <ele>16.8</ele>
        <time>2025-01-17T17:45:53.291Z</time>
      </trkpt>
      <trkpt lat="46.72927" lon="-1.97541">
        <ele>17.1</ele>
        <time>2025-01-17T17:45:54.292Z</time>
      </trkpt>
      <trkpt lat="46.72928" lon="-1.97542">
        <ele>17.2</ele>
        <time>2025-01-17T17:45:55.292Z</time>
      </trkpt>
      <trkpt lat="46.7293" lon="-1.97543">
        <ele>17.4</ele>
        <time>2025-01-17T17:45:56.291Z</time>
      </trkpt>
      <trkpt lat="46.72931" lon="-1.97545">
        <ele>17.6</ele>
        <time>2025-01-17T17:45:57.291Z</time>
      </trkpt>
      <trkpt lat="46.72933" lon="-1.97546">
        <ele>17.8</ele>
        <time>2025-01-17T17:45:58.291Z</time>
      </trkpt>
      <trkpt lat="46.72935" lon="-1.97546">
        <ele>17.8</ele>
        <time>2025-01-17T17:45:59.291Z</time>
      </trkpt>
      <trkpt lat="46.72937" lon="-1.97547">
        <ele>18</ele>
        <time>2025-01-17T17:46:00.291Z</time>
      </trkpt>
      <trkpt lat="46.72939" lon="-1.97546">
        <ele>17.8</ele>
        <time>2025-01-17T17:46:01.292Z</time>
      </trkpt>
      <trkpt lat="46.72939" lon="-1.97546">
        <ele>17.9</ele>
        <time>2025-01-17T17:46:02.292Z</time>
      </trkpt>
      <trkpt lat="46.72939" lon="-1.97548">
        <ele>18.1</ele>
        <time>2025-01-17T17:46:03.292Z</time>
      </trkpt>
      <trkpt lat="46.7294" lon="-1.97549">
        <ele>18.2</ele>
        <time>2025-01-17T17:46:04.291Z</time>
      </trkpt>
      <trkpt lat="46.72942" lon="-1.97549">
        <ele>18.3</ele>
        <time>2025-01-17T17:46:05.291Z</time>
      </trkpt>
      <trkpt lat="46.72942" lon="-1.97551">
        <ele>18.5</ele>
        <time>2025-01-17T17:46:06.292Z</time>
      </trkpt>
      <trkpt lat="46.72941" lon="-1.97555">
        <ele>18.9</ele>
        <time>2025-01-17T17:46:07.291Z</time>
      </trkpt>
      <trkpt lat="46.72942" lon="-1.97556">
        <ele>19</ele>
        <time>2025-01-17T17:46:08.291Z</time>
      </trkpt>
      <trkpt lat="46.72941" lon="-1.97558">
        <ele>19</ele>
        <time>2025-01-17T17:46:09.291Z</time>
      </trkpt>
      <trkpt lat="46.72941" lon="-1.97558">
        <ele>19</ele>
        <time>2025-01-17T17:46:10.291Z</time>
      </trkpt>
      <trkpt lat="46.72941" lon="-1.97558">
        <ele>19</ele>
        <time>2025-01-17T17:46:11.291Z</time>
      </trkpt>
      <trkpt lat="46.72941" lon="-1.97558">
        <ele>19</ele>
        <time>2025-01-17T17:46:12.291Z</time>
      </trkpt>
      <trkpt lat="46.72942" lon="-1.97558">
        <ele>19</ele>
        <time>2025-01-17T17:46:13.292Z</time>
      </trkpt>
      <trkpt lat="46.72942" lon="-1.97558">
        <ele>19</ele>
        <time>2025-01-17T17:46:14.292Z</time>
      </trkpt>
      <trkpt lat="46.72942" lon="-1.97559">
        <ele>19</ele>
        <time>2025-01-17T17:46:15.292Z</time>
      </trkpt>
      <trkpt lat="46.72942" lon="-1.9756">
        <ele>19</ele>
        <time>2025-01-17T17:46:16.291Z</time>
      </trkpt>
      <trkpt lat="46.7294" lon="-1.97562">
        <ele>19</ele>
        <time>2025-01-17T17:46:17.292Z</time>
      </trkpt>
      <trkpt lat="46.72939" lon="-1.97563">
        <ele>19</ele>
        <time>2025-01-17T17:46:18.292Z</time>
      </trkpt>
      <trkpt lat="46.72938" lon="-1.97563">
        <ele>19</ele>
        <time>2025-01-17T17:46:19.292Z</time>
      </trkpt>
      <trkpt lat="46.72936" lon="-1.97564">
        <ele>19</ele>
        <time>2025-01-17T17:46:20.292Z</time>
      </trkpt>
      <trkpt lat="46.72934" lon="-1.97565">
        <ele>19</ele>
        <time>2025-01-17T17:46:21.292Z</time>
      </trkpt>
      <trkpt lat="46.72933" lon="-1.97566">
        <ele>19</ele>
        <time>2025-01-17T17:46:22.292Z</time>
      </trkpt>
      <trkpt lat="46.72931" lon="-1.97567">
        <ele>19</ele>
        <time>2025-01-17T17:46:23.291Z</time>
      </trkpt>
      <trkpt lat="46.72928" lon="-1.97568">
        <ele>19</ele>
        <time>2025-01-17T17:46:24.291Z</time>
      </trkpt>
      <trkpt lat="46.72926" lon="-1.9757">
        <ele>19</ele>
        <time>2025-01-17T17:46:25.291Z</time>
      </trkpt>
      <trkpt lat="46.72924" lon="-1.97572">
        <ele>19</ele>
        <time>2025-01-17T17:46:26.291Z</time>
      </trkpt>
      <trkpt lat="46.72923" lon="-1.97573">
        <ele>19</ele>
        <time>2025-01-17T17:46:27.292Z</time>
      </trkpt>
      <trkpt lat="46.72922" lon="-1.97573">
        <ele>19</ele>
        <time>2025-01-17T17:46:28.291Z</time>
      </trkpt>
      <trkpt lat="46.7292" lon="-1.97573">
        <ele>19</ele>
        <time>2025-01-17T17:46:29.292Z</time>
      </trkpt>
      <trkpt lat="46.72917" lon="-1.97574">
        <ele>19</ele>
        <time>2025-01-17T17:46:30.292Z</time>
      </trkpt>
      <trkpt lat="46.72917" lon="-1.97574">
        <ele>19</ele>
        <time>2025-01-17T17:46:31.292Z</time>
      </trkpt>
      <trkpt lat="46.72916" lon="-1.97575">
        <ele>19</ele>
        <time>2025-01-17T17:46:32.291Z</time>
      </trkpt>
      <trkpt lat="46.72914" lon="-1.97576">
        <ele>19.1</ele>
        <time>2025-01-17T17:46:33.291Z</time>
      </trkpt>
      <trkpt lat="46.72911" lon="-1.97577">
        <ele>19.1</ele>
        <time>2025-01-17T17:46:34.291Z</time>
      </trkpt>
      <trkpt lat="46.72909" lon="-1.97577">
        <ele>19.2</ele>
        <time>2025-01-17T17:46:35.292Z</time>
      </trkpt>
      <trkpt lat="46.72907" lon="-1.97578">
        <ele>19.3</ele>
        <time>2025-01-17T17:46:36.291Z</time>
      </trkpt>
      <trkpt lat="46.72906" lon="-1.97578">
        <ele>19.3</ele>
        <time>2025-01-17T17:46:37.292Z</time>
      </trkpt>
      <trkpt lat="46.72904" lon="-1.97578">
        <ele>19.4</ele>
        <time>2025-01-17T17:46:38.291Z</time>
      </trkpt>
      <trkpt lat="46.72903" lon="-1.97578">
        <ele>19.4</ele>
        <time>2025-01-17T17:46:39.292Z</time>
      </trkpt>
      <trkpt lat="46.72903" lon="-1.97577">
        <ele>19.4</ele>
        <time>2025-01-17T17:46:40.291Z</time>
      </trkpt>
      <trkpt lat="46.72902" lon="-1.97576">
        <ele>19.4</ele>
        <time>2025-01-17T17:46:41.292Z</time>
      </trkpt>
      <trkpt lat="46.72902" lon="-1.97573">
        <ele>19.3</ele>
        <time>2025-01-17T17:46:42.292Z</time>
      </trkpt>
      <trkpt lat="46.72901" lon="-1.97572">
        <ele>19.3</ele>
        <time>2025-01-17T17:46:43.292Z</time>
      </trkpt>
      <trkpt lat="46.72899" lon="-1.97572">
        <ele>19.4</ele>
        <time>2025-01-17T17:46:44.292Z</time>
      </trkpt>
      <trkpt lat="46.72897" lon="-1.97572">
        <ele>19.4</ele>
        <time>2025-01-17T17:46:45.292Z</time>
      </trkpt>
      <trkpt lat="46.72894" lon="-1.97573">
        <ele>19.5</ele>
        <time>2025-01-17T17:46:46.291Z</time>
      </trkpt>
      <trkpt lat="46.72893" lon="-1.97573">
        <ele>19.5</ele>
        <time>2025-01-17T17:46:47.292Z</time>
      </trkpt>
      <trkpt lat="46.72891" lon="-1.97574">
        <ele>19.6</ele>
        <time>2025-01-17T17:46:48.292Z</time>
      </trkpt>
      <trkpt lat="46.72889" lon="-1.97576">
        <ele>19.7</ele>
        <time>2025-01-17T17:46:49.291Z</time>
      </trkpt>
      <trkpt lat="46.72888" lon="-1.97577">
        <ele>19.7</ele>
        <time>2025-01-17T17:46:50.291Z</time>
      </trkpt>
      <trkpt lat="46.72887" lon="-1.97578">
        <ele>19.7</ele>
        <time>2025-01-17T17:46:51.291Z</time>
      </trkpt>
      <trkpt lat="46.72887" lon="-1.97581">
        <ele>19.8</ele>
        <time>2025-01-17T17:46:52.291Z</time>
      </trkpt>
      <trkpt lat="46.72886" lon="-1.97584">
        <ele>19.9</ele>
        <time>2025-01-17T17:46:53.291Z</time>
      </trkpt>
      <trkpt lat="46.72885" lon="-1.97588">
        <ele>20</ele>
        <time>2025-01-17T17:46:54.291Z</time>
      </trkpt>
      <trkpt lat="46.72884" lon="-1.97592">
        <ele>20</ele>
        <time>2025-01-17T17:46:55.292Z</time>
      </trkpt>
      <trkpt lat="46.72884" lon="-1.97595">
        <ele>20.1</ele>
        <time>2025-01-17T17:46:56.292Z</time>
      </trkpt>
      <trkpt lat="46.72884" lon="-1.97598">
        <ele>20.1</ele>
        <time>2025-01-17T17:46:57.292Z</time>
      </trkpt>
      <trkpt lat="46.72884" lon="-1.97602">
        <ele>20.3</ele>
        <time>2025-01-17T17:46:58.291Z</time>
      </trkpt>
      <trkpt lat="46.72885" lon="-1.97605">
        <ele>20.4</ele>
        <time>2025-01-17T17:46:59.291Z</time>
      </trkpt>
      <trkpt lat="46.72886" lon="-1.97609">
        <ele>20.6</ele>
        <time>2025-01-17T17:47:00.291Z</time>
      </trkpt>
      <trkpt lat="46.72886" lon="-1.97612">
        <ele>20.6</ele>
        <time>2025-01-17T17:47:01.292Z</time>
      </trkpt>
      <trkpt lat="46.72886" lon="-1.97617">
        <ele>20.4</ele>
        <time>2025-01-17T17:47:02.292Z</time>
      </trkpt>
      <trkpt lat="46.72886" lon="-1.97621">
        <ele>20.2</ele>
        <time>2025-01-17T17:47:03.292Z</time>
      </trkpt>
      <trkpt lat="46.72885" lon="-1.97626">
        <ele>20</ele>
        <time>2025-01-17T17:47:04.292Z</time>
      </trkpt>
      <trkpt lat="46.72885" lon="-1.97629">
        <ele>19.9</ele>
        <time>2025-01-17T17:47:05.291Z</time>
      </trkpt>
      <trkpt lat="46.72885" lon="-1.97634">
        <ele>19.7</ele>
        <time>2025-01-17T17:47:06.291Z</time>
      </trkpt>
      <trkpt lat="46.72886" lon="-1.97638">
        <ele>19.6</ele>
        <time>2025-01-17T17:47:07.291Z</time>
      </trkpt>
      <trkpt lat="46.72886" lon="-1.97641">
        <ele>19.4</ele>
        <time>2025-01-17T17:47:08.291Z</time>
      </trkpt>
      <trkpt lat="46.72887" lon="-1.97645">
        <ele>19</ele>
        <time>2025-01-17T17:47:09.292Z</time>
      </trkpt>
      <trkpt lat="46.72888" lon="-1.97648">
        <ele>18.8</ele>
        <time>2025-01-17T17:47:10.292Z</time>
      </trkpt>
      <trkpt lat="46.72889" lon="-1.97652">
        <ele>18.6</ele>
        <time>2025-01-17T17:47:11.291Z</time>
      </trkpt>
      <trkpt lat="46.7289" lon="-1.97655">
        <ele>18</ele>
        <time>2025-01-17T17:47:12.291Z</time>
      </trkpt>
      <trkpt lat="46.72892" lon="-1.97657">
        <ele>17.3</ele>
        <time>2025-01-17T17:47:13.291Z</time>
      </trkpt>
      <trkpt lat="46.72894" lon="-1.97659">
        <ele>16.7</ele>
        <time>2025-01-17T17:47:14.291Z</time>
      </trkpt>
      <trkpt lat="46.72896" lon="-1.97662">
        <ele>16.2</ele>
        <time>2025-01-17T17:47:15.292Z</time>
      </trkpt>
      <trkpt lat="46.72898" lon="-1.97665">
        <ele>15.6</ele>
        <time>2025-01-17T17:47:16.291Z</time>
      </trkpt>
      <trkpt lat="46.72899" lon="-1.97667">
        <ele>15.2</ele>
        <time>2025-01-17T17:47:17.291Z</time>
      </trkpt>
      <trkpt lat="46.72901" lon="-1.97668">
        <ele>14.7</ele>
        <time>2025-01-17T17:47:18.291Z</time>
      </trkpt>
      <trkpt lat="46.72902" lon="-1.9767">
        <ele>14.2</ele>
        <time>2025-01-17T17:47:19.292Z</time>
      </trkpt>
      <trkpt lat="46.72903" lon="-1.97673">
        <ele>13.8</ele>
        <time>2025-01-17T17:47:20.291Z</time>
      </trkpt>
      <trkpt lat="46.72904" lon="-1.97676">
        <ele>13.4</ele>
        <time>2025-01-17T17:47:21.291Z</time>
      </trkpt>
      <trkpt lat="46.72905" lon="-1.97676">
        <ele>13.2</ele>
        <time>2025-01-17T17:47:22.291Z</time>
      </trkpt>
      <trkpt lat="46.72907" lon="-1.97678">
        <ele>12.9</ele>
        <time>2025-01-17T17:47:23.291Z</time>
      </trkpt>
      <trkpt lat="46.72907" lon="-1.9768">
        <ele>12.7</ele>
        <time>2025-01-17T17:47:24.292Z</time>
      </trkpt>
      <trkpt lat="46.72909" lon="-1.97683">
        <ele>12.4</ele>
        <time>2025-01-17T17:47:25.291Z</time>
      </trkpt>
      <trkpt lat="46.72909" lon="-1.97688">
        <ele>12.1</ele>
        <time>2025-01-17T17:47:26.292Z</time>
      </trkpt>
      <trkpt lat="46.7291" lon="-1.97693">
        <ele>11.8</ele>
        <time>2025-01-17T17:47:27.292Z</time>
      </trkpt>
      <trkpt lat="46.72911" lon="-1.97698">
        <ele>11.7</ele>
        <time>2025-01-17T17:47:28.291Z</time>
      </trkpt>
      <trkpt lat="46.72912" lon="-1.97702">
        <ele>11.7</ele>
        <time>2025-01-17T17:47:29.291Z</time>
      </trkpt>
      <trkpt lat="46.72912" lon="-1.97705">
        <ele>11.7</ele>
        <time>2025-01-17T17:47:30.292Z</time>
      </trkpt>
      <trkpt lat="46.72913" lon="-1.97707">
        <ele>11.7</ele>
        <time>2025-01-17T17:47:31.291Z</time>
      </trkpt>
      <trkpt lat="46.72913" lon="-1.97709">
        <ele>11.7</ele>
        <time>2025-01-17T17:47:32.291Z</time>
      </trkpt>
      <trkpt lat="46.72913" lon="-1.97711">
        <ele>11.7</ele>
        <time>2025-01-17T17:47:33.292Z</time>
      </trkpt>
      <trkpt lat="46.72914" lon="-1.97714">
        <ele>11.7</ele>
        <time>2025-01-17T17:47:34.292Z</time>
      </trkpt>
      <trkpt lat="46.72916" lon="-1.97717">
        <ele>11.9</ele>
        <time>2025-01-17T17:47:35.292Z</time>
      </trkpt>
      <trkpt lat="46.72916" lon="-1.9772">
        <ele>12</ele>
        <time>2025-01-17T17:47:36.291Z</time>
      </trkpt>
      <trkpt lat="46.72917" lon="-1.97723">
        <ele>11.8</ele>
        <time>2025-01-17T17:47:37.291Z</time>
      </trkpt>
      <trkpt lat="46.72918" lon="-1.97726">
        <ele>11.7</ele>
        <time>2025-01-17T17:47:38.291Z</time>
      </trkpt>
      <trkpt lat="46.72918" lon="-1.97729">
        <ele>11.7</ele>
        <time>2025-01-17T17:47:39.292Z</time>
      </trkpt>
      <trkpt lat="46.72918" lon="-1.97733">
        <ele>11.7</ele>
        <time>2025-01-17T17:47:40.292Z</time>
      </trkpt>
      <trkpt lat="46.72918" lon="-1.97736">
        <ele>11.8</ele>
        <time>2025-01-17T17:47:41.292Z</time>
      </trkpt>
      <trkpt lat="46.72917" lon="-1.9774">
        <ele>11.9</ele>
        <time>2025-01-17T17:47:42.292Z</time>
      </trkpt>
      <trkpt lat="46.72916" lon="-1.97744">
        <ele>11.8</ele>
        <time>2025-01-17T17:47:43.292Z</time>
      </trkpt>
      <trkpt lat="46.72915" lon="-1.97747">
        <ele>11.6</ele>
        <time>2025-01-17T17:47:44.291Z</time>
      </trkpt>
      <trkpt lat="46.72914" lon="-1.97751">
        <ele>11.5</ele>
        <time>2025-01-17T17:47:45.291Z</time>
      </trkpt>
      <trkpt lat="46.72914" lon="-1.97755">
        <ele>11.3</ele>
        <time>2025-01-17T17:47:46.292Z</time>
      </trkpt>
      <trkpt lat="46.72913" lon="-1.97759">
        <ele>11.2</ele>
        <time>2025-01-17T17:47:47.292Z</time>
      </trkpt>
      <trkpt lat="46.72912" lon="-1.97763">
        <ele>11</ele>
        <time>2025-01-17T17:47:48.292Z</time>
      </trkpt>
      <trkpt lat="46.72912" lon="-1.97766">
        <ele>10.8</ele>
        <time>2025-01-17T17:47:49.292Z</time>
      </trkpt>
      <trkpt lat="46.72911" lon="-1.9777">
        <ele>10.6</ele>
        <time>2025-01-17T17:47:50.292Z</time>
      </trkpt>
      <trkpt lat="46.72911" lon="-1.97773">
        <ele>10.6</ele>
        <time>2025-01-17T17:47:51.292Z</time>
      </trkpt>
      <trkpt lat="46.72911" lon="-1.97777">
        <ele>10.5</ele>
        <time>2025-01-17T17:47:52.291Z</time>
      </trkpt>
      <trkpt lat="46.72911" lon="-1.9778">
        <ele>10.4</ele>
        <time>2025-01-17T17:47:53.292Z</time>
      </trkpt>
      <trkpt lat="46.72911" lon="-1.97783">
        <ele>10.3</ele>
        <time>2025-01-17T17:47:54.292Z</time>
      </trkpt>
      <trkpt lat="46.72912" lon="-1.97786">
        <ele>10.4</ele>
        <time>2025-01-17T17:47:55.291Z</time>
      </trkpt>
      <trkpt lat="46.72914" lon="-1.9779">
        <ele>10.5</ele>
        <time>2025-01-17T17:47:56.291Z</time>
      </trkpt>
      <trkpt lat="46.72914" lon="-1.97792">
        <ele>10.4</ele>
        <time>2025-01-17T17:47:57.291Z</time>
      </trkpt>
      <trkpt lat="46.72915" lon="-1.97795">
        <ele>10.4</ele>
        <time>2025-01-17T17:47:58.291Z</time>
      </trkpt>
      <trkpt lat="46.72916" lon="-1.97799">
        <ele>10.3</ele>
        <time>2025-01-17T17:47:59.291Z</time>
      </trkpt>
      <trkpt lat="46.72917" lon="-1.97802">
        <ele>10.3</ele>
        <time>2025-01-17T17:48:00.291Z</time>
      </trkpt>
      <trkpt lat="46.72917" lon="-1.97805">
        <ele>10</ele>
        <time>2025-01-17T17:48:01.291Z</time>
      </trkpt>
      <trkpt lat="46.72918" lon="-1.97808">
        <ele>9.5</ele>
        <time>2025-01-17T17:48:02.291Z</time>
      </trkpt>
      <trkpt lat="46.72918" lon="-1.97811">
        <ele>9.1</ele>
        <time>2025-01-17T17:48:03.291Z</time>
      </trkpt>
      <trkpt lat="46.72918" lon="-1.97814">
        <ele>8.6</ele>
        <time>2025-01-17T17:48:04.291Z</time>
      </trkpt>
      <trkpt lat="46.72917" lon="-1.97817">
        <ele>8.3</ele>
        <time>2025-01-17T17:48:05.291Z</time>
      </trkpt>
      <trkpt lat="46.72917" lon="-1.97819">
        <ele>8</ele>
        <time>2025-01-17T17:48:06.292Z</time>
      </trkpt>
      <trkpt lat="46.72915" lon="-1.97821">
        <ele>7.6</ele>
        <time>2025-01-17T17:48:07.292Z</time>
      </trkpt>
      <trkpt lat="46.72914" lon="-1.97823">
        <ele>7.3</ele>
        <time>2025-01-17T17:48:08.292Z</time>
      </trkpt>
      <trkpt lat="46.72913" lon="-1.97824">
        <ele>7</ele>
        <time>2025-01-17T17:48:09.292Z</time>
      </trkpt>
      <trkpt lat="46.72912" lon="-1.97824">
        <ele>7</ele>
        <time>2025-01-17T17:48:10.292Z</time>
      </trkpt>
      <trkpt lat="46.72911" lon="-1.97823">
        <ele>7</ele>
        <time>2025-01-17T17:48:11.292Z</time>
      </trkpt>
      <trkpt lat="46.72911" lon="-1.97822">
        <ele>7</ele>
        <time>2025-01-17T17:48:12.292Z</time>
      </trkpt>
      <trkpt lat="46.72911" lon="-1.97821">
        <ele>7.2</ele>
        <time>2025-01-17T17:48:13.292Z</time>
      </trkpt>
      <trkpt lat="46.72912" lon="-1.9782">
        <ele>7.5</ele>
        <time>2025-01-17T17:48:14.291Z</time>
      </trkpt>
      <trkpt lat="46.72913" lon="-1.9782">
        <ele>7.6</ele>
        <time>2025-01-17T17:48:15.291Z</time>
      </trkpt>
      <trkpt lat="46.72913" lon="-1.97819">
        <ele>7.6</ele>
        <time>2025-01-17T17:48:16.291Z</time>
      </trkpt>
      <trkpt lat="46.72914" lon="-1.97818">
        <ele>7.9</ele>
        <time>2025-01-17T17:48:17.291Z</time>
      </trkpt>
      <trkpt lat="46.72914" lon="-1.97818">
        <ele>7.9</ele>
        <time>2025-01-17T17:48:18.292Z</time>
      </trkpt>
      <trkpt lat="46.72914" lon="-1.97818">
        <ele>8</ele>
        <time>2025-01-17T17:48:19.292Z</time>
      </trkpt>
      <trkpt lat="46.72914" lon="-1.97818">
        <ele>8</ele>
        <time>2025-01-17T17:48:20.291Z</time>
      </trkpt>
      <trkpt lat="46.72914" lon="-1.97818">
        <ele>8</ele>
        <time>2025-01-17T17:48:21.291Z</time>
      </trkpt>
      <trkpt lat="46.72914" lon="-1.97818">
        <ele>8</ele>
        <time>2025-01-17T17:48:22.292Z</time>
      </trkpt>
      <trkpt lat="46.72914" lon="-1.97818">
        <ele>8</ele>
        <time>2025-01-17T17:48:23.291Z</time>
      </trkpt>
      <trkpt lat="46.72914" lon="-1.97818">
        <ele>8</ele>
        <time>2025-01-17T17:48:24.291Z</time>
      </trkpt>
      <trkpt lat="46.72914" lon="-1.97818">
        <ele>8</ele>
        <time>2025-01-17T17:48:25.291Z</time>
      </trkpt>
      <trkpt lat="46.72914" lon="-1.97818">
        <ele>8</ele>
        <time>2025-01-17T17:48:26.292Z</time>
      </trkpt>
      <trkpt lat="46.72914" lon="-1.97818">
        <ele>8</ele>
        <time>2025-01-17T17:48:27.291Z</time>
      </trkpt>
      <trkpt lat="46.72914" lon="-1.97817">
        <ele>8</ele>
        <time>2025-01-17T17:48:28.291Z</time>
      </trkpt>
      <trkpt lat="46.72912" lon="-1.97815">
        <ele>8</ele>
        <time>2025-01-17T17:48:29.291Z</time>
      </trkpt>
      <trkpt lat="46.72911" lon="-1.97813">
        <ele>8</ele>
        <time>2025-01-17T17:48:30.291Z</time>
      </trkpt>
      <trkpt lat="46.72909" lon="-1.97811">
        <ele>8</ele>
        <time>2025-01-17T17:48:31.292Z</time>
      </trkpt>
      <trkpt lat="46.72907" lon="-1.97809">
        <ele>7.9</ele>
        <time>2025-01-17T17:48:32.292Z</time>
      </trkpt>
      <trkpt lat="46.72905" lon="-1.97805">
        <ele>8</ele>
        <time>2025-01-17T17:48:33.292Z</time>
      </trkpt>
      <trkpt lat="46.72904" lon="-1.97801">
        <ele>7.9</ele>
        <time>2025-01-17T17:48:34.291Z</time>
      </trkpt>
      <trkpt lat="46.72903" lon="-1.97796">
        <ele>7.8</ele>
        <time>2025-01-17T17:48:35.292Z</time>
      </trkpt>
      <trkpt lat="46.72901" lon="-1.97793">
        <ele>7.6</ele>
        <time>2025-01-17T17:48:36.292Z</time>
      </trkpt>
      <trkpt lat="46.729" lon="-1.97789">
        <ele>7.5</ele>
        <time>2025-01-17T17:48:37.292Z</time>
      </trkpt>
      <trkpt lat="46.729" lon="-1.97786">
        <ele>7.5</ele>
        <time>2025-01-17T17:48:38.292Z</time>
      </trkpt>
      <trkpt lat="46.72899" lon="-1.97784">
        <ele>7.3</ele>
        <time>2025-01-17T17:48:39.292Z</time>
      </trkpt>
      <trkpt lat="46.72897" lon="-1.97781">
        <ele>7</ele>
        <time>2025-01-17T17:48:40.291Z</time>
      </trkpt>
      <trkpt lat="46.72895" lon="-1.97779">
        <ele>6.5</ele>
        <time>2025-01-17T17:48:41.291Z</time>
      </trkpt>
      <trkpt lat="46.72894" lon="-1.97778">
        <ele>6.4</ele>
        <time>2025-01-17T17:48:42.291Z</time>
      </trkpt>
      <trkpt lat="46.72894" lon="-1.97775">
        <ele>6.3</ele>
        <time>2025-01-17T17:48:43.291Z</time>
      </trkpt>
      <trkpt lat="46.72894" lon="-1.97773">
        <ele>6.3</ele>
        <time>2025-01-17T17:48:44.291Z</time>
      </trkpt>
      <trkpt lat="46.72892" lon="-1.97771">
        <ele>6</ele>
        <time>2025-01-17T17:48:45.291Z</time>
      </trkpt>
      <trkpt lat="46.7289" lon="-1.97769">
        <ele>5.6</ele>
        <time>2025-01-17T17:48:46.291Z</time>
      </trkpt>
      <trkpt lat="46.72888" lon="-1.97767">
        <ele>5.4</ele>
        <time>2025-01-17T17:48:47.291Z</time>
      </trkpt>
      <trkpt lat="46.72885" lon="-1.97764">
        <ele>5.4</ele>
        <time>2025-01-17T17:48:48.291Z</time>
      </trkpt>
      <trkpt lat="46.72883" lon="-1.97762">
        <ele>5.4</ele>
        <time>2025-01-17T17:48:49.292Z</time>
      </trkpt>
      <trkpt lat="46.72881" lon="-1.97761">
        <ele>5.4</ele>
        <time>2025-01-17T17:48:50.292Z</time>
      </trkpt>
      <trkpt lat="46.72879" lon="-1.97759">
        <ele>5.4</ele>
        <time>2025-01-17T17:48:51.292Z</time>
      </trkpt>
      <trkpt lat="46.72877" lon="-1.97756">
        <ele>5.4</ele>
        <time>2025-01-17T17:48:52.292Z</time>
      </trkpt>
      <trkpt lat="46.72875" lon="-1.97753">
        <ele>5.5</ele>
        <time>2025-01-17T17:48:53.291Z</time>
      </trkpt>
      <trkpt lat="46.72874" lon="-1.9775">
        <ele>5.5</ele>
        <time>2025-01-17T17:48:54.292Z</time>
      </trkpt>
      <trkpt lat="46.72873" lon="-1.97746">
        <ele>5.5</ele>
        <time>2025-01-17T17:48:55.292Z</time>
      </trkpt>
      <trkpt lat="46.72871" lon="-1.97744">
        <ele>5.5</ele>
        <time>2025-01-17T17:48:56.291Z</time>
      </trkpt>
      <trkpt lat="46.72869" lon="-1.97741">
        <ele>5.5</ele>
        <time>2025-01-17T17:48:57.291Z</time>
      </trkpt>
      <trkpt lat="46.72867" lon="-1.97738">
        <ele>5.4</ele>
        <time>2025-01-17T17:48:58.291Z</time>
      </trkpt>
      <trkpt lat="46.72865" lon="-1.97735">
        <ele>5.3</ele>
        <time>2025-01-17T17:48:59.292Z</time>
      </trkpt>
      <trkpt lat="46.72863" lon="-1.97731">
        <ele>5.2</ele>
        <time>2025-01-17T17:49:00.292Z</time>
      </trkpt>
      <trkpt lat="46.72861" lon="-1.97727">
        <ele>5</ele>
        <time>2025-01-17T17:49:01.291Z</time>
      </trkpt>
      <trkpt lat="46.72859" lon="-1.97723">
        <ele>5</ele>
        <time>2025-01-17T17:49:02.291Z</time>
      </trkpt>
      <trkpt lat="46.72857" lon="-1.9772">
        <ele>5.1</ele>
        <time>2025-01-17T17:49:03.291Z</time>
      </trkpt>
      <trkpt lat="46.72856" lon="-1.97717">
        <ele>5.2</ele>
        <time>2025-01-17T17:49:04.291Z</time>
      </trkpt>
      <trkpt lat="46.72853" lon="-1.97714">
        <ele>5.3</ele>
        <time>2025-01-17T17:49:05.291Z</time>
      </trkpt>
      <trkpt lat="46.7285" lon="-1.9771">
        <ele>5.2</ele>
        <time>2025-01-17T17:49:06.292Z</time>
      </trkpt>
      <trkpt lat="46.72848" lon="-1.97708">
        <ele>5</ele>
        <time>2025-01-17T17:49:07.292Z</time>
      </trkpt>
      <trkpt lat="46.72845" lon="-1.97704">
        <ele>4.8</ele>
        <time>2025-01-17T17:49:08.291Z</time>
      </trkpt>
      <trkpt lat="46.72843" lon="-1.97701">
        <ele>4.5</ele>
        <time>2025-01-17T17:49:09.291Z</time>
      </trkpt>
      <trkpt lat="46.7284" lon="-1.97698">
        <ele>4.1</ele>
        <time>2025-01-17T17:49:10.292Z</time>
      </trkpt>
      <trkpt lat="46.72838" lon="-1.97694">
        <ele>3.6</ele>
        <time>2025-01-17T17:49:11.292Z</time>
      </trkpt>
      <trkpt lat="46.72835" lon="-1.97691">
        <ele>3.5</ele>
        <time>2025-01-17T17:49:12.292Z</time>
      </trkpt>
      <trkpt lat="46.72833" lon="-1.97689">
        <ele>3.4</ele>
        <time>2025-01-17T17:49:13.292Z</time>
      </trkpt>
      <trkpt lat="46.72832" lon="-1.97686">
        <ele>3.7</ele>
        <time>2025-01-17T17:49:14.291Z</time>
      </trkpt>
      <trkpt lat="46.7283" lon="-1.97684">
        <ele>3.9</ele>
        <time>2025-01-17T17:49:15.292Z</time>
      </trkpt>
      <trkpt lat="46.72828" lon="-1.97682">
        <ele>4.1</ele>
        <time>2025-01-17T17:49:16.291Z</time>
      </trkpt>
      <trkpt lat="46.72826" lon="-1.9768">
        <ele>4.3</ele>
        <time>2025-01-17T17:49:17.292Z</time>
      </trkpt>
      <trkpt lat="46.72825" lon="-1.97678">
        <ele>4.4</ele>
        <time>2025-01-17T17:49:18.291Z</time>
      </trkpt>
      <trkpt lat="46.72823" lon="-1.97676">
        <ele>4.6</ele>
        <time>2025-01-17T17:49:19.292Z</time>
      </trkpt>
      <trkpt lat="46.72822" lon="-1.97675">
        <ele>4.7</ele>
        <time>2025-01-17T17:49:20.291Z</time>
      </trkpt>
      <trkpt lat="46.72821" lon="-1.97673">
        <ele>4.8</ele>
        <time>2025-01-17T17:49:21.291Z</time>
      </trkpt>
      <trkpt lat="46.72819" lon="-1.97671">
        <ele>4.9</ele>
        <time>2025-01-17T17:49:22.291Z</time>
      </trkpt>
      <trkpt lat="46.72816" lon="-1.97669">
        <ele>4.9</ele>
        <time>2025-01-17T17:49:23.292Z</time>
      </trkpt>
      <trkpt lat="46.72813" lon="-1.97665">
        <ele>5</ele>
        <time>2025-01-17T17:49:24.291Z</time>
      </trkpt>
      <trkpt lat="46.72811" lon="-1.97664">
        <ele>5.1</ele>
        <time>2025-01-17T17:49:25.291Z</time>
      </trkpt>
      <trkpt lat="46.72809" lon="-1.97662">
        <ele>5.1</ele>
        <time>2025-01-17T17:49:26.291Z</time>
      </trkpt>
      <trkpt lat="46.72808" lon="-1.9766">
        <ele>5.1</ele>
        <time>2025-01-17T17:49:27.292Z</time>
      </trkpt>
      <trkpt lat="46.72806" lon="-1.97657">
        <ele>5</ele>
        <time>2025-01-17T17:49:28.291Z</time>
      </trkpt>
      <trkpt lat="46.72803" lon="-1.97655">
        <ele>5</ele>
        <time>2025-01-17T17:49:29.291Z</time>
      </trkpt>
      <trkpt lat="46.728" lon="-1.97653">
        <ele>5</ele>
        <time>2025-01-17T17:49:30.291Z</time>
      </trkpt>
      <trkpt lat="46.72797" lon="-1.97651">
        <ele>5</ele>
        <time>2025-01-17T17:49:31.292Z</time>
      </trkpt>
      <trkpt lat="46.72796" lon="-1.97648">
        <ele>5</ele>
        <time>2025-01-17T17:49:32.292Z</time>
      </trkpt>
      <trkpt lat="46.72794" lon="-1.97647">
        <ele>5</ele>
        <time>2025-01-17T17:49:33.291Z</time>
      </trkpt>
      <trkpt lat="46.72792" lon="-1.97645">
        <ele>5</ele>
        <time>2025-01-17T17:49:34.291Z</time>
      </trkpt>
      <trkpt lat="46.72791" lon="-1.97643">
        <ele>5</ele>
        <time>2025-01-17T17:49:35.292Z</time>
      </trkpt>
      <trkpt lat="46.72791" lon="-1.97641">
        <ele>5</ele>
        <time>2025-01-17T17:49:36.292Z</time>
      </trkpt>
      <trkpt lat="46.7279" lon="-1.97638">
        <ele>5</ele>
        <time>2025-01-17T17:49:37.291Z</time>
      </trkpt>
      <trkpt lat="46.7279" lon="-1.97635">
        <ele>5.1</ele>
        <time>2025-01-17T17:49:38.291Z</time>
      </trkpt>
      <trkpt lat="46.72789" lon="-1.97632">
        <ele>5.1</ele>
        <time>2025-01-17T17:49:39.291Z</time>
      </trkpt>
      <trkpt lat="46.72788" lon="-1.9763">
        <ele>5.1</ele>
        <time>2025-01-17T17:49:40.291Z</time>
      </trkpt>
      <trkpt lat="46.72787" lon="-1.97628">
        <ele>5.1</ele>
        <time>2025-01-17T17:49:41.291Z</time>
      </trkpt>
      <trkpt lat="46.72785" lon="-1.97626">
        <ele>5.1</ele>
        <time>2025-01-17T17:49:42.292Z</time>
      </trkpt>
      <trkpt lat="46.72783" lon="-1.97624">
        <ele>5.1</ele>
        <time>2025-01-17T17:49:43.292Z</time>
      </trkpt>
      <trkpt lat="46.72781" lon="-1.97622">
        <ele>5.1</ele>
        <time>2025-01-17T17:49:44.291Z</time>
      </trkpt>
      <trkpt lat="46.72778" lon="-1.9762">
        <ele>5</ele>
        <time>2025-01-17T17:49:45.292Z</time>
      </trkpt>
      <trkpt lat="46.72774" lon="-1.97618">
        <ele>5.1</ele>
        <time>2025-01-17T17:49:46.292Z</time>
      </trkpt>
      <trkpt lat="46.72772" lon="-1.97617">
        <ele>5.2</ele>
        <time>2025-01-17T17:49:47.291Z</time>
      </trkpt>
      <trkpt lat="46.72769" lon="-1.97616">
        <ele>5.3</ele>
        <time>2025-01-17T17:49:48.291Z</time>
      </trkpt>
      <trkpt lat="46.72766" lon="-1.97614">
        <ele>5.4</ele>
        <time>2025-01-17T17:49:49.292Z</time>
      </trkpt>
      <trkpt lat="46.72763" lon="-1.97612">
        <ele>5.5</ele>
        <time>2025-01-17T17:49:50.292Z</time>
      </trkpt>
      <trkpt lat="46.72761" lon="-1.9761">
        <ele>5.7</ele>
        <time>2025-01-17T17:49:51.292Z</time>
      </trkpt>
      <trkpt lat="46.72759" lon="-1.97608">
        <ele>5.8</ele>
        <time>2025-01-17T17:49:52.292Z</time>
      </trkpt>
      <trkpt lat="46.72758" lon="-1.97606">
        <ele>5.9</ele>
        <time>2025-01-17T17:49:53.292Z</time>
      </trkpt>
      <trkpt lat="46.72758" lon="-1.97603">
        <ele>5.9</ele>
        <time>2025-01-17T17:49:54.291Z</time>
      </trkpt>
      <trkpt lat="46.72757" lon="-1.97601">
        <ele>6</ele>
        <time>2025-01-17T17:49:55.292Z</time>
      </trkpt>
      <trkpt lat="46.72755" lon="-1.97598">
        <ele>6.2</ele>
        <time>2025-01-17T17:49:56.292Z</time>
      </trkpt>
      <trkpt lat="46.72753" lon="-1.97596">
        <ele>6.4</ele>
        <time>2025-01-17T17:49:57.291Z</time>
      </trkpt>
      <trkpt lat="46.72752" lon="-1.97593">
        <ele>6.6</ele>
        <time>2025-01-17T17:49:58.291Z</time>
      </trkpt>
      <trkpt lat="46.7275" lon="-1.97591">
        <ele>6.7</ele>
        <time>2025-01-17T17:49:59.291Z</time>
      </trkpt>
      <trkpt lat="46.72748" lon="-1.97589">
        <ele>6.6</ele>
        <time>2025-01-17T17:50:00.292Z</time>
      </trkpt>
      <trkpt lat="46.72746" lon="-1.97586">
        <ele>6.7</ele>
        <time>2025-01-17T17:50:01.292Z</time>
      </trkpt>
      <trkpt lat="46.72746" lon="-1.97583">
        <ele>6.7</ele>
        <time>2025-01-17T17:50:02.291Z</time>
      </trkpt>
      <trkpt lat="46.72744" lon="-1.9758">
        <ele>6.6</ele>
        <time>2025-01-17T17:50:03.291Z</time>
      </trkpt>
      <trkpt lat="46.72741" lon="-1.97578">
        <ele>6.3</ele>
        <time>2025-01-17T17:50:04.292Z</time>
      </trkpt>
      <trkpt lat="46.7274" lon="-1.97576">
        <ele>6.3</ele>
        <time>2025-01-17T17:50:05.291Z</time>
      </trkpt>
      <trkpt lat="46.7274" lon="-1.97573">
        <ele>6.2</ele>
        <time>2025-01-17T17:50:06.292Z</time>
      </trkpt>
      <trkpt lat="46.72739" lon="-1.9757">
        <ele>6.2</ele>
        <time>2025-01-17T17:50:07.292Z</time>
      </trkpt>
      <trkpt lat="46.72737" lon="-1.97567">
        <ele>6.1</ele>
        <time>2025-01-17T17:50:08.291Z</time>
      </trkpt>
      <trkpt lat="46.72735" lon="-1.97564">
        <ele>5.9</ele>
        <time>2025-01-17T17:50:09.291Z</time>
      </trkpt>
      <trkpt lat="46.72734" lon="-1.97561">
        <ele>5.8</ele>
        <time>2025-01-17T17:50:10.292Z</time>
      </trkpt>
      <trkpt lat="46.72732" lon="-1.97559">
        <ele>5.7</ele>
        <time>2025-01-17T17:50:11.291Z</time>
      </trkpt>
      <trkpt lat="46.72729" lon="-1.97556">
        <ele>5.5</ele>
        <time>2025-01-17T17:50:12.291Z</time>
      </trkpt>
      <trkpt lat="46.72726" lon="-1.97554">
        <ele>5.3</ele>
        <time>2025-01-17T17:50:13.292Z</time>
      </trkpt>
      <trkpt lat="46.72723" lon="-1.97551">
        <ele>5.1</ele>
        <time>2025-01-17T17:50:14.291Z</time>
      </trkpt>
      <trkpt lat="46.72721" lon="-1.97549">
        <ele>5</ele>
        <time>2025-01-17T17:50:15.291Z</time>
      </trkpt>
      <trkpt lat="46.72718" lon="-1.97547">
        <ele>5</ele>
        <time>2025-01-17T17:50:16.292Z</time>
      </trkpt>
      <trkpt lat="46.72715" lon="-1.97546">
        <ele>5</ele>
        <time>2025-01-17T17:50:17.292Z</time>
      </trkpt>
      <trkpt lat="46.72711" lon="-1.97545">
        <ele>5</ele>
        <time>2025-01-17T17:50:18.292Z</time>
      </trkpt>
      <trkpt lat="46.72707" lon="-1.97545">
        <ele>5</ele>
        <time>2025-01-17T17:50:19.292Z</time>
      </trkpt>
      <trkpt lat="46.72702" lon="-1.97545">
        <ele>5</ele>
        <time>2025-01-17T17:50:20.291Z</time>
      </trkpt>
      <trkpt lat="46.72697" lon="-1.97546">
        <ele>5</ele>
        <time>2025-01-17T17:50:21.292Z</time>
      </trkpt>
      <trkpt lat="46.72694" lon="-1.97547">
        <ele>5</ele>
        <time>2025-01-17T17:50:22.292Z</time>
      </trkpt>
      <trkpt lat="46.7269" lon="-1.97548">
        <ele>5</ele>
        <time>2025-01-17T17:50:23.292Z</time>
      </trkpt>
      <trkpt lat="46.72687" lon="-1.9755">
        <ele>5</ele>
        <time>2025-01-17T17:50:24.292Z</time>
      </trkpt>
      <trkpt lat="46.72684" lon="-1.97553">
        <ele>5</ele>
        <time>2025-01-17T17:50:25.292Z</time>
      </trkpt>
      <trkpt lat="46.72681" lon="-1.97557">
        <ele>5</ele>
        <time>2025-01-17T17:50:26.291Z</time>
      </trkpt>
      <trkpt lat="46.72679" lon="-1.97559">
        <ele>5</ele>
        <time>2025-01-17T17:50:27.292Z</time>
      </trkpt>
      <trkpt lat="46.72677" lon="-1.9756">
        <ele>5</ele>
        <time>2025-01-17T17:50:28.292Z</time>
      </trkpt>
      <trkpt lat="46.72674" lon="-1.9756">
        <ele>5</ele>
        <time>2025-01-17T17:50:29.291Z</time>
      </trkpt>
      <trkpt lat="46.72671" lon="-1.9756">
        <ele>5</ele>
        <time>2025-01-17T17:50:30.291Z</time>
      </trkpt>
      <trkpt lat="46.72668" lon="-1.97562">
        <ele>5</ele>
        <time>2025-01-17T17:50:31.291Z</time>
      </trkpt>
      <trkpt lat="46.72665" lon="-1.97563">
        <ele>5</ele>
        <time>2025-01-17T17:50:32.292Z</time>
      </trkpt>
      <trkpt lat="46.72663" lon="-1.97566">
        <ele>5</ele>
        <time>2025-01-17T17:50:33.292Z</time>
      </trkpt>
      <trkpt lat="46.72661" lon="-1.97568">
        <ele>5</ele>
        <time>2025-01-17T17:50:34.291Z</time>
      </trkpt>
      <trkpt lat="46.72659" lon="-1.9757">
        <ele>5</ele>
        <time>2025-01-17T17:50:35.292Z</time>
      </trkpt>
      <trkpt lat="46.72657" lon="-1.97573">
        <ele>5</ele>
        <time>2025-01-17T17:50:36.292Z</time>
      </trkpt>
      <trkpt lat="46.72654" lon="-1.97575">
        <ele>5</ele>
        <time>2025-01-17T17:50:37.292Z</time>
      </trkpt>
      <trkpt lat="46.72651" lon="-1.97577">
        <ele>5</ele>
        <time>2025-01-17T17:50:38.292Z</time>
      </trkpt>
      <trkpt lat="46.72649" lon="-1.97578">
        <ele>5</ele>
        <time>2025-01-17T17:50:39.292Z</time>
      </trkpt>
      <trkpt lat="46.72647" lon="-1.9758">
        <ele>5</ele>
        <time>2025-01-17T17:50:40.292Z</time>
      </trkpt>
      <trkpt lat="46.72646" lon="-1.97581">
        <ele>5</ele>
        <time>2025-01-17T17:50:41.292Z</time>
      </trkpt>
      <trkpt lat="46.72644" lon="-1.97582">
        <ele>5</ele>
        <time>2025-01-17T17:50:42.292Z</time>
      </trkpt>
      <trkpt lat="46.72643" lon="-1.97582">
        <ele>5</ele>
        <time>2025-01-17T17:50:43.292Z</time>
      </trkpt>
      <trkpt lat="46.72641" lon="-1.97584">
        <ele>5</ele>
        <time>2025-01-17T17:50:44.291Z</time>
      </trkpt>
      <trkpt lat="46.72639" lon="-1.97584">
        <ele>5</ele>
        <time>2025-01-17T17:50:45.292Z</time>
      </trkpt>
      <trkpt lat="46.72636" lon="-1.97585">
        <ele>5</ele>
        <time>2025-01-17T17:50:46.292Z</time>
      </trkpt>
      <trkpt lat="46.72633" lon="-1.97586">
        <ele>5</ele>
        <time>2025-01-17T17:50:47.292Z</time>
      </trkpt>
      <trkpt lat="46.7263" lon="-1.97589">
        <ele>5</ele>
        <time>2025-01-17T17:50:48.291Z</time>
      </trkpt>
      <trkpt lat="46.72627" lon="-1.97592">
        <ele>5</ele>
        <time>2025-01-17T17:50:49.292Z</time>
      </trkpt>
      <trkpt lat="46.72625" lon="-1.97594">
        <ele>5</ele>
        <time>2025-01-17T17:50:50.292Z</time>
      </trkpt>
      <trkpt lat="46.72623" lon="-1.97595">
        <ele>5</ele>
        <time>2025-01-17T17:50:51.291Z</time>
      </trkpt>
      <trkpt lat="46.7262" lon="-1.97598">
        <ele>5</ele>
        <time>2025-01-17T17:50:52.291Z</time>
      </trkpt>
      <trkpt lat="46.72618" lon="-1.976">
        <ele>5</ele>
        <time>2025-01-17T17:50:53.292Z</time>
      </trkpt>
      <trkpt lat="46.72616" lon="-1.97603">
        <ele>5</ele>
        <time>2025-01-17T17:50:54.291Z</time>
      </trkpt>
      <trkpt lat="46.72614" lon="-1.97605">
        <ele>5</ele>
        <time>2025-01-17T17:50:55.291Z</time>
      </trkpt>
      <trkpt lat="46.72612" lon="-1.97607">
        <ele>5</ele>
        <time>2025-01-17T17:50:56.291Z</time>
      </trkpt>
      <trkpt lat="46.72609" lon="-1.9761">
        <ele>5</ele>
        <time>2025-01-17T17:50:57.291Z</time>
      </trkpt>
      <trkpt lat="46.72606" lon="-1.97611">
        <ele>5</ele>
        <time>2025-01-17T17:50:58.292Z</time>
      </trkpt>
      <trkpt lat="46.72604" lon="-1.97613">
        <ele>5</ele>
        <time>2025-01-17T17:50:59.291Z</time>
      </trkpt>
      <trkpt lat="46.72602" lon="-1.97615">
        <ele>5</ele>
        <time>2025-01-17T17:51:00.292Z</time>
      </trkpt>
      <trkpt lat="46.726" lon="-1.97617">
        <ele>5</ele>
        <time>2025-01-17T17:51:01.292Z</time>
      </trkpt>
      <trkpt lat="46.72599" lon="-1.9762">
        <ele>5</ele>
        <time>2025-01-17T17:51:02.292Z</time>
      </trkpt>
      <trkpt lat="46.72597" lon="-1.97623">
        <ele>5</ele>
        <time>2025-01-17T17:51:03.292Z</time>
      </trkpt>
      <trkpt lat="46.72595" lon="-1.97626">
        <ele>5</ele>
        <time>2025-01-17T17:51:04.291Z</time>
      </trkpt>
      <trkpt lat="46.72592" lon="-1.97629">
        <ele>5</ele>
        <time>2025-01-17T17:51:05.291Z</time>
      </trkpt>
      <trkpt lat="46.72589" lon="-1.97632">
        <ele>5</ele>
        <time>2025-01-17T17:51:06.292Z</time>
      </trkpt>
      <trkpt lat="46.72586" lon="-1.97634">
        <ele>5</ele>
        <time>2025-01-17T17:51:07.292Z</time>
      </trkpt>
      <trkpt lat="46.72583" lon="-1.97635">
        <ele>5</ele>
        <time>2025-01-17T17:51:08.292Z</time>
      </trkpt>
      <trkpt lat="46.7258" lon="-1.97638">
        <ele>5.1</ele>
        <time>2025-01-17T17:51:09.291Z</time>
      </trkpt>
      <trkpt lat="46.72578" lon="-1.9764">
        <ele>5.1</ele>
        <time>2025-01-17T17:51:10.291Z</time>
      </trkpt>
      <trkpt lat="46.72576" lon="-1.97642">
        <ele>5.2</ele>
        <time>2025-01-17T17:51:11.292Z</time>
      </trkpt>
      <trkpt lat="46.72574" lon="-1.97645">
        <ele>5.2</ele>
        <time>2025-01-17T17:51:12.292Z</time>
      </trkpt>
      <trkpt lat="46.72571" lon="-1.97647">
        <ele>5.3</ele>
        <time>2025-01-17T17:51:13.292Z</time>
      </trkpt>
      <trkpt lat="46.72569" lon="-1.97648">
        <ele>5.4</ele>
        <time>2025-01-17T17:51:14.292Z</time>
      </trkpt>
      <trkpt lat="46.72567" lon="-1.9765">
        <ele>5.4</ele>
        <time>2025-01-17T17:51:15.291Z</time>
      </trkpt>
      <trkpt lat="46.72566" lon="-1.97652">
        <ele>5.5</ele>
        <time>2025-01-17T17:51:16.292Z</time>
      </trkpt>
      <trkpt lat="46.72564" lon="-1.97655">
        <ele>5.5</ele>
        <time>2025-01-17T17:51:17.292Z</time>
      </trkpt>
      <trkpt lat="46.72561" lon="-1.97657">
        <ele>5.7</ele>
        <time>2025-01-17T17:51:18.292Z</time>
      </trkpt>
      <trkpt lat="46.72558" lon="-1.97659">
        <ele>5.9</ele>
        <time>2025-01-17T17:51:19.291Z</time>
      </trkpt>
      <trkpt lat="46.72556" lon="-1.97661">
        <ele>6</ele>
        <time>2025-01-17T17:51:20.292Z</time>
      </trkpt>
      <trkpt lat="46.72554" lon="-1.97663">
        <ele>6.1</ele>
        <time>2025-01-17T17:51:21.291Z</time>
      </trkpt>
      <trkpt lat="46.72553" lon="-1.97663">
        <ele>6.2</ele>
        <time>2025-01-17T17:51:22.292Z</time>
      </trkpt>
      <trkpt lat="46.72552" lon="-1.97664">
        <ele>6.2</ele>
        <time>2025-01-17T17:51:23.292Z</time>
      </trkpt>
      <trkpt lat="46.72551" lon="-1.97666">
        <ele>6.3</ele>
        <time>2025-01-17T17:51:24.291Z</time>
      </trkpt>
      <trkpt lat="46.72549" lon="-1.97669">
        <ele>6.5</ele>
        <time>2025-01-17T17:51:25.291Z</time>
      </trkpt>
      <trkpt lat="46.72547" lon="-1.97674">
        <ele>6.6</ele>
        <time>2025-01-17T17:51:26.292Z</time>
      </trkpt>
      <trkpt lat="46.72545" lon="-1.97677">
        <ele>6.7</ele>
        <time>2025-01-17T17:51:27.291Z</time>
      </trkpt>
      <trkpt lat="46.72547" lon="-1.97681">
        <ele>6.6</ele>
        <time>2025-01-17T17:51:28.292Z</time>
      </trkpt>
      <trkpt lat="46.72548" lon="-1.97682">
        <ele>6.5</ele>
        <time>2025-01-17T17:51:29.291Z</time>
      </trkpt>
      <trkpt lat="46.72548" lon="-1.97683">
        <ele>6.5</ele>
        <time>2025-01-17T17:51:30.292Z</time>
      </trkpt>
      <trkpt lat="46.72547" lon="-1.97684">
        <ele>6.6</ele>
        <time>2025-01-17T17:51:31.291Z</time>
      </trkpt>
      <trkpt lat="46.72546" lon="-1.97685">
        <ele>6.7</ele>
        <time>2025-01-17T17:51:32.291Z</time>
      </trkpt>
      <trkpt lat="46.72544" lon="-1.97687">
        <ele>6.8</ele>
        <time>2025-01-17T17:51:33.292Z</time>
      </trkpt>
      <trkpt lat="46.72542" lon="-1.97689">
        <ele>7</ele>
        <time>2025-01-17T17:51:34.292Z</time>
      </trkpt>
      <trkpt lat="46.72541" lon="-1.97689">
        <ele>7</ele>
        <time>2025-01-17T17:51:35.291Z</time>
      </trkpt>
      <trkpt lat="46.7254" lon="-1.9769">
        <ele>7.1</ele>
        <time>2025-01-17T17:51:36.292Z</time>
      </trkpt>
      <trkpt lat="46.7254" lon="-1.97691">
        <ele>7.1</ele>
        <time>2025-01-17T17:51:37.291Z</time>
      </trkpt>
      <trkpt lat="46.72538" lon="-1.97692">
        <ele>7.2</ele>
        <time>2025-01-17T17:51:38.291Z</time>
      </trkpt>
      <trkpt lat="46.72537" lon="-1.97693">
        <ele>7.4</ele>
        <time>2025-01-17T17:51:39.291Z</time>
      </trkpt>
      <trkpt lat="46.72535" lon="-1.97694">
        <ele>7.5</ele>
        <time>2025-01-17T17:51:40.292Z</time>
      </trkpt>
      <trkpt lat="46.72534" lon="-1.97694">
        <ele>7.6</ele>
        <time>2025-01-17T17:51:41.291Z</time>
      </trkpt>
      <trkpt lat="46.72533" lon="-1.97695">
        <ele>7.6</ele>
        <time>2025-01-17T17:51:42.291Z</time>
      </trkpt>
      <trkpt lat="46.72532" lon="-1.97695">
        <ele>7.6</ele>
        <time>2025-01-17T17:51:43.291Z</time>
      </trkpt>
      <trkpt lat="46.72531" lon="-1.97696">
        <ele>7.6</ele>
        <time>2025-01-17T17:51:44.292Z</time>
      </trkpt>
      <trkpt lat="46.72531" lon="-1.97697">
        <ele>7.6</ele>
        <time>2025-01-17T17:51:45.291Z</time>
      </trkpt>
      <trkpt lat="46.7253" lon="-1.97698">
        <ele>7.6</ele>
        <time>2025-01-17T17:51:46.291Z</time>
      </trkpt>
      <trkpt lat="46.72529" lon="-1.97699">
        <ele>7.6</ele>
        <time>2025-01-17T17:51:47.291Z</time>
      </trkpt>
      <trkpt lat="46.72527" lon="-1.97701">
        <ele>7.4</ele>
        <time>2025-01-17T17:51:48.292Z</time>
      </trkpt>
      <trkpt lat="46.72525" lon="-1.97702">
        <ele>7.3</ele>
        <time>2025-01-17T17:51:49.291Z</time>
      </trkpt>
      <trkpt lat="46.72526" lon="-1.97701">
        <ele>7.4</ele>
        <time>2025-01-17T17:51:50.292Z</time>
      </trkpt>
      <trkpt lat="46.72526" lon="-1.977">
        <ele>7.5</ele>
        <time>2025-01-17T17:51:51.292Z</time>
      </trkpt>
      <trkpt lat="46.72526" lon="-1.977">
        <ele>7.5</ele>
        <time>2025-01-17T17:51:52.292Z</time>
      </trkpt>
    </trkseg>
  </trk>
</gpx>